<?xml version="1.0" encoding="UTF-8" standalone="no" ?>
<gpx xmlns="http://www.topografix.com/GPX/1/1" xmlns:xsi="http://www.w3.org/2001/XMLSchema-instance" xsi:schemaLocation="http://www.topografix.com/GPX/1/1 http://www.topografix.com/GPX/1/1/gpx.xsd" version="1.1" creator="VisuGPX - https://www.visugpx.com">
  <metadata>
    <name>VTT - Jouques Mirabeau</name>
    <desc><![CDATA[Sortie sans difficulté.
Une belle montée sur une piste puis un beau single pour tout redescendre.]]></desc>
  </metadata>
  <trk>
    <name><![CDATA[VTT - Venelles Mirabeau]]></name>
    <desc><![CDATA[Toujours terrain gras et collant]]></desc>
    <trkseg>
      <trkpt lat="43.63683" lon="5.63815">
        <ele>268.79998779297</ele>
        <time>2013-02-16T08:19:28.000Z</time>
      </trkpt>
      <trkpt lat="43.63688" lon="5.63809">
        <ele>269.79998779297</ele>
        <time>2013-02-16T08:19:43.000Z</time>
      </trkpt>
      <trkpt lat="43.63688" lon="5.63811">
        <ele>269.79998779297</ele>
        <time>2013-02-16T08:19:44.000Z</time>
      </trkpt>
      <trkpt lat="43.63696" lon="5.63821">
        <ele>270.79998779297</ele>
        <time>2013-02-16T08:19:47.000Z</time>
      </trkpt>
      <trkpt lat="43.63697" lon="5.63824">
        <ele>271</ele>
        <time>2013-02-16T08:19:48.000Z</time>
      </trkpt>
      <trkpt lat="43.63698" lon="5.63826">
        <ele>271.20001220703</ele>
        <time>2013-02-16T08:19:49.000Z</time>
      </trkpt>
      <trkpt lat="43.63698" lon="5.63828">
        <ele>271.20001220703</ele>
        <time>2013-02-16T08:19:50.000Z</time>
      </trkpt>
      <trkpt lat="43.63698" lon="5.6383">
        <ele>271.20001220703</ele>
        <time>2013-02-16T08:19:51.000Z</time>
      </trkpt>
      <trkpt lat="43.63698" lon="5.63832">
        <ele>271.20001220703</ele>
        <time>2013-02-16T08:19:52.000Z</time>
      </trkpt>
      <trkpt lat="43.63698" lon="5.63835">
        <ele>271.20001220703</ele>
        <time>2013-02-16T08:19:53.000Z</time>
      </trkpt>
      <trkpt lat="43.63699" lon="5.6384">
        <ele>271.20001220703</ele>
        <time>2013-02-16T08:19:55.000Z</time>
      </trkpt>
      <trkpt lat="43.637" lon="5.63841">
        <ele>271.39999389648</ele>
        <time>2013-02-16T08:19:56.000Z</time>
      </trkpt>
      <trkpt lat="43.63701" lon="5.63843">
        <ele>271.60000610352</ele>
        <time>2013-02-16T08:19:57.000Z</time>
      </trkpt>
      <trkpt lat="43.6371" lon="5.63873">
        <ele>272.60000610352</ele>
        <time>2013-02-16T08:20:07.000Z</time>
      </trkpt>
      <trkpt lat="43.63716" lon="5.63927">
        <ele>273</ele>
        <time>2013-02-16T08:20:17.000Z</time>
      </trkpt>
      <trkpt lat="43.63722" lon="5.6397">
        <ele>273.79998779297</ele>
        <time>2013-02-16T08:20:26.000Z</time>
      </trkpt>
      <trkpt lat="43.63724" lon="5.64028">
        <ele>274</ele>
        <time>2013-02-16T08:20:38.000Z</time>
      </trkpt>
      <trkpt lat="43.63719" lon="5.64086">
        <ele>273.20001220703</ele>
        <time>2013-02-16T08:20:49.000Z</time>
      </trkpt>
      <trkpt lat="43.63705" lon="5.64147">
        <ele>271.79998779297</ele>
        <time>2013-02-16T08:21:02.000Z</time>
      </trkpt>
      <trkpt lat="43.6369" lon="5.64209">
        <ele>269.79998779297</ele>
        <time>2013-02-16T08:21:14.000Z</time>
      </trkpt>
      <trkpt lat="43.63677" lon="5.64271">
        <ele>268.39999389648</ele>
        <time>2013-02-16T08:21:26.000Z</time>
      </trkpt>
      <trkpt lat="43.63683" lon="5.64288">
        <ele>269.39999389648</ele>
        <time>2013-02-16T08:21:30.000Z</time>
      </trkpt>
      <trkpt lat="43.63685" lon="5.64289">
        <ele>269.60000610352</ele>
        <time>2013-02-16T08:21:31.000Z</time>
      </trkpt>
      <trkpt lat="43.63688" lon="5.6429">
        <ele>270.20001220703</ele>
        <time>2013-02-16T08:21:32.000Z</time>
      </trkpt>
      <trkpt lat="43.63691" lon="5.64292">
        <ele>270.60000610352</ele>
        <time>2013-02-16T08:21:33.000Z</time>
      </trkpt>
      <trkpt lat="43.63693" lon="5.64293">
        <ele>270.79998779297</ele>
        <time>2013-02-16T08:21:34.000Z</time>
      </trkpt>
      <trkpt lat="43.63696" lon="5.64296">
        <ele>271.39999389648</ele>
        <time>2013-02-16T08:21:35.000Z</time>
      </trkpt>
      <trkpt lat="43.63699" lon="5.64299">
        <ele>272</ele>
        <time>2013-02-16T08:21:36.000Z</time>
      </trkpt>
      <trkpt lat="43.63708" lon="5.64317">
        <ele>273.60000610352</ele>
        <time>2013-02-16T08:21:42.000Z</time>
      </trkpt>
      <trkpt lat="43.63703" lon="5.64359">
        <ele>274</ele>
        <time>2013-02-16T08:21:51.000Z</time>
      </trkpt>
      <trkpt lat="43.63689" lon="5.64405">
        <ele>274</ele>
        <time>2013-02-16T08:22:01.000Z</time>
      </trkpt>
      <trkpt lat="43.63653" lon="5.64432">
        <ele>274.79998779297</ele>
        <time>2013-02-16T08:22:11.000Z</time>
      </trkpt>
      <trkpt lat="43.63607" lon="5.64467">
        <ele>277</ele>
        <time>2013-02-16T08:22:26.000Z</time>
      </trkpt>
      <trkpt lat="43.63588" lon="5.64519">
        <ele>279.79998779297</ele>
        <time>2013-02-16T08:22:38.000Z</time>
      </trkpt>
      <trkpt lat="43.63566" lon="5.64564">
        <ele>283.60000610352</ele>
        <time>2013-02-16T08:22:50.000Z</time>
      </trkpt>
      <trkpt lat="43.63556" lon="5.64606">
        <ele>285</ele>
        <time>2013-02-16T08:23:00.000Z</time>
      </trkpt>
      <trkpt lat="43.63555" lon="5.64659">
        <ele>285.60000610352</ele>
        <time>2013-02-16T08:23:12.000Z</time>
      </trkpt>
      <trkpt lat="43.63567" lon="5.64735">
        <ele>285.79998779297</ele>
        <time>2013-02-16T08:23:27.000Z</time>
      </trkpt>
      <trkpt lat="43.63574" lon="5.64792">
        <ele>285.60000610352</ele>
        <time>2013-02-16T08:23:39.000Z</time>
      </trkpt>
      <trkpt lat="43.63578" lon="5.64851">
        <ele>285</ele>
        <time>2013-02-16T08:23:51.000Z</time>
      </trkpt>
      <trkpt lat="43.63594" lon="5.64892">
        <ele>285</ele>
        <time>2013-02-16T08:24:01.000Z</time>
      </trkpt>
      <trkpt lat="43.63627" lon="5.64911">
        <ele>289.79998779297</ele>
        <time>2013-02-16T08:24:11.000Z</time>
      </trkpt>
      <trkpt lat="43.63639" lon="5.64948">
        <ele>290.20001220703</ele>
        <time>2013-02-16T08:24:20.000Z</time>
      </trkpt>
      <trkpt lat="43.63644" lon="5.64989">
        <ele>289</ele>
        <time>2013-02-16T08:24:29.000Z</time>
      </trkpt>
      <trkpt lat="43.63669" lon="5.65023">
        <ele>288.79998779297</ele>
        <time>2013-02-16T08:24:39.000Z</time>
      </trkpt>
      <trkpt lat="43.63701" lon="5.65055">
        <ele>295.39999389648</ele>
        <time>2013-02-16T08:24:50.000Z</time>
      </trkpt>
      <trkpt lat="43.63704" lon="5.65101">
        <ele>298</ele>
        <time>2013-02-16T08:24:59.000Z</time>
      </trkpt>
      <trkpt lat="43.63705" lon="5.65169">
        <ele>303.20001220703</ele>
        <time>2013-02-16T08:25:13.000Z</time>
      </trkpt>
      <trkpt lat="43.63702" lon="5.65224">
        <ele>300</ele>
        <time>2013-02-16T08:25:24.000Z</time>
      </trkpt>
      <trkpt lat="43.63715" lon="5.65278">
        <ele>300</ele>
        <time>2013-02-16T08:25:36.000Z</time>
      </trkpt>
      <trkpt lat="43.63741" lon="5.65301">
        <ele>299.60000610352</ele>
        <time>2013-02-16T08:25:46.000Z</time>
      </trkpt>
      <trkpt lat="43.63757" lon="5.65321">
        <ele>299.79998779297</ele>
        <time>2013-02-16T08:25:54.000Z</time>
      </trkpt>
      <trkpt lat="43.63758" lon="5.65326">
        <ele>299.79998779297</ele>
        <time>2013-02-16T08:25:55.000Z</time>
      </trkpt>
      <trkpt lat="43.63764" lon="5.65377">
        <ele>301.79998779297</ele>
        <time>2013-02-16T08:26:07.000Z</time>
      </trkpt>
      <trkpt lat="43.63783" lon="5.65424">
        <ele>302.79998779297</ele>
        <time>2013-02-16T08:26:18.000Z</time>
      </trkpt>
      <trkpt lat="43.63814" lon="5.65468">
        <ele>304.79998779297</ele>
        <time>2013-02-16T08:26:30.000Z</time>
      </trkpt>
      <trkpt lat="43.63854" lon="5.65492">
        <ele>306.60000610352</ele>
        <time>2013-02-16T08:26:42.000Z</time>
      </trkpt>
      <trkpt lat="43.63884" lon="5.6551">
        <ele>307.79998779297</ele>
        <time>2013-02-16T08:26:52.000Z</time>
      </trkpt>
      <trkpt lat="43.63916" lon="5.65519">
        <ele>308</ele>
        <time>2013-02-16T08:27:02.000Z</time>
      </trkpt>
      <trkpt lat="43.63943" lon="5.65535">
        <ele>311.60000610352</ele>
        <time>2013-02-16T08:27:11.000Z</time>
      </trkpt>
      <trkpt lat="43.63963" lon="5.6557">
        <ele>313.20001220703</ele>
        <time>2013-02-16T08:27:21.000Z</time>
      </trkpt>
      <trkpt lat="43.63987" lon="5.65618">
        <ele>312.60000610352</ele>
        <time>2013-02-16T08:27:34.000Z</time>
      </trkpt>
      <trkpt lat="43.6402" lon="5.65655">
        <ele>313.60000610352</ele>
        <time>2013-02-16T08:27:47.000Z</time>
      </trkpt>
      <trkpt lat="43.6405" lon="5.65685">
        <ele>315</ele>
        <time>2013-02-16T08:27:59.000Z</time>
      </trkpt>
      <trkpt lat="43.64059" lon="5.65694">
        <ele>315.39999389648</ele>
        <time>2013-02-16T08:28:03.000Z</time>
      </trkpt>
      <trkpt lat="43.64093" lon="5.6572">
        <ele>316.20001220703</ele>
        <time>2013-02-16T08:28:15.000Z</time>
      </trkpt>
      <trkpt lat="43.64128" lon="5.65739">
        <ele>318.79998779297</ele>
        <time>2013-02-16T08:28:28.000Z</time>
      </trkpt>
      <trkpt lat="43.64154" lon="5.65761">
        <ele>320</ele>
        <time>2013-02-16T08:28:39.000Z</time>
      </trkpt>
      <trkpt lat="43.64179" lon="5.65785">
        <ele>321</ele>
        <time>2013-02-16T08:28:50.000Z</time>
      </trkpt>
      <trkpt lat="43.64203" lon="5.65794">
        <ele>322.20001220703</ele>
        <time>2013-02-16T08:29:00.000Z</time>
      </trkpt>
      <trkpt lat="43.64234" lon="5.65795">
        <ele>324.79998779297</ele>
        <time>2013-02-16T08:29:11.000Z</time>
      </trkpt>
      <trkpt lat="43.64263" lon="5.65807">
        <ele>326.20001220703</ele>
        <time>2013-02-16T08:29:23.000Z</time>
      </trkpt>
      <trkpt lat="43.64284" lon="5.65829">
        <ele>326.79998779297</ele>
        <time>2013-02-16T08:29:34.000Z</time>
      </trkpt>
      <trkpt lat="43.64301" lon="5.65849">
        <ele>328.60000610352</ele>
        <time>2013-02-16T08:29:44.000Z</time>
      </trkpt>
      <trkpt lat="43.64319" lon="5.65854">
        <ele>330.39999389648</ele>
        <time>2013-02-16T08:29:53.000Z</time>
      </trkpt>
      <trkpt lat="43.64339" lon="5.65837">
        <ele>333.39999389648</ele>
        <time>2013-02-16T08:30:03.000Z</time>
      </trkpt>
      <trkpt lat="43.64362" lon="5.65832">
        <ele>337</ele>
        <time>2013-02-16T08:30:13.000Z</time>
      </trkpt>
      <trkpt lat="43.64384" lon="5.65848">
        <ele>338.79998779297</ele>
        <time>2013-02-16T08:30:23.000Z</time>
      </trkpt>
      <trkpt lat="43.64391" lon="5.65856">
        <ele>339.20001220703</ele>
        <time>2013-02-16T08:30:27.000Z</time>
      </trkpt>
      <trkpt lat="43.64393" lon="5.65858">
        <ele>339.20001220703</ele>
        <time>2013-02-16T08:30:28.000Z</time>
      </trkpt>
      <trkpt lat="43.64418" lon="5.6588">
        <ele>340</ele>
        <time>2013-02-16T08:30:40.000Z</time>
      </trkpt>
      <trkpt lat="43.64441" lon="5.65898">
        <ele>341</ele>
        <time>2013-02-16T08:30:51.000Z</time>
      </trkpt>
      <trkpt lat="43.64468" lon="5.65918">
        <ele>343.20001220703</ele>
        <time>2013-02-16T08:31:03.000Z</time>
      </trkpt>
      <trkpt lat="43.64493" lon="5.65937">
        <ele>346.39999389648</ele>
        <time>2013-02-16T08:31:14.000Z</time>
      </trkpt>
      <trkpt lat="43.64513" lon="5.65949">
        <ele>348.20001220703</ele>
        <time>2013-02-16T08:31:23.000Z</time>
      </trkpt>
      <trkpt lat="43.64535" lon="5.65952">
        <ele>349.79998779297</ele>
        <time>2013-02-16T08:31:32.000Z</time>
      </trkpt>
      <trkpt lat="43.64559" lon="5.65947">
        <ele>351.60000610352</ele>
        <time>2013-02-16T08:31:42.000Z</time>
      </trkpt>
      <trkpt lat="43.64585" lon="5.65942">
        <ele>353.60000610352</ele>
        <time>2013-02-16T08:31:53.000Z</time>
      </trkpt>
      <trkpt lat="43.64613" lon="5.65937">
        <ele>353.79998779297</ele>
        <time>2013-02-16T08:32:04.000Z</time>
      </trkpt>
      <trkpt lat="43.64641" lon="5.65934">
        <ele>354</ele>
        <time>2013-02-16T08:32:14.000Z</time>
      </trkpt>
      <trkpt lat="43.64684" lon="5.65948">
        <ele>354</ele>
        <time>2013-02-16T08:32:26.000Z</time>
      </trkpt>
      <trkpt lat="43.64687" lon="5.65948">
        <ele>353.79998779297</ele>
        <time>2013-02-16T08:32:27.000Z</time>
      </trkpt>
      <trkpt lat="43.6469" lon="5.65948">
        <ele>353.79998779297</ele>
        <time>2013-02-16T08:32:28.000Z</time>
      </trkpt>
      <trkpt lat="43.64693" lon="5.65948">
        <ele>353.79998779297</ele>
        <time>2013-02-16T08:32:29.000Z</time>
      </trkpt>
      <trkpt lat="43.64697" lon="5.65947">
        <ele>353.60000610352</ele>
        <time>2013-02-16T08:32:30.000Z</time>
      </trkpt>
      <trkpt lat="43.64701" lon="5.65946">
        <ele>353.60000610352</ele>
        <time>2013-02-16T08:32:31.000Z</time>
      </trkpt>
      <trkpt lat="43.6471" lon="5.65945">
        <ele>353.39999389648</ele>
        <time>2013-02-16T08:32:33.000Z</time>
      </trkpt>
      <trkpt lat="43.64714" lon="5.65945">
        <ele>353.20001220703</ele>
        <time>2013-02-16T08:32:34.000Z</time>
      </trkpt>
      <trkpt lat="43.64719" lon="5.65946">
        <ele>353.20001220703</ele>
        <time>2013-02-16T08:32:35.000Z</time>
      </trkpt>
      <trkpt lat="43.64732" lon="5.65952">
        <ele>353</ele>
        <time>2013-02-16T08:32:38.000Z</time>
      </trkpt>
      <trkpt lat="43.64787" lon="5.65979">
        <ele>353.20001220703</ele>
        <time>2013-02-16T08:32:51.000Z</time>
      </trkpt>
      <trkpt lat="43.64805" lon="5.65986">
        <ele>353.20001220703</ele>
        <time>2013-02-16T08:32:54.000Z</time>
      </trkpt>
      <trkpt lat="43.64839" lon="5.65994">
        <ele>352.79998779297</ele>
        <time>2013-02-16T08:33:01.000Z</time>
      </trkpt>
      <trkpt lat="43.64879" lon="5.66001">
        <ele>351.79998779297</ele>
        <time>2013-02-16T08:33:13.000Z</time>
      </trkpt>
      <trkpt lat="43.64919" lon="5.65996">
        <ele>351</ele>
        <time>2013-02-16T08:33:23.000Z</time>
      </trkpt>
      <trkpt lat="43.64956" lon="5.65986">
        <ele>351.20001220703</ele>
        <time>2013-02-16T08:33:34.000Z</time>
      </trkpt>
      <trkpt lat="43.64993" lon="5.65978">
        <ele>351.39999389648</ele>
        <time>2013-02-16T08:33:46.000Z</time>
      </trkpt>
      <trkpt lat="43.65008" lon="5.65979">
        <ele>351.20001220703</ele>
        <time>2013-02-16T08:33:50.000Z</time>
      </trkpt>
      <trkpt lat="43.65012" lon="5.6598">
        <ele>351</ele>
        <time>2013-02-16T08:33:51.000Z</time>
      </trkpt>
      <trkpt lat="43.65016" lon="5.6598">
        <ele>350.79998779297</ele>
        <time>2013-02-16T08:33:52.000Z</time>
      </trkpt>
      <trkpt lat="43.65043" lon="5.65987">
        <ele>349.79998779297</ele>
        <time>2013-02-16T08:33:59.000Z</time>
      </trkpt>
      <trkpt lat="43.65058" lon="5.65997">
        <ele>349.20001220703</ele>
        <time>2013-02-16T08:34:02.000Z</time>
      </trkpt>
      <trkpt lat="43.65063" lon="5.66001">
        <ele>349</ele>
        <time>2013-02-16T08:34:03.000Z</time>
      </trkpt>
      <trkpt lat="43.65098" lon="5.66021">
        <ele>349.39999389648</ele>
        <time>2013-02-16T08:34:09.000Z</time>
      </trkpt>
      <trkpt lat="43.65104" lon="5.66022">
        <ele>349.60000610352</ele>
        <time>2013-02-16T08:34:10.000Z</time>
      </trkpt>
      <trkpt lat="43.65132" lon="5.66023">
        <ele>350.60000610352</ele>
        <time>2013-02-16T08:34:15.000Z</time>
      </trkpt>
      <trkpt lat="43.65161" lon="5.66026">
        <ele>351.60000610352</ele>
        <time>2013-02-16T08:34:23.000Z</time>
      </trkpt>
      <trkpt lat="43.65175" lon="5.66037">
        <ele>353</ele>
        <time>2013-02-16T08:34:28.000Z</time>
      </trkpt>
      <trkpt lat="43.65176" lon="5.66041">
        <ele>353.20001220703</ele>
        <time>2013-02-16T08:34:29.000Z</time>
      </trkpt>
      <trkpt lat="43.6519" lon="5.66077">
        <ele>355</ele>
        <time>2013-02-16T08:34:39.000Z</time>
      </trkpt>
      <trkpt lat="43.652" lon="5.66085">
        <ele>355.60000610352</ele>
        <time>2013-02-16T08:34:43.000Z</time>
      </trkpt>
      <trkpt lat="43.65208" lon="5.66095">
        <ele>356.20001220703</ele>
        <time>2013-02-16T08:34:47.000Z</time>
      </trkpt>
      <trkpt lat="43.65223" lon="5.66128">
        <ele>358</ele>
        <time>2013-02-16T08:34:57.000Z</time>
      </trkpt>
      <trkpt lat="43.65241" lon="5.66157">
        <ele>360.60000610352</ele>
        <time>2013-02-16T08:35:07.000Z</time>
      </trkpt>
      <trkpt lat="43.65258" lon="5.66194">
        <ele>363</ele>
        <time>2013-02-16T08:35:18.000Z</time>
      </trkpt>
      <trkpt lat="43.65268" lon="5.66241">
        <ele>365.20001220703</ele>
        <time>2013-02-16T08:35:29.000Z</time>
      </trkpt>
      <trkpt lat="43.65289" lon="5.66266">
        <ele>366.20001220703</ele>
        <time>2013-02-16T08:35:37.000Z</time>
      </trkpt>
      <trkpt lat="43.65295" lon="5.66269">
        <ele>366.60000610352</ele>
        <time>2013-02-16T08:35:39.000Z</time>
      </trkpt>
      <trkpt lat="43.65335" lon="5.66287">
        <ele>368.39999389648</ele>
        <time>2013-02-16T08:35:52.000Z</time>
      </trkpt>
      <trkpt lat="43.65382" lon="5.66291">
        <ele>367.39999389648</ele>
        <time>2013-02-16T08:36:04.000Z</time>
      </trkpt>
      <trkpt lat="43.65387" lon="5.66289">
        <ele>367.39999389648</ele>
        <time>2013-02-16T08:36:05.000Z</time>
      </trkpt>
      <trkpt lat="43.65428" lon="5.66277">
        <ele>366.79998779297</ele>
        <time>2013-02-16T08:36:16.000Z</time>
      </trkpt>
      <trkpt lat="43.65457" lon="5.66281">
        <ele>368.60000610352</ele>
        <time>2013-02-16T08:36:25.000Z</time>
      </trkpt>
      <trkpt lat="43.6549" lon="5.66291">
        <ele>370.79998779297</ele>
        <time>2013-02-16T08:36:35.000Z</time>
      </trkpt>
      <trkpt lat="43.65525" lon="5.66308">
        <ele>373.60000610352</ele>
        <time>2013-02-16T08:36:46.000Z</time>
      </trkpt>
      <trkpt lat="43.65566" lon="5.66331">
        <ele>376.79998779297</ele>
        <time>2013-02-16T08:36:59.000Z</time>
      </trkpt>
      <trkpt lat="43.65589" lon="5.66356">
        <ele>378.39999389648</ele>
        <time>2013-02-16T08:37:10.000Z</time>
      </trkpt>
      <trkpt lat="43.65602" lon="5.66373">
        <ele>379</ele>
        <time>2013-02-16T08:37:16.000Z</time>
      </trkpt>
      <trkpt lat="43.65626" lon="5.66413">
        <ele>380.79998779297</ele>
        <time>2013-02-16T08:37:28.000Z</time>
      </trkpt>
      <trkpt lat="43.65659" lon="5.66458">
        <ele>384</ele>
        <time>2013-02-16T08:37:41.000Z</time>
      </trkpt>
      <trkpt lat="43.65693" lon="5.66502">
        <ele>384.60000610352</ele>
        <time>2013-02-16T08:37:53.000Z</time>
      </trkpt>
      <trkpt lat="43.65718" lon="5.66534">
        <ele>384.20001220703</ele>
        <time>2013-02-16T08:38:03.000Z</time>
      </trkpt>
      <trkpt lat="43.65745" lon="5.66567">
        <ele>383.79998779297</ele>
        <time>2013-02-16T08:38:12.000Z</time>
      </trkpt>
      <trkpt lat="43.65745" lon="5.66572">
        <ele>383.79998779297</ele>
        <time>2013-02-16T08:38:13.000Z</time>
      </trkpt>
      <trkpt lat="43.65745" lon="5.66577">
        <ele>384</ele>
        <time>2013-02-16T08:38:14.000Z</time>
      </trkpt>
      <trkpt lat="43.65743" lon="5.66581">
        <ele>384.20001220703</ele>
        <time>2013-02-16T08:38:15.000Z</time>
      </trkpt>
      <trkpt lat="43.6574" lon="5.66585">
        <ele>384.39999389648</ele>
        <time>2013-02-16T08:38:16.000Z</time>
      </trkpt>
      <trkpt lat="43.65738" lon="5.66588">
        <ele>384.39999389648</ele>
        <time>2013-02-16T08:38:17.000Z</time>
      </trkpt>
      <trkpt lat="43.65736" lon="5.66592">
        <ele>384.60000610352</ele>
        <time>2013-02-16T08:38:18.000Z</time>
      </trkpt>
      <trkpt lat="43.65734" lon="5.66596">
        <ele>384.60000610352</ele>
        <time>2013-02-16T08:38:19.000Z</time>
      </trkpt>
      <trkpt lat="43.65732" lon="5.666">
        <ele>384.79998779297</ele>
        <time>2013-02-16T08:38:20.000Z</time>
      </trkpt>
      <trkpt lat="43.65723" lon="5.66615">
        <ele>385.20001220703</ele>
        <time>2013-02-16T08:38:25.000Z</time>
      </trkpt>
      <trkpt lat="43.65724" lon="5.66618">
        <ele>385.20001220703</ele>
        <time>2013-02-16T08:38:26.000Z</time>
      </trkpt>
      <trkpt lat="43.65755" lon="5.66647">
        <ele>383.79998779297</ele>
        <time>2013-02-16T08:38:33.000Z</time>
      </trkpt>
      <trkpt lat="43.65781" lon="5.66666">
        <ele>383.79998779297</ele>
        <time>2013-02-16T08:38:39.000Z</time>
      </trkpt>
      <trkpt lat="43.65784" lon="5.66669">
        <ele>384</ele>
        <time>2013-02-16T08:38:40.000Z</time>
      </trkpt>
      <trkpt lat="43.65811" lon="5.66689">
        <ele>384.39999389648</ele>
        <time>2013-02-16T08:38:48.000Z</time>
      </trkpt>
      <trkpt lat="43.65814" lon="5.66687">
        <ele>384.39999389648</ele>
        <time>2013-02-16T08:38:49.000Z</time>
      </trkpt>
      <trkpt lat="43.65816" lon="5.66684">
        <ele>384.39999389648</ele>
        <time>2013-02-16T08:38:50.000Z</time>
      </trkpt>
      <trkpt lat="43.65818" lon="5.6668">
        <ele>384.20001220703</ele>
        <time>2013-02-16T08:38:51.000Z</time>
      </trkpt>
      <trkpt lat="43.6582" lon="5.66675">
        <ele>384.20001220703</ele>
        <time>2013-02-16T08:38:52.000Z</time>
      </trkpt>
      <trkpt lat="43.65821" lon="5.66671">
        <ele>384</ele>
        <time>2013-02-16T08:38:53.000Z</time>
      </trkpt>
      <trkpt lat="43.65823" lon="5.66666">
        <ele>383.79998779297</ele>
        <time>2013-02-16T08:38:54.000Z</time>
      </trkpt>
      <trkpt lat="43.65825" lon="5.66662">
        <ele>383.60000610352</ele>
        <time>2013-02-16T08:38:55.000Z</time>
      </trkpt>
      <trkpt lat="43.65828" lon="5.6666">
        <ele>383.60000610352</ele>
        <time>2013-02-16T08:38:56.000Z</time>
      </trkpt>
      <trkpt lat="43.65831" lon="5.66659">
        <ele>383.60000610352</ele>
        <time>2013-02-16T08:38:57.000Z</time>
      </trkpt>
      <trkpt lat="43.65834" lon="5.66661">
        <ele>383.60000610352</ele>
        <time>2013-02-16T08:38:58.000Z</time>
      </trkpt>
      <trkpt lat="43.65837" lon="5.66664">
        <ele>384</ele>
        <time>2013-02-16T08:38:59.000Z</time>
      </trkpt>
      <trkpt lat="43.65838" lon="5.66665">
        <ele>384.20001220703</ele>
        <time>2013-02-16T08:39:00.000Z</time>
      </trkpt>
      <trkpt lat="43.65837" lon="5.66668">
        <ele>384.20001220703</ele>
        <time>2013-02-16T08:39:04.000Z</time>
      </trkpt>
      <trkpt lat="43.65836" lon="5.66669">
        <ele>384.20001220703</ele>
        <time>2013-02-16T08:39:16.000Z</time>
      </trkpt>
      <trkpt lat="43.65836" lon="5.66669">
        <ele>384.20001220703</ele>
        <time>2013-02-16T08:39:41.000Z</time>
      </trkpt>
      <trkpt lat="43.65838" lon="5.66671">
        <ele>384.39999389648</ele>
        <time>2013-02-16T08:40:10.000Z</time>
      </trkpt>
      <trkpt lat="43.6584" lon="5.66669">
        <ele>384.39999389648</ele>
        <time>2013-02-16T08:40:20.000Z</time>
      </trkpt>
      <trkpt lat="43.65842" lon="5.66669">
        <ele>384.60000610352</ele>
        <time>2013-02-16T08:40:21.000Z</time>
      </trkpt>
      <trkpt lat="43.65844" lon="5.66669">
        <ele>384.79998779297</ele>
        <time>2013-02-16T08:40:22.000Z</time>
      </trkpt>
      <trkpt lat="43.65845" lon="5.66668">
        <ele>384.79998779297</ele>
        <time>2013-02-16T08:40:23.000Z</time>
      </trkpt>
      <trkpt lat="43.65847" lon="5.66666">
        <ele>384.79998779297</ele>
        <time>2013-02-16T08:40:24.000Z</time>
      </trkpt>
      <trkpt lat="43.65849" lon="5.66664">
        <ele>384.79998779297</ele>
        <time>2013-02-16T08:40:25.000Z</time>
      </trkpt>
      <trkpt lat="43.6585" lon="5.66663">
        <ele>384.79998779297</ele>
        <time>2013-02-16T08:40:26.000Z</time>
      </trkpt>
      <trkpt lat="43.65852" lon="5.66661">
        <ele>384.79998779297</ele>
        <time>2013-02-16T08:40:27.000Z</time>
      </trkpt>
      <trkpt lat="43.65854" lon="5.66659">
        <ele>385</ele>
        <time>2013-02-16T08:40:28.000Z</time>
      </trkpt>
      <trkpt lat="43.65856" lon="5.66659">
        <ele>385</ele>
        <time>2013-02-16T08:40:29.000Z</time>
      </trkpt>
      <trkpt lat="43.65858" lon="5.66658">
        <ele>385.20001220703</ele>
        <time>2013-02-16T08:40:30.000Z</time>
      </trkpt>
      <trkpt lat="43.65861" lon="5.66658">
        <ele>385.39999389648</ele>
        <time>2013-02-16T08:40:31.000Z</time>
      </trkpt>
      <trkpt lat="43.65863" lon="5.66658">
        <ele>385.39999389648</ele>
        <time>2013-02-16T08:40:32.000Z</time>
      </trkpt>
      <trkpt lat="43.65865" lon="5.66658">
        <ele>385.60000610352</ele>
        <time>2013-02-16T08:40:33.000Z</time>
      </trkpt>
      <trkpt lat="43.65867" lon="5.66657">
        <ele>385.79998779297</ele>
        <time>2013-02-16T08:40:34.000Z</time>
      </trkpt>
      <trkpt lat="43.6587" lon="5.66656">
        <ele>385.79998779297</ele>
        <time>2013-02-16T08:40:35.000Z</time>
      </trkpt>
      <trkpt lat="43.65872" lon="5.66655">
        <ele>385.79998779297</ele>
        <time>2013-02-16T08:40:36.000Z</time>
      </trkpt>
      <trkpt lat="43.65874" lon="5.66654">
        <ele>386</ele>
        <time>2013-02-16T08:40:37.000Z</time>
      </trkpt>
      <trkpt lat="43.65876" lon="5.66654">
        <ele>386</ele>
        <time>2013-02-16T08:40:38.000Z</time>
      </trkpt>
      <trkpt lat="43.65878" lon="5.66655">
        <ele>386.20001220703</ele>
        <time>2013-02-16T08:40:39.000Z</time>
      </trkpt>
      <trkpt lat="43.6588" lon="5.66656">
        <ele>386.39999389648</ele>
        <time>2013-02-16T08:40:40.000Z</time>
      </trkpt>
      <trkpt lat="43.65881" lon="5.66657">
        <ele>386.60000610352</ele>
        <time>2013-02-16T08:40:41.000Z</time>
      </trkpt>
      <trkpt lat="43.65882" lon="5.66657">
        <ele>386.79998779297</ele>
        <time>2013-02-16T08:40:42.000Z</time>
      </trkpt>
      <trkpt lat="43.65884" lon="5.66658">
        <ele>386.79998779297</ele>
        <time>2013-02-16T08:40:43.000Z</time>
      </trkpt>
      <trkpt lat="43.65886" lon="5.66659">
        <ele>387</ele>
        <time>2013-02-16T08:40:44.000Z</time>
      </trkpt>
      <trkpt lat="43.65887" lon="5.6666">
        <ele>387.20001220703</ele>
        <time>2013-02-16T08:40:45.000Z</time>
      </trkpt>
      <trkpt lat="43.65888" lon="5.66662">
        <ele>387.60000610352</ele>
        <time>2013-02-16T08:40:46.000Z</time>
      </trkpt>
      <trkpt lat="43.65889" lon="5.66665">
        <ele>387.79998779297</ele>
        <time>2013-02-16T08:40:47.000Z</time>
      </trkpt>
      <trkpt lat="43.65889" lon="5.66668">
        <ele>388</ele>
        <time>2013-02-16T08:40:48.000Z</time>
      </trkpt>
      <trkpt lat="43.6589" lon="5.66672">
        <ele>388.20001220703</ele>
        <time>2013-02-16T08:40:49.000Z</time>
      </trkpt>
      <trkpt lat="43.65892" lon="5.66676">
        <ele>388.39999389648</ele>
        <time>2013-02-16T08:40:50.000Z</time>
      </trkpt>
      <trkpt lat="43.65894" lon="5.6668">
        <ele>388.79998779297</ele>
        <time>2013-02-16T08:40:51.000Z</time>
      </trkpt>
      <trkpt lat="43.65897" lon="5.66682">
        <ele>389</ele>
        <time>2013-02-16T08:40:52.000Z</time>
      </trkpt>
      <trkpt lat="43.659" lon="5.66684">
        <ele>389.39999389648</ele>
        <time>2013-02-16T08:40:53.000Z</time>
      </trkpt>
      <trkpt lat="43.65918" lon="5.66687">
        <ele>390.60000610352</ele>
        <time>2013-02-16T08:41:01.000Z</time>
      </trkpt>
      <trkpt lat="43.65944" lon="5.66693">
        <ele>391.20001220703</ele>
        <time>2013-02-16T08:41:12.000Z</time>
      </trkpt>
      <trkpt lat="43.65974" lon="5.66701">
        <ele>392</ele>
        <time>2013-02-16T08:41:22.000Z</time>
      </trkpt>
      <trkpt lat="43.65992" lon="5.66714">
        <ele>393.20001220703</ele>
        <time>2013-02-16T08:41:29.000Z</time>
      </trkpt>
      <trkpt lat="43.65993" lon="5.66717">
        <ele>393.39999389648</ele>
        <time>2013-02-16T08:41:30.000Z</time>
      </trkpt>
      <trkpt lat="43.65994" lon="5.66724">
        <ele>394</ele>
        <time>2013-02-16T08:41:32.000Z</time>
      </trkpt>
      <trkpt lat="43.65996" lon="5.66727">
        <ele>394.20001220703</ele>
        <time>2013-02-16T08:41:33.000Z</time>
      </trkpt>
      <trkpt lat="43.65998" lon="5.6673">
        <ele>394.39999389648</ele>
        <time>2013-02-16T08:41:34.000Z</time>
      </trkpt>
      <trkpt lat="43.66012" lon="5.6677">
        <ele>396</ele>
        <time>2013-02-16T08:41:43.000Z</time>
      </trkpt>
      <trkpt lat="43.66021" lon="5.66806">
        <ele>396.39999389648</ele>
        <time>2013-02-16T08:41:52.000Z</time>
      </trkpt>
      <trkpt lat="43.66035" lon="5.66835">
        <ele>397</ele>
        <time>2013-02-16T08:41:59.000Z</time>
      </trkpt>
      <trkpt lat="43.6605" lon="5.66859">
        <ele>397.60000610352</ele>
        <time>2013-02-16T08:42:05.000Z</time>
      </trkpt>
      <trkpt lat="43.66053" lon="5.66861">
        <ele>397.60000610352</ele>
        <time>2013-02-16T08:42:06.000Z</time>
      </trkpt>
      <trkpt lat="43.66056" lon="5.66863">
        <ele>397.79998779297</ele>
        <time>2013-02-16T08:42:07.000Z</time>
      </trkpt>
      <trkpt lat="43.6606" lon="5.66866">
        <ele>397.79998779297</ele>
        <time>2013-02-16T08:42:08.000Z</time>
      </trkpt>
      <trkpt lat="43.66062" lon="5.66869">
        <ele>398</ele>
        <time>2013-02-16T08:42:09.000Z</time>
      </trkpt>
      <trkpt lat="43.66064" lon="5.66873">
        <ele>398.20001220703</ele>
        <time>2013-02-16T08:42:10.000Z</time>
      </trkpt>
      <trkpt lat="43.66066" lon="5.66877">
        <ele>398.20001220703</ele>
        <time>2013-02-16T08:42:11.000Z</time>
      </trkpt>
      <trkpt lat="43.66069" lon="5.66881">
        <ele>398.39999389648</ele>
        <time>2013-02-16T08:42:12.000Z</time>
      </trkpt>
      <trkpt lat="43.66091" lon="5.66906">
        <ele>399</ele>
        <time>2013-02-16T08:42:20.000Z</time>
      </trkpt>
      <trkpt lat="43.66093" lon="5.66919">
        <ele>399.39999389648</ele>
        <time>2013-02-16T08:42:23.000Z</time>
      </trkpt>
      <trkpt lat="43.66109" lon="5.66956">
        <ele>399.39999389648</ele>
        <time>2013-02-16T08:42:32.000Z</time>
      </trkpt>
      <trkpt lat="43.66111" lon="5.66971">
        <ele>399.60000610352</ele>
        <time>2013-02-16T08:42:35.000Z</time>
      </trkpt>
      <trkpt lat="43.6611" lon="5.66977">
        <ele>399.79998779297</ele>
        <time>2013-02-16T08:42:36.000Z</time>
      </trkpt>
      <trkpt lat="43.66108" lon="5.66988">
        <ele>400.20001220703</ele>
        <time>2013-02-16T08:42:38.000Z</time>
      </trkpt>
      <trkpt lat="43.66107" lon="5.66994">
        <ele>400.39999389648</ele>
        <time>2013-02-16T08:42:39.000Z</time>
      </trkpt>
      <trkpt lat="43.66107" lon="5.67">
        <ele>400.39999389648</ele>
        <time>2013-02-16T08:42:40.000Z</time>
      </trkpt>
      <trkpt lat="43.66108" lon="5.67006">
        <ele>400.39999389648</ele>
        <time>2013-02-16T08:42:41.000Z</time>
      </trkpt>
      <trkpt lat="43.66109" lon="5.67012">
        <ele>400.39999389648</ele>
        <time>2013-02-16T08:42:42.000Z</time>
      </trkpt>
      <trkpt lat="43.66111" lon="5.67018">
        <ele>400.20001220703</ele>
        <time>2013-02-16T08:42:43.000Z</time>
      </trkpt>
      <trkpt lat="43.66112" lon="5.67024">
        <ele>400.20001220703</ele>
        <time>2013-02-16T08:42:44.000Z</time>
      </trkpt>
      <trkpt lat="43.66116" lon="5.67049">
        <ele>400</ele>
        <time>2013-02-16T08:42:48.000Z</time>
      </trkpt>
      <trkpt lat="43.66117" lon="5.67055">
        <ele>400</ele>
        <time>2013-02-16T08:42:49.000Z</time>
      </trkpt>
      <trkpt lat="43.66125" lon="5.67091">
        <ele>400</ele>
        <time>2013-02-16T08:42:55.000Z</time>
      </trkpt>
      <trkpt lat="43.66127" lon="5.67096">
        <ele>400</ele>
        <time>2013-02-16T08:42:56.000Z</time>
      </trkpt>
      <trkpt lat="43.66132" lon="5.67105">
        <ele>400</ele>
        <time>2013-02-16T08:42:58.000Z</time>
      </trkpt>
      <trkpt lat="43.66138" lon="5.67114">
        <ele>400</ele>
        <time>2013-02-16T08:43:00.000Z</time>
      </trkpt>
      <trkpt lat="43.66141" lon="5.67119">
        <ele>400.20001220703</ele>
        <time>2013-02-16T08:43:01.000Z</time>
      </trkpt>
      <trkpt lat="43.66143" lon="5.67124">
        <ele>400.20001220703</ele>
        <time>2013-02-16T08:43:02.000Z</time>
      </trkpt>
      <trkpt lat="43.66147" lon="5.67128">
        <ele>400.20001220703</ele>
        <time>2013-02-16T08:43:03.000Z</time>
      </trkpt>
      <trkpt lat="43.6615" lon="5.67132">
        <ele>400.20001220703</ele>
        <time>2013-02-16T08:43:04.000Z</time>
      </trkpt>
      <trkpt lat="43.66163" lon="5.67148">
        <ele>400.39999389648</ele>
        <time>2013-02-16T08:43:08.000Z</time>
      </trkpt>
      <trkpt lat="43.66174" lon="5.67165">
        <ele>400.79998779297</ele>
        <time>2013-02-16T08:43:12.000Z</time>
      </trkpt>
      <trkpt lat="43.66175" lon="5.67171">
        <ele>400.79998779297</ele>
        <time>2013-02-16T08:43:13.000Z</time>
      </trkpt>
      <trkpt lat="43.66176" lon="5.67176">
        <ele>400.79998779297</ele>
        <time>2013-02-16T08:43:14.000Z</time>
      </trkpt>
      <trkpt lat="43.66191" lon="5.67204">
        <ele>401.20001220703</ele>
        <time>2013-02-16T08:43:21.000Z</time>
      </trkpt>
      <trkpt lat="43.66194" lon="5.67208">
        <ele>401.20001220703</ele>
        <time>2013-02-16T08:43:22.000Z</time>
      </trkpt>
      <trkpt lat="43.66196" lon="5.67212">
        <ele>401.39999389648</ele>
        <time>2013-02-16T08:43:23.000Z</time>
      </trkpt>
      <trkpt lat="43.66199" lon="5.67216">
        <ele>401.39999389648</ele>
        <time>2013-02-16T08:43:24.000Z</time>
      </trkpt>
      <trkpt lat="43.662" lon="5.67221">
        <ele>401.60000610352</ele>
        <time>2013-02-16T08:43:25.000Z</time>
      </trkpt>
      <trkpt lat="43.66202" lon="5.67225">
        <ele>401.60000610352</ele>
        <time>2013-02-16T08:43:26.000Z</time>
      </trkpt>
      <trkpt lat="43.66202" lon="5.67229">
        <ele>401.79998779297</ele>
        <time>2013-02-16T08:43:27.000Z</time>
      </trkpt>
      <trkpt lat="43.66202" lon="5.67233">
        <ele>401.79998779297</ele>
        <time>2013-02-16T08:43:28.000Z</time>
      </trkpt>
      <trkpt lat="43.66201" lon="5.67237">
        <ele>402</ele>
        <time>2013-02-16T08:43:29.000Z</time>
      </trkpt>
      <trkpt lat="43.662" lon="5.67241">
        <ele>402</ele>
        <time>2013-02-16T08:43:30.000Z</time>
      </trkpt>
      <trkpt lat="43.662" lon="5.67245">
        <ele>402.20001220703</ele>
        <time>2013-02-16T08:43:31.000Z</time>
      </trkpt>
      <trkpt lat="43.66199" lon="5.67249">
        <ele>402.20001220703</ele>
        <time>2013-02-16T08:43:32.000Z</time>
      </trkpt>
      <trkpt lat="43.66199" lon="5.67253">
        <ele>402.39999389648</ele>
        <time>2013-02-16T08:43:33.000Z</time>
      </trkpt>
      <trkpt lat="43.662" lon="5.67257">
        <ele>402.60000610352</ele>
        <time>2013-02-16T08:43:34.000Z</time>
      </trkpt>
      <trkpt lat="43.66197" lon="5.67285">
        <ele>403.39999389648</ele>
        <time>2013-02-16T08:43:42.000Z</time>
      </trkpt>
      <trkpt lat="43.66197" lon="5.67291">
        <ele>403.60000610352</ele>
        <time>2013-02-16T08:43:44.000Z</time>
      </trkpt>
      <trkpt lat="43.66199" lon="5.67294">
        <ele>403.79998779297</ele>
        <time>2013-02-16T08:43:45.000Z</time>
      </trkpt>
      <trkpt lat="43.66219" lon="5.67317">
        <ele>405.20001220703</ele>
        <time>2013-02-16T08:43:55.000Z</time>
      </trkpt>
      <trkpt lat="43.66231" lon="5.67343">
        <ele>406.39999389648</ele>
        <time>2013-02-16T08:44:04.000Z</time>
      </trkpt>
      <trkpt lat="43.66243" lon="5.67372">
        <ele>407.39999389648</ele>
        <time>2013-02-16T08:44:13.000Z</time>
      </trkpt>
      <trkpt lat="43.66261" lon="5.67422">
        <ele>409</ele>
        <time>2013-02-16T08:44:27.000Z</time>
      </trkpt>
      <trkpt lat="43.66279" lon="5.67453">
        <ele>408.60000610352</ele>
        <time>2013-02-16T08:44:37.000Z</time>
      </trkpt>
      <trkpt lat="43.66284" lon="5.67453">
        <ele>408.79998779297</ele>
        <time>2013-02-16T08:44:39.000Z</time>
      </trkpt>
      <trkpt lat="43.66287" lon="5.67451">
        <ele>408.79998779297</ele>
        <time>2013-02-16T08:44:40.000Z</time>
      </trkpt>
      <trkpt lat="43.66289" lon="5.6745">
        <ele>409</ele>
        <time>2013-02-16T08:44:41.000Z</time>
      </trkpt>
      <trkpt lat="43.66316" lon="5.6743">
        <ele>409.60000610352</ele>
        <time>2013-02-16T08:44:52.000Z</time>
      </trkpt>
      <trkpt lat="43.66344" lon="5.67441">
        <ele>410</ele>
        <time>2013-02-16T08:45:02.000Z</time>
      </trkpt>
      <trkpt lat="43.6636" lon="5.67462">
        <ele>410.20001220703</ele>
        <time>2013-02-16T08:45:13.000Z</time>
      </trkpt>
      <trkpt lat="43.66362" lon="5.6746">
        <ele>410.20001220703</ele>
        <time>2013-02-16T08:45:24.000Z</time>
      </trkpt>
      <trkpt lat="43.66361" lon="5.67459">
        <ele>410.20001220703</ele>
        <time>2013-02-16T08:45:40.000Z</time>
      </trkpt>
      <trkpt lat="43.6636" lon="5.67457">
        <ele>410.20001220703</ele>
        <time>2013-02-16T08:45:53.000Z</time>
      </trkpt>
      <trkpt lat="43.66363" lon="5.67457">
        <ele>410.20001220703</ele>
        <time>2013-02-16T08:46:18.000Z</time>
      </trkpt>
      <trkpt lat="43.66363" lon="5.67461">
        <ele>410.20001220703</ele>
        <time>2013-02-16T08:46:38.000Z</time>
      </trkpt>
      <trkpt lat="43.6637" lon="5.67469">
        <ele>410.39999389648</ele>
        <time>2013-02-16T08:46:48.000Z</time>
      </trkpt>
      <trkpt lat="43.6638" lon="5.67496">
        <ele>410.39999389648</ele>
        <time>2013-02-16T08:46:56.000Z</time>
      </trkpt>
      <trkpt lat="43.66379" lon="5.6754">
        <ele>410</ele>
        <time>2013-02-16T08:47:05.000Z</time>
      </trkpt>
      <trkpt lat="43.66379" lon="5.67552">
        <ele>409.79998779297</ele>
        <time>2013-02-16T08:47:07.000Z</time>
      </trkpt>
      <trkpt lat="43.6638" lon="5.67564">
        <ele>409.60000610352</ele>
        <time>2013-02-16T08:47:09.000Z</time>
      </trkpt>
      <trkpt lat="43.66385" lon="5.67599">
        <ele>409.20001220703</ele>
        <time>2013-02-16T08:47:14.000Z</time>
      </trkpt>
      <trkpt lat="43.66387" lon="5.67606">
        <ele>409</ele>
        <time>2013-02-16T08:47:15.000Z</time>
      </trkpt>
      <trkpt lat="43.6639" lon="5.67612">
        <ele>409</ele>
        <time>2013-02-16T08:47:16.000Z</time>
      </trkpt>
      <trkpt lat="43.66394" lon="5.67617">
        <ele>408.79998779297</ele>
        <time>2013-02-16T08:47:17.000Z</time>
      </trkpt>
      <trkpt lat="43.66397" lon="5.67621">
        <ele>408.79998779297</ele>
        <time>2013-02-16T08:47:18.000Z</time>
      </trkpt>
      <trkpt lat="43.6641" lon="5.67631">
        <ele>408.60000610352</ele>
        <time>2013-02-16T08:47:22.000Z</time>
      </trkpt>
      <trkpt lat="43.66414" lon="5.67635">
        <ele>408.60000610352</ele>
        <time>2013-02-16T08:47:23.000Z</time>
      </trkpt>
      <trkpt lat="43.66418" lon="5.67639">
        <ele>408.60000610352</ele>
        <time>2013-02-16T08:47:24.000Z</time>
      </trkpt>
      <trkpt lat="43.66422" lon="5.67643">
        <ele>408.60000610352</ele>
        <time>2013-02-16T08:47:25.000Z</time>
      </trkpt>
      <trkpt lat="43.66426" lon="5.67648">
        <ele>408.60000610352</ele>
        <time>2013-02-16T08:47:26.000Z</time>
      </trkpt>
      <trkpt lat="43.66448" lon="5.67667">
        <ele>409</ele>
        <time>2013-02-16T08:47:33.000Z</time>
      </trkpt>
      <trkpt lat="43.66465" lon="5.67691">
        <ele>409</ele>
        <time>2013-02-16T08:47:40.000Z</time>
      </trkpt>
      <trkpt lat="43.66489" lon="5.67706">
        <ele>409.60000610352</ele>
        <time>2013-02-16T08:47:49.000Z</time>
      </trkpt>
      <trkpt lat="43.66511" lon="5.67724">
        <ele>410</ele>
        <time>2013-02-16T08:47:58.000Z</time>
      </trkpt>
      <trkpt lat="43.66531" lon="5.67754">
        <ele>410.60000610352</ele>
        <time>2013-02-16T08:48:07.000Z</time>
      </trkpt>
      <trkpt lat="43.66539" lon="5.67763">
        <ele>411.20001220703</ele>
        <time>2013-02-16T08:48:11.000Z</time>
      </trkpt>
      <trkpt lat="43.66561" lon="5.67778">
        <ele>413</ele>
        <time>2013-02-16T08:48:21.000Z</time>
      </trkpt>
      <trkpt lat="43.66568" lon="5.67795">
        <ele>414.20001220703</ele>
        <time>2013-02-16T08:48:28.000Z</time>
      </trkpt>
      <trkpt lat="43.66593" lon="5.67818">
        <ele>416.39999389648</ele>
        <time>2013-02-16T08:48:40.000Z</time>
      </trkpt>
      <trkpt lat="43.66596" lon="5.67819">
        <ele>416.60000610352</ele>
        <time>2013-02-16T08:48:41.000Z</time>
      </trkpt>
      <trkpt lat="43.66598" lon="5.67818">
        <ele>416.60000610352</ele>
        <time>2013-02-16T08:48:42.000Z</time>
      </trkpt>
      <trkpt lat="43.66601" lon="5.67817">
        <ele>416.60000610352</ele>
        <time>2013-02-16T08:48:43.000Z</time>
      </trkpt>
      <trkpt lat="43.66603" lon="5.67817">
        <ele>416.60000610352</ele>
        <time>2013-02-16T08:48:44.000Z</time>
      </trkpt>
      <trkpt lat="43.66606" lon="5.67818">
        <ele>416.79998779297</ele>
        <time>2013-02-16T08:48:45.000Z</time>
      </trkpt>
      <trkpt lat="43.66609" lon="5.6782">
        <ele>417</ele>
        <time>2013-02-16T08:48:46.000Z</time>
      </trkpt>
      <trkpt lat="43.66611" lon="5.67822">
        <ele>417.20001220703</ele>
        <time>2013-02-16T08:48:47.000Z</time>
      </trkpt>
      <trkpt lat="43.66614" lon="5.67824">
        <ele>417.20001220703</ele>
        <time>2013-02-16T08:48:48.000Z</time>
      </trkpt>
      <trkpt lat="43.66616" lon="5.67826">
        <ele>417.39999389648</ele>
        <time>2013-02-16T08:48:49.000Z</time>
      </trkpt>
      <trkpt lat="43.66619" lon="5.67829">
        <ele>417.60000610352</ele>
        <time>2013-02-16T08:48:50.000Z</time>
      </trkpt>
      <trkpt lat="43.66622" lon="5.67831">
        <ele>417.79998779297</ele>
        <time>2013-02-16T08:48:51.000Z</time>
      </trkpt>
      <trkpt lat="43.66625" lon="5.67832">
        <ele>417.79998779297</ele>
        <time>2013-02-16T08:48:52.000Z</time>
      </trkpt>
      <trkpt lat="43.66629" lon="5.67833">
        <ele>418</ele>
        <time>2013-02-16T08:48:53.000Z</time>
      </trkpt>
      <trkpt lat="43.66633" lon="5.67833">
        <ele>418</ele>
        <time>2013-02-16T08:48:54.000Z</time>
      </trkpt>
      <trkpt lat="43.66672" lon="5.67842">
        <ele>419.20001220703</ele>
        <time>2013-02-16T08:49:06.000Z</time>
      </trkpt>
      <trkpt lat="43.66694" lon="5.67848">
        <ele>419.60000610352</ele>
        <time>2013-02-16T08:49:14.000Z</time>
      </trkpt>
      <trkpt lat="43.66738" lon="5.67859">
        <ele>419.79998779297</ele>
        <time>2013-02-16T08:49:28.000Z</time>
      </trkpt>
      <trkpt lat="43.66777" lon="5.67871">
        <ele>420.39999389648</ele>
        <time>2013-02-16T08:49:39.000Z</time>
      </trkpt>
      <trkpt lat="43.66818" lon="5.6788">
        <ele>421.20001220703</ele>
        <time>2013-02-16T08:49:50.000Z</time>
      </trkpt>
      <trkpt lat="43.66857" lon="5.67865">
        <ele>422.20001220703</ele>
        <time>2013-02-16T08:50:01.000Z</time>
      </trkpt>
      <trkpt lat="43.66899" lon="5.67836">
        <ele>423.39999389648</ele>
        <time>2013-02-16T08:50:13.000Z</time>
      </trkpt>
      <trkpt lat="43.66943" lon="5.67806">
        <ele>424.60000610352</ele>
        <time>2013-02-16T08:50:25.000Z</time>
      </trkpt>
      <trkpt lat="43.66972" lon="5.67787">
        <ele>425.79998779297</ele>
        <time>2013-02-16T08:50:32.000Z</time>
      </trkpt>
      <trkpt lat="43.67015" lon="5.67766">
        <ele>427.60000610352</ele>
        <time>2013-02-16T08:50:42.000Z</time>
      </trkpt>
      <trkpt lat="43.67063" lon="5.67776">
        <ele>429.60000610352</ele>
        <time>2013-02-16T08:50:54.000Z</time>
      </trkpt>
      <trkpt lat="43.67108" lon="5.6779">
        <ele>432</ele>
        <time>2013-02-16T08:51:03.000Z</time>
      </trkpt>
      <trkpt lat="43.67137" lon="5.67797">
        <ele>433.60000610352</ele>
        <time>2013-02-16T08:51:09.000Z</time>
      </trkpt>
      <trkpt lat="43.6718" lon="5.67808">
        <ele>435.39999389648</ele>
        <time>2013-02-16T08:51:20.000Z</time>
      </trkpt>
      <trkpt lat="43.67241" lon="5.67823">
        <ele>433.79998779297</ele>
        <time>2013-02-16T08:51:33.000Z</time>
      </trkpt>
      <trkpt lat="43.67312" lon="5.67838">
        <ele>428.20001220703</ele>
        <time>2013-02-16T08:51:48.000Z</time>
      </trkpt>
      <trkpt lat="43.67316" lon="5.67839">
        <ele>428</ele>
        <time>2013-02-16T08:51:49.000Z</time>
      </trkpt>
      <trkpt lat="43.67321" lon="5.67841">
        <ele>427.60000610352</ele>
        <time>2013-02-16T08:51:50.000Z</time>
      </trkpt>
      <trkpt lat="43.67339" lon="5.67845">
        <ele>426.79998779297</ele>
        <time>2013-02-16T08:51:54.000Z</time>
      </trkpt>
      <trkpt lat="43.67389" lon="5.6786">
        <ele>427</ele>
        <time>2013-02-16T08:52:05.000Z</time>
      </trkpt>
      <trkpt lat="43.67394" lon="5.67862">
        <ele>427</ele>
        <time>2013-02-16T08:52:06.000Z</time>
      </trkpt>
      <trkpt lat="43.67471" lon="5.67888">
        <ele>424.60000610352</ele>
        <time>2013-02-16T08:52:22.000Z</time>
      </trkpt>
      <trkpt lat="43.6748" lon="5.67895">
        <ele>424.39999389648</ele>
        <time>2013-02-16T08:52:24.000Z</time>
      </trkpt>
      <trkpt lat="43.67485" lon="5.67898">
        <ele>424.20001220703</ele>
        <time>2013-02-16T08:52:25.000Z</time>
      </trkpt>
      <trkpt lat="43.67514" lon="5.67922">
        <ele>423</ele>
        <time>2013-02-16T08:52:32.000Z</time>
      </trkpt>
      <trkpt lat="43.67528" lon="5.67932">
        <ele>422.20001220703</ele>
        <time>2013-02-16T08:52:35.000Z</time>
      </trkpt>
      <trkpt lat="43.67533" lon="5.67934">
        <ele>421.79998779297</ele>
        <time>2013-02-16T08:52:36.000Z</time>
      </trkpt>
      <trkpt lat="43.67545" lon="5.67937">
        <ele>421</ele>
        <time>2013-02-16T08:52:38.000Z</time>
      </trkpt>
      <trkpt lat="43.67564" lon="5.67943">
        <ele>419.79998779297</ele>
        <time>2013-02-16T08:52:41.000Z</time>
      </trkpt>
      <trkpt lat="43.67617" lon="5.67957">
        <ele>418</ele>
        <time>2013-02-16T08:52:49.000Z</time>
      </trkpt>
      <trkpt lat="43.67689" lon="5.67975">
        <ele>417.39999389648</ele>
        <time>2013-02-16T08:53:00.000Z</time>
      </trkpt>
      <trkpt lat="43.67742" lon="5.67992">
        <ele>417.39999389648</ele>
        <time>2013-02-16T08:53:10.000Z</time>
      </trkpt>
      <trkpt lat="43.67747" lon="5.67996">
        <ele>417.60000610352</ele>
        <time>2013-02-16T08:53:11.000Z</time>
      </trkpt>
      <trkpt lat="43.67795" lon="5.68042">
        <ele>417.39999389648</ele>
        <time>2013-02-16T08:53:21.000Z</time>
      </trkpt>
      <trkpt lat="43.67801" lon="5.68046">
        <ele>417.20001220703</ele>
        <time>2013-02-16T08:53:22.000Z</time>
      </trkpt>
      <trkpt lat="43.67806" lon="5.68049">
        <ele>416.79998779297</ele>
        <time>2013-02-16T08:53:23.000Z</time>
      </trkpt>
      <trkpt lat="43.67812" lon="5.68052">
        <ele>416.39999389648</ele>
        <time>2013-02-16T08:53:24.000Z</time>
      </trkpt>
      <trkpt lat="43.67818" lon="5.68053">
        <ele>416</ele>
        <time>2013-02-16T08:53:25.000Z</time>
      </trkpt>
      <trkpt lat="43.67824" lon="5.68053">
        <ele>415.39999389648</ele>
        <time>2013-02-16T08:53:26.000Z</time>
      </trkpt>
      <trkpt lat="43.6783" lon="5.68052">
        <ele>414.60000610352</ele>
        <time>2013-02-16T08:53:27.000Z</time>
      </trkpt>
      <trkpt lat="43.67837" lon="5.68051">
        <ele>414.39999389648</ele>
        <time>2013-02-16T08:53:28.000Z</time>
      </trkpt>
      <trkpt lat="43.67843" lon="5.68048">
        <ele>414.39999389648</ele>
        <time>2013-02-16T08:53:29.000Z</time>
      </trkpt>
      <trkpt lat="43.67849" lon="5.68044">
        <ele>414.39999389648</ele>
        <time>2013-02-16T08:53:30.000Z</time>
      </trkpt>
      <trkpt lat="43.67918" lon="5.68006">
        <ele>417.20001220703</ele>
        <time>2013-02-16T08:53:43.000Z</time>
      </trkpt>
      <trkpt lat="43.67979" lon="5.67978">
        <ele>419.60000610352</ele>
        <time>2013-02-16T08:53:55.000Z</time>
      </trkpt>
      <trkpt lat="43.68005" lon="5.67968">
        <ele>420.79998779297</ele>
        <time>2013-02-16T08:54:03.000Z</time>
      </trkpt>
      <trkpt lat="43.68009" lon="5.67967">
        <ele>420.79998779297</ele>
        <time>2013-02-16T08:54:07.000Z</time>
      </trkpt>
      <trkpt lat="43.68008" lon="5.67965">
        <ele>420.79998779297</ele>
        <time>2013-02-16T08:54:08.000Z</time>
      </trkpt>
      <trkpt lat="43.68007" lon="5.67963">
        <ele>420.79998779297</ele>
        <time>2013-02-16T08:54:09.000Z</time>
      </trkpt>
      <trkpt lat="43.68005" lon="5.67964">
        <ele>420.79998779297</ele>
        <time>2013-02-16T08:54:10.000Z</time>
      </trkpt>
      <trkpt lat="43.68002" lon="5.67964">
        <ele>420.79998779297</ele>
        <time>2013-02-16T08:54:11.000Z</time>
      </trkpt>
      <trkpt lat="43.67999" lon="5.67964">
        <ele>420.79998779297</ele>
        <time>2013-02-16T08:54:12.000Z</time>
      </trkpt>
      <trkpt lat="43.67997" lon="5.67963">
        <ele>420.60000610352</ele>
        <time>2013-02-16T08:54:13.000Z</time>
      </trkpt>
      <trkpt lat="43.67996" lon="5.67959">
        <ele>420.60000610352</ele>
        <time>2013-02-16T08:54:14.000Z</time>
      </trkpt>
      <trkpt lat="43.67996" lon="5.67956">
        <ele>420.60000610352</ele>
        <time>2013-02-16T08:54:15.000Z</time>
      </trkpt>
      <trkpt lat="43.67997" lon="5.67952">
        <ele>420.60000610352</ele>
        <time>2013-02-16T08:54:16.000Z</time>
      </trkpt>
      <trkpt lat="43.68005" lon="5.67912">
        <ele>421</ele>
        <time>2013-02-16T08:54:24.000Z</time>
      </trkpt>
      <trkpt lat="43.68011" lon="5.67875">
        <ele>422.20001220703</ele>
        <time>2013-02-16T08:54:33.000Z</time>
      </trkpt>
      <trkpt lat="43.68021" lon="5.67835">
        <ele>424.20001220703</ele>
        <time>2013-02-16T08:54:44.000Z</time>
      </trkpt>
      <trkpt lat="43.68015" lon="5.67768">
        <ele>425.39999389648</ele>
        <time>2013-02-16T08:54:57.000Z</time>
      </trkpt>
      <trkpt lat="43.68004" lon="5.67679">
        <ele>425</ele>
        <time>2013-02-16T08:55:11.000Z</time>
      </trkpt>
      <trkpt lat="43.68008" lon="5.6764">
        <ele>424.20001220703</ele>
        <time>2013-02-16T08:55:17.000Z</time>
      </trkpt>
      <trkpt lat="43.68008" lon="5.67607">
        <ele>423.20001220703</ele>
        <time>2013-02-16T08:55:22.000Z</time>
      </trkpt>
      <trkpt lat="43.68009" lon="5.67601">
        <ele>423</ele>
        <time>2013-02-16T08:55:23.000Z</time>
      </trkpt>
      <trkpt lat="43.68017" lon="5.6752">
        <ele>423.39999389648</ele>
        <time>2013-02-16T08:55:35.000Z</time>
      </trkpt>
      <trkpt lat="43.68026" lon="5.67494">
        <ele>424.20001220703</ele>
        <time>2013-02-16T08:55:39.000Z</time>
      </trkpt>
      <trkpt lat="43.68032" lon="5.67477">
        <ele>424.39999389648</ele>
        <time>2013-02-16T08:55:42.000Z</time>
      </trkpt>
      <trkpt lat="43.68039" lon="5.67454">
        <ele>424.60000610352</ele>
        <time>2013-02-16T08:55:46.000Z</time>
      </trkpt>
      <trkpt lat="43.68041" lon="5.67449">
        <ele>424.60000610352</ele>
        <time>2013-02-16T08:55:47.000Z</time>
      </trkpt>
      <trkpt lat="43.68065" lon="5.67406">
        <ele>425</ele>
        <time>2013-02-16T08:55:57.000Z</time>
      </trkpt>
      <trkpt lat="43.68076" lon="5.67383">
        <ele>425.39999389648</ele>
        <time>2013-02-16T08:56:05.000Z</time>
      </trkpt>
      <trkpt lat="43.68087" lon="5.67371">
        <ele>426</ele>
        <time>2013-02-16T08:56:09.000Z</time>
      </trkpt>
      <trkpt lat="43.68091" lon="5.6737">
        <ele>426.20001220703</ele>
        <time>2013-02-16T08:56:10.000Z</time>
      </trkpt>
      <trkpt lat="43.68095" lon="5.67369">
        <ele>426.20001220703</ele>
        <time>2013-02-16T08:56:11.000Z</time>
      </trkpt>
      <trkpt lat="43.68131" lon="5.67368">
        <ele>427.20001220703</ele>
        <time>2013-02-16T08:56:21.000Z</time>
      </trkpt>
      <trkpt lat="43.68147" lon="5.67353">
        <ele>427.60000610352</ele>
        <time>2013-02-16T08:56:26.000Z</time>
      </trkpt>
      <trkpt lat="43.68176" lon="5.67311">
        <ele>427</ele>
        <time>2013-02-16T08:56:37.000Z</time>
      </trkpt>
      <trkpt lat="43.68193" lon="5.67273">
        <ele>425.79998779297</ele>
        <time>2013-02-16T08:56:45.000Z</time>
      </trkpt>
      <trkpt lat="43.68196" lon="5.67239">
        <ele>424</ele>
        <time>2013-02-16T08:56:52.000Z</time>
      </trkpt>
      <trkpt lat="43.68197" lon="5.67233">
        <ele>423.60000610352</ele>
        <time>2013-02-16T08:56:53.000Z</time>
      </trkpt>
      <trkpt lat="43.682" lon="5.67224">
        <ele>422.79998779297</ele>
        <time>2013-02-16T08:56:55.000Z</time>
      </trkpt>
      <trkpt lat="43.68201" lon="5.67221">
        <ele>422.60000610352</ele>
        <time>2013-02-16T08:56:56.000Z</time>
      </trkpt>
      <trkpt lat="43.68202" lon="5.6722">
        <ele>422.60000610352</ele>
        <time>2013-02-16T08:56:57.000Z</time>
      </trkpt>
      <trkpt lat="43.68205" lon="5.6722">
        <ele>422.79998779297</ele>
        <time>2013-02-16T08:56:58.000Z</time>
      </trkpt>
      <trkpt lat="43.68208" lon="5.67221">
        <ele>423</ele>
        <time>2013-02-16T08:56:59.000Z</time>
      </trkpt>
      <trkpt lat="43.68212" lon="5.67222">
        <ele>423.20001220703</ele>
        <time>2013-02-16T08:57:00.000Z</time>
      </trkpt>
      <trkpt lat="43.68216" lon="5.67223">
        <ele>423.39999389648</ele>
        <time>2013-02-16T08:57:01.000Z</time>
      </trkpt>
      <trkpt lat="43.6822" lon="5.67225">
        <ele>423.60000610352</ele>
        <time>2013-02-16T08:57:02.000Z</time>
      </trkpt>
      <trkpt lat="43.68242" lon="5.67233">
        <ele>425.20001220703</ele>
        <time>2013-02-16T08:57:10.000Z</time>
      </trkpt>
      <trkpt lat="43.6827" lon="5.67236">
        <ele>424.79998779297</ele>
        <time>2013-02-16T08:57:19.000Z</time>
      </trkpt>
      <trkpt lat="43.68274" lon="5.67237">
        <ele>424.79998779297</ele>
        <time>2013-02-16T08:57:20.000Z</time>
      </trkpt>
      <trkpt lat="43.68279" lon="5.67237">
        <ele>424.60000610352</ele>
        <time>2013-02-16T08:57:21.000Z</time>
      </trkpt>
      <trkpt lat="43.68299" lon="5.6723">
        <ele>423.20001220703</ele>
        <time>2013-02-16T08:57:28.000Z</time>
      </trkpt>
      <trkpt lat="43.68317" lon="5.67225">
        <ele>422.20001220703</ele>
        <time>2013-02-16T08:57:36.000Z</time>
      </trkpt>
      <trkpt lat="43.68324" lon="5.67232">
        <ele>422.20001220703</ele>
        <time>2013-02-16T08:57:39.000Z</time>
      </trkpt>
      <trkpt lat="43.68331" lon="5.67237">
        <ele>422.20001220703</ele>
        <time>2013-02-16T08:57:42.000Z</time>
      </trkpt>
      <trkpt lat="43.68333" lon="5.6724">
        <ele>422.39999389648</ele>
        <time>2013-02-16T08:57:43.000Z</time>
      </trkpt>
      <trkpt lat="43.68335" lon="5.67243">
        <ele>422.20001220703</ele>
        <time>2013-02-16T08:57:44.000Z</time>
      </trkpt>
      <trkpt lat="43.68336" lon="5.67246">
        <ele>422</ele>
        <time>2013-02-16T08:57:45.000Z</time>
      </trkpt>
      <trkpt lat="43.68338" lon="5.67249">
        <ele>421.79998779297</ele>
        <time>2013-02-16T08:57:46.000Z</time>
      </trkpt>
      <trkpt lat="43.68345" lon="5.67261">
        <ele>420.39999389648</ele>
        <time>2013-02-16T08:57:49.000Z</time>
      </trkpt>
      <trkpt lat="43.68349" lon="5.67265">
        <ele>419.79998779297</ele>
        <time>2013-02-16T08:57:50.000Z</time>
      </trkpt>
      <trkpt lat="43.68352" lon="5.67271">
        <ele>419</ele>
        <time>2013-02-16T08:57:51.000Z</time>
      </trkpt>
      <trkpt lat="43.68355" lon="5.67277">
        <ele>418.39999389648</ele>
        <time>2013-02-16T08:57:52.000Z</time>
      </trkpt>
      <trkpt lat="43.68359" lon="5.67281">
        <ele>417.60000610352</ele>
        <time>2013-02-16T08:57:53.000Z</time>
      </trkpt>
      <trkpt lat="43.68362" lon="5.67285">
        <ele>416.79998779297</ele>
        <time>2013-02-16T08:57:54.000Z</time>
      </trkpt>
      <trkpt lat="43.68365" lon="5.67289">
        <ele>416.39999389648</ele>
        <time>2013-02-16T08:57:55.000Z</time>
      </trkpt>
      <trkpt lat="43.68366" lon="5.67292">
        <ele>415.79998779297</ele>
        <time>2013-02-16T08:57:56.000Z</time>
      </trkpt>
      <trkpt lat="43.68368" lon="5.67296">
        <ele>415.39999389648</ele>
        <time>2013-02-16T08:57:57.000Z</time>
      </trkpt>
      <trkpt lat="43.68377" lon="5.6732">
        <ele>413.20001220703</ele>
        <time>2013-02-16T08:58:02.000Z</time>
      </trkpt>
      <trkpt lat="43.68377" lon="5.67326">
        <ele>413</ele>
        <time>2013-02-16T08:58:03.000Z</time>
      </trkpt>
      <trkpt lat="43.68377" lon="5.67333">
        <ele>412.79998779297</ele>
        <time>2013-02-16T08:58:04.000Z</time>
      </trkpt>
      <trkpt lat="43.68377" lon="5.67339">
        <ele>412.39999389648</ele>
        <time>2013-02-16T08:58:05.000Z</time>
      </trkpt>
      <trkpt lat="43.68376" lon="5.67346">
        <ele>412.20001220703</ele>
        <time>2013-02-16T08:58:06.000Z</time>
      </trkpt>
      <trkpt lat="43.68375" lon="5.67353">
        <ele>412.20001220703</ele>
        <time>2013-02-16T08:58:07.000Z</time>
      </trkpt>
      <trkpt lat="43.68374" lon="5.67359">
        <ele>412</ele>
        <time>2013-02-16T08:58:08.000Z</time>
      </trkpt>
      <trkpt lat="43.68373" lon="5.67371">
        <ele>411.39999389648</ele>
        <time>2013-02-16T08:58:10.000Z</time>
      </trkpt>
      <trkpt lat="43.68372" lon="5.67376">
        <ele>411.39999389648</ele>
        <time>2013-02-16T08:58:11.000Z</time>
      </trkpt>
      <trkpt lat="43.68372" lon="5.6738">
        <ele>411.20001220703</ele>
        <time>2013-02-16T08:58:12.000Z</time>
      </trkpt>
      <trkpt lat="43.68373" lon="5.67384">
        <ele>410.60000610352</ele>
        <time>2013-02-16T08:58:14.000Z</time>
      </trkpt>
      <trkpt lat="43.68374" lon="5.67384">
        <ele>410.39999389648</ele>
        <time>2013-02-16T08:58:15.000Z</time>
      </trkpt>
      <trkpt lat="43.68383" lon="5.67368">
        <ele>409</ele>
        <time>2013-02-16T08:58:21.000Z</time>
      </trkpt>
      <trkpt lat="43.68383" lon="5.67363">
        <ele>409.39999389648</ele>
        <time>2013-02-16T08:58:22.000Z</time>
      </trkpt>
      <trkpt lat="43.68387" lon="5.67339">
        <ele>410</ele>
        <time>2013-02-16T08:58:29.000Z</time>
      </trkpt>
      <trkpt lat="43.68394" lon="5.67306">
        <ele>409.20001220703</ele>
        <time>2013-02-16T08:58:36.000Z</time>
      </trkpt>
      <trkpt lat="43.68404" lon="5.67261">
        <ele>408.20001220703</ele>
        <time>2013-02-16T08:58:44.000Z</time>
      </trkpt>
      <trkpt lat="43.68405" lon="5.67258">
        <ele>408.20001220703</ele>
        <time>2013-02-16T08:58:45.000Z</time>
      </trkpt>
      <trkpt lat="43.68408" lon="5.67253">
        <ele>407.60000610352</ele>
        <time>2013-02-16T08:58:50.000Z</time>
      </trkpt>
      <trkpt lat="43.68409" lon="5.67255">
        <ele>407.20001220703</ele>
        <time>2013-02-16T08:58:51.000Z</time>
      </trkpt>
      <trkpt lat="43.6841" lon="5.67258">
        <ele>407</ele>
        <time>2013-02-16T08:58:52.000Z</time>
      </trkpt>
      <trkpt lat="43.68412" lon="5.67261">
        <ele>406.60000610352</ele>
        <time>2013-02-16T08:58:53.000Z</time>
      </trkpt>
      <trkpt lat="43.68413" lon="5.67266">
        <ele>406</ele>
        <time>2013-02-16T08:58:54.000Z</time>
      </trkpt>
      <trkpt lat="43.68415" lon="5.67271">
        <ele>405.60000610352</ele>
        <time>2013-02-16T08:58:55.000Z</time>
      </trkpt>
      <trkpt lat="43.68416" lon="5.67277">
        <ele>405</ele>
        <time>2013-02-16T08:58:56.000Z</time>
      </trkpt>
      <trkpt lat="43.68417" lon="5.67282">
        <ele>404.39999389648</ele>
        <time>2013-02-16T08:58:57.000Z</time>
      </trkpt>
      <trkpt lat="43.68418" lon="5.67288">
        <ele>404</ele>
        <time>2013-02-16T08:58:58.000Z</time>
      </trkpt>
      <trkpt lat="43.68419" lon="5.67295">
        <ele>403.39999389648</ele>
        <time>2013-02-16T08:58:59.000Z</time>
      </trkpt>
      <trkpt lat="43.6842" lon="5.67302">
        <ele>403</ele>
        <time>2013-02-16T08:59:00.000Z</time>
      </trkpt>
      <trkpt lat="43.68423" lon="5.67327">
        <ele>401</ele>
        <time>2013-02-16T08:59:03.000Z</time>
      </trkpt>
      <trkpt lat="43.68423" lon="5.67335">
        <ele>400.39999389648</ele>
        <time>2013-02-16T08:59:04.000Z</time>
      </trkpt>
      <trkpt lat="43.68423" lon="5.67341">
        <ele>399.79998779297</ele>
        <time>2013-02-16T08:59:05.000Z</time>
      </trkpt>
      <trkpt lat="43.68423" lon="5.67345">
        <ele>399.60000610352</ele>
        <time>2013-02-16T08:59:06.000Z</time>
      </trkpt>
      <trkpt lat="43.68423" lon="5.67349">
        <ele>399.20001220703</ele>
        <time>2013-02-16T08:59:07.000Z</time>
      </trkpt>
      <trkpt lat="43.68423" lon="5.67353">
        <ele>398.79998779297</ele>
        <time>2013-02-16T08:59:08.000Z</time>
      </trkpt>
      <trkpt lat="43.68423" lon="5.67357">
        <ele>398.39999389648</ele>
        <time>2013-02-16T08:59:09.000Z</time>
      </trkpt>
      <trkpt lat="43.68424" lon="5.67369">
        <ele>397.20001220703</ele>
        <time>2013-02-16T08:59:11.000Z</time>
      </trkpt>
      <trkpt lat="43.68425" lon="5.67375">
        <ele>396.39999389648</ele>
        <time>2013-02-16T08:59:12.000Z</time>
      </trkpt>
      <trkpt lat="43.68426" lon="5.6738">
        <ele>395.39999389648</ele>
        <time>2013-02-16T08:59:13.000Z</time>
      </trkpt>
      <trkpt lat="43.68428" lon="5.67386">
        <ele>394.20001220703</ele>
        <time>2013-02-16T08:59:14.000Z</time>
      </trkpt>
      <trkpt lat="43.6843" lon="5.67393">
        <ele>393</ele>
        <time>2013-02-16T08:59:15.000Z</time>
      </trkpt>
      <trkpt lat="43.68431" lon="5.67399">
        <ele>392.20001220703</ele>
        <time>2013-02-16T08:59:16.000Z</time>
      </trkpt>
      <trkpt lat="43.68432" lon="5.67404">
        <ele>391.39999389648</ele>
        <time>2013-02-16T08:59:17.000Z</time>
      </trkpt>
      <trkpt lat="43.68434" lon="5.67407">
        <ele>390.60000610352</ele>
        <time>2013-02-16T08:59:18.000Z</time>
      </trkpt>
      <trkpt lat="43.68436" lon="5.67408">
        <ele>390</ele>
        <time>2013-02-16T08:59:19.000Z</time>
      </trkpt>
      <trkpt lat="43.68438" lon="5.67408">
        <ele>389.20001220703</ele>
        <time>2013-02-16T08:59:20.000Z</time>
      </trkpt>
      <trkpt lat="43.6844" lon="5.67407">
        <ele>388.60000610352</ele>
        <time>2013-02-16T08:59:21.000Z</time>
      </trkpt>
      <trkpt lat="43.68443" lon="5.67405">
        <ele>388</ele>
        <time>2013-02-16T08:59:22.000Z</time>
      </trkpt>
      <trkpt lat="43.68445" lon="5.67404">
        <ele>387.60000610352</ele>
        <time>2013-02-16T08:59:23.000Z</time>
      </trkpt>
      <trkpt lat="43.68451" lon="5.67394">
        <ele>386.39999389648</ele>
        <time>2013-02-16T08:59:31.000Z</time>
      </trkpt>
      <trkpt lat="43.68457" lon="5.67385">
        <ele>385</ele>
        <time>2013-02-16T08:59:37.000Z</time>
      </trkpt>
      <trkpt lat="43.68459" lon="5.67386">
        <ele>384.39999389648</ele>
        <time>2013-02-16T08:59:38.000Z</time>
      </trkpt>
      <trkpt lat="43.68461" lon="5.67388">
        <ele>383.60000610352</ele>
        <time>2013-02-16T08:59:39.000Z</time>
      </trkpt>
      <trkpt lat="43.68462" lon="5.67391">
        <ele>383</ele>
        <time>2013-02-16T08:59:40.000Z</time>
      </trkpt>
      <trkpt lat="43.68464" lon="5.67394">
        <ele>382.20001220703</ele>
        <time>2013-02-16T08:59:41.000Z</time>
      </trkpt>
      <trkpt lat="43.68466" lon="5.67399">
        <ele>381.39999389648</ele>
        <time>2013-02-16T08:59:42.000Z</time>
      </trkpt>
      <trkpt lat="43.68467" lon="5.67404">
        <ele>380.60000610352</ele>
        <time>2013-02-16T08:59:43.000Z</time>
      </trkpt>
      <trkpt lat="43.6847" lon="5.67407">
        <ele>379.60000610352</ele>
        <time>2013-02-16T08:59:44.000Z</time>
      </trkpt>
      <trkpt lat="43.68472" lon="5.67411">
        <ele>378.60000610352</ele>
        <time>2013-02-16T08:59:45.000Z</time>
      </trkpt>
      <trkpt lat="43.68474" lon="5.67413">
        <ele>377.79998779297</ele>
        <time>2013-02-16T08:59:46.000Z</time>
      </trkpt>
      <trkpt lat="43.68477" lon="5.67416">
        <ele>377</ele>
        <time>2013-02-16T08:59:47.000Z</time>
      </trkpt>
      <trkpt lat="43.68479" lon="5.67419">
        <ele>376.20001220703</ele>
        <time>2013-02-16T08:59:48.000Z</time>
      </trkpt>
      <trkpt lat="43.68481" lon="5.67422">
        <ele>375.39999389648</ele>
        <time>2013-02-16T08:59:49.000Z</time>
      </trkpt>
      <trkpt lat="43.68483" lon="5.67425">
        <ele>374.39999389648</ele>
        <time>2013-02-16T08:59:50.000Z</time>
      </trkpt>
      <trkpt lat="43.68487" lon="5.67427">
        <ele>373.20001220703</ele>
        <time>2013-02-16T08:59:51.000Z</time>
      </trkpt>
      <trkpt lat="43.6849" lon="5.67428">
        <ele>372.20001220703</ele>
        <time>2013-02-16T08:59:52.000Z</time>
      </trkpt>
      <trkpt lat="43.68493" lon="5.67427">
        <ele>371.39999389648</ele>
        <time>2013-02-16T08:59:53.000Z</time>
      </trkpt>
      <trkpt lat="43.68496" lon="5.67427">
        <ele>370.60000610352</ele>
        <time>2013-02-16T08:59:54.000Z</time>
      </trkpt>
      <trkpt lat="43.68515" lon="5.67436">
        <ele>366</ele>
        <time>2013-02-16T08:59:59.000Z</time>
      </trkpt>
      <trkpt lat="43.68521" lon="5.67444">
        <ele>364.39999389648</ele>
        <time>2013-02-16T09:00:01.000Z</time>
      </trkpt>
      <trkpt lat="43.68524" lon="5.67449">
        <ele>363.79998779297</ele>
        <time>2013-02-16T09:00:02.000Z</time>
      </trkpt>
      <trkpt lat="43.68528" lon="5.67453">
        <ele>363</ele>
        <time>2013-02-16T09:00:03.000Z</time>
      </trkpt>
      <trkpt lat="43.68532" lon="5.67457">
        <ele>362.39999389648</ele>
        <time>2013-02-16T09:00:04.000Z</time>
      </trkpt>
      <trkpt lat="43.68535" lon="5.67459">
        <ele>361.60000610352</ele>
        <time>2013-02-16T09:00:05.000Z</time>
      </trkpt>
      <trkpt lat="43.6854" lon="5.6746">
        <ele>361</ele>
        <time>2013-02-16T09:00:06.000Z</time>
      </trkpt>
      <trkpt lat="43.68544" lon="5.67461">
        <ele>360.39999389648</ele>
        <time>2013-02-16T09:00:07.000Z</time>
      </trkpt>
      <trkpt lat="43.68547" lon="5.67462">
        <ele>359.79998779297</ele>
        <time>2013-02-16T09:00:08.000Z</time>
      </trkpt>
      <trkpt lat="43.68551" lon="5.67464">
        <ele>359.20001220703</ele>
        <time>2013-02-16T09:00:09.000Z</time>
      </trkpt>
      <trkpt lat="43.68555" lon="5.67466">
        <ele>358.60000610352</ele>
        <time>2013-02-16T09:00:10.000Z</time>
      </trkpt>
      <trkpt lat="43.68559" lon="5.67467">
        <ele>358</ele>
        <time>2013-02-16T09:00:11.000Z</time>
      </trkpt>
      <trkpt lat="43.68562" lon="5.67467">
        <ele>357.39999389648</ele>
        <time>2013-02-16T09:00:12.000Z</time>
      </trkpt>
      <trkpt lat="43.68566" lon="5.67466">
        <ele>357</ele>
        <time>2013-02-16T09:00:13.000Z</time>
      </trkpt>
      <trkpt lat="43.6857" lon="5.67465">
        <ele>356.39999389648</ele>
        <time>2013-02-16T09:00:14.000Z</time>
      </trkpt>
      <trkpt lat="43.68574" lon="5.67464">
        <ele>355.60000610352</ele>
        <time>2013-02-16T09:00:15.000Z</time>
      </trkpt>
      <trkpt lat="43.68578" lon="5.67463">
        <ele>355</ele>
        <time>2013-02-16T09:00:16.000Z</time>
      </trkpt>
      <trkpt lat="43.68582" lon="5.67462">
        <ele>354.20001220703</ele>
        <time>2013-02-16T09:00:17.000Z</time>
      </trkpt>
      <trkpt lat="43.68601" lon="5.67456">
        <ele>351.39999389648</ele>
        <time>2013-02-16T09:00:21.000Z</time>
      </trkpt>
      <trkpt lat="43.68619" lon="5.67454">
        <ele>348.60000610352</ele>
        <time>2013-02-16T09:00:25.000Z</time>
      </trkpt>
      <trkpt lat="43.68624" lon="5.67453">
        <ele>347.79998779297</ele>
        <time>2013-02-16T09:00:26.000Z</time>
      </trkpt>
      <trkpt lat="43.68629" lon="5.67451">
        <ele>347.20001220703</ele>
        <time>2013-02-16T09:00:27.000Z</time>
      </trkpt>
      <trkpt lat="43.68653" lon="5.6744">
        <ele>343.60000610352</ele>
        <time>2013-02-16T09:00:32.000Z</time>
      </trkpt>
      <trkpt lat="43.68658" lon="5.67439">
        <ele>343</ele>
        <time>2013-02-16T09:00:33.000Z</time>
      </trkpt>
      <trkpt lat="43.68666" lon="5.67438">
        <ele>342</ele>
        <time>2013-02-16T09:00:35.000Z</time>
      </trkpt>
      <trkpt lat="43.68673" lon="5.67441">
        <ele>341</ele>
        <time>2013-02-16T09:00:37.000Z</time>
      </trkpt>
      <trkpt lat="43.68677" lon="5.67443">
        <ele>340.20001220703</ele>
        <time>2013-02-16T09:00:38.000Z</time>
      </trkpt>
      <trkpt lat="43.68682" lon="5.67446">
        <ele>339.60000610352</ele>
        <time>2013-02-16T09:00:39.000Z</time>
      </trkpt>
      <trkpt lat="43.68687" lon="5.67449">
        <ele>338.79998779297</ele>
        <time>2013-02-16T09:00:40.000Z</time>
      </trkpt>
      <trkpt lat="43.68692" lon="5.6745">
        <ele>338</ele>
        <time>2013-02-16T09:00:41.000Z</time>
      </trkpt>
      <trkpt lat="43.68698" lon="5.67451">
        <ele>337.20001220703</ele>
        <time>2013-02-16T09:00:42.000Z</time>
      </trkpt>
      <trkpt lat="43.68708" lon="5.67455">
        <ele>335.60000610352</ele>
        <time>2013-02-16T09:00:44.000Z</time>
      </trkpt>
      <trkpt lat="43.68712" lon="5.6746">
        <ele>335</ele>
        <time>2013-02-16T09:00:45.000Z</time>
      </trkpt>
      <trkpt lat="43.68716" lon="5.67464">
        <ele>334.60000610352</ele>
        <time>2013-02-16T09:00:46.000Z</time>
      </trkpt>
      <trkpt lat="43.6872" lon="5.67468">
        <ele>334</ele>
        <time>2013-02-16T09:00:47.000Z</time>
      </trkpt>
      <trkpt lat="43.68724" lon="5.6747">
        <ele>333.39999389648</ele>
        <time>2013-02-16T09:00:48.000Z</time>
      </trkpt>
      <trkpt lat="43.68728" lon="5.67473">
        <ele>332.79998779297</ele>
        <time>2013-02-16T09:00:49.000Z</time>
      </trkpt>
      <trkpt lat="43.68733" lon="5.67474">
        <ele>332.20001220703</ele>
        <time>2013-02-16T09:00:50.000Z</time>
      </trkpt>
      <trkpt lat="43.68737" lon="5.67474">
        <ele>331.39999389648</ele>
        <time>2013-02-16T09:00:51.000Z</time>
      </trkpt>
      <trkpt lat="43.68742" lon="5.67474">
        <ele>330.79998779297</ele>
        <time>2013-02-16T09:00:52.000Z</time>
      </trkpt>
      <trkpt lat="43.68745" lon="5.67475">
        <ele>330.20001220703</ele>
        <time>2013-02-16T09:00:53.000Z</time>
      </trkpt>
      <trkpt lat="43.68748" lon="5.67475">
        <ele>330</ele>
        <time>2013-02-16T09:00:54.000Z</time>
      </trkpt>
      <trkpt lat="43.68755" lon="5.67477">
        <ele>328.79998779297</ele>
        <time>2013-02-16T09:01:01.000Z</time>
      </trkpt>
      <trkpt lat="43.68757" lon="5.67476">
        <ele>328.39999389648</ele>
        <time>2013-02-16T09:01:12.000Z</time>
      </trkpt>
      <trkpt lat="43.68757" lon="5.67473">
        <ele>328.20001220703</ele>
        <time>2013-02-16T09:01:30.000Z</time>
      </trkpt>
      <trkpt lat="43.68758" lon="5.67472">
        <ele>328.20001220703</ele>
        <time>2013-02-16T09:01:43.000Z</time>
      </trkpt>
      <trkpt lat="43.68757" lon="5.67474">
        <ele>328.20001220703</ele>
        <time>2013-02-16T09:02:00.000Z</time>
      </trkpt>
      <trkpt lat="43.68757" lon="5.67475">
        <ele>328.39999389648</ele>
        <time>2013-02-16T09:02:25.000Z</time>
      </trkpt>
      <trkpt lat="43.68756" lon="5.67475">
        <ele>328.39999389648</ele>
        <time>2013-02-16T09:02:45.000Z</time>
      </trkpt>
      <trkpt lat="43.68757" lon="5.67476">
        <ele>328.39999389648</ele>
        <time>2013-02-16T09:03:01.000Z</time>
      </trkpt>
      <trkpt lat="43.68758" lon="5.67477">
        <ele>328.20001220703</ele>
        <time>2013-02-16T09:03:13.000Z</time>
      </trkpt>
      <trkpt lat="43.6876" lon="5.67477">
        <ele>327.79998779297</ele>
        <time>2013-02-16T09:03:14.000Z</time>
      </trkpt>
      <trkpt lat="43.68761" lon="5.67479">
        <ele>327.60000610352</ele>
        <time>2013-02-16T09:03:15.000Z</time>
      </trkpt>
      <trkpt lat="43.6877" lon="5.67485">
        <ele>326</ele>
        <time>2013-02-16T09:03:18.000Z</time>
      </trkpt>
      <trkpt lat="43.68778" lon="5.67492">
        <ele>324.79998779297</ele>
        <time>2013-02-16T09:03:20.000Z</time>
      </trkpt>
      <trkpt lat="43.68786" lon="5.67523">
        <ele>321.60000610352</ele>
        <time>2013-02-16T09:03:25.000Z</time>
      </trkpt>
      <trkpt lat="43.68785" lon="5.6753">
        <ele>321.39999389648</ele>
        <time>2013-02-16T09:03:26.000Z</time>
      </trkpt>
      <trkpt lat="43.68783" lon="5.67537">
        <ele>321.20001220703</ele>
        <time>2013-02-16T09:03:27.000Z</time>
      </trkpt>
      <trkpt lat="43.6878" lon="5.67544">
        <ele>321.20001220703</ele>
        <time>2013-02-16T09:03:28.000Z</time>
      </trkpt>
      <trkpt lat="43.68776" lon="5.67551">
        <ele>321.39999389648</ele>
        <time>2013-02-16T09:03:29.000Z</time>
      </trkpt>
      <trkpt lat="43.68772" lon="5.67557">
        <ele>321.39999389648</ele>
        <time>2013-02-16T09:03:30.000Z</time>
      </trkpt>
      <trkpt lat="43.68768" lon="5.67564">
        <ele>321.60000610352</ele>
        <time>2013-02-16T09:03:31.000Z</time>
      </trkpt>
      <trkpt lat="43.68763" lon="5.67569">
        <ele>322</ele>
        <time>2013-02-16T09:03:32.000Z</time>
      </trkpt>
      <trkpt lat="43.68743" lon="5.67593">
        <ele>324.20001220703</ele>
        <time>2013-02-16T09:03:36.000Z</time>
      </trkpt>
      <trkpt lat="43.68739" lon="5.67599">
        <ele>325</ele>
        <time>2013-02-16T09:03:37.000Z</time>
      </trkpt>
      <trkpt lat="43.68736" lon="5.67607">
        <ele>325.39999389648</ele>
        <time>2013-02-16T09:03:38.000Z</time>
      </trkpt>
      <trkpt lat="43.68736" lon="5.67615">
        <ele>325.60000610352</ele>
        <time>2013-02-16T09:03:39.000Z</time>
      </trkpt>
      <trkpt lat="43.68736" lon="5.67624">
        <ele>325.60000610352</ele>
        <time>2013-02-16T09:03:40.000Z</time>
      </trkpt>
      <trkpt lat="43.68739" lon="5.67633">
        <ele>325.39999389648</ele>
        <time>2013-02-16T09:03:41.000Z</time>
      </trkpt>
      <trkpt lat="43.68743" lon="5.6764">
        <ele>324.79998779297</ele>
        <time>2013-02-16T09:03:42.000Z</time>
      </trkpt>
      <trkpt lat="43.68748" lon="5.67646">
        <ele>324</ele>
        <time>2013-02-16T09:03:43.000Z</time>
      </trkpt>
      <trkpt lat="43.68753" lon="5.6765">
        <ele>323</ele>
        <time>2013-02-16T09:03:44.000Z</time>
      </trkpt>
      <trkpt lat="43.6876" lon="5.67654">
        <ele>321.79998779297</ele>
        <time>2013-02-16T09:03:45.000Z</time>
      </trkpt>
      <trkpt lat="43.68766" lon="5.67658">
        <ele>320.39999389648</ele>
        <time>2013-02-16T09:03:46.000Z</time>
      </trkpt>
      <trkpt lat="43.68797" lon="5.67672">
        <ele>313.79998779297</ele>
        <time>2013-02-16T09:03:50.000Z</time>
      </trkpt>
      <trkpt lat="43.68804" lon="5.67676">
        <ele>312.60000610352</ele>
        <time>2013-02-16T09:03:51.000Z</time>
      </trkpt>
      <trkpt lat="43.68811" lon="5.67682">
        <ele>311.39999389648</ele>
        <time>2013-02-16T09:03:52.000Z</time>
      </trkpt>
      <trkpt lat="43.68817" lon="5.67688">
        <ele>310.20001220703</ele>
        <time>2013-02-16T09:03:53.000Z</time>
      </trkpt>
      <trkpt lat="43.68822" lon="5.67694">
        <ele>309.20001220703</ele>
        <time>2013-02-16T09:03:54.000Z</time>
      </trkpt>
      <trkpt lat="43.68827" lon="5.67702">
        <ele>308.39999389648</ele>
        <time>2013-02-16T09:03:55.000Z</time>
      </trkpt>
      <trkpt lat="43.6883" lon="5.67712">
        <ele>307.79998779297</ele>
        <time>2013-02-16T09:03:56.000Z</time>
      </trkpt>
      <trkpt lat="43.68832" lon="5.67721">
        <ele>307.39999389648</ele>
        <time>2013-02-16T09:03:57.000Z</time>
      </trkpt>
      <trkpt lat="43.68834" lon="5.67731">
        <ele>307.39999389648</ele>
        <time>2013-02-16T09:03:58.000Z</time>
      </trkpt>
      <trkpt lat="43.68835" lon="5.6774">
        <ele>307.39999389648</ele>
        <time>2013-02-16T09:03:59.000Z</time>
      </trkpt>
      <trkpt lat="43.68835" lon="5.6775">
        <ele>307.60000610352</ele>
        <time>2013-02-16T09:04:00.000Z</time>
      </trkpt>
      <trkpt lat="43.68834" lon="5.67781">
        <ele>307.39999389648</ele>
        <time>2013-02-16T09:04:03.000Z</time>
      </trkpt>
      <trkpt lat="43.68833" lon="5.67824">
        <ele>307.20001220703</ele>
        <time>2013-02-16T09:04:07.000Z</time>
      </trkpt>
      <trkpt lat="43.68834" lon="5.67857">
        <ele>307</ele>
        <time>2013-02-16T09:04:10.000Z</time>
      </trkpt>
      <trkpt lat="43.6884" lon="5.67914">
        <ele>306.39999389648</ele>
        <time>2013-02-16T09:04:15.000Z</time>
      </trkpt>
      <trkpt lat="43.68848" lon="5.67976">
        <ele>299.60000610352</ele>
        <time>2013-02-16T09:04:20.000Z</time>
      </trkpt>
      <trkpt lat="43.68854" lon="5.68015">
        <ele>295.20001220703</ele>
        <time>2013-02-16T09:04:23.000Z</time>
      </trkpt>
      <trkpt lat="43.68862" lon="5.68068">
        <ele>290</ele>
        <time>2013-02-16T09:04:27.000Z</time>
      </trkpt>
      <trkpt lat="43.68864" lon="5.68081">
        <ele>288.79998779297</ele>
        <time>2013-02-16T09:04:28.000Z</time>
      </trkpt>
      <trkpt lat="43.68865" lon="5.68116">
        <ele>288</ele>
        <time>2013-02-16T09:04:31.000Z</time>
      </trkpt>
      <trkpt lat="43.68863" lon="5.6816">
        <ele>288.20001220703</ele>
        <time>2013-02-16T09:04:35.000Z</time>
      </trkpt>
      <trkpt lat="43.68861" lon="5.68201">
        <ele>287.60000610352</ele>
        <time>2013-02-16T09:04:39.000Z</time>
      </trkpt>
      <trkpt lat="43.68859" lon="5.6825">
        <ele>286.79998779297</ele>
        <time>2013-02-16T09:04:44.000Z</time>
      </trkpt>
      <trkpt lat="43.68855" lon="5.6832">
        <ele>282.60000610352</ele>
        <time>2013-02-16T09:04:51.000Z</time>
      </trkpt>
      <trkpt lat="43.68855" lon="5.68328">
        <ele>281.79998779297</ele>
        <time>2013-02-16T09:04:52.000Z</time>
      </trkpt>
      <trkpt lat="43.68858" lon="5.68335">
        <ele>280.60000610352</ele>
        <time>2013-02-16T09:04:53.000Z</time>
      </trkpt>
      <trkpt lat="43.68863" lon="5.68341">
        <ele>279.20001220703</ele>
        <time>2013-02-16T09:04:54.000Z</time>
      </trkpt>
      <trkpt lat="43.68869" lon="5.68343">
        <ele>277.79998779297</ele>
        <time>2013-02-16T09:04:55.000Z</time>
      </trkpt>
      <trkpt lat="43.68876" lon="5.68342">
        <ele>276.39999389648</ele>
        <time>2013-02-16T09:04:56.000Z</time>
      </trkpt>
      <trkpt lat="43.68882" lon="5.68337">
        <ele>275.60000610352</ele>
        <time>2013-02-16T09:04:57.000Z</time>
      </trkpt>
      <trkpt lat="43.68887" lon="5.6833">
        <ele>275</ele>
        <time>2013-02-16T09:04:58.000Z</time>
      </trkpt>
      <trkpt lat="43.68891" lon="5.68321">
        <ele>274.79998779297</ele>
        <time>2013-02-16T09:04:59.000Z</time>
      </trkpt>
      <trkpt lat="43.68894" lon="5.6831">
        <ele>274.60000610352</ele>
        <time>2013-02-16T09:05:00.000Z</time>
      </trkpt>
      <trkpt lat="43.68896" lon="5.68299">
        <ele>274.60000610352</ele>
        <time>2013-02-16T09:05:01.000Z</time>
      </trkpt>
      <trkpt lat="43.68897" lon="5.68288">
        <ele>274.60000610352</ele>
        <time>2013-02-16T09:05:02.000Z</time>
      </trkpt>
      <trkpt lat="43.68905" lon="5.68229">
        <ele>274.60000610352</ele>
        <time>2013-02-16T09:05:07.000Z</time>
      </trkpt>
      <trkpt lat="43.68912" lon="5.68177">
        <ele>273.20001220703</ele>
        <time>2013-02-16T09:05:12.000Z</time>
      </trkpt>
      <trkpt lat="43.68915" lon="5.68169">
        <ele>272.39999389648</ele>
        <time>2013-02-16T09:05:13.000Z</time>
      </trkpt>
      <trkpt lat="43.68919" lon="5.68162">
        <ele>271.60000610352</ele>
        <time>2013-02-16T09:05:14.000Z</time>
      </trkpt>
      <trkpt lat="43.68923" lon="5.68156">
        <ele>270.79998779297</ele>
        <time>2013-02-16T09:05:15.000Z</time>
      </trkpt>
      <trkpt lat="43.68929" lon="5.68152">
        <ele>270</ele>
        <time>2013-02-16T09:05:16.000Z</time>
      </trkpt>
      <trkpt lat="43.68935" lon="5.68149">
        <ele>269.20001220703</ele>
        <time>2013-02-16T09:05:17.000Z</time>
      </trkpt>
      <trkpt lat="43.68941" lon="5.68148">
        <ele>268.20001220703</ele>
        <time>2013-02-16T09:05:18.000Z</time>
      </trkpt>
      <trkpt lat="43.68947" lon="5.68148">
        <ele>267.60000610352</ele>
        <time>2013-02-16T09:05:19.000Z</time>
      </trkpt>
      <trkpt lat="43.68952" lon="5.68147">
        <ele>266.79998779297</ele>
        <time>2013-02-16T09:05:20.000Z</time>
      </trkpt>
      <trkpt lat="43.68956" lon="5.68145">
        <ele>266.20001220703</ele>
        <time>2013-02-16T09:05:21.000Z</time>
      </trkpt>
      <trkpt lat="43.68961" lon="5.68141">
        <ele>265.60000610352</ele>
        <time>2013-02-16T09:05:22.000Z</time>
      </trkpt>
      <trkpt lat="43.68965" lon="5.68135">
        <ele>265</ele>
        <time>2013-02-16T09:05:23.000Z</time>
      </trkpt>
      <trkpt lat="43.68968" lon="5.68128">
        <ele>264.60000610352</ele>
        <time>2013-02-16T09:05:24.000Z</time>
      </trkpt>
      <trkpt lat="43.68971" lon="5.68121">
        <ele>264.20001220703</ele>
        <time>2013-02-16T09:05:25.000Z</time>
      </trkpt>
      <trkpt lat="43.69006" lon="5.68034">
        <ele>262.79998779297</ele>
        <time>2013-02-16T09:05:35.000Z</time>
      </trkpt>
      <trkpt lat="43.69027" lon="5.67929">
        <ele>260.20001220703</ele>
        <time>2013-02-16T09:05:46.000Z</time>
      </trkpt>
      <trkpt lat="43.69021" lon="5.67843">
        <ele>258.60000610352</ele>
        <time>2013-02-16T09:05:55.000Z</time>
      </trkpt>
      <trkpt lat="43.69008" lon="5.67743">
        <ele>262</ele>
        <time>2013-02-16T09:06:06.000Z</time>
      </trkpt>
      <trkpt lat="43.6901" lon="5.67664">
        <ele>258</ele>
        <time>2013-02-16T09:06:14.000Z</time>
      </trkpt>
      <trkpt lat="43.69019" lon="5.67553">
        <ele>262.60000610352</ele>
        <time>2013-02-16T09:06:24.000Z</time>
      </trkpt>
      <trkpt lat="43.69023" lon="5.67433">
        <ele>265.79998779297</ele>
        <time>2013-02-16T09:06:37.000Z</time>
      </trkpt>
      <trkpt lat="43.69024" lon="5.67396">
        <ele>265</ele>
        <time>2013-02-16T09:06:41.000Z</time>
      </trkpt>
      <trkpt lat="43.69026" lon="5.67387">
        <ele>264</ele>
        <time>2013-02-16T09:06:42.000Z</time>
      </trkpt>
      <trkpt lat="43.69029" lon="5.67378">
        <ele>262.79998779297</ele>
        <time>2013-02-16T09:06:43.000Z</time>
      </trkpt>
      <trkpt lat="43.69045" lon="5.67288">
        <ele>254.60000610352</ele>
        <time>2013-02-16T09:06:52.000Z</time>
      </trkpt>
      <trkpt lat="43.69047" lon="5.67188">
        <ele>252.60000610352</ele>
        <time>2013-02-16T09:07:01.000Z</time>
      </trkpt>
      <trkpt lat="43.69046" lon="5.67124">
        <ele>248.39999389648</ele>
        <time>2013-02-16T09:07:07.000Z</time>
      </trkpt>
      <trkpt lat="43.69044" lon="5.67113">
        <ele>248.19999694824</ele>
        <time>2013-02-16T09:07:08.000Z</time>
      </trkpt>
      <trkpt lat="43.69041" lon="5.67103">
        <ele>248.19999694824</ele>
        <time>2013-02-16T09:07:09.000Z</time>
      </trkpt>
      <trkpt lat="43.69038" lon="5.67093">
        <ele>248.39999389648</ele>
        <time>2013-02-16T09:07:10.000Z</time>
      </trkpt>
      <trkpt lat="43.69034" lon="5.67083">
        <ele>248.80000305176</ele>
        <time>2013-02-16T09:07:11.000Z</time>
      </trkpt>
      <trkpt lat="43.6903" lon="5.67073">
        <ele>249</ele>
        <time>2013-02-16T09:07:12.000Z</time>
      </trkpt>
      <trkpt lat="43.69026" lon="5.67062">
        <ele>248.80000305176</ele>
        <time>2013-02-16T09:07:13.000Z</time>
      </trkpt>
      <trkpt lat="43.68982" lon="5.66938">
        <ele>246.19999694824</ele>
        <time>2013-02-16T09:07:26.000Z</time>
      </trkpt>
      <trkpt lat="43.68975" lon="5.66919">
        <ele>247.39999389648</ele>
        <time>2013-02-16T09:07:28.000Z</time>
      </trkpt>
      <trkpt lat="43.6897" lon="5.66911">
        <ele>248.19999694824</ele>
        <time>2013-02-16T09:07:29.000Z</time>
      </trkpt>
      <trkpt lat="43.68949" lon="5.66877">
        <ele>250.39999389648</ele>
        <time>2013-02-16T09:07:33.000Z</time>
      </trkpt>
      <trkpt lat="43.68945" lon="5.66867">
        <ele>249.80000305176</ele>
        <time>2013-02-16T09:07:34.000Z</time>
      </trkpt>
      <trkpt lat="43.689" lon="5.66767">
        <ele>241</ele>
        <time>2013-02-16T09:07:45.000Z</time>
      </trkpt>
      <trkpt lat="43.68893" lon="5.66751">
        <ele>239.60000610352</ele>
        <time>2013-02-16T09:07:47.000Z</time>
      </trkpt>
      <trkpt lat="43.68891" lon="5.66743">
        <ele>239.19999694824</ele>
        <time>2013-02-16T09:07:48.000Z</time>
      </trkpt>
      <trkpt lat="43.68892" lon="5.66734">
        <ele>238.19999694824</ele>
        <time>2013-02-16T09:07:49.000Z</time>
      </trkpt>
      <trkpt lat="43.68895" lon="5.66727">
        <ele>237.19999694824</ele>
        <time>2013-02-16T09:07:50.000Z</time>
      </trkpt>
      <trkpt lat="43.689" lon="5.66721">
        <ele>236</ele>
        <time>2013-02-16T09:07:51.000Z</time>
      </trkpt>
      <trkpt lat="43.68905" lon="5.66719">
        <ele>235</ele>
        <time>2013-02-16T09:07:52.000Z</time>
      </trkpt>
      <trkpt lat="43.68911" lon="5.66718">
        <ele>234.19999694824</ele>
        <time>2013-02-16T09:07:53.000Z</time>
      </trkpt>
      <trkpt lat="43.68918" lon="5.66719">
        <ele>233.39999389648</ele>
        <time>2013-02-16T09:07:54.000Z</time>
      </trkpt>
      <trkpt lat="43.68924" lon="5.6672">
        <ele>233</ele>
        <time>2013-02-16T09:07:55.000Z</time>
      </trkpt>
      <trkpt lat="43.6893" lon="5.6672">
        <ele>232.80000305176</ele>
        <time>2013-02-16T09:07:56.000Z</time>
      </trkpt>
      <trkpt lat="43.69026" lon="5.66726">
        <ele>235.80000305176</ele>
        <time>2013-02-16T09:08:11.000Z</time>
      </trkpt>
      <trkpt lat="43.69066" lon="5.6673">
        <ele>246.39999389648</ele>
        <time>2013-02-16T09:08:18.000Z</time>
      </trkpt>
      <trkpt lat="43.69076" lon="5.66732">
        <ele>248.60000610352</ele>
        <time>2013-02-16T09:08:20.000Z</time>
      </trkpt>
      <trkpt lat="43.69086" lon="5.66736">
        <ele>250</ele>
        <time>2013-02-16T09:08:22.000Z</time>
      </trkpt>
      <trkpt lat="43.69095" lon="5.66736">
        <ele>252.19999694824</ele>
        <time>2013-02-16T09:08:25.000Z</time>
      </trkpt>
      <trkpt lat="43.69096" lon="5.66734">
        <ele>253</ele>
        <time>2013-02-16T09:08:26.000Z</time>
      </trkpt>
      <trkpt lat="43.69096" lon="5.66731">
        <ele>254</ele>
        <time>2013-02-16T09:08:27.000Z</time>
      </trkpt>
      <trkpt lat="43.69095" lon="5.66728">
        <ele>254.60000610352</ele>
        <time>2013-02-16T09:08:28.000Z</time>
      </trkpt>
      <trkpt lat="43.69093" lon="5.66726">
        <ele>255</ele>
        <time>2013-02-16T09:08:29.000Z</time>
      </trkpt>
      <trkpt lat="43.69078" lon="5.66707">
        <ele>257.20001220703</ele>
        <time>2013-02-16T09:08:39.000Z</time>
      </trkpt>
      <trkpt lat="43.69075" lon="5.66699">
        <ele>258.39999389648</ele>
        <time>2013-02-16T09:08:42.000Z</time>
      </trkpt>
      <trkpt lat="43.69072" lon="5.66695">
        <ele>258.60000610352</ele>
        <time>2013-02-16T09:08:51.000Z</time>
      </trkpt>
      <trkpt lat="43.6907" lon="5.66685">
        <ele>260.39999389648</ele>
        <time>2013-02-16T09:08:58.000Z</time>
      </trkpt>
      <trkpt lat="43.69066" lon="5.66674">
        <ele>262</ele>
        <time>2013-02-16T09:09:02.000Z</time>
      </trkpt>
      <trkpt lat="43.69063" lon="5.6667">
        <ele>261.79998779297</ele>
        <time>2013-02-16T09:09:03.000Z</time>
      </trkpt>
      <trkpt lat="43.69061" lon="5.66666">
        <ele>262</ele>
        <time>2013-02-16T09:09:04.000Z</time>
      </trkpt>
      <trkpt lat="43.6906" lon="5.66662">
        <ele>262</ele>
        <time>2013-02-16T09:09:05.000Z</time>
      </trkpt>
      <trkpt lat="43.69058" lon="5.66658">
        <ele>261.79998779297</ele>
        <time>2013-02-16T09:09:06.000Z</time>
      </trkpt>
      <trkpt lat="43.69055" lon="5.66655">
        <ele>261.20001220703</ele>
        <time>2013-02-16T09:09:07.000Z</time>
      </trkpt>
      <trkpt lat="43.69052" lon="5.66653">
        <ele>260.20001220703</ele>
        <time>2013-02-16T09:09:08.000Z</time>
      </trkpt>
      <trkpt lat="43.69045" lon="5.66646">
        <ele>258.20001220703</ele>
        <time>2013-02-16T09:09:10.000Z</time>
      </trkpt>
      <trkpt lat="43.69043" lon="5.66642">
        <ele>257.79998779297</ele>
        <time>2013-02-16T09:09:11.000Z</time>
      </trkpt>
      <trkpt lat="43.69041" lon="5.66637">
        <ele>257.79998779297</ele>
        <time>2013-02-16T09:09:12.000Z</time>
      </trkpt>
      <trkpt lat="43.6903" lon="5.6661">
        <ele>257.20001220703</ele>
        <time>2013-02-16T09:09:17.000Z</time>
      </trkpt>
      <trkpt lat="43.69028" lon="5.66605">
        <ele>256.79998779297</ele>
        <time>2013-02-16T09:09:18.000Z</time>
      </trkpt>
      <trkpt lat="43.69015" lon="5.66574">
        <ele>254.80000305176</ele>
        <time>2013-02-16T09:09:24.000Z</time>
      </trkpt>
      <trkpt lat="43.69013" lon="5.66568">
        <ele>254</ele>
        <time>2013-02-16T09:09:25.000Z</time>
      </trkpt>
      <trkpt lat="43.69008" lon="5.66547">
        <ele>251.80000305176</ele>
        <time>2013-02-16T09:09:28.000Z</time>
      </trkpt>
      <trkpt lat="43.69007" lon="5.6654">
        <ele>251.60000610352</ele>
        <time>2013-02-16T09:09:29.000Z</time>
      </trkpt>
      <trkpt lat="43.69007" lon="5.66534">
        <ele>251.80000305176</ele>
        <time>2013-02-16T09:09:30.000Z</time>
      </trkpt>
      <trkpt lat="43.69015" lon="5.66507">
        <ele>257.20001220703</ele>
        <time>2013-02-16T09:09:37.000Z</time>
      </trkpt>
      <trkpt lat="43.69014" lon="5.66477">
        <ele>257</ele>
        <time>2013-02-16T09:09:44.000Z</time>
      </trkpt>
      <trkpt lat="43.69012" lon="5.66461">
        <ele>256.20001220703</ele>
        <time>2013-02-16T09:09:47.000Z</time>
      </trkpt>
      <trkpt lat="43.6901" lon="5.66455">
        <ele>255.19999694824</ele>
        <time>2013-02-16T09:09:48.000Z</time>
      </trkpt>
      <trkpt lat="43.69007" lon="5.66449">
        <ele>253.60000610352</ele>
        <time>2013-02-16T09:09:49.000Z</time>
      </trkpt>
      <trkpt lat="43.68992" lon="5.66423">
        <ele>247.80000305176</ele>
        <time>2013-02-16T09:09:54.000Z</time>
      </trkpt>
      <trkpt lat="43.6899" lon="5.66417">
        <ele>247.39999389648</ele>
        <time>2013-02-16T09:09:55.000Z</time>
      </trkpt>
      <trkpt lat="43.68988" lon="5.6641">
        <ele>247.19999694824</ele>
        <time>2013-02-16T09:09:56.000Z</time>
      </trkpt>
      <trkpt lat="43.68983" lon="5.66385">
        <ele>247</ele>
        <time>2013-02-16T09:10:00.000Z</time>
      </trkpt>
      <trkpt lat="43.68982" lon="5.66379">
        <ele>247</ele>
        <time>2013-02-16T09:10:01.000Z</time>
      </trkpt>
      <trkpt lat="43.68983" lon="5.66359">
        <ele>248.39999389648</ele>
        <time>2013-02-16T09:10:05.000Z</time>
      </trkpt>
      <trkpt lat="43.68984" lon="5.66354">
        <ele>249</ele>
        <time>2013-02-16T09:10:06.000Z</time>
      </trkpt>
      <trkpt lat="43.68983" lon="5.66349">
        <ele>249</ele>
        <time>2013-02-16T09:10:07.000Z</time>
      </trkpt>
      <trkpt lat="43.68981" lon="5.66344">
        <ele>248.80000305176</ele>
        <time>2013-02-16T09:10:08.000Z</time>
      </trkpt>
      <trkpt lat="43.68978" lon="5.66339">
        <ele>248</ele>
        <time>2013-02-16T09:10:09.000Z</time>
      </trkpt>
      <trkpt lat="43.68976" lon="5.66334">
        <ele>247.60000610352</ele>
        <time>2013-02-16T09:10:10.000Z</time>
      </trkpt>
      <trkpt lat="43.68974" lon="5.66327">
        <ele>247.19999694824</ele>
        <time>2013-02-16T09:10:11.000Z</time>
      </trkpt>
      <trkpt lat="43.68973" lon="5.66321">
        <ele>247.19999694824</ele>
        <time>2013-02-16T09:10:12.000Z</time>
      </trkpt>
      <trkpt lat="43.68972" lon="5.66313">
        <ele>247.39999389648</ele>
        <time>2013-02-16T09:10:13.000Z</time>
      </trkpt>
      <trkpt lat="43.68972" lon="5.66306">
        <ele>247.39999389648</ele>
        <time>2013-02-16T09:10:14.000Z</time>
      </trkpt>
      <trkpt lat="43.68971" lon="5.663">
        <ele>247.39999389648</ele>
        <time>2013-02-16T09:10:15.000Z</time>
      </trkpt>
      <trkpt lat="43.6897" lon="5.66294">
        <ele>247.39999389648</ele>
        <time>2013-02-16T09:10:16.000Z</time>
      </trkpt>
      <trkpt lat="43.6897" lon="5.66288">
        <ele>247.60000610352</ele>
        <time>2013-02-16T09:10:17.000Z</time>
      </trkpt>
      <trkpt lat="43.68965" lon="5.66257">
        <ele>247.39999389648</ele>
        <time>2013-02-16T09:10:24.000Z</time>
      </trkpt>
      <trkpt lat="43.68961" lon="5.66196">
        <ele>249.19999694824</ele>
        <time>2013-02-16T09:10:35.000Z</time>
      </trkpt>
      <trkpt lat="43.68957" lon="5.66161">
        <ele>249.60000610352</ele>
        <time>2013-02-16T09:10:42.000Z</time>
      </trkpt>
      <trkpt lat="43.68957" lon="5.66155">
        <ele>249.60000610352</ele>
        <time>2013-02-16T09:10:43.000Z</time>
      </trkpt>
      <trkpt lat="43.68955" lon="5.66149">
        <ele>249.19999694824</ele>
        <time>2013-02-16T09:10:44.000Z</time>
      </trkpt>
      <trkpt lat="43.68953" lon="5.66142">
        <ele>248.80000305176</ele>
        <time>2013-02-16T09:10:45.000Z</time>
      </trkpt>
      <trkpt lat="43.68952" lon="5.66135">
        <ele>248.60000610352</ele>
        <time>2013-02-16T09:10:46.000Z</time>
      </trkpt>
      <trkpt lat="43.68951" lon="5.66128">
        <ele>248.39999389648</ele>
        <time>2013-02-16T09:10:47.000Z</time>
      </trkpt>
      <trkpt lat="43.68951" lon="5.6612">
        <ele>248.39999389648</ele>
        <time>2013-02-16T09:10:48.000Z</time>
      </trkpt>
      <trkpt lat="43.68951" lon="5.66104">
        <ele>248.80000305176</ele>
        <time>2013-02-16T09:10:50.000Z</time>
      </trkpt>
      <trkpt lat="43.68947" lon="5.66082">
        <ele>247.80000305176</ele>
        <time>2013-02-16T09:10:53.000Z</time>
      </trkpt>
      <trkpt lat="43.68946" lon="5.66075">
        <ele>247.80000305176</ele>
        <time>2013-02-16T09:10:54.000Z</time>
      </trkpt>
      <trkpt lat="43.68946" lon="5.66068">
        <ele>247.60000610352</ele>
        <time>2013-02-16T09:10:55.000Z</time>
      </trkpt>
      <trkpt lat="43.68945" lon="5.66062">
        <ele>247.39999389648</ele>
        <time>2013-02-16T09:10:56.000Z</time>
      </trkpt>
      <trkpt lat="43.68944" lon="5.66055">
        <ele>247</ele>
        <time>2013-02-16T09:10:57.000Z</time>
      </trkpt>
      <trkpt lat="43.68943" lon="5.6605">
        <ele>246.60000610352</ele>
        <time>2013-02-16T09:10:58.000Z</time>
      </trkpt>
      <trkpt lat="43.68938" lon="5.66013">
        <ele>244.60000610352</ele>
        <time>2013-02-16T09:11:05.000Z</time>
      </trkpt>
      <trkpt lat="43.68938" lon="5.66006">
        <ele>245</ele>
        <time>2013-02-16T09:11:06.000Z</time>
      </trkpt>
      <trkpt lat="43.6894" lon="5.65999">
        <ele>245.39999389648</ele>
        <time>2013-02-16T09:11:07.000Z</time>
      </trkpt>
      <trkpt lat="43.68951" lon="5.65941">
        <ele>249.60000610352</ele>
        <time>2013-02-16T09:11:15.000Z</time>
      </trkpt>
      <trkpt lat="43.6895" lon="5.65936">
        <ele>249.39999389648</ele>
        <time>2013-02-16T09:11:16.000Z</time>
      </trkpt>
      <trkpt lat="43.68949" lon="5.65931">
        <ele>249.19999694824</ele>
        <time>2013-02-16T09:11:17.000Z</time>
      </trkpt>
      <trkpt lat="43.68931" lon="5.65874">
        <ele>246.60000610352</ele>
        <time>2013-02-16T09:11:28.000Z</time>
      </trkpt>
      <trkpt lat="43.6893" lon="5.65869">
        <ele>246.39999389648</ele>
        <time>2013-02-16T09:11:29.000Z</time>
      </trkpt>
      <trkpt lat="43.68927" lon="5.65864">
        <ele>246</ele>
        <time>2013-02-16T09:11:30.000Z</time>
      </trkpt>
      <trkpt lat="43.68906" lon="5.65814">
        <ele>245.19999694824</ele>
        <time>2013-02-16T09:11:41.000Z</time>
      </trkpt>
      <trkpt lat="43.6888" lon="5.65758">
        <ele>248</ele>
        <time>2013-02-16T09:11:54.000Z</time>
      </trkpt>
      <trkpt lat="43.6886" lon="5.65714">
        <ele>248.60000610352</ele>
        <time>2013-02-16T09:12:05.000Z</time>
      </trkpt>
      <trkpt lat="43.68855" lon="5.65705">
        <ele>248.39999389648</ele>
        <time>2013-02-16T09:12:07.000Z</time>
      </trkpt>
      <trkpt lat="43.68817" lon="5.6567">
        <ele>245</ele>
        <time>2013-02-16T09:12:18.000Z</time>
      </trkpt>
      <trkpt lat="43.68795" lon="5.65661">
        <ele>245.80000305176</ele>
        <time>2013-02-16T09:12:23.000Z</time>
      </trkpt>
      <trkpt lat="43.68733" lon="5.65646">
        <ele>245.19999694824</ele>
        <time>2013-02-16T09:12:36.000Z</time>
      </trkpt>
      <trkpt lat="43.68729" lon="5.65645">
        <ele>245</ele>
        <time>2013-02-16T09:12:37.000Z</time>
      </trkpt>
      <trkpt lat="43.68725" lon="5.65643">
        <ele>245</ele>
        <time>2013-02-16T09:12:38.000Z</time>
      </trkpt>
      <trkpt lat="43.68716" lon="5.65638">
        <ele>245.19999694824</ele>
        <time>2013-02-16T09:12:40.000Z</time>
      </trkpt>
      <trkpt lat="43.68708" lon="5.65631">
        <ele>246</ele>
        <time>2013-02-16T09:12:42.000Z</time>
      </trkpt>
      <trkpt lat="43.68686" lon="5.65606">
        <ele>248.60000610352</ele>
        <time>2013-02-16T09:12:50.000Z</time>
      </trkpt>
      <trkpt lat="43.68683" lon="5.65603">
        <ele>248.80000305176</ele>
        <time>2013-02-16T09:12:51.000Z</time>
      </trkpt>
      <trkpt lat="43.68665" lon="5.65587">
        <ele>248.60000610352</ele>
        <time>2013-02-16T09:12:56.000Z</time>
      </trkpt>
      <trkpt lat="43.68661" lon="5.65583">
        <ele>249</ele>
        <time>2013-02-16T09:12:57.000Z</time>
      </trkpt>
      <trkpt lat="43.68657" lon="5.65578">
        <ele>249.60000610352</ele>
        <time>2013-02-16T09:12:58.000Z</time>
      </trkpt>
      <trkpt lat="43.68649" lon="5.65569">
        <ele>251.19999694824</ele>
        <time>2013-02-16T09:13:00.000Z</time>
      </trkpt>
      <trkpt lat="43.68645" lon="5.65565">
        <ele>251.60000610352</ele>
        <time>2013-02-16T09:13:01.000Z</time>
      </trkpt>
      <trkpt lat="43.68637" lon="5.65558">
        <ele>252.19999694824</ele>
        <time>2013-02-16T09:13:03.000Z</time>
      </trkpt>
      <trkpt lat="43.68634" lon="5.65553">
        <ele>253.19999694824</ele>
        <time>2013-02-16T09:13:04.000Z</time>
      </trkpt>
      <trkpt lat="43.68632" lon="5.65548">
        <ele>254.39999389648</ele>
        <time>2013-02-16T09:13:05.000Z</time>
      </trkpt>
      <trkpt lat="43.68625" lon="5.65537">
        <ele>256</ele>
        <time>2013-02-16T09:13:07.000Z</time>
      </trkpt>
      <trkpt lat="43.6862" lon="5.65533">
        <ele>256</ele>
        <time>2013-02-16T09:13:08.000Z</time>
      </trkpt>
      <trkpt lat="43.686" lon="5.65515">
        <ele>254.60000610352</ele>
        <time>2013-02-16T09:13:12.000Z</time>
      </trkpt>
      <trkpt lat="43.68594" lon="5.65512">
        <ele>253.60000610352</ele>
        <time>2013-02-16T09:13:13.000Z</time>
      </trkpt>
      <trkpt lat="43.6859" lon="5.6551">
        <ele>252.80000305176</ele>
        <time>2013-02-16T09:13:14.000Z</time>
      </trkpt>
      <trkpt lat="43.68586" lon="5.65506">
        <ele>252.19999694824</ele>
        <time>2013-02-16T09:13:15.000Z</time>
      </trkpt>
      <trkpt lat="43.68582" lon="5.65503">
        <ele>252</ele>
        <time>2013-02-16T09:13:16.000Z</time>
      </trkpt>
      <trkpt lat="43.6858" lon="5.65499">
        <ele>253.39999389648</ele>
        <time>2013-02-16T09:13:17.000Z</time>
      </trkpt>
      <trkpt lat="43.68577" lon="5.65495">
        <ele>257.20001220703</ele>
        <time>2013-02-16T09:13:18.000Z</time>
      </trkpt>
      <trkpt lat="43.68575" lon="5.6549">
        <ele>261.60000610352</ele>
        <time>2013-02-16T09:13:19.000Z</time>
      </trkpt>
      <trkpt lat="43.68573" lon="5.65485">
        <ele>266.60000610352</ele>
        <time>2013-02-16T09:13:20.000Z</time>
      </trkpt>
      <trkpt lat="43.68571" lon="5.6548">
        <ele>271.39999389648</ele>
        <time>2013-02-16T09:13:21.000Z</time>
      </trkpt>
      <trkpt lat="43.68568" lon="5.65475">
        <ele>275.39999389648</ele>
        <time>2013-02-16T09:13:22.000Z</time>
      </trkpt>
      <trkpt lat="43.68564" lon="5.6547">
        <ele>278.20001220703</ele>
        <time>2013-02-16T09:13:23.000Z</time>
      </trkpt>
      <trkpt lat="43.6856" lon="5.65467">
        <ele>279.79998779297</ele>
        <time>2013-02-16T09:13:24.000Z</time>
      </trkpt>
      <trkpt lat="43.68556" lon="5.65464">
        <ele>280.60000610352</ele>
        <time>2013-02-16T09:13:25.000Z</time>
      </trkpt>
      <trkpt lat="43.68525" lon="5.65452">
        <ele>275.39999389648</ele>
        <time>2013-02-16T09:13:33.000Z</time>
      </trkpt>
      <trkpt lat="43.68481" lon="5.65437">
        <ele>263.60000610352</ele>
        <time>2013-02-16T09:13:46.000Z</time>
      </trkpt>
      <trkpt lat="43.68448" lon="5.65416">
        <ele>261.20001220703</ele>
        <time>2013-02-16T09:13:57.000Z</time>
      </trkpt>
      <trkpt lat="43.68411" lon="5.6539">
        <ele>261.60000610352</ele>
        <time>2013-02-16T09:14:09.000Z</time>
      </trkpt>
      <trkpt lat="43.68395" lon="5.65384">
        <ele>259</ele>
        <time>2013-02-16T09:14:13.000Z</time>
      </trkpt>
      <trkpt lat="43.6839" lon="5.65381">
        <ele>258.79998779297</ele>
        <time>2013-02-16T09:14:14.000Z</time>
      </trkpt>
      <trkpt lat="43.68385" lon="5.65377">
        <ele>259.20001220703</ele>
        <time>2013-02-16T09:14:15.000Z</time>
      </trkpt>
      <trkpt lat="43.6838" lon="5.65374">
        <ele>259.20001220703</ele>
        <time>2013-02-16T09:14:16.000Z</time>
      </trkpt>
      <trkpt lat="43.68375" lon="5.6537">
        <ele>259</ele>
        <time>2013-02-16T09:14:17.000Z</time>
      </trkpt>
      <trkpt lat="43.68336" lon="5.65349">
        <ele>253.39999389648</ele>
        <time>2013-02-16T09:14:24.000Z</time>
      </trkpt>
      <trkpt lat="43.68305" lon="5.65323">
        <ele>253.60000610352</ele>
        <time>2013-02-16T09:14:34.000Z</time>
      </trkpt>
      <trkpt lat="43.68287" lon="5.65303">
        <ele>252</ele>
        <time>2013-02-16T09:14:40.000Z</time>
      </trkpt>
      <trkpt lat="43.68277" lon="5.65291">
        <ele>250.60000610352</ele>
        <time>2013-02-16T09:14:43.000Z</time>
      </trkpt>
      <trkpt lat="43.68275" lon="5.65287">
        <ele>250.39999389648</ele>
        <time>2013-02-16T09:14:44.000Z</time>
      </trkpt>
      <trkpt lat="43.68272" lon="5.65282">
        <ele>250.19999694824</ele>
        <time>2013-02-16T09:14:45.000Z</time>
      </trkpt>
      <trkpt lat="43.68271" lon="5.65277">
        <ele>250.19999694824</ele>
        <time>2013-02-16T09:14:46.000Z</time>
      </trkpt>
      <trkpt lat="43.68269" lon="5.65272">
        <ele>250.60000610352</ele>
        <time>2013-02-16T09:14:47.000Z</time>
      </trkpt>
      <trkpt lat="43.68268" lon="5.65266">
        <ele>250.80000305176</ele>
        <time>2013-02-16T09:14:48.000Z</time>
      </trkpt>
      <trkpt lat="43.68266" lon="5.65262">
        <ele>250.60000610352</ele>
        <time>2013-02-16T09:14:49.000Z</time>
      </trkpt>
      <trkpt lat="43.68264" lon="5.65257">
        <ele>250.19999694824</ele>
        <time>2013-02-16T09:14:50.000Z</time>
      </trkpt>
      <trkpt lat="43.68262" lon="5.65254">
        <ele>249.60000610352</ele>
        <time>2013-02-16T09:14:51.000Z</time>
      </trkpt>
      <trkpt lat="43.68259" lon="5.6525">
        <ele>249</ele>
        <time>2013-02-16T09:14:52.000Z</time>
      </trkpt>
      <trkpt lat="43.68257" lon="5.65245">
        <ele>249</ele>
        <time>2013-02-16T09:14:53.000Z</time>
      </trkpt>
      <trkpt lat="43.68256" lon="5.65241">
        <ele>249.19999694824</ele>
        <time>2013-02-16T09:14:54.000Z</time>
      </trkpt>
      <trkpt lat="43.68252" lon="5.65226">
        <ele>250.60000610352</ele>
        <time>2013-02-16T09:14:57.000Z</time>
      </trkpt>
      <trkpt lat="43.68251" lon="5.65221">
        <ele>251.39999389648</ele>
        <time>2013-02-16T09:14:58.000Z</time>
      </trkpt>
      <trkpt lat="43.68245" lon="5.65195">
        <ele>255.80000305176</ele>
        <time>2013-02-16T09:15:03.000Z</time>
      </trkpt>
      <trkpt lat="43.68242" lon="5.65191">
        <ele>255.80000305176</ele>
        <time>2013-02-16T09:15:04.000Z</time>
      </trkpt>
      <trkpt lat="43.68239" lon="5.65188">
        <ele>255.39999389648</ele>
        <time>2013-02-16T09:15:05.000Z</time>
      </trkpt>
      <trkpt lat="43.68235" lon="5.65187">
        <ele>254.39999389648</ele>
        <time>2013-02-16T09:15:06.000Z</time>
      </trkpt>
      <trkpt lat="43.68231" lon="5.65185">
        <ele>253.60000610352</ele>
        <time>2013-02-16T09:15:07.000Z</time>
      </trkpt>
      <trkpt lat="43.68227" lon="5.65184">
        <ele>252.60000610352</ele>
        <time>2013-02-16T09:15:08.000Z</time>
      </trkpt>
      <trkpt lat="43.68223" lon="5.65183">
        <ele>251.60000610352</ele>
        <time>2013-02-16T09:15:09.000Z</time>
      </trkpt>
      <trkpt lat="43.68219" lon="5.65181">
        <ele>250.80000305176</ele>
        <time>2013-02-16T09:15:10.000Z</time>
      </trkpt>
      <trkpt lat="43.68215" lon="5.65178">
        <ele>250.19999694824</ele>
        <time>2013-02-16T09:15:11.000Z</time>
      </trkpt>
      <trkpt lat="43.68206" lon="5.65167">
        <ele>248.80000305176</ele>
        <time>2013-02-16T09:15:14.000Z</time>
      </trkpt>
      <trkpt lat="43.68199" lon="5.65159">
        <ele>248.19999694824</ele>
        <time>2013-02-16T09:15:16.000Z</time>
      </trkpt>
      <trkpt lat="43.68197" lon="5.65154">
        <ele>248.19999694824</ele>
        <time>2013-02-16T09:15:17.000Z</time>
      </trkpt>
      <trkpt lat="43.68186" lon="5.65134">
        <ele>247.60000610352</ele>
        <time>2013-02-16T09:15:21.000Z</time>
      </trkpt>
      <trkpt lat="43.68184" lon="5.65129">
        <ele>247.60000610352</ele>
        <time>2013-02-16T09:15:22.000Z</time>
      </trkpt>
      <trkpt lat="43.6816" lon="5.65065">
        <ele>248.60000610352</ele>
        <time>2013-02-16T09:15:33.000Z</time>
      </trkpt>
      <trkpt lat="43.68156" lon="5.65055">
        <ele>249</ele>
        <time>2013-02-16T09:15:35.000Z</time>
      </trkpt>
      <trkpt lat="43.68154" lon="5.65049">
        <ele>249.60000610352</ele>
        <time>2013-02-16T09:15:36.000Z</time>
      </trkpt>
      <trkpt lat="43.68154" lon="5.65042">
        <ele>250.19999694824</ele>
        <time>2013-02-16T09:15:37.000Z</time>
      </trkpt>
      <trkpt lat="43.6815" lon="5.65016">
        <ele>252.60000610352</ele>
        <time>2013-02-16T09:15:41.000Z</time>
      </trkpt>
      <trkpt lat="43.68147" lon="5.65011">
        <ele>252.60000610352</ele>
        <time>2013-02-16T09:15:42.000Z</time>
      </trkpt>
      <trkpt lat="43.68144" lon="5.65005">
        <ele>252.19999694824</ele>
        <time>2013-02-16T09:15:43.000Z</time>
      </trkpt>
      <trkpt lat="43.68141" lon="5.65">
        <ele>251.60000610352</ele>
        <time>2013-02-16T09:15:44.000Z</time>
      </trkpt>
      <trkpt lat="43.68137" lon="5.64995">
        <ele>250.80000305176</ele>
        <time>2013-02-16T09:15:45.000Z</time>
      </trkpt>
      <trkpt lat="43.68134" lon="5.64991">
        <ele>250</ele>
        <time>2013-02-16T09:15:46.000Z</time>
      </trkpt>
      <trkpt lat="43.6813" lon="5.64986">
        <ele>249.60000610352</ele>
        <time>2013-02-16T09:15:47.000Z</time>
      </trkpt>
      <trkpt lat="43.68128" lon="5.6498">
        <ele>249.19999694824</ele>
        <time>2013-02-16T09:15:48.000Z</time>
      </trkpt>
      <trkpt lat="43.68126" lon="5.64974">
        <ele>249.19999694824</ele>
        <time>2013-02-16T09:15:49.000Z</time>
      </trkpt>
      <trkpt lat="43.68124" lon="5.64968">
        <ele>249.39999389648</ele>
        <time>2013-02-16T09:15:50.000Z</time>
      </trkpt>
      <trkpt lat="43.68122" lon="5.64961">
        <ele>249.60000610352</ele>
        <time>2013-02-16T09:15:51.000Z</time>
      </trkpt>
      <trkpt lat="43.68121" lon="5.64955">
        <ele>250</ele>
        <time>2013-02-16T09:15:52.000Z</time>
      </trkpt>
      <trkpt lat="43.68114" lon="5.64918">
        <ele>252</ele>
        <time>2013-02-16T09:16:00.000Z</time>
      </trkpt>
      <trkpt lat="43.68116" lon="5.64916">
        <ele>252.60000610352</ele>
        <time>2013-02-16T09:16:06.000Z</time>
      </trkpt>
      <trkpt lat="43.68116" lon="5.64917">
        <ele>252.80000305176</ele>
        <time>2013-02-16T09:16:36.000Z</time>
      </trkpt>
      <trkpt lat="43.68119" lon="5.64913">
        <ele>254.19999694824</ele>
        <time>2013-02-16T09:17:05.000Z</time>
      </trkpt>
      <trkpt lat="43.68118" lon="5.64914">
        <ele>253.80000305176</ele>
        <time>2013-02-16T09:17:34.000Z</time>
      </trkpt>
      <trkpt lat="43.68115" lon="5.64917">
        <ele>252.19999694824</ele>
        <time>2013-02-16T09:18:07.000Z</time>
      </trkpt>
      <trkpt lat="43.68118" lon="5.6491">
        <ele>254.19999694824</ele>
        <time>2013-02-16T09:18:38.000Z</time>
      </trkpt>
      <trkpt lat="43.68119" lon="5.64911">
        <ele>254.39999389648</ele>
        <time>2013-02-16T09:19:06.000Z</time>
      </trkpt>
      <trkpt lat="43.6812" lon="5.64913">
        <ele>254.39999389648</ele>
        <time>2013-02-16T09:19:36.000Z</time>
      </trkpt>
      <trkpt lat="43.68119" lon="5.64913">
        <ele>254</ele>
        <time>2013-02-16T09:20:12.000Z</time>
      </trkpt>
      <trkpt lat="43.68116" lon="5.6491">
        <ele>253.39999389648</ele>
        <time>2013-02-16T09:20:22.000Z</time>
      </trkpt>
      <trkpt lat="43.68114" lon="5.64907">
        <ele>253</ele>
        <time>2013-02-16T09:20:24.000Z</time>
      </trkpt>
      <trkpt lat="43.68112" lon="5.64903">
        <ele>252.80000305176</ele>
        <time>2013-02-16T09:20:25.000Z</time>
      </trkpt>
      <trkpt lat="43.6811" lon="5.64899">
        <ele>252.80000305176</ele>
        <time>2013-02-16T09:20:26.000Z</time>
      </trkpt>
      <trkpt lat="43.68109" lon="5.64895">
        <ele>252.80000305176</ele>
        <time>2013-02-16T09:20:27.000Z</time>
      </trkpt>
      <trkpt lat="43.68107" lon="5.64891">
        <ele>252.60000610352</ele>
        <time>2013-02-16T09:20:28.000Z</time>
      </trkpt>
      <trkpt lat="43.68104" lon="5.64886">
        <ele>252.19999694824</ele>
        <time>2013-02-16T09:20:29.000Z</time>
      </trkpt>
      <trkpt lat="43.68102" lon="5.64881">
        <ele>252</ele>
        <time>2013-02-16T09:20:30.000Z</time>
      </trkpt>
      <trkpt lat="43.681" lon="5.64876">
        <ele>252.19999694824</ele>
        <time>2013-02-16T09:20:31.000Z</time>
      </trkpt>
      <trkpt lat="43.68098" lon="5.6487">
        <ele>252</ele>
        <time>2013-02-16T09:20:32.000Z</time>
      </trkpt>
      <trkpt lat="43.68096" lon="5.64866">
        <ele>251.80000305176</ele>
        <time>2013-02-16T09:20:33.000Z</time>
      </trkpt>
      <trkpt lat="43.68093" lon="5.64861">
        <ele>251.60000610352</ele>
        <time>2013-02-16T09:20:34.000Z</time>
      </trkpt>
      <trkpt lat="43.6809" lon="5.64857">
        <ele>251.19999694824</ele>
        <time>2013-02-16T09:20:35.000Z</time>
      </trkpt>
      <trkpt lat="43.68087" lon="5.64852">
        <ele>250.60000610352</ele>
        <time>2013-02-16T09:20:36.000Z</time>
      </trkpt>
      <trkpt lat="43.68084" lon="5.64847">
        <ele>250.39999389648</ele>
        <time>2013-02-16T09:20:37.000Z</time>
      </trkpt>
      <trkpt lat="43.68082" lon="5.64842">
        <ele>250.39999389648</ele>
        <time>2013-02-16T09:20:38.000Z</time>
      </trkpt>
      <trkpt lat="43.68065" lon="5.6481">
        <ele>250</ele>
        <time>2013-02-16T09:20:47.000Z</time>
      </trkpt>
      <trkpt lat="43.68061" lon="5.64803">
        <ele>249.60000610352</ele>
        <time>2013-02-16T09:20:49.000Z</time>
      </trkpt>
      <trkpt lat="43.68058" lon="5.64798">
        <ele>249.60000610352</ele>
        <time>2013-02-16T09:20:50.000Z</time>
      </trkpt>
      <trkpt lat="43.68037" lon="5.64769">
        <ele>247.80000305176</ele>
        <time>2013-02-16T09:20:59.000Z</time>
      </trkpt>
      <trkpt lat="43.68029" lon="5.64754">
        <ele>247.80000305176</ele>
        <time>2013-02-16T09:21:03.000Z</time>
      </trkpt>
      <trkpt lat="43.68028" lon="5.64747">
        <ele>248</ele>
        <time>2013-02-16T09:21:04.000Z</time>
      </trkpt>
      <trkpt lat="43.68029" lon="5.6474">
        <ele>248.60000610352</ele>
        <time>2013-02-16T09:21:05.000Z</time>
      </trkpt>
      <trkpt lat="43.6803" lon="5.64732">
        <ele>249.19999694824</ele>
        <time>2013-02-16T09:21:06.000Z</time>
      </trkpt>
      <trkpt lat="43.68033" lon="5.64724">
        <ele>250</ele>
        <time>2013-02-16T09:21:07.000Z</time>
      </trkpt>
      <trkpt lat="43.68035" lon="5.64717">
        <ele>250.60000610352</ele>
        <time>2013-02-16T09:21:08.000Z</time>
      </trkpt>
      <trkpt lat="43.68038" lon="5.6471">
        <ele>251.39999389648</ele>
        <time>2013-02-16T09:21:09.000Z</time>
      </trkpt>
      <trkpt lat="43.68042" lon="5.64705">
        <ele>252.39999389648</ele>
        <time>2013-02-16T09:21:10.000Z</time>
      </trkpt>
      <trkpt lat="43.68046" lon="5.64699">
        <ele>253.19999694824</ele>
        <time>2013-02-16T09:21:11.000Z</time>
      </trkpt>
      <trkpt lat="43.6805" lon="5.64694">
        <ele>254.19999694824</ele>
        <time>2013-02-16T09:21:12.000Z</time>
      </trkpt>
      <trkpt lat="43.68055" lon="5.64687">
        <ele>255</ele>
        <time>2013-02-16T09:21:13.000Z</time>
      </trkpt>
      <trkpt lat="43.68059" lon="5.6468">
        <ele>255.80000305176</ele>
        <time>2013-02-16T09:21:14.000Z</time>
      </trkpt>
      <trkpt lat="43.68062" lon="5.64673">
        <ele>256.60000610352</ele>
        <time>2013-02-16T09:21:15.000Z</time>
      </trkpt>
      <trkpt lat="43.68065" lon="5.64665">
        <ele>257.20001220703</ele>
        <time>2013-02-16T09:21:16.000Z</time>
      </trkpt>
      <trkpt lat="43.68067" lon="5.64658">
        <ele>258.39999389648</ele>
        <time>2013-02-16T09:21:17.000Z</time>
      </trkpt>
      <trkpt lat="43.68069" lon="5.64642">
        <ele>260.60000610352</ele>
        <time>2013-02-16T09:21:19.000Z</time>
      </trkpt>
      <trkpt lat="43.68068" lon="5.64633">
        <ele>261.60000610352</ele>
        <time>2013-02-16T09:21:20.000Z</time>
      </trkpt>
      <trkpt lat="43.68066" lon="5.64626">
        <ele>262.39999389648</ele>
        <time>2013-02-16T09:21:21.000Z</time>
      </trkpt>
      <trkpt lat="43.68063" lon="5.64619">
        <ele>263</ele>
        <time>2013-02-16T09:21:22.000Z</time>
      </trkpt>
      <trkpt lat="43.68059" lon="5.64616">
        <ele>263</ele>
        <time>2013-02-16T09:21:23.000Z</time>
      </trkpt>
      <trkpt lat="43.68054" lon="5.64616">
        <ele>262.79998779297</ele>
        <time>2013-02-16T09:21:24.000Z</time>
      </trkpt>
      <trkpt lat="43.6805" lon="5.64619">
        <ele>262</ele>
        <time>2013-02-16T09:21:25.000Z</time>
      </trkpt>
      <trkpt lat="43.68046" lon="5.64622">
        <ele>261.20001220703</ele>
        <time>2013-02-16T09:21:26.000Z</time>
      </trkpt>
      <trkpt lat="43.68041" lon="5.64624">
        <ele>260.60000610352</ele>
        <time>2013-02-16T09:21:27.000Z</time>
      </trkpt>
      <trkpt lat="43.68017" lon="5.64633">
        <ele>256.60000610352</ele>
        <time>2013-02-16T09:21:33.000Z</time>
      </trkpt>
      <trkpt lat="43.67984" lon="5.64637">
        <ele>252.60000610352</ele>
        <time>2013-02-16T09:21:40.000Z</time>
      </trkpt>
      <trkpt lat="43.6798" lon="5.64635">
        <ele>252.60000610352</ele>
        <time>2013-02-16T09:21:41.000Z</time>
      </trkpt>
      <trkpt lat="43.67973" lon="5.6463">
        <ele>253</ele>
        <time>2013-02-16T09:21:43.000Z</time>
      </trkpt>
      <trkpt lat="43.67943" lon="5.64595">
        <ele>257.39999389648</ele>
        <time>2013-02-16T09:21:53.000Z</time>
      </trkpt>
      <trkpt lat="43.67912" lon="5.64569">
        <ele>258.39999389648</ele>
        <time>2013-02-16T09:22:01.000Z</time>
      </trkpt>
      <trkpt lat="43.67908" lon="5.64565">
        <ele>258.60000610352</ele>
        <time>2013-02-16T09:22:02.000Z</time>
      </trkpt>
      <trkpt lat="43.67896" lon="5.64545">
        <ele>259.60000610352</ele>
        <time>2013-02-16T09:22:06.000Z</time>
      </trkpt>
      <trkpt lat="43.67893" lon="5.6454">
        <ele>260</ele>
        <time>2013-02-16T09:22:07.000Z</time>
      </trkpt>
      <trkpt lat="43.6789" lon="5.64535">
        <ele>260.20001220703</ele>
        <time>2013-02-16T09:22:08.000Z</time>
      </trkpt>
      <trkpt lat="43.67887" lon="5.6453">
        <ele>260.39999389648</ele>
        <time>2013-02-16T09:22:09.000Z</time>
      </trkpt>
      <trkpt lat="43.67884" lon="5.64525">
        <ele>260.79998779297</ele>
        <time>2013-02-16T09:22:10.000Z</time>
      </trkpt>
      <trkpt lat="43.67881" lon="5.6452">
        <ele>261</ele>
        <time>2013-02-16T09:22:11.000Z</time>
      </trkpt>
      <trkpt lat="43.67879" lon="5.64515">
        <ele>261.20001220703</ele>
        <time>2013-02-16T09:22:12.000Z</time>
      </trkpt>
      <trkpt lat="43.67849" lon="5.64467">
        <ele>263.39999389648</ele>
        <time>2013-02-16T09:22:22.000Z</time>
      </trkpt>
      <trkpt lat="43.67845" lon="5.64463">
        <ele>263.39999389648</ele>
        <time>2013-02-16T09:22:23.000Z</time>
      </trkpt>
      <trkpt lat="43.67842" lon="5.6446">
        <ele>263.20001220703</ele>
        <time>2013-02-16T09:22:24.000Z</time>
      </trkpt>
      <trkpt lat="43.67813" lon="5.64426">
        <ele>262.39999389648</ele>
        <time>2013-02-16T09:22:34.000Z</time>
      </trkpt>
      <trkpt lat="43.6781" lon="5.64422">
        <ele>262.60000610352</ele>
        <time>2013-02-16T09:22:35.000Z</time>
      </trkpt>
      <trkpt lat="43.67806" lon="5.64417">
        <ele>262.60000610352</ele>
        <time>2013-02-16T09:22:36.000Z</time>
      </trkpt>
      <trkpt lat="43.67764" lon="5.64358">
        <ele>261.20001220703</ele>
        <time>2013-02-16T09:22:47.000Z</time>
      </trkpt>
      <trkpt lat="43.67726" lon="5.64308">
        <ele>257.39999389648</ele>
        <time>2013-02-16T09:22:55.000Z</time>
      </trkpt>
      <trkpt lat="43.67683" lon="5.64246">
        <ele>253</ele>
        <time>2013-02-16T09:23:04.000Z</time>
      </trkpt>
      <trkpt lat="43.67664" lon="5.64218">
        <ele>249.60000610352</ele>
        <time>2013-02-16T09:23:08.000Z</time>
      </trkpt>
      <trkpt lat="43.6766" lon="5.64209">
        <ele>249.39999389648</ele>
        <time>2013-02-16T09:23:09.000Z</time>
      </trkpt>
      <trkpt lat="43.67657" lon="5.64201">
        <ele>249.39999389648</ele>
        <time>2013-02-16T09:23:10.000Z</time>
      </trkpt>
      <trkpt lat="43.67655" lon="5.64192">
        <ele>249.39999389648</ele>
        <time>2013-02-16T09:23:11.000Z</time>
      </trkpt>
      <trkpt lat="43.67653" lon="5.64183">
        <ele>249.39999389648</ele>
        <time>2013-02-16T09:23:12.000Z</time>
      </trkpt>
      <trkpt lat="43.67652" lon="5.64175">
        <ele>249.39999389648</ele>
        <time>2013-02-16T09:23:13.000Z</time>
      </trkpt>
      <trkpt lat="43.6765" lon="5.64166">
        <ele>249.39999389648</ele>
        <time>2013-02-16T09:23:14.000Z</time>
      </trkpt>
      <trkpt lat="43.67647" lon="5.64158">
        <ele>248.80000305176</ele>
        <time>2013-02-16T09:23:15.000Z</time>
      </trkpt>
      <trkpt lat="43.67644" lon="5.6415">
        <ele>248.19999694824</ele>
        <time>2013-02-16T09:23:16.000Z</time>
      </trkpt>
      <trkpt lat="43.67625" lon="5.64098">
        <ele>244.60000610352</ele>
        <time>2013-02-16T09:23:23.000Z</time>
      </trkpt>
      <trkpt lat="43.67623" lon="5.64091">
        <ele>244.19999694824</ele>
        <time>2013-02-16T09:23:24.000Z</time>
      </trkpt>
      <trkpt lat="43.67622" lon="5.64083">
        <ele>244</ele>
        <time>2013-02-16T09:23:25.000Z</time>
      </trkpt>
      <trkpt lat="43.67623" lon="5.64075">
        <ele>244</ele>
        <time>2013-02-16T09:23:26.000Z</time>
      </trkpt>
      <trkpt lat="43.67626" lon="5.64068">
        <ele>244.19999694824</ele>
        <time>2013-02-16T09:23:27.000Z</time>
      </trkpt>
      <trkpt lat="43.67631" lon="5.64063">
        <ele>244.80000305176</ele>
        <time>2013-02-16T09:23:28.000Z</time>
      </trkpt>
      <trkpt lat="43.67636" lon="5.64058">
        <ele>245.19999694824</ele>
        <time>2013-02-16T09:23:29.000Z</time>
      </trkpt>
      <trkpt lat="43.67642" lon="5.64054">
        <ele>245.80000305176</ele>
        <time>2013-02-16T09:23:30.000Z</time>
      </trkpt>
      <trkpt lat="43.67657" lon="5.64042">
        <ele>247.39999389648</ele>
        <time>2013-02-16T09:23:33.000Z</time>
      </trkpt>
      <trkpt lat="43.6766" lon="5.64037">
        <ele>247.39999389648</ele>
        <time>2013-02-16T09:23:34.000Z</time>
      </trkpt>
      <trkpt lat="43.67661" lon="5.64032">
        <ele>247.39999389648</ele>
        <time>2013-02-16T09:23:35.000Z</time>
      </trkpt>
      <trkpt lat="43.67659" lon="5.64027">
        <ele>247</ele>
        <time>2013-02-16T09:23:36.000Z</time>
      </trkpt>
      <trkpt lat="43.67655" lon="5.64022">
        <ele>246.60000610352</ele>
        <time>2013-02-16T09:23:37.000Z</time>
      </trkpt>
      <trkpt lat="43.67651" lon="5.64018">
        <ele>245.80000305176</ele>
        <time>2013-02-16T09:23:38.000Z</time>
      </trkpt>
      <trkpt lat="43.67645" lon="5.64014">
        <ele>245.19999694824</ele>
        <time>2013-02-16T09:23:39.000Z</time>
      </trkpt>
      <trkpt lat="43.67638" lon="5.64013">
        <ele>244.39999389648</ele>
        <time>2013-02-16T09:23:40.000Z</time>
      </trkpt>
      <trkpt lat="43.67631" lon="5.64013">
        <ele>243.80000305176</ele>
        <time>2013-02-16T09:23:41.000Z</time>
      </trkpt>
      <trkpt lat="43.67624" lon="5.64017">
        <ele>243.19999694824</ele>
        <time>2013-02-16T09:23:42.000Z</time>
      </trkpt>
      <trkpt lat="43.67618" lon="5.64023">
        <ele>242.60000610352</ele>
        <time>2013-02-16T09:23:43.000Z</time>
      </trkpt>
      <trkpt lat="43.67613" lon="5.64028">
        <ele>242.19999694824</ele>
        <time>2013-02-16T09:23:44.000Z</time>
      </trkpt>
      <trkpt lat="43.67608" lon="5.64031">
        <ele>241.60000610352</ele>
        <time>2013-02-16T09:23:45.000Z</time>
      </trkpt>
      <trkpt lat="43.67603" lon="5.64033">
        <ele>241</ele>
        <time>2013-02-16T09:23:46.000Z</time>
      </trkpt>
      <trkpt lat="43.67597" lon="5.64033">
        <ele>240.39999389648</ele>
        <time>2013-02-16T09:23:47.000Z</time>
      </trkpt>
      <trkpt lat="43.67593" lon="5.64032">
        <ele>240</ele>
        <time>2013-02-16T09:23:48.000Z</time>
      </trkpt>
      <trkpt lat="43.67585" lon="5.64031">
        <ele>239</ele>
        <time>2013-02-16T09:23:50.000Z</time>
      </trkpt>
      <trkpt lat="43.67575" lon="5.64027">
        <ele>238.39999389648</ele>
        <time>2013-02-16T09:23:52.000Z</time>
      </trkpt>
      <trkpt lat="43.67571" lon="5.64023">
        <ele>238.19999694824</ele>
        <time>2013-02-16T09:23:53.000Z</time>
      </trkpt>
      <trkpt lat="43.67568" lon="5.64018">
        <ele>238</ele>
        <time>2013-02-16T09:23:54.000Z</time>
      </trkpt>
      <trkpt lat="43.67566" lon="5.64014">
        <ele>238</ele>
        <time>2013-02-16T09:23:55.000Z</time>
      </trkpt>
      <trkpt lat="43.67563" lon="5.64012">
        <ele>237.80000305176</ele>
        <time>2013-02-16T09:23:56.000Z</time>
      </trkpt>
      <trkpt lat="43.67561" lon="5.64011">
        <ele>237.60000610352</ele>
        <time>2013-02-16T09:23:57.000Z</time>
      </trkpt>
      <trkpt lat="43.67558" lon="5.64014">
        <ele>237.60000610352</ele>
        <time>2013-02-16T09:23:58.000Z</time>
      </trkpt>
      <trkpt lat="43.67557" lon="5.64017">
        <ele>237.39999389648</ele>
        <time>2013-02-16T09:23:59.000Z</time>
      </trkpt>
      <trkpt lat="43.67555" lon="5.64021">
        <ele>237.19999694824</ele>
        <time>2013-02-16T09:24:00.000Z</time>
      </trkpt>
      <trkpt lat="43.67553" lon="5.64024">
        <ele>237</ele>
        <time>2013-02-16T09:24:01.000Z</time>
      </trkpt>
      <trkpt lat="43.6755" lon="5.64028">
        <ele>236.80000305176</ele>
        <time>2013-02-16T09:24:02.000Z</time>
      </trkpt>
      <trkpt lat="43.67547" lon="5.6403">
        <ele>236.60000610352</ele>
        <time>2013-02-16T09:24:03.000Z</time>
      </trkpt>
      <trkpt lat="43.67543" lon="5.64032">
        <ele>236.19999694824</ele>
        <time>2013-02-16T09:24:04.000Z</time>
      </trkpt>
      <trkpt lat="43.67539" lon="5.64033">
        <ele>236</ele>
        <time>2013-02-16T09:24:05.000Z</time>
      </trkpt>
      <trkpt lat="43.67528" lon="5.64036">
        <ele>235</ele>
        <time>2013-02-16T09:24:08.000Z</time>
      </trkpt>
      <trkpt lat="43.67525" lon="5.64037">
        <ele>235</ele>
        <time>2013-02-16T09:24:09.000Z</time>
      </trkpt>
      <trkpt lat="43.67514" lon="5.64033">
        <ele>234.19999694824</ele>
        <time>2013-02-16T09:24:17.000Z</time>
      </trkpt>
      <trkpt lat="43.67512" lon="5.64004">
        <ele>235.19999694824</ele>
        <time>2013-02-16T09:24:23.000Z</time>
      </trkpt>
      <trkpt lat="43.67511" lon="5.63998">
        <ele>235.60000610352</ele>
        <time>2013-02-16T09:24:24.000Z</time>
      </trkpt>
      <trkpt lat="43.6751" lon="5.63991">
        <ele>236</ele>
        <time>2013-02-16T09:24:25.000Z</time>
      </trkpt>
      <trkpt lat="43.67507" lon="5.63984">
        <ele>236.39999389648</ele>
        <time>2013-02-16T09:24:26.000Z</time>
      </trkpt>
      <trkpt lat="43.67505" lon="5.63977">
        <ele>236.80000305176</ele>
        <time>2013-02-16T09:24:27.000Z</time>
      </trkpt>
      <trkpt lat="43.67498" lon="5.63957">
        <ele>237.60000610352</ele>
        <time>2013-02-16T09:24:30.000Z</time>
      </trkpt>
      <trkpt lat="43.67476" lon="5.63895">
        <ele>238.19999694824</ele>
        <time>2013-02-16T09:24:40.000Z</time>
      </trkpt>
      <trkpt lat="43.67475" lon="5.63889">
        <ele>238.19999694824</ele>
        <time>2013-02-16T09:24:41.000Z</time>
      </trkpt>
      <trkpt lat="43.6747" lon="5.6387">
        <ele>238.60000610352</ele>
        <time>2013-02-16T09:24:44.000Z</time>
      </trkpt>
      <trkpt lat="43.67458" lon="5.63844">
        <ele>237.80000305176</ele>
        <time>2013-02-16T09:24:48.000Z</time>
      </trkpt>
      <trkpt lat="43.67449" lon="5.63823">
        <ele>237.19999694824</ele>
        <time>2013-02-16T09:24:51.000Z</time>
      </trkpt>
      <trkpt lat="43.67446" lon="5.63817">
        <ele>237.19999694824</ele>
        <time>2013-02-16T09:24:52.000Z</time>
      </trkpt>
      <trkpt lat="43.67439" lon="5.63801">
        <ele>236.80000305176</ele>
        <time>2013-02-16T09:24:55.000Z</time>
      </trkpt>
      <trkpt lat="43.67405" lon="5.63747">
        <ele>234.80000305176</ele>
        <time>2013-02-16T09:25:07.000Z</time>
      </trkpt>
      <trkpt lat="43.67403" lon="5.63741">
        <ele>234.60000610352</ele>
        <time>2013-02-16T09:25:08.000Z</time>
      </trkpt>
      <trkpt lat="43.67395" lon="5.63716">
        <ele>233.60000610352</ele>
        <time>2013-02-16T09:25:12.000Z</time>
      </trkpt>
      <trkpt lat="43.67393" lon="5.6371">
        <ele>233.39999389648</ele>
        <time>2013-02-16T09:25:13.000Z</time>
      </trkpt>
      <trkpt lat="43.67392" lon="5.63705">
        <ele>233.19999694824</ele>
        <time>2013-02-16T09:25:14.000Z</time>
      </trkpt>
      <trkpt lat="43.6739" lon="5.637">
        <ele>233</ele>
        <time>2013-02-16T09:25:15.000Z</time>
      </trkpt>
      <trkpt lat="43.67389" lon="5.63694">
        <ele>233</ele>
        <time>2013-02-16T09:25:16.000Z</time>
      </trkpt>
      <trkpt lat="43.67389" lon="5.63689">
        <ele>233</ele>
        <time>2013-02-16T09:25:17.000Z</time>
      </trkpt>
      <trkpt lat="43.67388" lon="5.6367">
        <ele>233.19999694824</ele>
        <time>2013-02-16T09:25:20.000Z</time>
      </trkpt>
      <trkpt lat="43.67386" lon="5.63664">
        <ele>233</ele>
        <time>2013-02-16T09:25:21.000Z</time>
      </trkpt>
      <trkpt lat="43.67383" lon="5.6366">
        <ele>232.80000305176</ele>
        <time>2013-02-16T09:25:22.000Z</time>
      </trkpt>
      <trkpt lat="43.67379" lon="5.63657">
        <ele>232.39999389648</ele>
        <time>2013-02-16T09:25:23.000Z</time>
      </trkpt>
      <trkpt lat="43.67375" lon="5.63654">
        <ele>232</ele>
        <time>2013-02-16T09:25:24.000Z</time>
      </trkpt>
      <trkpt lat="43.67372" lon="5.6365">
        <ele>232</ele>
        <time>2013-02-16T09:25:25.000Z</time>
      </trkpt>
      <trkpt lat="43.67371" lon="5.63645">
        <ele>232</ele>
        <time>2013-02-16T09:25:26.000Z</time>
      </trkpt>
      <trkpt lat="43.6737" lon="5.63639">
        <ele>232.19999694824</ele>
        <time>2013-02-16T09:25:27.000Z</time>
      </trkpt>
      <trkpt lat="43.67361" lon="5.63594">
        <ele>233.19999694824</ele>
        <time>2013-02-16T09:25:36.000Z</time>
      </trkpt>
      <trkpt lat="43.67342" lon="5.63535">
        <ele>235.60000610352</ele>
        <time>2013-02-16T09:25:48.000Z</time>
      </trkpt>
      <trkpt lat="43.67316" lon="5.63485">
        <ele>236.80000305176</ele>
        <time>2013-02-16T09:25:59.000Z</time>
      </trkpt>
      <trkpt lat="43.67296" lon="5.63453">
        <ele>236.80000305176</ele>
        <time>2013-02-16T09:26:08.000Z</time>
      </trkpt>
      <trkpt lat="43.67296" lon="5.63449">
        <ele>237.19999694824</ele>
        <time>2013-02-16T09:26:10.000Z</time>
      </trkpt>
      <trkpt lat="43.67297" lon="5.63447">
        <ele>237.39999389648</ele>
        <time>2013-02-16T09:26:11.000Z</time>
      </trkpt>
      <trkpt lat="43.67299" lon="5.63445">
        <ele>237.60000610352</ele>
        <time>2013-02-16T09:26:12.000Z</time>
      </trkpt>
      <trkpt lat="43.67301" lon="5.63444">
        <ele>237.80000305176</ele>
        <time>2013-02-16T09:26:13.000Z</time>
      </trkpt>
      <trkpt lat="43.67303" lon="5.63442">
        <ele>238.19999694824</ele>
        <time>2013-02-16T09:26:14.000Z</time>
      </trkpt>
      <trkpt lat="43.67305" lon="5.63439">
        <ele>238.60000610352</ele>
        <time>2013-02-16T09:26:15.000Z</time>
      </trkpt>
      <trkpt lat="43.67308" lon="5.63437">
        <ele>238.80000305176</ele>
        <time>2013-02-16T09:26:16.000Z</time>
      </trkpt>
      <trkpt lat="43.6731" lon="5.63434">
        <ele>239.19999694824</ele>
        <time>2013-02-16T09:26:17.000Z</time>
      </trkpt>
      <trkpt lat="43.67315" lon="5.63429">
        <ele>239.80000305176</ele>
        <time>2013-02-16T09:26:19.000Z</time>
      </trkpt>
      <trkpt lat="43.67316" lon="5.63425">
        <ele>240.19999694824</ele>
        <time>2013-02-16T09:26:20.000Z</time>
      </trkpt>
      <trkpt lat="43.67316" lon="5.63421">
        <ele>240.39999389648</ele>
        <time>2013-02-16T09:26:21.000Z</time>
      </trkpt>
      <trkpt lat="43.67317" lon="5.63418">
        <ele>240.60000610352</ele>
        <time>2013-02-16T09:26:22.000Z</time>
      </trkpt>
      <trkpt lat="43.67315" lon="5.63416">
        <ele>240.60000610352</ele>
        <time>2013-02-16T09:26:23.000Z</time>
      </trkpt>
      <trkpt lat="43.67314" lon="5.63414">
        <ele>240.80000305176</ele>
        <time>2013-02-16T09:26:24.000Z</time>
      </trkpt>
      <trkpt lat="43.67312" lon="5.63412">
        <ele>240.80000305176</ele>
        <time>2013-02-16T09:26:25.000Z</time>
      </trkpt>
      <trkpt lat="43.6731" lon="5.6341">
        <ele>240.60000610352</ele>
        <time>2013-02-16T09:26:26.000Z</time>
      </trkpt>
      <trkpt lat="43.67308" lon="5.63409">
        <ele>240.60000610352</ele>
        <time>2013-02-16T09:26:27.000Z</time>
      </trkpt>
      <trkpt lat="43.67306" lon="5.63407">
        <ele>240.60000610352</ele>
        <time>2013-02-16T09:26:28.000Z</time>
      </trkpt>
      <trkpt lat="43.67304" lon="5.63405">
        <ele>240.60000610352</ele>
        <time>2013-02-16T09:26:29.000Z</time>
      </trkpt>
      <trkpt lat="43.67303" lon="5.63403">
        <ele>240.60000610352</ele>
        <time>2013-02-16T09:26:30.000Z</time>
      </trkpt>
      <trkpt lat="43.67302" lon="5.63402">
        <ele>240.60000610352</ele>
        <time>2013-02-16T09:26:31.000Z</time>
      </trkpt>
      <trkpt lat="43.67301" lon="5.634">
        <ele>240.60000610352</ele>
        <time>2013-02-16T09:26:32.000Z</time>
      </trkpt>
      <trkpt lat="43.67299" lon="5.63399">
        <ele>240.60000610352</ele>
        <time>2013-02-16T09:26:33.000Z</time>
      </trkpt>
      <trkpt lat="43.67297" lon="5.63398">
        <ele>240.60000610352</ele>
        <time>2013-02-16T09:26:34.000Z</time>
      </trkpt>
      <trkpt lat="43.67296" lon="5.63396">
        <ele>240.60000610352</ele>
        <time>2013-02-16T09:26:35.000Z</time>
      </trkpt>
      <trkpt lat="43.67294" lon="5.63395">
        <ele>240.60000610352</ele>
        <time>2013-02-16T09:26:36.000Z</time>
      </trkpt>
      <trkpt lat="43.67285" lon="5.63381">
        <ele>240.60000610352</ele>
        <time>2013-02-16T09:26:45.000Z</time>
      </trkpt>
      <trkpt lat="43.67275" lon="5.63361">
        <ele>241</ele>
        <time>2013-02-16T09:26:56.000Z</time>
      </trkpt>
      <trkpt lat="43.67271" lon="5.63337">
        <ele>242</ele>
        <time>2013-02-16T09:27:06.000Z</time>
      </trkpt>
      <trkpt lat="43.67272" lon="5.63334">
        <ele>242.19999694824</ele>
        <time>2013-02-16T09:27:07.000Z</time>
      </trkpt>
      <trkpt lat="43.67273" lon="5.63331">
        <ele>242.60000610352</ele>
        <time>2013-02-16T09:27:09.000Z</time>
      </trkpt>
      <trkpt lat="43.67274" lon="5.63329">
        <ele>242.80000305176</ele>
        <time>2013-02-16T09:27:10.000Z</time>
      </trkpt>
      <trkpt lat="43.67275" lon="5.63327">
        <ele>243</ele>
        <time>2013-02-16T09:27:11.000Z</time>
      </trkpt>
      <trkpt lat="43.67276" lon="5.63325">
        <ele>243.19999694824</ele>
        <time>2013-02-16T09:27:12.000Z</time>
      </trkpt>
      <trkpt lat="43.67277" lon="5.63323">
        <ele>243.60000610352</ele>
        <time>2013-02-16T09:27:13.000Z</time>
      </trkpt>
      <trkpt lat="43.67277" lon="5.63321">
        <ele>243.80000305176</ele>
        <time>2013-02-16T09:27:14.000Z</time>
      </trkpt>
      <trkpt lat="43.6728" lon="5.63308">
        <ele>245</ele>
        <time>2013-02-16T09:27:21.000Z</time>
      </trkpt>
      <trkpt lat="43.67282" lon="5.63281">
        <ele>247.19999694824</ele>
        <time>2013-02-16T09:27:31.000Z</time>
      </trkpt>
      <trkpt lat="43.67281" lon="5.63276">
        <ele>247.39999389648</ele>
        <time>2013-02-16T09:27:32.000Z</time>
      </trkpt>
      <trkpt lat="43.67257" lon="5.63241">
        <ele>247</ele>
        <time>2013-02-16T09:27:42.000Z</time>
      </trkpt>
      <trkpt lat="43.6724" lon="5.63203">
        <ele>246</ele>
        <time>2013-02-16T09:27:51.000Z</time>
      </trkpt>
      <trkpt lat="43.67238" lon="5.63179">
        <ele>246.80000305176</ele>
        <time>2013-02-16T09:27:56.000Z</time>
      </trkpt>
      <trkpt lat="43.67237" lon="5.63173">
        <ele>246.80000305176</ele>
        <time>2013-02-16T09:27:57.000Z</time>
      </trkpt>
      <trkpt lat="43.67231" lon="5.63155">
        <ele>246.60000610352</ele>
        <time>2013-02-16T09:28:00.000Z</time>
      </trkpt>
      <trkpt lat="43.67228" lon="5.63151">
        <ele>246.39999389648</ele>
        <time>2013-02-16T09:28:01.000Z</time>
      </trkpt>
      <trkpt lat="43.67226" lon="5.63147">
        <ele>246</ele>
        <time>2013-02-16T09:28:02.000Z</time>
      </trkpt>
      <trkpt lat="43.67224" lon="5.63144">
        <ele>245.80000305176</ele>
        <time>2013-02-16T09:28:03.000Z</time>
      </trkpt>
      <trkpt lat="43.67223" lon="5.6314">
        <ele>245.80000305176</ele>
        <time>2013-02-16T09:28:04.000Z</time>
      </trkpt>
      <trkpt lat="43.67222" lon="5.63137">
        <ele>245.60000610352</ele>
        <time>2013-02-16T09:28:05.000Z</time>
      </trkpt>
      <trkpt lat="43.67216" lon="5.63117">
        <ele>245.60000610352</ele>
        <time>2013-02-16T09:28:10.000Z</time>
      </trkpt>
      <trkpt lat="43.67211" lon="5.63076">
        <ele>246.80000305176</ele>
        <time>2013-02-16T09:28:16.000Z</time>
      </trkpt>
      <trkpt lat="43.67198" lon="5.63016">
        <ele>248.19999694824</ele>
        <time>2013-02-16T09:28:26.000Z</time>
      </trkpt>
      <trkpt lat="43.67185" lon="5.62959">
        <ele>249.60000610352</ele>
        <time>2013-02-16T09:28:37.000Z</time>
      </trkpt>
      <trkpt lat="43.67179" lon="5.62944">
        <ele>248.80000305176</ele>
        <time>2013-02-16T09:28:40.000Z</time>
      </trkpt>
      <trkpt lat="43.67177" lon="5.62937">
        <ele>248.80000305176</ele>
        <time>2013-02-16T09:28:41.000Z</time>
      </trkpt>
      <trkpt lat="43.6716" lon="5.62872">
        <ele>248</ele>
        <time>2013-02-16T09:28:51.000Z</time>
      </trkpt>
      <trkpt lat="43.67152" lon="5.62845">
        <ele>247.80000305176</ele>
        <time>2013-02-16T09:28:56.000Z</time>
      </trkpt>
      <trkpt lat="43.67153" lon="5.6284">
        <ele>248.39999389648</ele>
        <time>2013-02-16T09:28:57.000Z</time>
      </trkpt>
      <trkpt lat="43.67155" lon="5.62835">
        <ele>249</ele>
        <time>2013-02-16T09:28:58.000Z</time>
      </trkpt>
      <trkpt lat="43.67157" lon="5.62831">
        <ele>250</ele>
        <time>2013-02-16T09:28:59.000Z</time>
      </trkpt>
      <trkpt lat="43.6716" lon="5.62825">
        <ele>250.80000305176</ele>
        <time>2013-02-16T09:29:00.000Z</time>
      </trkpt>
      <trkpt lat="43.67163" lon="5.62819">
        <ele>252</ele>
        <time>2013-02-16T09:29:01.000Z</time>
      </trkpt>
      <trkpt lat="43.67166" lon="5.62811">
        <ele>253</ele>
        <time>2013-02-16T09:29:02.000Z</time>
      </trkpt>
      <trkpt lat="43.67168" lon="5.62803">
        <ele>254</ele>
        <time>2013-02-16T09:29:03.000Z</time>
      </trkpt>
      <trkpt lat="43.67169" lon="5.62795">
        <ele>254.80000305176</ele>
        <time>2013-02-16T09:29:04.000Z</time>
      </trkpt>
      <trkpt lat="43.67169" lon="5.62788">
        <ele>255.39999389648</ele>
        <time>2013-02-16T09:29:05.000Z</time>
      </trkpt>
      <trkpt lat="43.6717" lon="5.62773">
        <ele>256.60000610352</ele>
        <time>2013-02-16T09:29:07.000Z</time>
      </trkpt>
      <trkpt lat="43.67171" lon="5.62766">
        <ele>257.20001220703</ele>
        <time>2013-02-16T09:29:08.000Z</time>
      </trkpt>
      <trkpt lat="43.67173" lon="5.62741">
        <ele>259.20001220703</ele>
        <time>2013-02-16T09:29:12.000Z</time>
      </trkpt>
      <trkpt lat="43.67172" lon="5.62736">
        <ele>259.60000610352</ele>
        <time>2013-02-16T09:29:13.000Z</time>
      </trkpt>
      <trkpt lat="43.67166" lon="5.6269">
        <ele>261.20001220703</ele>
        <time>2013-02-16T09:29:22.000Z</time>
      </trkpt>
      <trkpt lat="43.67165" lon="5.62633">
        <ele>262.39999389648</ele>
        <time>2013-02-16T09:29:34.000Z</time>
      </trkpt>
      <trkpt lat="43.67171" lon="5.62599">
        <ele>262.60000610352</ele>
        <time>2013-02-16T09:29:42.000Z</time>
      </trkpt>
      <trkpt lat="43.6717" lon="5.62593">
        <ele>262.39999389648</ele>
        <time>2013-02-16T09:29:43.000Z</time>
      </trkpt>
      <trkpt lat="43.67171" lon="5.62572">
        <ele>262</ele>
        <time>2013-02-16T09:29:47.000Z</time>
      </trkpt>
      <trkpt lat="43.67173" lon="5.62556">
        <ele>261.79998779297</ele>
        <time>2013-02-16T09:29:53.000Z</time>
      </trkpt>
      <trkpt lat="43.67175" lon="5.62555">
        <ele>261.79998779297</ele>
        <time>2013-02-16T09:30:06.000Z</time>
      </trkpt>
      <trkpt lat="43.67175" lon="5.62556">
        <ele>262</ele>
        <time>2013-02-16T09:30:26.000Z</time>
      </trkpt>
      <trkpt lat="43.67174" lon="5.62554">
        <ele>261.79998779297</ele>
        <time>2013-02-16T09:30:35.000Z</time>
      </trkpt>
      <trkpt lat="43.67173" lon="5.62553">
        <ele>261.60000610352</ele>
        <time>2013-02-16T09:30:36.000Z</time>
      </trkpt>
      <trkpt lat="43.67172" lon="5.6255">
        <ele>261.39999389648</ele>
        <time>2013-02-16T09:30:37.000Z</time>
      </trkpt>
      <trkpt lat="43.67171" lon="5.62546">
        <ele>261</ele>
        <time>2013-02-16T09:30:38.000Z</time>
      </trkpt>
      <trkpt lat="43.67169" lon="5.6254">
        <ele>260.60000610352</ele>
        <time>2013-02-16T09:30:39.000Z</time>
      </trkpt>
      <trkpt lat="43.67167" lon="5.62533">
        <ele>260.20001220703</ele>
        <time>2013-02-16T09:30:40.000Z</time>
      </trkpt>
      <trkpt lat="43.67164" lon="5.62524">
        <ele>259.60000610352</ele>
        <time>2013-02-16T09:30:41.000Z</time>
      </trkpt>
      <trkpt lat="43.67162" lon="5.62514">
        <ele>259</ele>
        <time>2013-02-16T09:30:42.000Z</time>
      </trkpt>
      <trkpt lat="43.67156" lon="5.62492">
        <ele>258</ele>
        <time>2013-02-16T09:30:44.000Z</time>
      </trkpt>
      <trkpt lat="43.67152" lon="5.62482">
        <ele>257.79998779297</ele>
        <time>2013-02-16T09:30:45.000Z</time>
      </trkpt>
      <trkpt lat="43.67145" lon="5.62465">
        <ele>257</ele>
        <time>2013-02-16T09:30:47.000Z</time>
      </trkpt>
      <trkpt lat="43.67121" lon="5.62387">
        <ele>255.19999694824</ele>
        <time>2013-02-16T09:30:55.000Z</time>
      </trkpt>
      <trkpt lat="43.67105" lon="5.62333">
        <ele>255.60000610352</ele>
        <time>2013-02-16T09:31:03.000Z</time>
      </trkpt>
      <trkpt lat="43.67095" lon="5.62301">
        <ele>257</ele>
        <time>2013-02-16T09:31:09.000Z</time>
      </trkpt>
      <trkpt lat="43.67083" lon="5.62271">
        <ele>258.20001220703</ele>
        <time>2013-02-16T09:31:14.000Z</time>
      </trkpt>
      <trkpt lat="43.67065" lon="5.62215">
        <ele>259.20001220703</ele>
        <time>2013-02-16T09:31:26.000Z</time>
      </trkpt>
      <trkpt lat="43.6705" lon="5.62179">
        <ele>258.39999389648</ele>
        <time>2013-02-16T09:31:36.000Z</time>
      </trkpt>
      <trkpt lat="43.67037" lon="5.6214">
        <ele>256.79998779297</ele>
        <time>2013-02-16T09:31:46.000Z</time>
      </trkpt>
      <trkpt lat="43.67021" lon="5.62104">
        <ele>254.39999389648</ele>
        <time>2013-02-16T09:31:56.000Z</time>
      </trkpt>
      <trkpt lat="43.67012" lon="5.62077">
        <ele>252.39999389648</ele>
        <time>2013-02-16T09:32:01.000Z</time>
      </trkpt>
      <trkpt lat="43.67006" lon="5.62061">
        <ele>251</ele>
        <time>2013-02-16T09:32:04.000Z</time>
      </trkpt>
      <trkpt lat="43.66997" lon="5.62038">
        <ele>248.80000305176</ele>
        <time>2013-02-16T09:32:08.000Z</time>
      </trkpt>
      <trkpt lat="43.66994" lon="5.62031">
        <ele>248</ele>
        <time>2013-02-16T09:32:09.000Z</time>
      </trkpt>
      <trkpt lat="43.66987" lon="5.62016">
        <ele>246.60000610352</ele>
        <time>2013-02-16T09:32:11.000Z</time>
      </trkpt>
      <trkpt lat="43.66978" lon="5.61995">
        <ele>245</ele>
        <time>2013-02-16T09:32:14.000Z</time>
      </trkpt>
      <trkpt lat="43.66975" lon="5.61981">
        <ele>244.39999389648</ele>
        <time>2013-02-16T09:32:17.000Z</time>
      </trkpt>
      <trkpt lat="43.66972" lon="5.61964">
        <ele>243.80000305176</ele>
        <time>2013-02-16T09:32:20.000Z</time>
      </trkpt>
      <trkpt lat="43.66964" lon="5.61944">
        <ele>243.39999389648</ele>
        <time>2013-02-16T09:32:23.000Z</time>
      </trkpt>
      <trkpt lat="43.66959" lon="5.61934">
        <ele>243.39999389648</ele>
        <time>2013-02-16T09:32:26.000Z</time>
      </trkpt>
      <trkpt lat="43.66959" lon="5.61933">
        <ele>243.39999389648</ele>
        <time>2013-02-16T09:32:27.000Z</time>
      </trkpt>
      <trkpt lat="43.6696" lon="5.61932">
        <ele>243.39999389648</ele>
        <time>2013-02-16T09:32:43.000Z</time>
      </trkpt>
      <trkpt lat="43.66953" lon="5.61921">
        <ele>243.60000610352</ele>
        <time>2013-02-16T09:33:03.000Z</time>
      </trkpt>
      <trkpt lat="43.66946" lon="5.61912">
        <ele>244.19999694824</ele>
        <time>2013-02-16T09:33:05.000Z</time>
      </trkpt>
      <trkpt lat="43.66943" lon="5.61911">
        <ele>244.39999389648</ele>
        <time>2013-02-16T09:33:06.000Z</time>
      </trkpt>
      <trkpt lat="43.6694" lon="5.61911">
        <ele>244.39999389648</ele>
        <time>2013-02-16T09:33:07.000Z</time>
      </trkpt>
      <trkpt lat="43.66922" lon="5.61915">
        <ele>244.80000305176</ele>
        <time>2013-02-16T09:33:14.000Z</time>
      </trkpt>
      <trkpt lat="43.669" lon="5.61916">
        <ele>245.39999389648</ele>
        <time>2013-02-16T09:33:24.000Z</time>
      </trkpt>
      <trkpt lat="43.6689" lon="5.61946">
        <ele>244.39999389648</ele>
        <time>2013-02-16T09:33:35.000Z</time>
      </trkpt>
      <trkpt lat="43.66888" lon="5.61947">
        <ele>244.39999389648</ele>
        <time>2013-02-16T09:33:36.000Z</time>
      </trkpt>
      <trkpt lat="43.66887" lon="5.61946">
        <ele>244.60000610352</ele>
        <time>2013-02-16T09:33:37.000Z</time>
      </trkpt>
      <trkpt lat="43.66886" lon="5.61945">
        <ele>244.80000305176</ele>
        <time>2013-02-16T09:33:38.000Z</time>
      </trkpt>
      <trkpt lat="43.66885" lon="5.61942">
        <ele>244.80000305176</ele>
        <time>2013-02-16T09:33:39.000Z</time>
      </trkpt>
      <trkpt lat="43.66884" lon="5.61939">
        <ele>245</ele>
        <time>2013-02-16T09:33:40.000Z</time>
      </trkpt>
      <trkpt lat="43.66884" lon="5.61936">
        <ele>245.19999694824</ele>
        <time>2013-02-16T09:33:41.000Z</time>
      </trkpt>
      <trkpt lat="43.66884" lon="5.61933">
        <ele>245.39999389648</ele>
        <time>2013-02-16T09:33:42.000Z</time>
      </trkpt>
      <trkpt lat="43.66884" lon="5.6193">
        <ele>245.39999389648</ele>
        <time>2013-02-16T09:33:43.000Z</time>
      </trkpt>
      <trkpt lat="43.66885" lon="5.61926">
        <ele>245.60000610352</ele>
        <time>2013-02-16T09:33:44.000Z</time>
      </trkpt>
      <trkpt lat="43.66891" lon="5.61902">
        <ele>246.19999694824</ele>
        <time>2013-02-16T09:33:53.000Z</time>
      </trkpt>
      <trkpt lat="43.66906" lon="5.61879">
        <ele>246.80000305176</ele>
        <time>2013-02-16T09:34:03.000Z</time>
      </trkpt>
      <trkpt lat="43.66932" lon="5.61861">
        <ele>248</ele>
        <time>2013-02-16T09:34:15.000Z</time>
      </trkpt>
      <trkpt lat="43.66964" lon="5.61845">
        <ele>251</ele>
        <time>2013-02-16T09:34:28.000Z</time>
      </trkpt>
      <trkpt lat="43.66976" lon="5.61836">
        <ele>252.80000305176</ele>
        <time>2013-02-16T09:34:33.000Z</time>
      </trkpt>
      <trkpt lat="43.66998" lon="5.61822">
        <ele>256.20001220703</ele>
        <time>2013-02-16T09:34:43.000Z</time>
      </trkpt>
      <trkpt lat="43.67017" lon="5.6183">
        <ele>258.39999389648</ele>
        <time>2013-02-16T09:34:51.000Z</time>
      </trkpt>
      <trkpt lat="43.67039" lon="5.61843">
        <ele>260</ele>
        <time>2013-02-16T09:35:02.000Z</time>
      </trkpt>
      <trkpt lat="43.67067" lon="5.61859">
        <ele>261.39999389648</ele>
        <time>2013-02-16T09:35:16.000Z</time>
      </trkpt>
      <trkpt lat="43.67095" lon="5.61865">
        <ele>263</ele>
        <time>2013-02-16T09:35:29.000Z</time>
      </trkpt>
      <trkpt lat="43.67125" lon="5.61868">
        <ele>264</ele>
        <time>2013-02-16T09:35:43.000Z</time>
      </trkpt>
      <trkpt lat="43.67151" lon="5.61863">
        <ele>266.79998779297</ele>
        <time>2013-02-16T09:35:55.000Z</time>
      </trkpt>
      <trkpt lat="43.67168" lon="5.61853">
        <ele>270.20001220703</ele>
        <time>2013-02-16T09:36:04.000Z</time>
      </trkpt>
      <trkpt lat="43.67193" lon="5.61837">
        <ele>272.79998779297</ele>
        <time>2013-02-16T09:36:16.000Z</time>
      </trkpt>
      <trkpt lat="43.67218" lon="5.61827">
        <ele>274.79998779297</ele>
        <time>2013-02-16T09:36:27.000Z</time>
      </trkpt>
      <trkpt lat="43.67241" lon="5.61816">
        <ele>277.79998779297</ele>
        <time>2013-02-16T09:36:38.000Z</time>
      </trkpt>
      <trkpt lat="43.67269" lon="5.61807">
        <ele>280.39999389648</ele>
        <time>2013-02-16T09:36:50.000Z</time>
      </trkpt>
      <trkpt lat="43.67272" lon="5.61806">
        <ele>280.39999389648</ele>
        <time>2013-02-16T09:36:51.000Z</time>
      </trkpt>
      <trkpt lat="43.67303" lon="5.618">
        <ele>282.20001220703</ele>
        <time>2013-02-16T09:37:04.000Z</time>
      </trkpt>
      <trkpt lat="43.67333" lon="5.6179">
        <ele>285.20001220703</ele>
        <time>2013-02-16T09:37:17.000Z</time>
      </trkpt>
      <trkpt lat="43.6736" lon="5.61776">
        <ele>288.79998779297</ele>
        <time>2013-02-16T09:37:29.000Z</time>
      </trkpt>
      <trkpt lat="43.67389" lon="5.61762">
        <ele>292</ele>
        <time>2013-02-16T09:37:41.000Z</time>
      </trkpt>
      <trkpt lat="43.67419" lon="5.61749">
        <ele>294</ele>
        <time>2013-02-16T09:37:52.000Z</time>
      </trkpt>
      <trkpt lat="43.67453" lon="5.6174">
        <ele>293.39999389648</ele>
        <time>2013-02-16T09:38:04.000Z</time>
      </trkpt>
      <trkpt lat="43.67482" lon="5.61725">
        <ele>295.60000610352</ele>
        <time>2013-02-16T09:38:15.000Z</time>
      </trkpt>
      <trkpt lat="43.67513" lon="5.61707">
        <ele>298.60000610352</ele>
        <time>2013-02-16T09:38:27.000Z</time>
      </trkpt>
      <trkpt lat="43.67518" lon="5.61704">
        <ele>298.79998779297</ele>
        <time>2013-02-16T09:38:29.000Z</time>
      </trkpt>
      <trkpt lat="43.67546" lon="5.61687">
        <ele>300</ele>
        <time>2013-02-16T09:38:40.000Z</time>
      </trkpt>
      <trkpt lat="43.67574" lon="5.61676">
        <ele>298.20001220703</ele>
        <time>2013-02-16T09:38:50.000Z</time>
      </trkpt>
      <trkpt lat="43.67596" lon="5.61661">
        <ele>299</ele>
        <time>2013-02-16T09:38:59.000Z</time>
      </trkpt>
      <trkpt lat="43.67598" lon="5.6166">
        <ele>299</ele>
        <time>2013-02-16T09:39:00.000Z</time>
      </trkpt>
      <trkpt lat="43.67601" lon="5.61659">
        <ele>299</ele>
        <time>2013-02-16T09:39:01.000Z</time>
      </trkpt>
      <trkpt lat="43.67618" lon="5.61635">
        <ele>302.20001220703</ele>
        <time>2013-02-16T09:39:11.000Z</time>
      </trkpt>
      <trkpt lat="43.67628" lon="5.616">
        <ele>308.20001220703</ele>
        <time>2013-02-16T09:39:24.000Z</time>
      </trkpt>
      <trkpt lat="43.67628" lon="5.61569">
        <ele>315.20001220703</ele>
        <time>2013-02-16T09:39:35.000Z</time>
      </trkpt>
      <trkpt lat="43.6763" lon="5.61548">
        <ele>320.20001220703</ele>
        <time>2013-02-16T09:39:43.000Z</time>
      </trkpt>
      <trkpt lat="43.6765" lon="5.61543">
        <ele>314.79998779297</ele>
        <time>2013-02-16T09:39:52.000Z</time>
      </trkpt>
      <trkpt lat="43.67672" lon="5.61522">
        <ele>312.20001220703</ele>
        <time>2013-02-16T09:40:03.000Z</time>
      </trkpt>
      <trkpt lat="43.67686" lon="5.61488">
        <ele>317</ele>
        <time>2013-02-16T09:40:15.000Z</time>
      </trkpt>
      <trkpt lat="43.677" lon="5.61471">
        <ele>317.79998779297</ele>
        <time>2013-02-16T09:40:23.000Z</time>
      </trkpt>
      <trkpt lat="43.6772" lon="5.61452">
        <ele>317</ele>
        <time>2013-02-16T09:40:32.000Z</time>
      </trkpt>
      <trkpt lat="43.67741" lon="5.61416">
        <ele>318.39999389648</ele>
        <time>2013-02-16T09:40:44.000Z</time>
      </trkpt>
      <trkpt lat="43.67744" lon="5.61379">
        <ele>322.39999389648</ele>
        <time>2013-02-16T09:40:53.000Z</time>
      </trkpt>
      <trkpt lat="43.67749" lon="5.61337">
        <ele>325.79998779297</ele>
        <time>2013-02-16T09:41:04.000Z</time>
      </trkpt>
      <trkpt lat="43.67748" lon="5.61301">
        <ele>335</ele>
        <time>2013-02-16T09:41:15.000Z</time>
      </trkpt>
      <trkpt lat="43.67749" lon="5.61298">
        <ele>335.79998779297</ele>
        <time>2013-02-16T09:41:16.000Z</time>
      </trkpt>
      <trkpt lat="43.67749" lon="5.61295">
        <ele>336.20001220703</ele>
        <time>2013-02-16T09:41:17.000Z</time>
      </trkpt>
      <trkpt lat="43.6775" lon="5.61293">
        <ele>336.60000610352</ele>
        <time>2013-02-16T09:41:18.000Z</time>
      </trkpt>
      <trkpt lat="43.67752" lon="5.6129">
        <ele>337.20001220703</ele>
        <time>2013-02-16T09:41:19.000Z</time>
      </trkpt>
      <trkpt lat="43.67753" lon="5.61287">
        <ele>337.60000610352</ele>
        <time>2013-02-16T09:41:20.000Z</time>
      </trkpt>
      <trkpt lat="43.67755" lon="5.61285">
        <ele>338</ele>
        <time>2013-02-16T09:41:21.000Z</time>
      </trkpt>
      <trkpt lat="43.67757" lon="5.61283">
        <ele>338.20001220703</ele>
        <time>2013-02-16T09:41:22.000Z</time>
      </trkpt>
      <trkpt lat="43.67759" lon="5.61283">
        <ele>338.20001220703</ele>
        <time>2013-02-16T09:41:23.000Z</time>
      </trkpt>
      <trkpt lat="43.67761" lon="5.61283">
        <ele>337.79998779297</ele>
        <time>2013-02-16T09:41:24.000Z</time>
      </trkpt>
      <trkpt lat="43.67783" lon="5.61284">
        <ele>334.79998779297</ele>
        <time>2013-02-16T09:41:35.000Z</time>
      </trkpt>
      <trkpt lat="43.67786" lon="5.61284">
        <ele>334.39999389648</ele>
        <time>2013-02-16T09:41:37.000Z</time>
      </trkpt>
      <trkpt lat="43.67787" lon="5.61283">
        <ele>334.39999389648</ele>
        <time>2013-02-16T09:41:38.000Z</time>
      </trkpt>
      <trkpt lat="43.67789" lon="5.61282">
        <ele>334.60000610352</ele>
        <time>2013-02-16T09:41:39.000Z</time>
      </trkpt>
      <trkpt lat="43.6779" lon="5.61281">
        <ele>334.60000610352</ele>
        <time>2013-02-16T09:41:40.000Z</time>
      </trkpt>
      <trkpt lat="43.67792" lon="5.61281">
        <ele>334.60000610352</ele>
        <time>2013-02-16T09:41:41.000Z</time>
      </trkpt>
      <trkpt lat="43.67804" lon="5.61274">
        <ele>334.79998779297</ele>
        <time>2013-02-16T09:41:51.000Z</time>
      </trkpt>
      <trkpt lat="43.67808" lon="5.6127">
        <ele>335.60000610352</ele>
        <time>2013-02-16T09:41:54.000Z</time>
      </trkpt>
      <trkpt lat="43.67809" lon="5.61268">
        <ele>336</ele>
        <time>2013-02-16T09:41:55.000Z</time>
      </trkpt>
      <trkpt lat="43.6781" lon="5.61266">
        <ele>336.20001220703</ele>
        <time>2013-02-16T09:41:56.000Z</time>
      </trkpt>
      <trkpt lat="43.6781" lon="5.61265">
        <ele>336.60000610352</ele>
        <time>2013-02-16T09:41:57.000Z</time>
      </trkpt>
      <trkpt lat="43.67811" lon="5.61264">
        <ele>336.79998779297</ele>
        <time>2013-02-16T09:41:58.000Z</time>
      </trkpt>
      <trkpt lat="43.67812" lon="5.61262">
        <ele>337.20001220703</ele>
        <time>2013-02-16T09:41:59.000Z</time>
      </trkpt>
      <trkpt lat="43.67813" lon="5.61261">
        <ele>337.20001220703</ele>
        <time>2013-02-16T09:42:00.000Z</time>
      </trkpt>
      <trkpt lat="43.67814" lon="5.61261">
        <ele>337.39999389648</ele>
        <time>2013-02-16T09:42:01.000Z</time>
      </trkpt>
      <trkpt lat="43.67815" lon="5.61259">
        <ele>337.60000610352</ele>
        <time>2013-02-16T09:42:02.000Z</time>
      </trkpt>
      <trkpt lat="43.67824" lon="5.61247">
        <ele>340.39999389648</ele>
        <time>2013-02-16T09:42:12.000Z</time>
      </trkpt>
      <trkpt lat="43.67835" lon="5.61236">
        <ele>343.60000610352</ele>
        <time>2013-02-16T09:42:22.000Z</time>
      </trkpt>
      <trkpt lat="43.6784" lon="5.6123">
        <ele>345.39999389648</ele>
        <time>2013-02-16T09:42:27.000Z</time>
      </trkpt>
      <trkpt lat="43.67841" lon="5.61229">
        <ele>346</ele>
        <time>2013-02-16T09:42:28.000Z</time>
      </trkpt>
      <trkpt lat="43.67843" lon="5.61228">
        <ele>346.39999389648</ele>
        <time>2013-02-16T09:42:29.000Z</time>
      </trkpt>
      <trkpt lat="43.67844" lon="5.61226">
        <ele>346.60000610352</ele>
        <time>2013-02-16T09:42:30.000Z</time>
      </trkpt>
      <trkpt lat="43.67845" lon="5.61226">
        <ele>347</ele>
        <time>2013-02-16T09:42:31.000Z</time>
      </trkpt>
      <trkpt lat="43.67846" lon="5.61225">
        <ele>347</ele>
        <time>2013-02-16T09:42:32.000Z</time>
      </trkpt>
      <trkpt lat="43.67847" lon="5.61225">
        <ele>347</ele>
        <time>2013-02-16T09:42:33.000Z</time>
      </trkpt>
      <trkpt lat="43.67849" lon="5.61224">
        <ele>347.20001220703</ele>
        <time>2013-02-16T09:42:34.000Z</time>
      </trkpt>
      <trkpt lat="43.6785" lon="5.61223">
        <ele>347.39999389648</ele>
        <time>2013-02-16T09:42:35.000Z</time>
      </trkpt>
      <trkpt lat="43.67851" lon="5.61221">
        <ele>348.20001220703</ele>
        <time>2013-02-16T09:42:36.000Z</time>
      </trkpt>
      <trkpt lat="43.67851" lon="5.6122">
        <ele>348.79998779297</ele>
        <time>2013-02-16T09:42:37.000Z</time>
      </trkpt>
      <trkpt lat="43.67852" lon="5.61218">
        <ele>349.20001220703</ele>
        <time>2013-02-16T09:42:38.000Z</time>
      </trkpt>
      <trkpt lat="43.67853" lon="5.61217">
        <ele>349.60000610352</ele>
        <time>2013-02-16T09:42:39.000Z</time>
      </trkpt>
      <trkpt lat="43.67854" lon="5.61216">
        <ele>349.79998779297</ele>
        <time>2013-02-16T09:42:40.000Z</time>
      </trkpt>
      <trkpt lat="43.67856" lon="5.61215">
        <ele>350</ele>
        <time>2013-02-16T09:42:41.000Z</time>
      </trkpt>
      <trkpt lat="43.67857" lon="5.61214">
        <ele>350.39999389648</ele>
        <time>2013-02-16T09:42:42.000Z</time>
      </trkpt>
      <trkpt lat="43.67858" lon="5.61213">
        <ele>350.60000610352</ele>
        <time>2013-02-16T09:42:43.000Z</time>
      </trkpt>
      <trkpt lat="43.67859" lon="5.61213">
        <ele>350.79998779297</ele>
        <time>2013-02-16T09:42:44.000Z</time>
      </trkpt>
      <trkpt lat="43.6786" lon="5.61212">
        <ele>351</ele>
        <time>2013-02-16T09:42:45.000Z</time>
      </trkpt>
      <trkpt lat="43.67862" lon="5.61211">
        <ele>351.20001220703</ele>
        <time>2013-02-16T09:42:46.000Z</time>
      </trkpt>
      <trkpt lat="43.67863" lon="5.61209">
        <ele>351.60000610352</ele>
        <time>2013-02-16T09:42:47.000Z</time>
      </trkpt>
      <trkpt lat="43.67864" lon="5.61208">
        <ele>352</ele>
        <time>2013-02-16T09:42:48.000Z</time>
      </trkpt>
      <trkpt lat="43.67865" lon="5.61207">
        <ele>352.39999389648</ele>
        <time>2013-02-16T09:42:49.000Z</time>
      </trkpt>
      <trkpt lat="43.67866" lon="5.61205">
        <ele>353</ele>
        <time>2013-02-16T09:42:50.000Z</time>
      </trkpt>
      <trkpt lat="43.67866" lon="5.61204">
        <ele>353.39999389648</ele>
        <time>2013-02-16T09:42:51.000Z</time>
      </trkpt>
      <trkpt lat="43.67868" lon="5.61203">
        <ele>353.79998779297</ele>
        <time>2013-02-16T09:42:52.000Z</time>
      </trkpt>
      <trkpt lat="43.67869" lon="5.61202">
        <ele>353.79998779297</ele>
        <time>2013-02-16T09:42:53.000Z</time>
      </trkpt>
      <trkpt lat="43.6787" lon="5.61201">
        <ele>354</ele>
        <time>2013-02-16T09:42:54.000Z</time>
      </trkpt>
      <trkpt lat="43.67872" lon="5.612">
        <ele>354.20001220703</ele>
        <time>2013-02-16T09:42:55.000Z</time>
      </trkpt>
      <trkpt lat="43.67888" lon="5.61188">
        <ele>357.20001220703</ele>
        <time>2013-02-16T09:43:07.000Z</time>
      </trkpt>
      <trkpt lat="43.67907" lon="5.61175">
        <ele>359.79998779297</ele>
        <time>2013-02-16T09:43:20.000Z</time>
      </trkpt>
      <trkpt lat="43.67917" lon="5.61172">
        <ele>359.79998779297</ele>
        <time>2013-02-16T09:43:26.000Z</time>
      </trkpt>
      <trkpt lat="43.67919" lon="5.6117">
        <ele>360</ele>
        <time>2013-02-16T09:43:27.000Z</time>
      </trkpt>
      <trkpt lat="43.67941" lon="5.61155">
        <ele>362.20001220703</ele>
        <time>2013-02-16T09:43:40.000Z</time>
      </trkpt>
      <trkpt lat="43.67965" lon="5.61141">
        <ele>362.39999389648</ele>
        <time>2013-02-16T09:43:53.000Z</time>
      </trkpt>
      <trkpt lat="43.67983" lon="5.61121">
        <ele>364.79998779297</ele>
        <time>2013-02-16T09:44:06.000Z</time>
      </trkpt>
      <trkpt lat="43.67999" lon="5.61097">
        <ele>367.39999389648</ele>
        <time>2013-02-16T09:44:18.000Z</time>
      </trkpt>
      <trkpt lat="43.68002" lon="5.6109">
        <ele>368.60000610352</ele>
        <time>2013-02-16T09:44:21.000Z</time>
      </trkpt>
      <trkpt lat="43.68004" lon="5.61088">
        <ele>368.79998779297</ele>
        <time>2013-02-16T09:44:22.000Z</time>
      </trkpt>
      <trkpt lat="43.68014" lon="5.61072">
        <ele>370.60000610352</ele>
        <time>2013-02-16T09:44:30.000Z</time>
      </trkpt>
      <trkpt lat="43.68015" lon="5.6107">
        <ele>370.60000610352</ele>
        <time>2013-02-16T09:44:31.000Z</time>
      </trkpt>
      <trkpt lat="43.68017" lon="5.61068">
        <ele>370.79998779297</ele>
        <time>2013-02-16T09:44:32.000Z</time>
      </trkpt>
      <trkpt lat="43.68018" lon="5.61066">
        <ele>371</ele>
        <time>2013-02-16T09:44:33.000Z</time>
      </trkpt>
      <trkpt lat="43.6802" lon="5.61064">
        <ele>371</ele>
        <time>2013-02-16T09:44:34.000Z</time>
      </trkpt>
      <trkpt lat="43.68043" lon="5.61031">
        <ele>374.60000610352</ele>
        <time>2013-02-16T09:44:48.000Z</time>
      </trkpt>
      <trkpt lat="43.68069" lon="5.61001">
        <ele>378.39999389648</ele>
        <time>2013-02-16T09:45:02.000Z</time>
      </trkpt>
      <trkpt lat="43.68096" lon="5.60989">
        <ele>379.79998779297</ele>
        <time>2013-02-16T09:45:13.000Z</time>
      </trkpt>
      <trkpt lat="43.68122" lon="5.60992">
        <ele>381.20001220703</ele>
        <time>2013-02-16T09:45:23.000Z</time>
      </trkpt>
      <trkpt lat="43.68146" lon="5.61007">
        <ele>379.79998779297</ele>
        <time>2013-02-16T09:45:34.000Z</time>
      </trkpt>
      <trkpt lat="43.6817" lon="5.61031">
        <ele>377.20001220703</ele>
        <time>2013-02-16T09:45:46.000Z</time>
      </trkpt>
      <trkpt lat="43.68196" lon="5.61049">
        <ele>378.39999389648</ele>
        <time>2013-02-16T09:45:58.000Z</time>
      </trkpt>
      <trkpt lat="43.68217" lon="5.61061">
        <ele>380.20001220703</ele>
        <time>2013-02-16T09:46:09.000Z</time>
      </trkpt>
      <trkpt lat="43.68242" lon="5.61063">
        <ele>384.79998779297</ele>
        <time>2013-02-16T09:46:20.000Z</time>
      </trkpt>
      <trkpt lat="43.68262" lon="5.61076">
        <ele>385</ele>
        <time>2013-02-16T09:46:30.000Z</time>
      </trkpt>
      <trkpt lat="43.68283" lon="5.61093">
        <ele>384.60000610352</ele>
        <time>2013-02-16T09:46:41.000Z</time>
      </trkpt>
      <trkpt lat="43.68294" lon="5.61099">
        <ele>385</ele>
        <time>2013-02-16T09:46:47.000Z</time>
      </trkpt>
      <trkpt lat="43.68297" lon="5.61099">
        <ele>385.20001220703</ele>
        <time>2013-02-16T09:46:48.000Z</time>
      </trkpt>
      <trkpt lat="43.68299" lon="5.61098">
        <ele>385.39999389648</ele>
        <time>2013-02-16T09:46:49.000Z</time>
      </trkpt>
      <trkpt lat="43.68301" lon="5.61097">
        <ele>385.60000610352</ele>
        <time>2013-02-16T09:46:50.000Z</time>
      </trkpt>
      <trkpt lat="43.68302" lon="5.61095">
        <ele>385.79998779297</ele>
        <time>2013-02-16T09:46:51.000Z</time>
      </trkpt>
      <trkpt lat="43.68319" lon="5.61068">
        <ele>390.20001220703</ele>
        <time>2013-02-16T09:47:03.000Z</time>
      </trkpt>
      <trkpt lat="43.68327" lon="5.61042">
        <ele>395</ele>
        <time>2013-02-16T09:47:13.000Z</time>
      </trkpt>
      <trkpt lat="43.68337" lon="5.61026">
        <ele>398.20001220703</ele>
        <time>2013-02-16T09:47:22.000Z</time>
      </trkpt>
      <trkpt lat="43.68342" lon="5.61021">
        <ele>399.39999389648</ele>
        <time>2013-02-16T09:47:26.000Z</time>
      </trkpt>
      <trkpt lat="43.68344" lon="5.6102">
        <ele>399.60000610352</ele>
        <time>2013-02-16T09:47:27.000Z</time>
      </trkpt>
      <trkpt lat="43.68363" lon="5.61024">
        <ele>400.79998779297</ele>
        <time>2013-02-16T09:47:38.000Z</time>
      </trkpt>
      <trkpt lat="43.68382" lon="5.61028">
        <ele>402</ele>
        <time>2013-02-16T09:47:49.000Z</time>
      </trkpt>
      <trkpt lat="43.68401" lon="5.61019">
        <ele>405</ele>
        <time>2013-02-16T09:48:00.000Z</time>
      </trkpt>
      <trkpt lat="43.68419" lon="5.61007">
        <ele>408.39999389648</ele>
        <time>2013-02-16T09:48:12.000Z</time>
      </trkpt>
      <trkpt lat="43.6844" lon="5.61005">
        <ele>412.60000610352</ele>
        <time>2013-02-16T09:48:25.000Z</time>
      </trkpt>
      <trkpt lat="43.68453" lon="5.61026">
        <ele>412.39999389648</ele>
        <time>2013-02-16T09:48:37.000Z</time>
      </trkpt>
      <trkpt lat="43.68462" lon="5.61045">
        <ele>412</ele>
        <time>2013-02-16T09:48:46.000Z</time>
      </trkpt>
      <trkpt lat="43.6847" lon="5.61065">
        <ele>411</ele>
        <time>2013-02-16T09:48:55.000Z</time>
      </trkpt>
      <trkpt lat="43.68471" lon="5.61067">
        <ele>411</ele>
        <time>2013-02-16T09:48:56.000Z</time>
      </trkpt>
      <trkpt lat="43.68473" lon="5.61068">
        <ele>411.20001220703</ele>
        <time>2013-02-16T09:48:57.000Z</time>
      </trkpt>
      <trkpt lat="43.68474" lon="5.61069">
        <ele>411.39999389648</ele>
        <time>2013-02-16T09:48:58.000Z</time>
      </trkpt>
      <trkpt lat="43.68476" lon="5.61068">
        <ele>411.79998779297</ele>
        <time>2013-02-16T09:48:59.000Z</time>
      </trkpt>
      <trkpt lat="43.68479" lon="5.61068">
        <ele>412.39999389648</ele>
        <time>2013-02-16T09:49:01.000Z</time>
      </trkpt>
      <trkpt lat="43.68482" lon="5.61064">
        <ele>413.60000610352</ele>
        <time>2013-02-16T09:49:04.000Z</time>
      </trkpt>
      <trkpt lat="43.68482" lon="5.61062">
        <ele>413.79998779297</ele>
        <time>2013-02-16T09:49:05.000Z</time>
      </trkpt>
      <trkpt lat="43.68482" lon="5.61059">
        <ele>414.20001220703</ele>
        <time>2013-02-16T09:49:06.000Z</time>
      </trkpt>
      <trkpt lat="43.68481" lon="5.61057">
        <ele>414.39999389648</ele>
        <time>2013-02-16T09:49:07.000Z</time>
      </trkpt>
      <trkpt lat="43.68481" lon="5.61054">
        <ele>414.60000610352</ele>
        <time>2013-02-16T09:49:08.000Z</time>
      </trkpt>
      <trkpt lat="43.68477" lon="5.61035">
        <ele>416</ele>
        <time>2013-02-16T09:49:15.000Z</time>
      </trkpt>
      <trkpt lat="43.68476" lon="5.61033">
        <ele>416.20001220703</ele>
        <time>2013-02-16T09:49:16.000Z</time>
      </trkpt>
      <trkpt lat="43.68476" lon="5.6103">
        <ele>416.60000610352</ele>
        <time>2013-02-16T09:49:17.000Z</time>
      </trkpt>
      <trkpt lat="43.68475" lon="5.61026">
        <ele>416.79998779297</ele>
        <time>2013-02-16T09:49:18.000Z</time>
      </trkpt>
      <trkpt lat="43.68475" lon="5.61023">
        <ele>417.20001220703</ele>
        <time>2013-02-16T09:49:19.000Z</time>
      </trkpt>
      <trkpt lat="43.68473" lon="5.6099">
        <ele>420.60000610352</ele>
        <time>2013-02-16T09:49:28.000Z</time>
      </trkpt>
      <trkpt lat="43.68458" lon="5.60956">
        <ele>420.60000610352</ele>
        <time>2013-02-16T09:49:37.000Z</time>
      </trkpt>
      <trkpt lat="43.68449" lon="5.60944">
        <ele>420</ele>
        <time>2013-02-16T09:49:40.000Z</time>
      </trkpt>
      <trkpt lat="43.68423" lon="5.60906">
        <ele>418.39999389648</ele>
        <time>2013-02-16T09:49:48.000Z</time>
      </trkpt>
      <trkpt lat="43.68406" lon="5.60882">
        <ele>419</ele>
        <time>2013-02-16T09:49:53.000Z</time>
      </trkpt>
      <trkpt lat="43.68403" lon="5.60877">
        <ele>419.20001220703</ele>
        <time>2013-02-16T09:49:54.000Z</time>
      </trkpt>
      <trkpt lat="43.68396" lon="5.60868">
        <ele>419.79998779297</ele>
        <time>2013-02-16T09:49:56.000Z</time>
      </trkpt>
      <trkpt lat="43.68393" lon="5.60863">
        <ele>420</ele>
        <time>2013-02-16T09:49:57.000Z</time>
      </trkpt>
      <trkpt lat="43.68387" lon="5.60854">
        <ele>420.39999389648</ele>
        <time>2013-02-16T09:49:59.000Z</time>
      </trkpt>
      <trkpt lat="43.68384" lon="5.60848">
        <ele>420.79998779297</ele>
        <time>2013-02-16T09:50:00.000Z</time>
      </trkpt>
      <trkpt lat="43.68382" lon="5.60843">
        <ele>421.20001220703</ele>
        <time>2013-02-16T09:50:01.000Z</time>
      </trkpt>
      <trkpt lat="43.68382" lon="5.60837">
        <ele>421.60000610352</ele>
        <time>2013-02-16T09:50:02.000Z</time>
      </trkpt>
      <trkpt lat="43.68382" lon="5.60831">
        <ele>422</ele>
        <time>2013-02-16T09:50:03.000Z</time>
      </trkpt>
      <trkpt lat="43.68382" lon="5.60825">
        <ele>422.20001220703</ele>
        <time>2013-02-16T09:50:04.000Z</time>
      </trkpt>
      <trkpt lat="43.68384" lon="5.60821">
        <ele>422.39999389648</ele>
        <time>2013-02-16T09:50:05.000Z</time>
      </trkpt>
      <trkpt lat="43.68399" lon="5.60787">
        <ele>424.39999389648</ele>
        <time>2013-02-16T09:50:16.000Z</time>
      </trkpt>
      <trkpt lat="43.68404" lon="5.60777">
        <ele>424.79998779297</ele>
        <time>2013-02-16T09:50:20.000Z</time>
      </trkpt>
      <trkpt lat="43.68431" lon="5.60746">
        <ele>428</ele>
        <time>2013-02-16T09:50:35.000Z</time>
      </trkpt>
      <trkpt lat="43.68433" lon="5.60745">
        <ele>428.20001220703</ele>
        <time>2013-02-16T09:50:36.000Z</time>
      </trkpt>
      <trkpt lat="43.68442" lon="5.6073">
        <ele>428</ele>
        <time>2013-02-16T09:50:45.000Z</time>
      </trkpt>
      <trkpt lat="43.68443" lon="5.60728">
        <ele>427.79998779297</ele>
        <time>2013-02-16T09:50:46.000Z</time>
      </trkpt>
      <trkpt lat="43.68443" lon="5.60725">
        <ele>427.60000610352</ele>
        <time>2013-02-16T09:50:47.000Z</time>
      </trkpt>
      <trkpt lat="43.68443" lon="5.60723">
        <ele>427.39999389648</ele>
        <time>2013-02-16T09:50:48.000Z</time>
      </trkpt>
      <trkpt lat="43.68448" lon="5.60697">
        <ele>425</ele>
        <time>2013-02-16T09:50:59.000Z</time>
      </trkpt>
      <trkpt lat="43.68451" lon="5.60695">
        <ele>425</ele>
        <time>2013-02-16T09:51:01.000Z</time>
      </trkpt>
      <trkpt lat="43.68452" lon="5.60695">
        <ele>425</ele>
        <time>2013-02-16T09:51:02.000Z</time>
      </trkpt>
      <trkpt lat="43.68454" lon="5.60693">
        <ele>425</ele>
        <time>2013-02-16T09:51:03.000Z</time>
      </trkpt>
      <trkpt lat="43.68455" lon="5.60693">
        <ele>425</ele>
        <time>2013-02-16T09:51:04.000Z</time>
      </trkpt>
      <trkpt lat="43.68456" lon="5.60692">
        <ele>425</ele>
        <time>2013-02-16T09:51:05.000Z</time>
      </trkpt>
      <trkpt lat="43.68458" lon="5.60691">
        <ele>425</ele>
        <time>2013-02-16T09:51:06.000Z</time>
      </trkpt>
      <trkpt lat="43.6846" lon="5.60691">
        <ele>425.20001220703</ele>
        <time>2013-02-16T09:51:07.000Z</time>
      </trkpt>
      <trkpt lat="43.68461" lon="5.60691">
        <ele>425.20001220703</ele>
        <time>2013-02-16T09:51:08.000Z</time>
      </trkpt>
      <trkpt lat="43.68479" lon="5.607">
        <ele>428.39999389648</ele>
        <time>2013-02-16T09:51:18.000Z</time>
      </trkpt>
      <trkpt lat="43.68508" lon="5.60706">
        <ele>432.20001220703</ele>
        <time>2013-02-16T09:51:27.000Z</time>
      </trkpt>
      <trkpt lat="43.68531" lon="5.60697">
        <ele>432.39999389648</ele>
        <time>2013-02-16T09:51:33.000Z</time>
      </trkpt>
      <trkpt lat="43.68535" lon="5.60696">
        <ele>432.60000610352</ele>
        <time>2013-02-16T09:51:34.000Z</time>
      </trkpt>
      <trkpt lat="43.68576" lon="5.60685">
        <ele>433.20001220703</ele>
        <time>2013-02-16T09:51:45.000Z</time>
      </trkpt>
      <trkpt lat="43.68608" lon="5.60665">
        <ele>431.60000610352</ele>
        <time>2013-02-16T09:51:56.000Z</time>
      </trkpt>
      <trkpt lat="43.68634" lon="5.60649">
        <ele>431.20001220703</ele>
        <time>2013-02-16T09:52:05.000Z</time>
      </trkpt>
      <trkpt lat="43.68674" lon="5.60641">
        <ele>432.60000610352</ele>
        <time>2013-02-16T09:52:15.000Z</time>
      </trkpt>
      <trkpt lat="43.68678" lon="5.60639">
        <ele>432</ele>
        <time>2013-02-16T09:52:16.000Z</time>
      </trkpt>
      <trkpt lat="43.6871" lon="5.60628">
        <ele>429.20001220703</ele>
        <time>2013-02-16T09:52:23.000Z</time>
      </trkpt>
      <trkpt lat="43.68714" lon="5.60628">
        <ele>428.79998779297</ele>
        <time>2013-02-16T09:52:24.000Z</time>
      </trkpt>
      <trkpt lat="43.68718" lon="5.60628">
        <ele>429</ele>
        <time>2013-02-16T09:52:25.000Z</time>
      </trkpt>
      <trkpt lat="43.68734" lon="5.60636">
        <ele>430.20001220703</ele>
        <time>2013-02-16T09:52:33.000Z</time>
      </trkpt>
      <trkpt lat="43.68759" lon="5.60646">
        <ele>431.79998779297</ele>
        <time>2013-02-16T09:52:41.000Z</time>
      </trkpt>
      <trkpt lat="43.688" lon="5.60657">
        <ele>431.39999389648</ele>
        <time>2013-02-16T09:52:50.000Z</time>
      </trkpt>
      <trkpt lat="43.68821" lon="5.60643">
        <ele>429.79998779297</ele>
        <time>2013-02-16T09:52:59.000Z</time>
      </trkpt>
      <trkpt lat="43.68838" lon="5.60612">
        <ele>430</ele>
        <time>2013-02-16T09:53:10.000Z</time>
      </trkpt>
      <trkpt lat="43.68863" lon="5.6059">
        <ele>433.79998779297</ele>
        <time>2013-02-16T09:53:22.000Z</time>
      </trkpt>
      <trkpt lat="43.68895" lon="5.60569">
        <ele>437.60000610352</ele>
        <time>2013-02-16T09:53:33.000Z</time>
      </trkpt>
      <trkpt lat="43.68915" lon="5.60564">
        <ele>440.39999389648</ele>
        <time>2013-02-16T09:53:42.000Z</time>
      </trkpt>
      <trkpt lat="43.68942" lon="5.60563">
        <ele>442.79998779297</ele>
        <time>2013-02-16T09:53:55.000Z</time>
      </trkpt>
      <trkpt lat="43.68962" lon="5.60573">
        <ele>445.60000610352</ele>
        <time>2013-02-16T09:54:05.000Z</time>
      </trkpt>
      <trkpt lat="43.68981" lon="5.60574">
        <ele>447.60000610352</ele>
        <time>2013-02-16T09:54:16.000Z</time>
      </trkpt>
      <trkpt lat="43.68996" lon="5.60587">
        <ele>449.39999389648</ele>
        <time>2013-02-16T09:54:27.000Z</time>
      </trkpt>
      <trkpt lat="43.69006" lon="5.606">
        <ele>450.39999389648</ele>
        <time>2013-02-16T09:54:35.000Z</time>
      </trkpt>
      <trkpt lat="43.69007" lon="5.60601">
        <ele>450.39999389648</ele>
        <time>2013-02-16T09:54:36.000Z</time>
      </trkpt>
      <trkpt lat="43.69008" lon="5.60603">
        <ele>450.60000610352</ele>
        <time>2013-02-16T09:54:37.000Z</time>
      </trkpt>
      <trkpt lat="43.69009" lon="5.60605">
        <ele>450.60000610352</ele>
        <time>2013-02-16T09:54:38.000Z</time>
      </trkpt>
      <trkpt lat="43.6901" lon="5.60607">
        <ele>450.60000610352</ele>
        <time>2013-02-16T09:54:39.000Z</time>
      </trkpt>
      <trkpt lat="43.69011" lon="5.60608">
        <ele>450.79998779297</ele>
        <time>2013-02-16T09:54:40.000Z</time>
      </trkpt>
      <trkpt lat="43.69014" lon="5.60613">
        <ele>451</ele>
        <time>2013-02-16T09:54:43.000Z</time>
      </trkpt>
      <trkpt lat="43.69016" lon="5.60623">
        <ele>451.20001220703</ele>
        <time>2013-02-16T09:54:55.000Z</time>
      </trkpt>
      <trkpt lat="43.69016" lon="5.60624">
        <ele>451</ele>
        <time>2013-02-16T09:55:13.000Z</time>
      </trkpt>
      <trkpt lat="43.69015" lon="5.60624">
        <ele>451</ele>
        <time>2013-02-16T09:55:29.000Z</time>
      </trkpt>
      <trkpt lat="43.69016" lon="5.60624">
        <ele>451</ele>
        <time>2013-02-16T09:55:44.000Z</time>
      </trkpt>
      <trkpt lat="43.69016" lon="5.60622">
        <ele>451.20001220703</ele>
        <time>2013-02-16T09:55:59.000Z</time>
      </trkpt>
      <trkpt lat="43.69015" lon="5.60623">
        <ele>451</ele>
        <time>2013-02-16T09:56:14.000Z</time>
      </trkpt>
      <trkpt lat="43.69016" lon="5.60624">
        <ele>451.20001220703</ele>
        <time>2013-02-16T09:56:26.000Z</time>
      </trkpt>
      <trkpt lat="43.69017" lon="5.60624">
        <ele>451.20001220703</ele>
        <time>2013-02-16T09:56:43.000Z</time>
      </trkpt>
      <trkpt lat="43.69017" lon="5.60621">
        <ele>451.20001220703</ele>
        <time>2013-02-16T09:57:01.000Z</time>
      </trkpt>
      <trkpt lat="43.69015" lon="5.60623">
        <ele>451</ele>
        <time>2013-02-16T09:57:12.000Z</time>
      </trkpt>
      <trkpt lat="43.69012" lon="5.60625">
        <ele>450.60000610352</ele>
        <time>2013-02-16T09:57:26.000Z</time>
      </trkpt>
      <trkpt lat="43.69011" lon="5.60623">
        <ele>450.60000610352</ele>
        <time>2013-02-16T09:57:27.000Z</time>
      </trkpt>
      <trkpt lat="43.69011" lon="5.60621">
        <ele>450.60000610352</ele>
        <time>2013-02-16T09:57:28.000Z</time>
      </trkpt>
      <trkpt lat="43.6901" lon="5.60618">
        <ele>450.60000610352</ele>
        <time>2013-02-16T09:57:29.000Z</time>
      </trkpt>
      <trkpt lat="43.6901" lon="5.60615">
        <ele>450.39999389648</ele>
        <time>2013-02-16T09:57:30.000Z</time>
      </trkpt>
      <trkpt lat="43.69009" lon="5.60612">
        <ele>450.60000610352</ele>
        <time>2013-02-16T09:57:31.000Z</time>
      </trkpt>
      <trkpt lat="43.69009" lon="5.60609">
        <ele>450.39999389648</ele>
        <time>2013-02-16T09:57:32.000Z</time>
      </trkpt>
      <trkpt lat="43.69007" lon="5.60606">
        <ele>450.39999389648</ele>
        <time>2013-02-16T09:57:33.000Z</time>
      </trkpt>
      <trkpt lat="43.69004" lon="5.60598">
        <ele>450</ele>
        <time>2013-02-16T09:57:35.000Z</time>
      </trkpt>
      <trkpt lat="43.69001" lon="5.60593">
        <ele>449.79998779297</ele>
        <time>2013-02-16T09:57:36.000Z</time>
      </trkpt>
      <trkpt lat="43.68998" lon="5.60588">
        <ele>449.60000610352</ele>
        <time>2013-02-16T09:57:37.000Z</time>
      </trkpt>
      <trkpt lat="43.68994" lon="5.60582">
        <ele>449.39999389648</ele>
        <time>2013-02-16T09:57:38.000Z</time>
      </trkpt>
      <trkpt lat="43.68991" lon="5.60577">
        <ele>448.60000610352</ele>
        <time>2013-02-16T09:57:39.000Z</time>
      </trkpt>
      <trkpt lat="43.68987" lon="5.60573">
        <ele>447.79998779297</ele>
        <time>2013-02-16T09:57:40.000Z</time>
      </trkpt>
      <trkpt lat="43.68982" lon="5.60571">
        <ele>447.20001220703</ele>
        <time>2013-02-16T09:57:41.000Z</time>
      </trkpt>
      <trkpt lat="43.68976" lon="5.60571">
        <ele>446.79998779297</ele>
        <time>2013-02-16T09:57:42.000Z</time>
      </trkpt>
      <trkpt lat="43.6897" lon="5.60571">
        <ele>446.20001220703</ele>
        <time>2013-02-16T09:57:43.000Z</time>
      </trkpt>
      <trkpt lat="43.68956" lon="5.60569">
        <ele>444.79998779297</ele>
        <time>2013-02-16T09:57:45.000Z</time>
      </trkpt>
      <trkpt lat="43.68944" lon="5.60565">
        <ele>443.20001220703</ele>
        <time>2013-02-16T09:57:47.000Z</time>
      </trkpt>
      <trkpt lat="43.6893" lon="5.60561">
        <ele>441.60000610352</ele>
        <time>2013-02-16T09:57:49.000Z</time>
      </trkpt>
      <trkpt lat="43.68923" lon="5.60561">
        <ele>440.79998779297</ele>
        <time>2013-02-16T09:57:50.000Z</time>
      </trkpt>
      <trkpt lat="43.68916" lon="5.60563">
        <ele>440.39999389648</ele>
        <time>2013-02-16T09:57:51.000Z</time>
      </trkpt>
      <trkpt lat="43.68887" lon="5.60574">
        <ele>436.79998779297</ele>
        <time>2013-02-16T09:57:55.000Z</time>
      </trkpt>
      <trkpt lat="43.6888" lon="5.60578">
        <ele>436</ele>
        <time>2013-02-16T09:57:56.000Z</time>
      </trkpt>
      <trkpt lat="43.68868" lon="5.60586">
        <ele>434.79998779297</ele>
        <time>2013-02-16T09:57:58.000Z</time>
      </trkpt>
      <trkpt lat="43.68837" lon="5.60613">
        <ele>429.79998779297</ele>
        <time>2013-02-16T09:58:06.000Z</time>
      </trkpt>
      <trkpt lat="43.68832" lon="5.6062">
        <ele>429.39999389648</ele>
        <time>2013-02-16T09:58:08.000Z</time>
      </trkpt>
      <trkpt lat="43.68821" lon="5.60641">
        <ele>429.79998779297</ele>
        <time>2013-02-16T09:58:16.000Z</time>
      </trkpt>
      <trkpt lat="43.6881" lon="5.60653">
        <ele>430.79998779297</ele>
        <time>2013-02-16T09:58:20.000Z</time>
      </trkpt>
      <trkpt lat="43.68806" lon="5.60655">
        <ele>431</ele>
        <time>2013-02-16T09:58:21.000Z</time>
      </trkpt>
      <trkpt lat="43.68801" lon="5.60655">
        <ele>431.39999389648</ele>
        <time>2013-02-16T09:58:22.000Z</time>
      </trkpt>
      <trkpt lat="43.68789" lon="5.60656">
        <ele>432</ele>
        <time>2013-02-16T09:58:24.000Z</time>
      </trkpt>
      <trkpt lat="43.68783" lon="5.60656">
        <ele>432.20001220703</ele>
        <time>2013-02-16T09:58:25.000Z</time>
      </trkpt>
      <trkpt lat="43.68777" lon="5.60654">
        <ele>432.20001220703</ele>
        <time>2013-02-16T09:58:26.000Z</time>
      </trkpt>
      <trkpt lat="43.68744" lon="5.6064">
        <ele>430.79998779297</ele>
        <time>2013-02-16T09:58:34.000Z</time>
      </trkpt>
      <trkpt lat="43.6871" lon="5.60631">
        <ele>429.60000610352</ele>
        <time>2013-02-16T09:58:44.000Z</time>
      </trkpt>
      <trkpt lat="43.68669" lon="5.60646">
        <ele>434</ele>
        <time>2013-02-16T09:58:56.000Z</time>
      </trkpt>
      <trkpt lat="43.6863" lon="5.60651">
        <ele>431</ele>
        <time>2013-02-16T09:59:08.000Z</time>
      </trkpt>
      <trkpt lat="43.68603" lon="5.60674">
        <ele>432.79998779297</ele>
        <time>2013-02-16T09:59:18.000Z</time>
      </trkpt>
      <trkpt lat="43.68592" lon="5.60681">
        <ele>433.39999389648</ele>
        <time>2013-02-16T09:59:21.000Z</time>
      </trkpt>
      <trkpt lat="43.68566" lon="5.6069">
        <ele>433.60000610352</ele>
        <time>2013-02-16T09:59:27.000Z</time>
      </trkpt>
      <trkpt lat="43.68511" lon="5.60706">
        <ele>432.60000610352</ele>
        <time>2013-02-16T09:59:39.000Z</time>
      </trkpt>
      <trkpt lat="43.68503" lon="5.60707">
        <ele>432</ele>
        <time>2013-02-16T09:59:41.000Z</time>
      </trkpt>
      <trkpt lat="43.68499" lon="5.60707">
        <ele>431.39999389648</ele>
        <time>2013-02-16T09:59:42.000Z</time>
      </trkpt>
      <trkpt lat="43.68495" lon="5.60707">
        <ele>431</ele>
        <time>2013-02-16T09:59:43.000Z</time>
      </trkpt>
      <trkpt lat="43.68466" lon="5.60693">
        <ele>426</ele>
        <time>2013-02-16T09:59:53.000Z</time>
      </trkpt>
      <trkpt lat="43.68464" lon="5.60689">
        <ele>425.39999389648</ele>
        <time>2013-02-16T10:00:02.000Z</time>
      </trkpt>
      <trkpt lat="43.68466" lon="5.60688">
        <ele>425.20001220703</ele>
        <time>2013-02-16T10:00:11.000Z</time>
      </trkpt>
      <trkpt lat="43.68467" lon="5.60689">
        <ele>425.60000610352</ele>
        <time>2013-02-16T10:00:31.000Z</time>
      </trkpt>
      <trkpt lat="43.68467" lon="5.60688">
        <ele>425.39999389648</ele>
        <time>2013-02-16T10:00:55.000Z</time>
      </trkpt>
      <trkpt lat="43.68466" lon="5.60688">
        <ele>425.39999389648</ele>
        <time>2013-02-16T10:01:14.000Z</time>
      </trkpt>
      <trkpt lat="43.68467" lon="5.6069">
        <ele>425.79998779297</ele>
        <time>2013-02-16T10:01:23.000Z</time>
      </trkpt>
      <trkpt lat="43.68468" lon="5.60691">
        <ele>426</ele>
        <time>2013-02-16T10:01:24.000Z</time>
      </trkpt>
      <trkpt lat="43.68481" lon="5.60699">
        <ele>428.20001220703</ele>
        <time>2013-02-16T10:01:33.000Z</time>
      </trkpt>
      <trkpt lat="43.685" lon="5.60704">
        <ele>431.20001220703</ele>
        <time>2013-02-16T10:01:39.000Z</time>
      </trkpt>
      <trkpt lat="43.68509" lon="5.60704">
        <ele>431.79998779297</ele>
        <time>2013-02-16T10:01:41.000Z</time>
      </trkpt>
      <trkpt lat="43.68553" lon="5.60689">
        <ele>432.39999389648</ele>
        <time>2013-02-16T10:01:51.000Z</time>
      </trkpt>
      <trkpt lat="43.68571" lon="5.60685">
        <ele>432.79998779297</ele>
        <time>2013-02-16T10:01:55.000Z</time>
      </trkpt>
      <trkpt lat="43.68575" lon="5.60684">
        <ele>432.79998779297</ele>
        <time>2013-02-16T10:01:56.000Z</time>
      </trkpt>
      <trkpt lat="43.68609" lon="5.60665">
        <ele>431.60000610352</ele>
        <time>2013-02-16T10:02:06.000Z</time>
      </trkpt>
      <trkpt lat="43.68641" lon="5.60646">
        <ele>431.20001220703</ele>
        <time>2013-02-16T10:02:16.000Z</time>
      </trkpt>
      <trkpt lat="43.68686" lon="5.60637">
        <ele>431.39999389648</ele>
        <time>2013-02-16T10:02:26.000Z</time>
      </trkpt>
      <trkpt lat="43.68725" lon="5.60629">
        <ele>429</ele>
        <time>2013-02-16T10:02:35.000Z</time>
      </trkpt>
      <trkpt lat="43.68741" lon="5.60635">
        <ele>430</ele>
        <time>2013-02-16T10:02:39.000Z</time>
      </trkpt>
      <trkpt lat="43.68794" lon="5.60655">
        <ele>431.60000610352</ele>
        <time>2013-02-16T10:02:51.000Z</time>
      </trkpt>
      <trkpt lat="43.68815" lon="5.60648">
        <ele>430.20001220703</ele>
        <time>2013-02-16T10:02:59.000Z</time>
      </trkpt>
      <trkpt lat="43.68831" lon="5.60622">
        <ele>429.39999389648</ele>
        <time>2013-02-16T10:03:11.000Z</time>
      </trkpt>
      <trkpt lat="43.68857" lon="5.60595">
        <ele>432.79998779297</ele>
        <time>2013-02-16T10:03:25.000Z</time>
      </trkpt>
      <trkpt lat="43.68884" lon="5.60574">
        <ele>436.39999389648</ele>
        <time>2013-02-16T10:03:36.000Z</time>
      </trkpt>
      <trkpt lat="43.6891" lon="5.60562">
        <ele>439.20001220703</ele>
        <time>2013-02-16T10:03:47.000Z</time>
      </trkpt>
      <trkpt lat="43.68931" lon="5.60559">
        <ele>441.20001220703</ele>
        <time>2013-02-16T10:03:58.000Z</time>
      </trkpt>
      <trkpt lat="43.68957" lon="5.60569">
        <ele>444.79998779297</ele>
        <time>2013-02-16T10:04:12.000Z</time>
      </trkpt>
      <trkpt lat="43.68973" lon="5.60574">
        <ele>446.79998779297</ele>
        <time>2013-02-16T10:04:23.000Z</time>
      </trkpt>
      <trkpt lat="43.68975" lon="5.60573">
        <ele>446.79998779297</ele>
        <time>2013-02-16T10:04:24.000Z</time>
      </trkpt>
      <trkpt lat="43.68976" lon="5.60573">
        <ele>446.79998779297</ele>
        <time>2013-02-16T10:04:25.000Z</time>
      </trkpt>
      <trkpt lat="43.68978" lon="5.60573">
        <ele>447</ele>
        <time>2013-02-16T10:04:26.000Z</time>
      </trkpt>
      <trkpt lat="43.6898" lon="5.60573">
        <ele>447.20001220703</ele>
        <time>2013-02-16T10:04:27.000Z</time>
      </trkpt>
      <trkpt lat="43.68981" lon="5.60573">
        <ele>447.39999389648</ele>
        <time>2013-02-16T10:04:28.000Z</time>
      </trkpt>
      <trkpt lat="43.68983" lon="5.60573">
        <ele>447.60000610352</ele>
        <time>2013-02-16T10:04:29.000Z</time>
      </trkpt>
      <trkpt lat="43.68984" lon="5.60574">
        <ele>447.60000610352</ele>
        <time>2013-02-16T10:04:30.000Z</time>
      </trkpt>
      <trkpt lat="43.68997" lon="5.60587">
        <ele>449.60000610352</ele>
        <time>2013-02-16T10:04:41.000Z</time>
      </trkpt>
      <trkpt lat="43.6901" lon="5.60608">
        <ele>450.79998779297</ele>
        <time>2013-02-16T10:04:53.000Z</time>
      </trkpt>
      <trkpt lat="43.69014" lon="5.60625">
        <ele>450.79998779297</ele>
        <time>2013-02-16T10:05:04.000Z</time>
      </trkpt>
      <trkpt lat="43.69012" lon="5.60629">
        <ele>450.39999389648</ele>
        <time>2013-02-16T10:05:17.000Z</time>
      </trkpt>
      <trkpt lat="43.69013" lon="5.60629">
        <ele>450.60000610352</ele>
        <time>2013-02-16T10:05:38.000Z</time>
      </trkpt>
      <trkpt lat="43.69011" lon="5.6063">
        <ele>450.39999389648</ele>
        <time>2013-02-16T10:05:55.000Z</time>
      </trkpt>
      <trkpt lat="43.69015" lon="5.60629">
        <ele>450.79998779297</ele>
        <time>2013-02-16T10:06:14.000Z</time>
      </trkpt>
      <trkpt lat="43.69015" lon="5.60629">
        <ele>450.79998779297</ele>
        <time>2013-02-16T10:06:32.000Z</time>
      </trkpt>
      <trkpt lat="43.69015" lon="5.6063">
        <ele>450.79998779297</ele>
        <time>2013-02-16T10:06:42.000Z</time>
      </trkpt>
      <trkpt lat="43.69017" lon="5.60641">
        <ele>450.79998779297</ele>
        <time>2013-02-16T10:06:56.000Z</time>
      </trkpt>
      <trkpt lat="43.69026" lon="5.60658">
        <ele>451.60000610352</ele>
        <time>2013-02-16T10:07:06.000Z</time>
      </trkpt>
      <trkpt lat="43.69046" lon="5.60694">
        <ele>453.39999389648</ele>
        <time>2013-02-16T10:07:18.000Z</time>
      </trkpt>
      <trkpt lat="43.69059" lon="5.60721">
        <ele>454.60000610352</ele>
        <time>2013-02-16T10:07:27.000Z</time>
      </trkpt>
      <trkpt lat="43.69076" lon="5.60749">
        <ele>456.79998779297</ele>
        <time>2013-02-16T10:07:38.000Z</time>
      </trkpt>
      <trkpt lat="43.69095" lon="5.60769">
        <ele>457.60000610352</ele>
        <time>2013-02-16T10:07:48.000Z</time>
      </trkpt>
      <trkpt lat="43.69115" lon="5.60787">
        <ele>457.20001220703</ele>
        <time>2013-02-16T10:07:57.000Z</time>
      </trkpt>
      <trkpt lat="43.69142" lon="5.60801">
        <ele>456.60000610352</ele>
        <time>2013-02-16T10:08:10.000Z</time>
      </trkpt>
      <trkpt lat="43.69171" lon="5.6079">
        <ele>458.39999389648</ele>
        <time>2013-02-16T10:08:20.000Z</time>
      </trkpt>
      <trkpt lat="43.69182" lon="5.60786">
        <ele>458.60000610352</ele>
        <time>2013-02-16T10:08:23.000Z</time>
      </trkpt>
      <trkpt lat="43.69187" lon="5.60786">
        <ele>458.60000610352</ele>
        <time>2013-02-16T10:08:24.000Z</time>
      </trkpt>
      <trkpt lat="43.69228" lon="5.60783">
        <ele>457.60000610352</ele>
        <time>2013-02-16T10:08:35.000Z</time>
      </trkpt>
      <trkpt lat="43.69267" lon="5.60774">
        <ele>457.60000610352</ele>
        <time>2013-02-16T10:08:48.000Z</time>
      </trkpt>
      <trkpt lat="43.69294" lon="5.60758">
        <ele>458.39999389648</ele>
        <time>2013-02-16T10:08:59.000Z</time>
      </trkpt>
      <trkpt lat="43.6931" lon="5.60739">
        <ele>459.60000610352</ele>
        <time>2013-02-16T10:09:12.000Z</time>
      </trkpt>
      <trkpt lat="43.6931" lon="5.60737">
        <ele>459.60000610352</ele>
        <time>2013-02-16T10:09:13.000Z</time>
      </trkpt>
      <trkpt lat="43.69311" lon="5.60736">
        <ele>459.79998779297</ele>
        <time>2013-02-16T10:09:14.000Z</time>
      </trkpt>
      <trkpt lat="43.69328" lon="5.60723">
        <ele>459.20001220703</ele>
        <time>2013-02-16T10:09:26.000Z</time>
      </trkpt>
      <trkpt lat="43.69346" lon="5.60727">
        <ele>459.79998779297</ele>
        <time>2013-02-16T10:09:37.000Z</time>
      </trkpt>
      <trkpt lat="43.69349" lon="5.60729">
        <ele>460</ele>
        <time>2013-02-16T10:09:39.000Z</time>
      </trkpt>
      <trkpt lat="43.6935" lon="5.60729">
        <ele>460</ele>
        <time>2013-02-16T10:09:40.000Z</time>
      </trkpt>
      <trkpt lat="43.69351" lon="5.6073">
        <ele>460</ele>
        <time>2013-02-16T10:09:41.000Z</time>
      </trkpt>
      <trkpt lat="43.69353" lon="5.6073">
        <ele>460.20001220703</ele>
        <time>2013-02-16T10:09:42.000Z</time>
      </trkpt>
      <trkpt lat="43.69354" lon="5.60731">
        <ele>460.39999389648</ele>
        <time>2013-02-16T10:09:43.000Z</time>
      </trkpt>
      <trkpt lat="43.69356" lon="5.60732">
        <ele>460.39999389648</ele>
        <time>2013-02-16T10:09:44.000Z</time>
      </trkpt>
      <trkpt lat="43.69358" lon="5.60733">
        <ele>460.60000610352</ele>
        <time>2013-02-16T10:09:45.000Z</time>
      </trkpt>
      <trkpt lat="43.69382" lon="5.60748">
        <ele>462.20001220703</ele>
        <time>2013-02-16T10:09:58.000Z</time>
      </trkpt>
      <trkpt lat="43.69398" lon="5.6076">
        <ele>463</ele>
        <time>2013-02-16T10:10:08.000Z</time>
      </trkpt>
      <trkpt lat="43.69411" lon="5.60776">
        <ele>462.79998779297</ele>
        <time>2013-02-16T10:10:18.000Z</time>
      </trkpt>
      <trkpt lat="43.69423" lon="5.60786">
        <ele>463</ele>
        <time>2013-02-16T10:10:27.000Z</time>
      </trkpt>
      <trkpt lat="43.69425" lon="5.60787">
        <ele>463</ele>
        <time>2013-02-16T10:10:28.000Z</time>
      </trkpt>
      <trkpt lat="43.69426" lon="5.60788">
        <ele>463</ele>
        <time>2013-02-16T10:10:29.000Z</time>
      </trkpt>
      <trkpt lat="43.6944" lon="5.60792">
        <ele>464</ele>
        <time>2013-02-16T10:10:39.000Z</time>
      </trkpt>
      <trkpt lat="43.69442" lon="5.60792">
        <ele>464.20001220703</ele>
        <time>2013-02-16T10:10:40.000Z</time>
      </trkpt>
      <trkpt lat="43.69445" lon="5.60791">
        <ele>464.39999389648</ele>
        <time>2013-02-16T10:10:42.000Z</time>
      </trkpt>
      <trkpt lat="43.69446" lon="5.60792">
        <ele>464.60000610352</ele>
        <time>2013-02-16T10:10:43.000Z</time>
      </trkpt>
      <trkpt lat="43.69448" lon="5.60792">
        <ele>464.79998779297</ele>
        <time>2013-02-16T10:10:44.000Z</time>
      </trkpt>
      <trkpt lat="43.69449" lon="5.60792">
        <ele>464.79998779297</ele>
        <time>2013-02-16T10:10:45.000Z</time>
      </trkpt>
      <trkpt lat="43.69451" lon="5.60792">
        <ele>465</ele>
        <time>2013-02-16T10:10:46.000Z</time>
      </trkpt>
      <trkpt lat="43.69452" lon="5.60793">
        <ele>465</ele>
        <time>2013-02-16T10:10:47.000Z</time>
      </trkpt>
      <trkpt lat="43.69453" lon="5.60793">
        <ele>465.20001220703</ele>
        <time>2013-02-16T10:10:48.000Z</time>
      </trkpt>
      <trkpt lat="43.69458" lon="5.60793">
        <ele>465.60000610352</ele>
        <time>2013-02-16T10:10:52.000Z</time>
      </trkpt>
      <trkpt lat="43.69459" lon="5.60794">
        <ele>465.60000610352</ele>
        <time>2013-02-16T10:10:53.000Z</time>
      </trkpt>
      <trkpt lat="43.69478" lon="5.60799">
        <ele>467.39999389648</ele>
        <time>2013-02-16T10:11:06.000Z</time>
      </trkpt>
      <trkpt lat="43.69485" lon="5.60802">
        <ele>468.20001220703</ele>
        <time>2013-02-16T10:11:11.000Z</time>
      </trkpt>
      <trkpt lat="43.69487" lon="5.60803">
        <ele>468.39999389648</ele>
        <time>2013-02-16T10:11:12.000Z</time>
      </trkpt>
      <trkpt lat="43.69488" lon="5.60803">
        <ele>468.60000610352</ele>
        <time>2013-02-16T10:11:13.000Z</time>
      </trkpt>
      <trkpt lat="43.69489" lon="5.60805">
        <ele>468.79998779297</ele>
        <time>2013-02-16T10:11:14.000Z</time>
      </trkpt>
      <trkpt lat="43.69491" lon="5.60806">
        <ele>468.79998779297</ele>
        <time>2013-02-16T10:11:15.000Z</time>
      </trkpt>
      <trkpt lat="43.69507" lon="5.60823">
        <ele>470.60000610352</ele>
        <time>2013-02-16T10:11:27.000Z</time>
      </trkpt>
      <trkpt lat="43.69523" lon="5.60842">
        <ele>471.39999389648</ele>
        <time>2013-02-16T10:11:38.000Z</time>
      </trkpt>
      <trkpt lat="43.69532" lon="5.60851">
        <ele>471.79998779297</ele>
        <time>2013-02-16T10:11:48.000Z</time>
      </trkpt>
      <trkpt lat="43.69532" lon="5.60851">
        <ele>471.79998779297</ele>
        <time>2013-02-16T10:11:59.000Z</time>
      </trkpt>
      <trkpt lat="43.69532" lon="5.60852">
        <ele>471.79998779297</ele>
        <time>2013-02-16T10:12:13.000Z</time>
      </trkpt>
      <trkpt lat="43.69533" lon="5.60852">
        <ele>471.79998779297</ele>
        <time>2013-02-16T10:12:37.000Z</time>
      </trkpt>
      <trkpt lat="43.69534" lon="5.6085">
        <ele>471.79998779297</ele>
        <time>2013-02-16T10:12:58.000Z</time>
      </trkpt>
      <trkpt lat="43.69535" lon="5.60852">
        <ele>472</ele>
        <time>2013-02-16T10:13:18.000Z</time>
      </trkpt>
      <trkpt lat="43.69536" lon="5.60853">
        <ele>472</ele>
        <time>2013-02-16T10:13:19.000Z</time>
      </trkpt>
      <trkpt lat="43.69537" lon="5.60854">
        <ele>472</ele>
        <time>2013-02-16T10:13:20.000Z</time>
      </trkpt>
      <trkpt lat="43.69539" lon="5.60855">
        <ele>472.20001220703</ele>
        <time>2013-02-16T10:13:21.000Z</time>
      </trkpt>
      <trkpt lat="43.69541" lon="5.60857">
        <ele>472.20001220703</ele>
        <time>2013-02-16T10:13:22.000Z</time>
      </trkpt>
      <trkpt lat="43.69543" lon="5.60858">
        <ele>472.39999389648</ele>
        <time>2013-02-16T10:13:23.000Z</time>
      </trkpt>
      <trkpt lat="43.69545" lon="5.60859">
        <ele>472.60000610352</ele>
        <time>2013-02-16T10:13:24.000Z</time>
      </trkpt>
      <trkpt lat="43.69578" lon="5.60865">
        <ele>474.79998779297</ele>
        <time>2013-02-16T10:13:35.000Z</time>
      </trkpt>
      <trkpt lat="43.69606" lon="5.60866">
        <ele>475.60000610352</ele>
        <time>2013-02-16T10:13:41.000Z</time>
      </trkpt>
      <trkpt lat="43.69637" lon="5.60869">
        <ele>476.20001220703</ele>
        <time>2013-02-16T10:13:50.000Z</time>
      </trkpt>
      <trkpt lat="43.69639" lon="5.60872">
        <ele>476.39999389648</ele>
        <time>2013-02-16T10:13:51.000Z</time>
      </trkpt>
      <trkpt lat="43.6964" lon="5.60874">
        <ele>476.60000610352</ele>
        <time>2013-02-16T10:13:52.000Z</time>
      </trkpt>
      <trkpt lat="43.69639" lon="5.60877">
        <ele>476.60000610352</ele>
        <time>2013-02-16T10:13:53.000Z</time>
      </trkpt>
      <trkpt lat="43.69638" lon="5.60879">
        <ele>476.79998779297</ele>
        <time>2013-02-16T10:13:54.000Z</time>
      </trkpt>
      <trkpt lat="43.69636" lon="5.60881">
        <ele>476.79998779297</ele>
        <time>2013-02-16T10:13:55.000Z</time>
      </trkpt>
      <trkpt lat="43.69635" lon="5.60883">
        <ele>477</ele>
        <time>2013-02-16T10:13:56.000Z</time>
      </trkpt>
      <trkpt lat="43.6963" lon="5.60913">
        <ele>478.60000610352</ele>
        <time>2013-02-16T10:14:06.000Z</time>
      </trkpt>
      <trkpt lat="43.69637" lon="5.60952">
        <ele>479.20001220703</ele>
        <time>2013-02-16T10:14:17.000Z</time>
      </trkpt>
      <trkpt lat="43.69643" lon="5.61006">
        <ele>479.79998779297</ele>
        <time>2013-02-16T10:14:32.000Z</time>
      </trkpt>
      <trkpt lat="43.69641" lon="5.61046">
        <ele>480.60000610352</ele>
        <time>2013-02-16T10:14:43.000Z</time>
      </trkpt>
      <trkpt lat="43.69641" lon="5.61052">
        <ele>480.60000610352</ele>
        <time>2013-02-16T10:14:44.000Z</time>
      </trkpt>
      <trkpt lat="43.6964" lon="5.61078">
        <ele>481.20001220703</ele>
        <time>2013-02-16T10:14:48.000Z</time>
      </trkpt>
      <trkpt lat="43.69638" lon="5.61084">
        <ele>481.20001220703</ele>
        <time>2013-02-16T10:14:49.000Z</time>
      </trkpt>
      <trkpt lat="43.69622" lon="5.61121">
        <ele>480.39999389648</ele>
        <time>2013-02-16T10:14:59.000Z</time>
      </trkpt>
      <trkpt lat="43.6961" lon="5.61165">
        <ele>479.79998779297</ele>
        <time>2013-02-16T10:15:10.000Z</time>
      </trkpt>
      <trkpt lat="43.69604" lon="5.61209">
        <ele>479</ele>
        <time>2013-02-16T10:15:17.000Z</time>
      </trkpt>
      <trkpt lat="43.69604" lon="5.61217">
        <ele>479</ele>
        <time>2013-02-16T10:15:18.000Z</time>
      </trkpt>
      <trkpt lat="43.69604" lon="5.61226">
        <ele>478.79998779297</ele>
        <time>2013-02-16T10:15:19.000Z</time>
      </trkpt>
      <trkpt lat="43.6961" lon="5.61278">
        <ele>478.79998779297</ele>
        <time>2013-02-16T10:15:25.000Z</time>
      </trkpt>
      <trkpt lat="43.69609" lon="5.61287">
        <ele>478.60000610352</ele>
        <time>2013-02-16T10:15:26.000Z</time>
      </trkpt>
      <trkpt lat="43.69607" lon="5.61296">
        <ele>478.20001220703</ele>
        <time>2013-02-16T10:15:27.000Z</time>
      </trkpt>
      <trkpt lat="43.69604" lon="5.61306">
        <ele>477.79998779297</ele>
        <time>2013-02-16T10:15:28.000Z</time>
      </trkpt>
      <trkpt lat="43.696" lon="5.61316">
        <ele>477.20001220703</ele>
        <time>2013-02-16T10:15:29.000Z</time>
      </trkpt>
      <trkpt lat="43.69597" lon="5.61324">
        <ele>476.60000610352</ele>
        <time>2013-02-16T10:15:30.000Z</time>
      </trkpt>
      <trkpt lat="43.69593" lon="5.61333">
        <ele>476.20001220703</ele>
        <time>2013-02-16T10:15:31.000Z</time>
      </trkpt>
      <trkpt lat="43.69591" lon="5.61342">
        <ele>475.39999389648</ele>
        <time>2013-02-16T10:15:32.000Z</time>
      </trkpt>
      <trkpt lat="43.6959" lon="5.61351">
        <ele>474.79998779297</ele>
        <time>2013-02-16T10:15:33.000Z</time>
      </trkpt>
      <trkpt lat="43.6959" lon="5.6136">
        <ele>474.39999389648</ele>
        <time>2013-02-16T10:15:34.000Z</time>
      </trkpt>
      <trkpt lat="43.6959" lon="5.6137">
        <ele>474</ele>
        <time>2013-02-16T10:15:35.000Z</time>
      </trkpt>
      <trkpt lat="43.69591" lon="5.61379">
        <ele>473.79998779297</ele>
        <time>2013-02-16T10:15:36.000Z</time>
      </trkpt>
      <trkpt lat="43.69595" lon="5.61395">
        <ele>473.39999389648</ele>
        <time>2013-02-16T10:15:38.000Z</time>
      </trkpt>
      <trkpt lat="43.69597" lon="5.61402">
        <ele>473.39999389648</ele>
        <time>2013-02-16T10:15:39.000Z</time>
      </trkpt>
      <trkpt lat="43.69601" lon="5.61409">
        <ele>473.60000610352</ele>
        <time>2013-02-16T10:15:40.000Z</time>
      </trkpt>
      <trkpt lat="43.69605" lon="5.61415">
        <ele>473.79998779297</ele>
        <time>2013-02-16T10:15:41.000Z</time>
      </trkpt>
      <trkpt lat="43.6961" lon="5.61419">
        <ele>474.20001220703</ele>
        <time>2013-02-16T10:15:42.000Z</time>
      </trkpt>
      <trkpt lat="43.69614" lon="5.61423">
        <ele>474.20001220703</ele>
        <time>2013-02-16T10:15:43.000Z</time>
      </trkpt>
      <trkpt lat="43.69619" lon="5.61426">
        <ele>474.60000610352</ele>
        <time>2013-02-16T10:15:44.000Z</time>
      </trkpt>
      <trkpt lat="43.69623" lon="5.61428">
        <ele>474.79998779297</ele>
        <time>2013-02-16T10:15:45.000Z</time>
      </trkpt>
      <trkpt lat="43.69651" lon="5.61446">
        <ele>476.20001220703</ele>
        <time>2013-02-16T10:15:51.000Z</time>
      </trkpt>
      <trkpt lat="43.69656" lon="5.6145">
        <ele>476.20001220703</ele>
        <time>2013-02-16T10:15:52.000Z</time>
      </trkpt>
      <trkpt lat="43.6966" lon="5.61455">
        <ele>476</ele>
        <time>2013-02-16T10:15:53.000Z</time>
      </trkpt>
      <trkpt lat="43.69663" lon="5.61461">
        <ele>475.79998779297</ele>
        <time>2013-02-16T10:15:54.000Z</time>
      </trkpt>
      <trkpt lat="43.69667" lon="5.61467">
        <ele>475.20001220703</ele>
        <time>2013-02-16T10:15:55.000Z</time>
      </trkpt>
      <trkpt lat="43.69669" lon="5.61474">
        <ele>474.60000610352</ele>
        <time>2013-02-16T10:15:56.000Z</time>
      </trkpt>
      <trkpt lat="43.6967" lon="5.61481">
        <ele>473.79998779297</ele>
        <time>2013-02-16T10:15:57.000Z</time>
      </trkpt>
      <trkpt lat="43.6967" lon="5.61488">
        <ele>473</ele>
        <time>2013-02-16T10:15:58.000Z</time>
      </trkpt>
      <trkpt lat="43.69669" lon="5.61495">
        <ele>472</ele>
        <time>2013-02-16T10:15:59.000Z</time>
      </trkpt>
      <trkpt lat="43.69668" lon="5.61501">
        <ele>471</ele>
        <time>2013-02-16T10:16:00.000Z</time>
      </trkpt>
      <trkpt lat="43.69666" lon="5.61508">
        <ele>470.79998779297</ele>
        <time>2013-02-16T10:16:01.000Z</time>
      </trkpt>
      <trkpt lat="43.69664" lon="5.61514">
        <ele>470.60000610352</ele>
        <time>2013-02-16T10:16:02.000Z</time>
      </trkpt>
      <trkpt lat="43.69662" lon="5.6152">
        <ele>470.39999389648</ele>
        <time>2013-02-16T10:16:03.000Z</time>
      </trkpt>
      <trkpt lat="43.69653" lon="5.61544">
        <ele>469.20001220703</ele>
        <time>2013-02-16T10:16:07.000Z</time>
      </trkpt>
      <trkpt lat="43.69649" lon="5.61558">
        <ele>468.39999389648</ele>
        <time>2013-02-16T10:16:09.000Z</time>
      </trkpt>
      <trkpt lat="43.69648" lon="5.61565">
        <ele>468.20001220703</ele>
        <time>2013-02-16T10:16:10.000Z</time>
      </trkpt>
      <trkpt lat="43.69647" lon="5.61572">
        <ele>468</ele>
        <time>2013-02-16T10:16:11.000Z</time>
      </trkpt>
      <trkpt lat="43.69647" lon="5.61579">
        <ele>467.79998779297</ele>
        <time>2013-02-16T10:16:12.000Z</time>
      </trkpt>
      <trkpt lat="43.69647" lon="5.61586">
        <ele>467.79998779297</ele>
        <time>2013-02-16T10:16:13.000Z</time>
      </trkpt>
      <trkpt lat="43.69647" lon="5.61602">
        <ele>468</ele>
        <time>2013-02-16T10:16:15.000Z</time>
      </trkpt>
      <trkpt lat="43.69646" lon="5.6161">
        <ele>467.79998779297</ele>
        <time>2013-02-16T10:16:16.000Z</time>
      </trkpt>
      <trkpt lat="43.69644" lon="5.61618">
        <ele>467.60000610352</ele>
        <time>2013-02-16T10:16:17.000Z</time>
      </trkpt>
      <trkpt lat="43.69641" lon="5.61626">
        <ele>467.20001220703</ele>
        <time>2013-02-16T10:16:18.000Z</time>
      </trkpt>
      <trkpt lat="43.69638" lon="5.61634">
        <ele>466.79998779297</ele>
        <time>2013-02-16T10:16:19.000Z</time>
      </trkpt>
      <trkpt lat="43.69635" lon="5.61641">
        <ele>466.39999389648</ele>
        <time>2013-02-16T10:16:20.000Z</time>
      </trkpt>
      <trkpt lat="43.69605" lon="5.61682">
        <ele>461.39999389648</ele>
        <time>2013-02-16T10:16:27.000Z</time>
      </trkpt>
      <trkpt lat="43.69602" lon="5.61689">
        <ele>461</ele>
        <time>2013-02-16T10:16:28.000Z</time>
      </trkpt>
      <trkpt lat="43.69599" lon="5.61696">
        <ele>460.39999389648</ele>
        <time>2013-02-16T10:16:29.000Z</time>
      </trkpt>
      <trkpt lat="43.69597" lon="5.61703">
        <ele>460</ele>
        <time>2013-02-16T10:16:30.000Z</time>
      </trkpt>
      <trkpt lat="43.69596" lon="5.6171">
        <ele>459.79998779297</ele>
        <time>2013-02-16T10:16:31.000Z</time>
      </trkpt>
      <trkpt lat="43.69595" lon="5.61717">
        <ele>459.79998779297</ele>
        <time>2013-02-16T10:16:32.000Z</time>
      </trkpt>
      <trkpt lat="43.69595" lon="5.61725">
        <ele>459.79998779297</ele>
        <time>2013-02-16T10:16:33.000Z</time>
      </trkpt>
      <trkpt lat="43.69594" lon="5.61739">
        <ele>459.60000610352</ele>
        <time>2013-02-16T10:16:35.000Z</time>
      </trkpt>
      <trkpt lat="43.69592" lon="5.61747">
        <ele>459.20001220703</ele>
        <time>2013-02-16T10:16:36.000Z</time>
      </trkpt>
      <trkpt lat="43.69589" lon="5.61754">
        <ele>459</ele>
        <time>2013-02-16T10:16:37.000Z</time>
      </trkpt>
      <trkpt lat="43.69585" lon="5.61759">
        <ele>458.60000610352</ele>
        <time>2013-02-16T10:16:38.000Z</time>
      </trkpt>
      <trkpt lat="43.69581" lon="5.61765">
        <ele>458.39999389648</ele>
        <time>2013-02-16T10:16:39.000Z</time>
      </trkpt>
      <trkpt lat="43.69576" lon="5.61769">
        <ele>458</ele>
        <time>2013-02-16T10:16:40.000Z</time>
      </trkpt>
      <trkpt lat="43.69571" lon="5.61772">
        <ele>457.79998779297</ele>
        <time>2013-02-16T10:16:41.000Z</time>
      </trkpt>
      <trkpt lat="43.69566" lon="5.61775">
        <ele>457.39999389648</ele>
        <time>2013-02-16T10:16:42.000Z</time>
      </trkpt>
      <trkpt lat="43.69561" lon="5.61778">
        <ele>457</ele>
        <time>2013-02-16T10:16:43.000Z</time>
      </trkpt>
      <trkpt lat="43.69556" lon="5.61782">
        <ele>456.79998779297</ele>
        <time>2013-02-16T10:16:44.000Z</time>
      </trkpt>
      <trkpt lat="43.69553" lon="5.61786">
        <ele>456.79998779297</ele>
        <time>2013-02-16T10:16:45.000Z</time>
      </trkpt>
      <trkpt lat="43.69551" lon="5.61792">
        <ele>456.79998779297</ele>
        <time>2013-02-16T10:16:46.000Z</time>
      </trkpt>
      <trkpt lat="43.6955" lon="5.61798">
        <ele>457</ele>
        <time>2013-02-16T10:16:47.000Z</time>
      </trkpt>
      <trkpt lat="43.6955" lon="5.61804">
        <ele>457.20001220703</ele>
        <time>2013-02-16T10:16:48.000Z</time>
      </trkpt>
      <trkpt lat="43.6955" lon="5.61812">
        <ele>457.60000610352</ele>
        <time>2013-02-16T10:16:49.000Z</time>
      </trkpt>
      <trkpt lat="43.69549" lon="5.61836">
        <ele>458.79998779297</ele>
        <time>2013-02-16T10:16:52.000Z</time>
      </trkpt>
      <trkpt lat="43.69547" lon="5.61841">
        <ele>459</ele>
        <time>2013-02-16T10:16:53.000Z</time>
      </trkpt>
      <trkpt lat="43.69543" lon="5.61845">
        <ele>459.20001220703</ele>
        <time>2013-02-16T10:16:54.000Z</time>
      </trkpt>
      <trkpt lat="43.69539" lon="5.61846">
        <ele>458.79998779297</ele>
        <time>2013-02-16T10:16:55.000Z</time>
      </trkpt>
      <trkpt lat="43.69534" lon="5.61845">
        <ele>458.20001220703</ele>
        <time>2013-02-16T10:16:56.000Z</time>
      </trkpt>
      <trkpt lat="43.6953" lon="5.61841">
        <ele>457.39999389648</ele>
        <time>2013-02-16T10:16:57.000Z</time>
      </trkpt>
      <trkpt lat="43.69525" lon="5.61836">
        <ele>456.60000610352</ele>
        <time>2013-02-16T10:16:58.000Z</time>
      </trkpt>
      <trkpt lat="43.69514" lon="5.61826">
        <ele>454.79998779297</ele>
        <time>2013-02-16T10:17:00.000Z</time>
      </trkpt>
      <trkpt lat="43.69485" lon="5.61809">
        <ele>452.79998779297</ele>
        <time>2013-02-16T10:17:04.000Z</time>
      </trkpt>
      <trkpt lat="43.69413" lon="5.61768">
        <ele>447.39999389648</ele>
        <time>2013-02-16T10:17:13.000Z</time>
      </trkpt>
      <trkpt lat="43.69391" lon="5.61762">
        <ele>445.79998779297</ele>
        <time>2013-02-16T10:17:16.000Z</time>
      </trkpt>
      <trkpt lat="43.69384" lon="5.61761">
        <ele>445.60000610352</ele>
        <time>2013-02-16T10:17:17.000Z</time>
      </trkpt>
      <trkpt lat="43.69378" lon="5.61761">
        <ele>445.39999389648</ele>
        <time>2013-02-16T10:17:18.000Z</time>
      </trkpt>
      <trkpt lat="43.69372" lon="5.61762">
        <ele>445.39999389648</ele>
        <time>2013-02-16T10:17:19.000Z</time>
      </trkpt>
      <trkpt lat="43.69365" lon="5.61765">
        <ele>445.60000610352</ele>
        <time>2013-02-16T10:17:20.000Z</time>
      </trkpt>
      <trkpt lat="43.69359" lon="5.61768">
        <ele>446</ele>
        <time>2013-02-16T10:17:21.000Z</time>
      </trkpt>
      <trkpt lat="43.69352" lon="5.61771">
        <ele>446.39999389648</ele>
        <time>2013-02-16T10:17:22.000Z</time>
      </trkpt>
      <trkpt lat="43.69347" lon="5.61775">
        <ele>447</ele>
        <time>2013-02-16T10:17:23.000Z</time>
      </trkpt>
      <trkpt lat="43.69341" lon="5.61778">
        <ele>447.39999389648</ele>
        <time>2013-02-16T10:17:24.000Z</time>
      </trkpt>
      <trkpt lat="43.69331" lon="5.61782">
        <ele>447.60000610352</ele>
        <time>2013-02-16T10:17:26.000Z</time>
      </trkpt>
      <trkpt lat="43.69326" lon="5.61783">
        <ele>446.79998779297</ele>
        <time>2013-02-16T10:17:27.000Z</time>
      </trkpt>
      <trkpt lat="43.69316" lon="5.61784">
        <ele>445.39999389648</ele>
        <time>2013-02-16T10:17:29.000Z</time>
      </trkpt>
      <trkpt lat="43.69312" lon="5.61786">
        <ele>444.79998779297</ele>
        <time>2013-02-16T10:17:30.000Z</time>
      </trkpt>
      <trkpt lat="43.69284" lon="5.61804">
        <ele>443.79998779297</ele>
        <time>2013-02-16T10:17:39.000Z</time>
      </trkpt>
      <trkpt lat="43.69272" lon="5.61844">
        <ele>450.39999389648</ele>
        <time>2013-02-16T10:17:47.000Z</time>
      </trkpt>
      <trkpt lat="43.69262" lon="5.61865">
        <ele>452.60000610352</ele>
        <time>2013-02-16T10:17:51.000Z</time>
      </trkpt>
      <trkpt lat="43.69259" lon="5.6187">
        <ele>453</ele>
        <time>2013-02-16T10:17:52.000Z</time>
      </trkpt>
      <trkpt lat="43.69255" lon="5.61874">
        <ele>453</ele>
        <time>2013-02-16T10:17:53.000Z</time>
      </trkpt>
      <trkpt lat="43.69251" lon="5.61877">
        <ele>453</ele>
        <time>2013-02-16T10:17:54.000Z</time>
      </trkpt>
      <trkpt lat="43.69247" lon="5.6188">
        <ele>452.60000610352</ele>
        <time>2013-02-16T10:17:55.000Z</time>
      </trkpt>
      <trkpt lat="43.69242" lon="5.61883">
        <ele>452.20001220703</ele>
        <time>2013-02-16T10:17:56.000Z</time>
      </trkpt>
      <trkpt lat="43.69222" lon="5.61896">
        <ele>450.39999389648</ele>
        <time>2013-02-16T10:18:00.000Z</time>
      </trkpt>
      <trkpt lat="43.69217" lon="5.61902">
        <ele>450.60000610352</ele>
        <time>2013-02-16T10:18:01.000Z</time>
      </trkpt>
      <trkpt lat="43.69214" lon="5.61909">
        <ele>450.79998779297</ele>
        <time>2013-02-16T10:18:02.000Z</time>
      </trkpt>
      <trkpt lat="43.69206" lon="5.61924">
        <ele>451</ele>
        <time>2013-02-16T10:18:04.000Z</time>
      </trkpt>
      <trkpt lat="43.69191" lon="5.6197">
        <ele>452</ele>
        <time>2013-02-16T10:18:10.000Z</time>
      </trkpt>
      <trkpt lat="43.6919" lon="5.61976">
        <ele>452.39999389648</ele>
        <time>2013-02-16T10:18:11.000Z</time>
      </trkpt>
      <trkpt lat="43.6919" lon="5.61981">
        <ele>452.79998779297</ele>
        <time>2013-02-16T10:18:12.000Z</time>
      </trkpt>
      <trkpt lat="43.69191" lon="5.61984">
        <ele>453.20001220703</ele>
        <time>2013-02-16T10:18:13.000Z</time>
      </trkpt>
      <trkpt lat="43.69194" lon="5.61991">
        <ele>454.79998779297</ele>
        <time>2013-02-16T10:18:17.000Z</time>
      </trkpt>
      <trkpt lat="43.69201" lon="5.62">
        <ele>456.79998779297</ele>
        <time>2013-02-16T10:18:23.000Z</time>
      </trkpt>
      <trkpt lat="43.69204" lon="5.62006">
        <ele>457.20001220703</ele>
        <time>2013-02-16T10:18:26.000Z</time>
      </trkpt>
      <trkpt lat="43.69207" lon="5.6202">
        <ele>457.20001220703</ele>
        <time>2013-02-16T10:18:33.000Z</time>
      </trkpt>
      <trkpt lat="43.69213" lon="5.62048">
        <ele>457.39999389648</ele>
        <time>2013-02-16T10:18:46.000Z</time>
      </trkpt>
      <trkpt lat="43.69216" lon="5.62055">
        <ele>457.60000610352</ele>
        <time>2013-02-16T10:18:50.000Z</time>
      </trkpt>
      <trkpt lat="43.69229" lon="5.6207">
        <ele>459.79998779297</ele>
        <time>2013-02-16T10:19:00.000Z</time>
      </trkpt>
      <trkpt lat="43.69234" lon="5.62078">
        <ele>460.60000610352</ele>
        <time>2013-02-16T10:19:05.000Z</time>
      </trkpt>
      <trkpt lat="43.69252" lon="5.62096">
        <ele>462.79998779297</ele>
        <time>2013-02-16T10:19:17.000Z</time>
      </trkpt>
      <trkpt lat="43.69269" lon="5.62114">
        <ele>465.20001220703</ele>
        <time>2013-02-16T10:19:30.000Z</time>
      </trkpt>
      <trkpt lat="43.69285" lon="5.62134">
        <ele>466.39999389648</ele>
        <time>2013-02-16T10:19:41.000Z</time>
      </trkpt>
      <trkpt lat="43.69306" lon="5.62151">
        <ele>468.60000610352</ele>
        <time>2013-02-16T10:19:51.000Z</time>
      </trkpt>
      <trkpt lat="43.69333" lon="5.62167">
        <ele>471.79998779297</ele>
        <time>2013-02-16T10:20:00.000Z</time>
      </trkpt>
      <trkpt lat="43.69341" lon="5.62171">
        <ele>472.20001220703</ele>
        <time>2013-02-16T10:20:02.000Z</time>
      </trkpt>
      <trkpt lat="43.69345" lon="5.62174">
        <ele>472.20001220703</ele>
        <time>2013-02-16T10:20:03.000Z</time>
      </trkpt>
      <trkpt lat="43.69349" lon="5.62178">
        <ele>472.20001220703</ele>
        <time>2013-02-16T10:20:04.000Z</time>
      </trkpt>
      <trkpt lat="43.69353" lon="5.62182">
        <ele>472.20001220703</ele>
        <time>2013-02-16T10:20:05.000Z</time>
      </trkpt>
      <trkpt lat="43.69357" lon="5.62187">
        <ele>472</ele>
        <time>2013-02-16T10:20:06.000Z</time>
      </trkpt>
      <trkpt lat="43.69398" lon="5.62235">
        <ele>471.39999389648</ele>
        <time>2013-02-16T10:20:16.000Z</time>
      </trkpt>
      <trkpt lat="43.69442" lon="5.62286">
        <ele>470.60000610352</ele>
        <time>2013-02-16T10:20:27.000Z</time>
      </trkpt>
      <trkpt lat="43.69479" lon="5.62329">
        <ele>469.79998779297</ele>
        <time>2013-02-16T10:20:38.000Z</time>
      </trkpt>
      <trkpt lat="43.69482" lon="5.62333">
        <ele>469.60000610352</ele>
        <time>2013-02-16T10:20:39.000Z</time>
      </trkpt>
      <trkpt lat="43.69485" lon="5.62339">
        <ele>469.20001220703</ele>
        <time>2013-02-16T10:20:40.000Z</time>
      </trkpt>
      <trkpt lat="43.69502" lon="5.62368">
        <ele>465.79998779297</ele>
        <time>2013-02-16T10:20:44.000Z</time>
      </trkpt>
      <trkpt lat="43.69511" lon="5.62384">
        <ele>463.60000610352</ele>
        <time>2013-02-16T10:20:46.000Z</time>
      </trkpt>
      <trkpt lat="43.69515" lon="5.62393">
        <ele>462.39999389648</ele>
        <time>2013-02-16T10:20:47.000Z</time>
      </trkpt>
      <trkpt lat="43.69519" lon="5.62403">
        <ele>460.60000610352</ele>
        <time>2013-02-16T10:20:48.000Z</time>
      </trkpt>
      <trkpt lat="43.6952" lon="5.62414">
        <ele>458</ele>
        <time>2013-02-16T10:20:49.000Z</time>
      </trkpt>
      <trkpt lat="43.6952" lon="5.62426">
        <ele>456.39999389648</ele>
        <time>2013-02-16T10:20:50.000Z</time>
      </trkpt>
      <trkpt lat="43.69522" lon="5.62438">
        <ele>455</ele>
        <time>2013-02-16T10:20:51.000Z</time>
      </trkpt>
      <trkpt lat="43.69524" lon="5.6245">
        <ele>453.79998779297</ele>
        <time>2013-02-16T10:20:52.000Z</time>
      </trkpt>
      <trkpt lat="43.69527" lon="5.62482">
        <ele>450.20001220703</ele>
        <time>2013-02-16T10:20:55.000Z</time>
      </trkpt>
      <trkpt lat="43.69529" lon="5.62503">
        <ele>447.79998779297</ele>
        <time>2013-02-16T10:20:57.000Z</time>
      </trkpt>
      <trkpt lat="43.69531" lon="5.62513">
        <ele>447.60000610352</ele>
        <time>2013-02-16T10:20:58.000Z</time>
      </trkpt>
      <trkpt lat="43.69534" lon="5.62524">
        <ele>447.39999389648</ele>
        <time>2013-02-16T10:20:59.000Z</time>
      </trkpt>
      <trkpt lat="43.69538" lon="5.62534">
        <ele>447.20001220703</ele>
        <time>2013-02-16T10:21:00.000Z</time>
      </trkpt>
      <trkpt lat="43.69541" lon="5.62543">
        <ele>447</ele>
        <time>2013-02-16T10:21:01.000Z</time>
      </trkpt>
      <trkpt lat="43.69545" lon="5.6255">
        <ele>446.79998779297</ele>
        <time>2013-02-16T10:21:02.000Z</time>
      </trkpt>
      <trkpt lat="43.69556" lon="5.62573">
        <ele>445.79998779297</ele>
        <time>2013-02-16T10:21:08.000Z</time>
      </trkpt>
      <trkpt lat="43.69558" lon="5.62582">
        <ele>445.20001220703</ele>
        <time>2013-02-16T10:21:12.000Z</time>
      </trkpt>
      <trkpt lat="43.69557" lon="5.62583">
        <ele>445</ele>
        <time>2013-02-16T10:21:13.000Z</time>
      </trkpt>
      <trkpt lat="43.69556" lon="5.62584">
        <ele>444.79998779297</ele>
        <time>2013-02-16T10:21:14.000Z</time>
      </trkpt>
      <trkpt lat="43.69547" lon="5.62595">
        <ele>444.39999389648</ele>
        <time>2013-02-16T10:21:25.000Z</time>
      </trkpt>
      <trkpt lat="43.69546" lon="5.62596">
        <ele>444.20001220703</ele>
        <time>2013-02-16T10:21:35.000Z</time>
      </trkpt>
      <trkpt lat="43.69545" lon="5.62597">
        <ele>444.20001220703</ele>
        <time>2013-02-16T10:21:54.000Z</time>
      </trkpt>
      <trkpt lat="43.69545" lon="5.62599">
        <ele>444.20001220703</ele>
        <time>2013-02-16T10:22:15.000Z</time>
      </trkpt>
      <trkpt lat="43.69545" lon="5.626">
        <ele>444.20001220703</ele>
        <time>2013-02-16T10:22:36.000Z</time>
      </trkpt>
      <trkpt lat="43.69546" lon="5.62598">
        <ele>444.20001220703</ele>
        <time>2013-02-16T10:22:59.000Z</time>
      </trkpt>
      <trkpt lat="43.69545" lon="5.62598">
        <ele>444.20001220703</ele>
        <time>2013-02-16T10:23:12.000Z</time>
      </trkpt>
      <trkpt lat="43.69546" lon="5.62597">
        <ele>444.20001220703</ele>
        <time>2013-02-16T10:23:38.000Z</time>
      </trkpt>
      <trkpt lat="43.69539" lon="5.62605">
        <ele>444</ele>
        <time>2013-02-16T10:23:58.000Z</time>
      </trkpt>
      <trkpt lat="43.69536" lon="5.6261">
        <ele>443.79998779297</ele>
        <time>2013-02-16T10:23:59.000Z</time>
      </trkpt>
      <trkpt lat="43.69533" lon="5.62614">
        <ele>443.79998779297</ele>
        <time>2013-02-16T10:24:00.000Z</time>
      </trkpt>
      <trkpt lat="43.6953" lon="5.62618">
        <ele>443.60000610352</ele>
        <time>2013-02-16T10:24:01.000Z</time>
      </trkpt>
      <trkpt lat="43.69527" lon="5.62621">
        <ele>443.60000610352</ele>
        <time>2013-02-16T10:24:02.000Z</time>
      </trkpt>
      <trkpt lat="43.69523" lon="5.62623">
        <ele>443.60000610352</ele>
        <time>2013-02-16T10:24:03.000Z</time>
      </trkpt>
      <trkpt lat="43.69518" lon="5.62623">
        <ele>443.60000610352</ele>
        <time>2013-02-16T10:24:04.000Z</time>
      </trkpt>
      <trkpt lat="43.69514" lon="5.62624">
        <ele>443.39999389648</ele>
        <time>2013-02-16T10:24:05.000Z</time>
      </trkpt>
      <trkpt lat="43.69508" lon="5.62624">
        <ele>443.39999389648</ele>
        <time>2013-02-16T10:24:06.000Z</time>
      </trkpt>
      <trkpt lat="43.69503" lon="5.62623">
        <ele>443.39999389648</ele>
        <time>2013-02-16T10:24:07.000Z</time>
      </trkpt>
      <trkpt lat="43.69475" lon="5.62615">
        <ele>442.20001220703</ele>
        <time>2013-02-16T10:24:11.000Z</time>
      </trkpt>
      <trkpt lat="43.69468" lon="5.62613">
        <ele>441.79998779297</ele>
        <time>2013-02-16T10:24:12.000Z</time>
      </trkpt>
      <trkpt lat="43.69447" lon="5.62608">
        <ele>440.60000610352</ele>
        <time>2013-02-16T10:24:15.000Z</time>
      </trkpt>
      <trkpt lat="43.69413" lon="5.62593">
        <ele>437.79998779297</ele>
        <time>2013-02-16T10:24:20.000Z</time>
      </trkpt>
      <trkpt lat="43.69406" lon="5.62589">
        <ele>436.79998779297</ele>
        <time>2013-02-16T10:24:21.000Z</time>
      </trkpt>
      <trkpt lat="43.69401" lon="5.62587">
        <ele>436</ele>
        <time>2013-02-16T10:24:22.000Z</time>
      </trkpt>
      <trkpt lat="43.69395" lon="5.62586">
        <ele>435.20001220703</ele>
        <time>2013-02-16T10:24:23.000Z</time>
      </trkpt>
      <trkpt lat="43.69389" lon="5.62585">
        <ele>434.39999389648</ele>
        <time>2013-02-16T10:24:24.000Z</time>
      </trkpt>
      <trkpt lat="43.69383" lon="5.62584">
        <ele>433.60000610352</ele>
        <time>2013-02-16T10:24:25.000Z</time>
      </trkpt>
      <trkpt lat="43.69377" lon="5.62583">
        <ele>432.60000610352</ele>
        <time>2013-02-16T10:24:26.000Z</time>
      </trkpt>
      <trkpt lat="43.69371" lon="5.6258">
        <ele>431.79998779297</ele>
        <time>2013-02-16T10:24:27.000Z</time>
      </trkpt>
      <trkpt lat="43.6936" lon="5.62576">
        <ele>430.20001220703</ele>
        <time>2013-02-16T10:24:29.000Z</time>
      </trkpt>
      <trkpt lat="43.69355" lon="5.62574">
        <ele>429.60000610352</ele>
        <time>2013-02-16T10:24:30.000Z</time>
      </trkpt>
      <trkpt lat="43.6935" lon="5.62571">
        <ele>428.79998779297</ele>
        <time>2013-02-16T10:24:31.000Z</time>
      </trkpt>
      <trkpt lat="43.6933" lon="5.62555">
        <ele>426.39999389648</ele>
        <time>2013-02-16T10:24:35.000Z</time>
      </trkpt>
      <trkpt lat="43.69327" lon="5.62551">
        <ele>426</ele>
        <time>2013-02-16T10:24:36.000Z</time>
      </trkpt>
      <trkpt lat="43.69325" lon="5.62547">
        <ele>425.79998779297</ele>
        <time>2013-02-16T10:24:37.000Z</time>
      </trkpt>
      <trkpt lat="43.69322" lon="5.62543">
        <ele>425.39999389648</ele>
        <time>2013-02-16T10:24:38.000Z</time>
      </trkpt>
      <trkpt lat="43.69318" lon="5.6254">
        <ele>425</ele>
        <time>2013-02-16T10:24:39.000Z</time>
      </trkpt>
      <trkpt lat="43.69313" lon="5.62536">
        <ele>424.60000610352</ele>
        <time>2013-02-16T10:24:40.000Z</time>
      </trkpt>
      <trkpt lat="43.69309" lon="5.62532">
        <ele>424.20001220703</ele>
        <time>2013-02-16T10:24:41.000Z</time>
      </trkpt>
      <trkpt lat="43.69305" lon="5.62528">
        <ele>424</ele>
        <time>2013-02-16T10:24:42.000Z</time>
      </trkpt>
      <trkpt lat="43.69301" lon="5.62524">
        <ele>423.60000610352</ele>
        <time>2013-02-16T10:24:43.000Z</time>
      </trkpt>
      <trkpt lat="43.69295" lon="5.62514">
        <ele>423.20001220703</ele>
        <time>2013-02-16T10:24:45.000Z</time>
      </trkpt>
      <trkpt lat="43.69294" lon="5.62508">
        <ele>423</ele>
        <time>2013-02-16T10:24:46.000Z</time>
      </trkpt>
      <trkpt lat="43.69293" lon="5.62496">
        <ele>423.20001220703</ele>
        <time>2013-02-16T10:24:48.000Z</time>
      </trkpt>
      <trkpt lat="43.69292" lon="5.62491">
        <ele>423.20001220703</ele>
        <time>2013-02-16T10:24:49.000Z</time>
      </trkpt>
      <trkpt lat="43.69289" lon="5.62486">
        <ele>423.20001220703</ele>
        <time>2013-02-16T10:24:50.000Z</time>
      </trkpt>
      <trkpt lat="43.69286" lon="5.62483">
        <ele>423</ele>
        <time>2013-02-16T10:24:51.000Z</time>
      </trkpt>
      <trkpt lat="43.69282" lon="5.62479">
        <ele>423</ele>
        <time>2013-02-16T10:24:52.000Z</time>
      </trkpt>
      <trkpt lat="43.69278" lon="5.62477">
        <ele>422.79998779297</ele>
        <time>2013-02-16T10:24:53.000Z</time>
      </trkpt>
      <trkpt lat="43.69273" lon="5.62474">
        <ele>422.60000610352</ele>
        <time>2013-02-16T10:24:54.000Z</time>
      </trkpt>
      <trkpt lat="43.69264" lon="5.62471">
        <ele>422.20001220703</ele>
        <time>2013-02-16T10:24:59.000Z</time>
      </trkpt>
      <trkpt lat="43.69256" lon="5.62466">
        <ele>421.79998779297</ele>
        <time>2013-02-16T10:25:05.000Z</time>
      </trkpt>
      <trkpt lat="43.69254" lon="5.62454">
        <ele>422.39999389648</ele>
        <time>2013-02-16T10:25:15.000Z</time>
      </trkpt>
      <trkpt lat="43.6925" lon="5.62444">
        <ele>422.60000610352</ele>
        <time>2013-02-16T10:25:24.000Z</time>
      </trkpt>
      <trkpt lat="43.6925" lon="5.62437">
        <ele>423</ele>
        <time>2013-02-16T10:25:34.000Z</time>
      </trkpt>
      <trkpt lat="43.69252" lon="5.62433">
        <ele>423.20001220703</ele>
        <time>2013-02-16T10:25:40.000Z</time>
      </trkpt>
      <trkpt lat="43.69232" lon="5.6242">
        <ele>422</ele>
        <time>2013-02-16T10:25:50.000Z</time>
      </trkpt>
      <trkpt lat="43.69216" lon="5.62402">
        <ele>421.39999389648</ele>
        <time>2013-02-16T10:25:54.000Z</time>
      </trkpt>
      <trkpt lat="43.69204" lon="5.62383">
        <ele>420.60000610352</ele>
        <time>2013-02-16T10:25:57.000Z</time>
      </trkpt>
      <trkpt lat="43.69199" lon="5.62377">
        <ele>420.20001220703</ele>
        <time>2013-02-16T10:25:58.000Z</time>
      </trkpt>
      <trkpt lat="43.6919" lon="5.62367">
        <ele>419.20001220703</ele>
        <time>2013-02-16T10:26:00.000Z</time>
      </trkpt>
      <trkpt lat="43.69173" lon="5.62359">
        <ele>416.79998779297</ele>
        <time>2013-02-16T10:26:03.000Z</time>
      </trkpt>
      <trkpt lat="43.69161" lon="5.62358">
        <ele>415.20001220703</ele>
        <time>2013-02-16T10:26:05.000Z</time>
      </trkpt>
      <trkpt lat="43.6914" lon="5.62367">
        <ele>412.60000610352</ele>
        <time>2013-02-16T10:26:09.000Z</time>
      </trkpt>
      <trkpt lat="43.69127" lon="5.62381">
        <ele>410.79998779297</ele>
        <time>2013-02-16T10:26:12.000Z</time>
      </trkpt>
      <trkpt lat="43.69122" lon="5.62384">
        <ele>410.20001220703</ele>
        <time>2013-02-16T10:26:13.000Z</time>
      </trkpt>
      <trkpt lat="43.69101" lon="5.624">
        <ele>406.79998779297</ele>
        <time>2013-02-16T10:26:18.000Z</time>
      </trkpt>
      <trkpt lat="43.69094" lon="5.62416">
        <ele>405.39999389648</ele>
        <time>2013-02-16T10:26:21.000Z</time>
      </trkpt>
      <trkpt lat="43.69072" lon="5.62425">
        <ele>403</ele>
        <time>2013-02-16T10:26:27.000Z</time>
      </trkpt>
      <trkpt lat="43.69061" lon="5.62438">
        <ele>401.79998779297</ele>
        <time>2013-02-16T10:26:31.000Z</time>
      </trkpt>
      <trkpt lat="43.69024" lon="5.62452">
        <ele>398.60000610352</ele>
        <time>2013-02-16T10:26:40.000Z</time>
      </trkpt>
      <trkpt lat="43.69019" lon="5.62452">
        <ele>398.20001220703</ele>
        <time>2013-02-16T10:26:41.000Z</time>
      </trkpt>
      <trkpt lat="43.69009" lon="5.6245">
        <ele>397.60000610352</ele>
        <time>2013-02-16T10:26:43.000Z</time>
      </trkpt>
      <trkpt lat="43.68988" lon="5.62446">
        <ele>397</ele>
        <time>2013-02-16T10:26:48.000Z</time>
      </trkpt>
      <trkpt lat="43.68985" lon="5.62448">
        <ele>396.79998779297</ele>
        <time>2013-02-16T10:26:49.000Z</time>
      </trkpt>
      <trkpt lat="43.68981" lon="5.62451">
        <ele>396.60000610352</ele>
        <time>2013-02-16T10:26:50.000Z</time>
      </trkpt>
      <trkpt lat="43.68973" lon="5.62455">
        <ele>396.20001220703</ele>
        <time>2013-02-16T10:26:52.000Z</time>
      </trkpt>
      <trkpt lat="43.68959" lon="5.62463">
        <ele>395.60000610352</ele>
        <time>2013-02-16T10:26:55.000Z</time>
      </trkpt>
      <trkpt lat="43.68954" lon="5.62464">
        <ele>395.39999389648</ele>
        <time>2013-02-16T10:26:56.000Z</time>
      </trkpt>
      <trkpt lat="43.68938" lon="5.62469">
        <ele>394.79998779297</ele>
        <time>2013-02-16T10:26:59.000Z</time>
      </trkpt>
      <trkpt lat="43.6892" lon="5.62478">
        <ele>393.79998779297</ele>
        <time>2013-02-16T10:27:03.000Z</time>
      </trkpt>
      <trkpt lat="43.68915" lon="5.62479">
        <ele>393.60000610352</ele>
        <time>2013-02-16T10:27:04.000Z</time>
      </trkpt>
      <trkpt lat="43.6891" lon="5.6248">
        <ele>393.20001220703</ele>
        <time>2013-02-16T10:27:05.000Z</time>
      </trkpt>
      <trkpt lat="43.68905" lon="5.6248">
        <ele>393</ele>
        <time>2013-02-16T10:27:06.000Z</time>
      </trkpt>
      <trkpt lat="43.689" lon="5.6248">
        <ele>392.60000610352</ele>
        <time>2013-02-16T10:27:07.000Z</time>
      </trkpt>
      <trkpt lat="43.68895" lon="5.62478">
        <ele>392.39999389648</ele>
        <time>2013-02-16T10:27:08.000Z</time>
      </trkpt>
      <trkpt lat="43.6889" lon="5.62477">
        <ele>392.39999389648</ele>
        <time>2013-02-16T10:27:09.000Z</time>
      </trkpt>
      <trkpt lat="43.68881" lon="5.62475">
        <ele>392</ele>
        <time>2013-02-16T10:27:12.000Z</time>
      </trkpt>
      <trkpt lat="43.6888" lon="5.62476">
        <ele>391.79998779297</ele>
        <time>2013-02-16T10:27:13.000Z</time>
      </trkpt>
      <trkpt lat="43.68877" lon="5.62478">
        <ele>391.39999389648</ele>
        <time>2013-02-16T10:27:14.000Z</time>
      </trkpt>
      <trkpt lat="43.68875" lon="5.62481">
        <ele>391</ele>
        <time>2013-02-16T10:27:15.000Z</time>
      </trkpt>
      <trkpt lat="43.68872" lon="5.62484">
        <ele>390.60000610352</ele>
        <time>2013-02-16T10:27:16.000Z</time>
      </trkpt>
      <trkpt lat="43.68852" lon="5.62484">
        <ele>389.60000610352</ele>
        <time>2013-02-16T10:27:22.000Z</time>
      </trkpt>
      <trkpt lat="43.68846" lon="5.62472">
        <ele>390.39999389648</ele>
        <time>2013-02-16T10:27:26.000Z</time>
      </trkpt>
      <trkpt lat="43.68844" lon="5.62471">
        <ele>390.20001220703</ele>
        <time>2013-02-16T10:27:27.000Z</time>
      </trkpt>
      <trkpt lat="43.68842" lon="5.62472">
        <ele>390</ele>
        <time>2013-02-16T10:27:28.000Z</time>
      </trkpt>
      <trkpt lat="43.68839" lon="5.62473">
        <ele>389.79998779297</ele>
        <time>2013-02-16T10:27:29.000Z</time>
      </trkpt>
      <trkpt lat="43.68835" lon="5.62475">
        <ele>389.39999389648</ele>
        <time>2013-02-16T10:27:30.000Z</time>
      </trkpt>
      <trkpt lat="43.68832" lon="5.62477">
        <ele>389</ele>
        <time>2013-02-16T10:27:31.000Z</time>
      </trkpt>
      <trkpt lat="43.6883" lon="5.62478">
        <ele>388.79998779297</ele>
        <time>2013-02-16T10:27:32.000Z</time>
      </trkpt>
      <trkpt lat="43.68828" lon="5.62479">
        <ele>388.79998779297</ele>
        <time>2013-02-16T10:27:33.000Z</time>
      </trkpt>
      <trkpt lat="43.68827" lon="5.62478">
        <ele>388.79998779297</ele>
        <time>2013-02-16T10:27:41.000Z</time>
      </trkpt>
      <trkpt lat="43.68821" lon="5.62476">
        <ele>388.79998779297</ele>
        <time>2013-02-16T10:27:58.000Z</time>
      </trkpt>
      <trkpt lat="43.68814" lon="5.62475">
        <ele>388.79998779297</ele>
        <time>2013-02-16T10:28:00.000Z</time>
      </trkpt>
      <trkpt lat="43.68811" lon="5.62477">
        <ele>388.39999389648</ele>
        <time>2013-02-16T10:28:01.000Z</time>
      </trkpt>
      <trkpt lat="43.68808" lon="5.6248">
        <ele>388</ele>
        <time>2013-02-16T10:28:02.000Z</time>
      </trkpt>
      <trkpt lat="43.68804" lon="5.62481">
        <ele>387.79998779297</ele>
        <time>2013-02-16T10:28:03.000Z</time>
      </trkpt>
      <trkpt lat="43.688" lon="5.62481">
        <ele>387.60000610352</ele>
        <time>2013-02-16T10:28:04.000Z</time>
      </trkpt>
      <trkpt lat="43.68796" lon="5.6248">
        <ele>387.60000610352</ele>
        <time>2013-02-16T10:28:05.000Z</time>
      </trkpt>
      <trkpt lat="43.68791" lon="5.62479">
        <ele>387.39999389648</ele>
        <time>2013-02-16T10:28:06.000Z</time>
      </trkpt>
      <trkpt lat="43.68786" lon="5.62479">
        <ele>387.39999389648</ele>
        <time>2013-02-16T10:28:07.000Z</time>
      </trkpt>
      <trkpt lat="43.68783" lon="5.6248">
        <ele>387.20001220703</ele>
        <time>2013-02-16T10:28:08.000Z</time>
      </trkpt>
      <trkpt lat="43.68779" lon="5.62483">
        <ele>386.60000610352</ele>
        <time>2013-02-16T10:28:09.000Z</time>
      </trkpt>
      <trkpt lat="43.68775" lon="5.62483">
        <ele>386.39999389648</ele>
        <time>2013-02-16T10:28:10.000Z</time>
      </trkpt>
      <trkpt lat="43.6877" lon="5.62484">
        <ele>386.20001220703</ele>
        <time>2013-02-16T10:28:11.000Z</time>
      </trkpt>
      <trkpt lat="43.68765" lon="5.62485">
        <ele>385.79998779297</ele>
        <time>2013-02-16T10:28:12.000Z</time>
      </trkpt>
      <trkpt lat="43.68753" lon="5.62491">
        <ele>384.39999389648</ele>
        <time>2013-02-16T10:28:15.000Z</time>
      </trkpt>
      <trkpt lat="43.68726" lon="5.6249">
        <ele>383.60000610352</ele>
        <time>2013-02-16T10:28:22.000Z</time>
      </trkpt>
      <trkpt lat="43.68708" lon="5.6249">
        <ele>382.79998779297</ele>
        <time>2013-02-16T10:28:28.000Z</time>
      </trkpt>
      <trkpt lat="43.68687" lon="5.62499">
        <ele>380</ele>
        <time>2013-02-16T10:28:34.000Z</time>
      </trkpt>
      <trkpt lat="43.68684" lon="5.62498">
        <ele>380</ele>
        <time>2013-02-16T10:28:35.000Z</time>
      </trkpt>
      <trkpt lat="43.68666" lon="5.625">
        <ele>379</ele>
        <time>2013-02-16T10:28:40.000Z</time>
      </trkpt>
      <trkpt lat="43.68647" lon="5.62515">
        <ele>378.79998779297</ele>
        <time>2013-02-16T10:28:44.000Z</time>
      </trkpt>
      <trkpt lat="43.68643" lon="5.6252">
        <ele>378.60000610352</ele>
        <time>2013-02-16T10:28:45.000Z</time>
      </trkpt>
      <trkpt lat="43.68618" lon="5.62539">
        <ele>378.20001220703</ele>
        <time>2013-02-16T10:28:50.000Z</time>
      </trkpt>
      <trkpt lat="43.68613" lon="5.62543">
        <ele>378.20001220703</ele>
        <time>2013-02-16T10:28:51.000Z</time>
      </trkpt>
      <trkpt lat="43.68608" lon="5.62548">
        <ele>377.79998779297</ele>
        <time>2013-02-16T10:28:52.000Z</time>
      </trkpt>
      <trkpt lat="43.68604" lon="5.62554">
        <ele>377.39999389648</ele>
        <time>2013-02-16T10:28:53.000Z</time>
      </trkpt>
      <trkpt lat="43.686" lon="5.62561">
        <ele>376.60000610352</ele>
        <time>2013-02-16T10:28:54.000Z</time>
      </trkpt>
      <trkpt lat="43.68596" lon="5.62568">
        <ele>376.20001220703</ele>
        <time>2013-02-16T10:28:55.000Z</time>
      </trkpt>
      <trkpt lat="43.68592" lon="5.62574">
        <ele>375.39999389648</ele>
        <time>2013-02-16T10:28:56.000Z</time>
      </trkpt>
      <trkpt lat="43.68584" lon="5.62588">
        <ele>373.79998779297</ele>
        <time>2013-02-16T10:28:58.000Z</time>
      </trkpt>
      <trkpt lat="43.6858" lon="5.62594">
        <ele>373.60000610352</ele>
        <time>2013-02-16T10:28:59.000Z</time>
      </trkpt>
      <trkpt lat="43.68574" lon="5.62598">
        <ele>373.60000610352</ele>
        <time>2013-02-16T10:29:00.000Z</time>
      </trkpt>
      <trkpt lat="43.6856" lon="5.6261">
        <ele>373.79998779297</ele>
        <time>2013-02-16T10:29:03.000Z</time>
      </trkpt>
      <trkpt lat="43.68551" lon="5.62617">
        <ele>373.60000610352</ele>
        <time>2013-02-16T10:29:05.000Z</time>
      </trkpt>
      <trkpt lat="43.68546" lon="5.62623">
        <ele>373.20001220703</ele>
        <time>2013-02-16T10:29:06.000Z</time>
      </trkpt>
      <trkpt lat="43.68542" lon="5.62629">
        <ele>372.60000610352</ele>
        <time>2013-02-16T10:29:07.000Z</time>
      </trkpt>
      <trkpt lat="43.68537" lon="5.62635">
        <ele>371.79998779297</ele>
        <time>2013-02-16T10:29:08.000Z</time>
      </trkpt>
      <trkpt lat="43.68533" lon="5.62637">
        <ele>371.79998779297</ele>
        <time>2013-02-16T10:29:09.000Z</time>
      </trkpt>
      <trkpt lat="43.68528" lon="5.62639">
        <ele>372</ele>
        <time>2013-02-16T10:29:10.000Z</time>
      </trkpt>
      <trkpt lat="43.68523" lon="5.62643">
        <ele>372</ele>
        <time>2013-02-16T10:29:11.000Z</time>
      </trkpt>
      <trkpt lat="43.68519" lon="5.62647">
        <ele>371.39999389648</ele>
        <time>2013-02-16T10:29:12.000Z</time>
      </trkpt>
      <trkpt lat="43.68508" lon="5.62665">
        <ele>368.39999389648</ele>
        <time>2013-02-16T10:29:16.000Z</time>
      </trkpt>
      <trkpt lat="43.68488" lon="5.62706">
        <ele>365</ele>
        <time>2013-02-16T10:29:22.000Z</time>
      </trkpt>
      <trkpt lat="43.68479" lon="5.62725">
        <ele>364</ele>
        <time>2013-02-16T10:29:24.000Z</time>
      </trkpt>
      <trkpt lat="43.68471" lon="5.62743">
        <ele>362.20001220703</ele>
        <time>2013-02-16T10:29:26.000Z</time>
      </trkpt>
      <trkpt lat="43.68455" lon="5.62781">
        <ele>358</ele>
        <time>2013-02-16T10:29:31.000Z</time>
      </trkpt>
      <trkpt lat="43.6845" lon="5.6279">
        <ele>357</ele>
        <time>2013-02-16T10:29:32.000Z</time>
      </trkpt>
      <trkpt lat="43.68441" lon="5.62808">
        <ele>354.39999389648</ele>
        <time>2013-02-16T10:29:34.000Z</time>
      </trkpt>
      <trkpt lat="43.68434" lon="5.62816">
        <ele>353.39999389648</ele>
        <time>2013-02-16T10:29:35.000Z</time>
      </trkpt>
      <trkpt lat="43.68428" lon="5.62823">
        <ele>352.39999389648</ele>
        <time>2013-02-16T10:29:36.000Z</time>
      </trkpt>
      <trkpt lat="43.68421" lon="5.6283">
        <ele>351.39999389648</ele>
        <time>2013-02-16T10:29:37.000Z</time>
      </trkpt>
      <trkpt lat="43.68414" lon="5.62836">
        <ele>351.20001220703</ele>
        <time>2013-02-16T10:29:38.000Z</time>
      </trkpt>
      <trkpt lat="43.68378" lon="5.62868">
        <ele>350.79998779297</ele>
        <time>2013-02-16T10:29:43.000Z</time>
      </trkpt>
      <trkpt lat="43.68363" lon="5.62879">
        <ele>350.39999389648</ele>
        <time>2013-02-16T10:29:45.000Z</time>
      </trkpt>
      <trkpt lat="43.68349" lon="5.6289">
        <ele>349.20001220703</ele>
        <time>2013-02-16T10:29:47.000Z</time>
      </trkpt>
      <trkpt lat="43.68344" lon="5.62896">
        <ele>347.60000610352</ele>
        <time>2013-02-16T10:29:48.000Z</time>
      </trkpt>
      <trkpt lat="43.68331" lon="5.62914">
        <ele>343</ele>
        <time>2013-02-16T10:29:51.000Z</time>
      </trkpt>
      <trkpt lat="43.68326" lon="5.62917">
        <ele>342.60000610352</ele>
        <time>2013-02-16T10:29:52.000Z</time>
      </trkpt>
      <trkpt lat="43.68321" lon="5.62919">
        <ele>342.60000610352</ele>
        <time>2013-02-16T10:29:53.000Z</time>
      </trkpt>
      <trkpt lat="43.68315" lon="5.6292">
        <ele>342.79998779297</ele>
        <time>2013-02-16T10:29:54.000Z</time>
      </trkpt>
      <trkpt lat="43.68309" lon="5.62921">
        <ele>343.39999389648</ele>
        <time>2013-02-16T10:29:55.000Z</time>
      </trkpt>
      <trkpt lat="43.68254" lon="5.6293">
        <ele>346.39999389648</ele>
        <time>2013-02-16T10:30:03.000Z</time>
      </trkpt>
      <trkpt lat="43.68248" lon="5.62933">
        <ele>345.60000610352</ele>
        <time>2013-02-16T10:30:04.000Z</time>
      </trkpt>
      <trkpt lat="43.68243" lon="5.62939">
        <ele>343.79998779297</ele>
        <time>2013-02-16T10:30:05.000Z</time>
      </trkpt>
      <trkpt lat="43.68237" lon="5.62945">
        <ele>341.60000610352</ele>
        <time>2013-02-16T10:30:06.000Z</time>
      </trkpt>
      <trkpt lat="43.6823" lon="5.62951">
        <ele>339.60000610352</ele>
        <time>2013-02-16T10:30:07.000Z</time>
      </trkpt>
      <trkpt lat="43.68206" lon="5.6297">
        <ele>333.79998779297</ele>
        <time>2013-02-16T10:30:11.000Z</time>
      </trkpt>
      <trkpt lat="43.68191" lon="5.62974">
        <ele>332.39999389648</ele>
        <time>2013-02-16T10:30:13.000Z</time>
      </trkpt>
      <trkpt lat="43.68184" lon="5.62974">
        <ele>332.39999389648</ele>
        <time>2013-02-16T10:30:14.000Z</time>
      </trkpt>
      <trkpt lat="43.68164" lon="5.62974">
        <ele>332.60000610352</ele>
        <time>2013-02-16T10:30:17.000Z</time>
      </trkpt>
      <trkpt lat="43.68158" lon="5.62973">
        <ele>334</ele>
        <time>2013-02-16T10:30:18.000Z</time>
      </trkpt>
      <trkpt lat="43.68146" lon="5.62967">
        <ele>337.20001220703</ele>
        <time>2013-02-16T10:30:20.000Z</time>
      </trkpt>
      <trkpt lat="43.68141" lon="5.62964">
        <ele>338.60000610352</ele>
        <time>2013-02-16T10:30:21.000Z</time>
      </trkpt>
      <trkpt lat="43.68138" lon="5.62963">
        <ele>339.20001220703</ele>
        <time>2013-02-16T10:30:22.000Z</time>
      </trkpt>
      <trkpt lat="43.68135" lon="5.62965">
        <ele>339.39999389648</ele>
        <time>2013-02-16T10:30:23.000Z</time>
      </trkpt>
      <trkpt lat="43.68134" lon="5.62967">
        <ele>339</ele>
        <time>2013-02-16T10:30:24.000Z</time>
      </trkpt>
      <trkpt lat="43.68133" lon="5.62969">
        <ele>338.79998779297</ele>
        <time>2013-02-16T10:30:25.000Z</time>
      </trkpt>
      <trkpt lat="43.68133" lon="5.62971">
        <ele>338.39999389648</ele>
        <time>2013-02-16T10:30:26.000Z</time>
      </trkpt>
      <trkpt lat="43.68132" lon="5.62974">
        <ele>338.20001220703</ele>
        <time>2013-02-16T10:30:27.000Z</time>
      </trkpt>
      <trkpt lat="43.68127" lon="5.62987">
        <ele>336.60000610352</ele>
        <time>2013-02-16T10:30:34.000Z</time>
      </trkpt>
      <trkpt lat="43.68126" lon="5.63018">
        <ele>331.60000610352</ele>
        <time>2013-02-16T10:30:42.000Z</time>
      </trkpt>
      <trkpt lat="43.68123" lon="5.63052">
        <ele>327.20001220703</ele>
        <time>2013-02-16T10:30:49.000Z</time>
      </trkpt>
      <trkpt lat="43.68122" lon="5.63057">
        <ele>326.79998779297</ele>
        <time>2013-02-16T10:30:50.000Z</time>
      </trkpt>
      <trkpt lat="43.68115" lon="5.63073">
        <ele>325.79998779297</ele>
        <time>2013-02-16T10:30:55.000Z</time>
      </trkpt>
      <trkpt lat="43.68111" lon="5.63074">
        <ele>326.20001220703</ele>
        <time>2013-02-16T10:30:56.000Z</time>
      </trkpt>
      <trkpt lat="43.68095" lon="5.63079">
        <ele>328.39999389648</ele>
        <time>2013-02-16T10:31:00.000Z</time>
      </trkpt>
      <trkpt lat="43.68091" lon="5.63082">
        <ele>328.79998779297</ele>
        <time>2013-02-16T10:31:01.000Z</time>
      </trkpt>
      <trkpt lat="43.68077" lon="5.63094">
        <ele>329.20001220703</ele>
        <time>2013-02-16T10:31:04.000Z</time>
      </trkpt>
      <trkpt lat="43.68073" lon="5.63099">
        <ele>328.79998779297</ele>
        <time>2013-02-16T10:31:05.000Z</time>
      </trkpt>
      <trkpt lat="43.68071" lon="5.63106">
        <ele>328.20001220703</ele>
        <time>2013-02-16T10:31:06.000Z</time>
      </trkpt>
      <trkpt lat="43.68069" lon="5.63112">
        <ele>327.60000610352</ele>
        <time>2013-02-16T10:31:07.000Z</time>
      </trkpt>
      <trkpt lat="43.68067" lon="5.63118">
        <ele>326.79998779297</ele>
        <time>2013-02-16T10:31:08.000Z</time>
      </trkpt>
      <trkpt lat="43.68066" lon="5.63123">
        <ele>326.20001220703</ele>
        <time>2013-02-16T10:31:09.000Z</time>
      </trkpt>
      <trkpt lat="43.68049" lon="5.63141">
        <ele>325.60000610352</ele>
        <time>2013-02-16T10:31:16.000Z</time>
      </trkpt>
      <trkpt lat="43.68023" lon="5.63155">
        <ele>327.39999389648</ele>
        <time>2013-02-16T10:31:28.000Z</time>
      </trkpt>
      <trkpt lat="43.68006" lon="5.63168">
        <ele>328</ele>
        <time>2013-02-16T10:31:38.000Z</time>
      </trkpt>
      <trkpt lat="43.68004" lon="5.63169">
        <ele>328.20001220703</ele>
        <time>2013-02-16T10:31:39.000Z</time>
      </trkpt>
      <trkpt lat="43.68002" lon="5.6317">
        <ele>328.60000610352</ele>
        <time>2013-02-16T10:31:40.000Z</time>
      </trkpt>
      <trkpt lat="43.67987" lon="5.63183">
        <ele>327.79998779297</ele>
        <time>2013-02-16T10:31:50.000Z</time>
      </trkpt>
      <trkpt lat="43.67982" lon="5.63186">
        <ele>327.39999389648</ele>
        <time>2013-02-16T10:31:53.000Z</time>
      </trkpt>
      <trkpt lat="43.67981" lon="5.63186">
        <ele>327.20001220703</ele>
        <time>2013-02-16T10:31:54.000Z</time>
      </trkpt>
      <trkpt lat="43.6798" lon="5.63187">
        <ele>327.20001220703</ele>
        <time>2013-02-16T10:31:55.000Z</time>
      </trkpt>
      <trkpt lat="43.67979" lon="5.63188">
        <ele>327</ele>
        <time>2013-02-16T10:31:56.000Z</time>
      </trkpt>
      <trkpt lat="43.67978" lon="5.63189">
        <ele>327</ele>
        <time>2013-02-16T10:31:57.000Z</time>
      </trkpt>
      <trkpt lat="43.67977" lon="5.63193">
        <ele>326.79998779297</ele>
        <time>2013-02-16T10:32:08.000Z</time>
      </trkpt>
      <trkpt lat="43.67977" lon="5.63193">
        <ele>326.79998779297</ele>
        <time>2013-02-16T10:32:28.000Z</time>
      </trkpt>
      <trkpt lat="43.67977" lon="5.63193">
        <ele>326.79998779297</ele>
        <time>2013-02-16T10:32:48.000Z</time>
      </trkpt>
      <trkpt lat="43.67977" lon="5.63193">
        <ele>326.79998779297</ele>
        <time>2013-02-16T10:33:08.000Z</time>
      </trkpt>
      <trkpt lat="43.67977" lon="5.63191">
        <ele>326.79998779297</ele>
        <time>2013-02-16T10:33:27.000Z</time>
      </trkpt>
      <trkpt lat="43.67978" lon="5.63193">
        <ele>327</ele>
        <time>2013-02-16T10:33:47.000Z</time>
      </trkpt>
      <trkpt lat="43.67977" lon="5.63193">
        <ele>326.79998779297</ele>
        <time>2013-02-16T10:34:05.000Z</time>
      </trkpt>
      <trkpt lat="43.67977" lon="5.63192">
        <ele>327</ele>
        <time>2013-02-16T10:34:25.000Z</time>
      </trkpt>
      <trkpt lat="43.67976" lon="5.63196">
        <ele>326.79998779297</ele>
        <time>2013-02-16T10:34:40.000Z</time>
      </trkpt>
      <trkpt lat="43.67972" lon="5.63209">
        <ele>326.39999389648</ele>
        <time>2013-02-16T10:34:48.000Z</time>
      </trkpt>
      <trkpt lat="43.67966" lon="5.63231">
        <ele>325.79998779297</ele>
        <time>2013-02-16T10:34:56.000Z</time>
      </trkpt>
      <trkpt lat="43.67944" lon="5.63268">
        <ele>323</ele>
        <time>2013-02-16T10:35:06.000Z</time>
      </trkpt>
      <trkpt lat="43.67931" lon="5.63286">
        <ele>321.20001220703</ele>
        <time>2013-02-16T10:35:10.000Z</time>
      </trkpt>
      <trkpt lat="43.67928" lon="5.6329">
        <ele>320.60000610352</ele>
        <time>2013-02-16T10:35:11.000Z</time>
      </trkpt>
      <trkpt lat="43.67924" lon="5.63293">
        <ele>320.20001220703</ele>
        <time>2013-02-16T10:35:12.000Z</time>
      </trkpt>
      <trkpt lat="43.67921" lon="5.63296">
        <ele>319.60000610352</ele>
        <time>2013-02-16T10:35:13.000Z</time>
      </trkpt>
      <trkpt lat="43.67901" lon="5.63317">
        <ele>316</ele>
        <time>2013-02-16T10:35:21.000Z</time>
      </trkpt>
      <trkpt lat="43.67887" lon="5.63331">
        <ele>313.79998779297</ele>
        <time>2013-02-16T10:35:25.000Z</time>
      </trkpt>
      <trkpt lat="43.67875" lon="5.63343">
        <ele>311</ele>
        <time>2013-02-16T10:35:28.000Z</time>
      </trkpt>
      <trkpt lat="43.67871" lon="5.63347">
        <ele>310</ele>
        <time>2013-02-16T10:35:29.000Z</time>
      </trkpt>
      <trkpt lat="43.67856" lon="5.63352">
        <ele>307.60000610352</ele>
        <time>2013-02-16T10:35:34.000Z</time>
      </trkpt>
      <trkpt lat="43.6784" lon="5.63349">
        <ele>306</ele>
        <time>2013-02-16T10:35:39.000Z</time>
      </trkpt>
      <trkpt lat="43.67827" lon="5.63344">
        <ele>304</ele>
        <time>2013-02-16T10:35:43.000Z</time>
      </trkpt>
      <trkpt lat="43.67821" lon="5.6334">
        <ele>303.20001220703</ele>
        <time>2013-02-16T10:35:45.000Z</time>
      </trkpt>
      <trkpt lat="43.67818" lon="5.63341">
        <ele>302.39999389648</ele>
        <time>2013-02-16T10:35:47.000Z</time>
      </trkpt>
      <trkpt lat="43.67816" lon="5.63344">
        <ele>302</ele>
        <time>2013-02-16T10:35:48.000Z</time>
      </trkpt>
      <trkpt lat="43.67816" lon="5.63348">
        <ele>301.60000610352</ele>
        <time>2013-02-16T10:35:49.000Z</time>
      </trkpt>
      <trkpt lat="43.67815" lon="5.63353">
        <ele>301.39999389648</ele>
        <time>2013-02-16T10:35:50.000Z</time>
      </trkpt>
      <trkpt lat="43.6781" lon="5.63393">
        <ele>298.79998779297</ele>
        <time>2013-02-16T10:35:56.000Z</time>
      </trkpt>
      <trkpt lat="43.6781" lon="5.63401">
        <ele>298.39999389648</ele>
        <time>2013-02-16T10:35:57.000Z</time>
      </trkpt>
      <trkpt lat="43.6781" lon="5.63414">
        <ele>297.79998779297</ele>
        <time>2013-02-16T10:35:59.000Z</time>
      </trkpt>
      <trkpt lat="43.67808" lon="5.63418">
        <ele>297.20001220703</ele>
        <time>2013-02-16T10:36:00.000Z</time>
      </trkpt>
      <trkpt lat="43.67805" lon="5.63419">
        <ele>296.60000610352</ele>
        <time>2013-02-16T10:36:01.000Z</time>
      </trkpt>
      <trkpt lat="43.67802" lon="5.63419">
        <ele>296</ele>
        <time>2013-02-16T10:36:02.000Z</time>
      </trkpt>
      <trkpt lat="43.67799" lon="5.63417">
        <ele>295.60000610352</ele>
        <time>2013-02-16T10:36:03.000Z</time>
      </trkpt>
      <trkpt lat="43.67796" lon="5.63413">
        <ele>295.39999389648</ele>
        <time>2013-02-16T10:36:04.000Z</time>
      </trkpt>
      <trkpt lat="43.67794" lon="5.63408">
        <ele>295.20001220703</ele>
        <time>2013-02-16T10:36:05.000Z</time>
      </trkpt>
      <trkpt lat="43.67792" lon="5.63402">
        <ele>295</ele>
        <time>2013-02-16T10:36:06.000Z</time>
      </trkpt>
      <trkpt lat="43.67786" lon="5.63389">
        <ele>294.39999389648</ele>
        <time>2013-02-16T10:36:08.000Z</time>
      </trkpt>
      <trkpt lat="43.67782" lon="5.63384">
        <ele>293.60000610352</ele>
        <time>2013-02-16T10:36:09.000Z</time>
      </trkpt>
      <trkpt lat="43.67771" lon="5.63374">
        <ele>292</ele>
        <time>2013-02-16T10:36:11.000Z</time>
      </trkpt>
      <trkpt lat="43.6776" lon="5.63366">
        <ele>290</ele>
        <time>2013-02-16T10:36:13.000Z</time>
      </trkpt>
      <trkpt lat="43.67755" lon="5.63361">
        <ele>289.20001220703</ele>
        <time>2013-02-16T10:36:14.000Z</time>
      </trkpt>
      <trkpt lat="43.67751" lon="5.63356">
        <ele>288.39999389648</ele>
        <time>2013-02-16T10:36:15.000Z</time>
      </trkpt>
      <trkpt lat="43.67744" lon="5.63345">
        <ele>287.39999389648</ele>
        <time>2013-02-16T10:36:17.000Z</time>
      </trkpt>
      <trkpt lat="43.67741" lon="5.63341">
        <ele>286.79998779297</ele>
        <time>2013-02-16T10:36:18.000Z</time>
      </trkpt>
      <trkpt lat="43.67738" lon="5.63339">
        <ele>286.39999389648</ele>
        <time>2013-02-16T10:36:19.000Z</time>
      </trkpt>
      <trkpt lat="43.67736" lon="5.6334">
        <ele>285.79998779297</ele>
        <time>2013-02-16T10:36:20.000Z</time>
      </trkpt>
      <trkpt lat="43.67734" lon="5.63343">
        <ele>285.39999389648</ele>
        <time>2013-02-16T10:36:21.000Z</time>
      </trkpt>
      <trkpt lat="43.67732" lon="5.63347">
        <ele>285</ele>
        <time>2013-02-16T10:36:22.000Z</time>
      </trkpt>
      <trkpt lat="43.67731" lon="5.63353">
        <ele>284.60000610352</ele>
        <time>2013-02-16T10:36:23.000Z</time>
      </trkpt>
      <trkpt lat="43.67731" lon="5.6336">
        <ele>284.39999389648</ele>
        <time>2013-02-16T10:36:24.000Z</time>
      </trkpt>
      <trkpt lat="43.6773" lon="5.63368">
        <ele>284.20001220703</ele>
        <time>2013-02-16T10:36:25.000Z</time>
      </trkpt>
      <trkpt lat="43.67729" lon="5.63376">
        <ele>283.79998779297</ele>
        <time>2013-02-16T10:36:26.000Z</time>
      </trkpt>
      <trkpt lat="43.67727" lon="5.63386">
        <ele>283.39999389648</ele>
        <time>2013-02-16T10:36:27.000Z</time>
      </trkpt>
      <trkpt lat="43.67715" lon="5.63431">
        <ele>280</ele>
        <time>2013-02-16T10:36:31.000Z</time>
      </trkpt>
      <trkpt lat="43.67703" lon="5.63463">
        <ele>276.79998779297</ele>
        <time>2013-02-16T10:36:34.000Z</time>
      </trkpt>
      <trkpt lat="43.67695" lon="5.63489">
        <ele>274.79998779297</ele>
        <time>2013-02-16T10:36:37.000Z</time>
      </trkpt>
      <trkpt lat="43.67692" lon="5.63506">
        <ele>273.60000610352</ele>
        <time>2013-02-16T10:36:39.000Z</time>
      </trkpt>
      <trkpt lat="43.67691" lon="5.63515">
        <ele>273.20001220703</ele>
        <time>2013-02-16T10:36:40.000Z</time>
      </trkpt>
      <trkpt lat="43.67692" lon="5.63543">
        <ele>272.20001220703</ele>
        <time>2013-02-16T10:36:43.000Z</time>
      </trkpt>
      <trkpt lat="43.67691" lon="5.63552">
        <ele>271.79998779297</ele>
        <time>2013-02-16T10:36:44.000Z</time>
      </trkpt>
      <trkpt lat="43.6769" lon="5.63562">
        <ele>271.39999389648</ele>
        <time>2013-02-16T10:36:45.000Z</time>
      </trkpt>
      <trkpt lat="43.67667" lon="5.63657">
        <ele>267</ele>
        <time>2013-02-16T10:36:56.000Z</time>
      </trkpt>
      <trkpt lat="43.67661" lon="5.63683">
        <ele>265.39999389648</ele>
        <time>2013-02-16T10:36:59.000Z</time>
      </trkpt>
      <trkpt lat="43.67655" lon="5.6375">
        <ele>261.39999389648</ele>
        <time>2013-02-16T10:37:07.000Z</time>
      </trkpt>
      <trkpt lat="43.67652" lon="5.63758">
        <ele>260.39999389648</ele>
        <time>2013-02-16T10:37:08.000Z</time>
      </trkpt>
      <trkpt lat="43.67648" lon="5.63766">
        <ele>259.39999389648</ele>
        <time>2013-02-16T10:37:09.000Z</time>
      </trkpt>
      <trkpt lat="43.67643" lon="5.63773">
        <ele>258.79998779297</ele>
        <time>2013-02-16T10:37:10.000Z</time>
      </trkpt>
      <trkpt lat="43.67638" lon="5.63779">
        <ele>258.20001220703</ele>
        <time>2013-02-16T10:37:11.000Z</time>
      </trkpt>
      <trkpt lat="43.67633" lon="5.63785">
        <ele>257.60000610352</ele>
        <time>2013-02-16T10:37:12.000Z</time>
      </trkpt>
      <trkpt lat="43.67628" lon="5.63792">
        <ele>257</ele>
        <time>2013-02-16T10:37:13.000Z</time>
      </trkpt>
      <trkpt lat="43.67624" lon="5.638">
        <ele>256.60000610352</ele>
        <time>2013-02-16T10:37:14.000Z</time>
      </trkpt>
      <trkpt lat="43.67619" lon="5.63806">
        <ele>256.20001220703</ele>
        <time>2013-02-16T10:37:15.000Z</time>
      </trkpt>
      <trkpt lat="43.67614" lon="5.63812">
        <ele>256</ele>
        <time>2013-02-16T10:37:16.000Z</time>
      </trkpt>
      <trkpt lat="43.67582" lon="5.63845">
        <ele>255.39999389648</ele>
        <time>2013-02-16T10:37:22.000Z</time>
      </trkpt>
      <trkpt lat="43.67577" lon="5.63853">
        <ele>253.80000305176</ele>
        <time>2013-02-16T10:37:23.000Z</time>
      </trkpt>
      <trkpt lat="43.67574" lon="5.63862">
        <ele>252.39999389648</ele>
        <time>2013-02-16T10:37:24.000Z</time>
      </trkpt>
      <trkpt lat="43.67571" lon="5.63872">
        <ele>251</ele>
        <time>2013-02-16T10:37:25.000Z</time>
      </trkpt>
      <trkpt lat="43.6757" lon="5.63883">
        <ele>249.80000305176</ele>
        <time>2013-02-16T10:37:26.000Z</time>
      </trkpt>
      <trkpt lat="43.6757" lon="5.63894">
        <ele>248.60000610352</ele>
        <time>2013-02-16T10:37:27.000Z</time>
      </trkpt>
      <trkpt lat="43.67569" lon="5.63904">
        <ele>247.39999389648</ele>
        <time>2013-02-16T10:37:28.000Z</time>
      </trkpt>
      <trkpt lat="43.67565" lon="5.63931">
        <ele>244.19999694824</ele>
        <time>2013-02-16T10:37:31.000Z</time>
      </trkpt>
      <trkpt lat="43.67562" lon="5.63939">
        <ele>243.39999389648</ele>
        <time>2013-02-16T10:37:32.000Z</time>
      </trkpt>
      <trkpt lat="43.67558" lon="5.63945">
        <ele>242.60000610352</ele>
        <time>2013-02-16T10:37:33.000Z</time>
      </trkpt>
      <trkpt lat="43.67553" lon="5.63951">
        <ele>241.80000305176</ele>
        <time>2013-02-16T10:37:34.000Z</time>
      </trkpt>
      <trkpt lat="43.67547" lon="5.63956">
        <ele>241</ele>
        <time>2013-02-16T10:37:35.000Z</time>
      </trkpt>
      <trkpt lat="43.67541" lon="5.6396">
        <ele>240.19999694824</ele>
        <time>2013-02-16T10:37:36.000Z</time>
      </trkpt>
      <trkpt lat="43.67531" lon="5.63968">
        <ele>239</ele>
        <time>2013-02-16T10:37:39.000Z</time>
      </trkpt>
      <trkpt lat="43.6753" lon="5.63971">
        <ele>238.80000305176</ele>
        <time>2013-02-16T10:37:40.000Z</time>
      </trkpt>
      <trkpt lat="43.67531" lon="5.63973">
        <ele>238.60000610352</ele>
        <time>2013-02-16T10:37:41.000Z</time>
      </trkpt>
      <trkpt lat="43.67533" lon="5.63977">
        <ele>238.39999389648</ele>
        <time>2013-02-16T10:37:42.000Z</time>
      </trkpt>
      <trkpt lat="43.67535" lon="5.63981">
        <ele>238.19999694824</ele>
        <time>2013-02-16T10:37:43.000Z</time>
      </trkpt>
      <trkpt lat="43.6754" lon="5.63994">
        <ele>237.39999389648</ele>
        <time>2013-02-16T10:37:45.000Z</time>
      </trkpt>
      <trkpt lat="43.67544" lon="5.63999">
        <ele>237</ele>
        <time>2013-02-16T10:37:46.000Z</time>
      </trkpt>
      <trkpt lat="43.67548" lon="5.64004">
        <ele>237.19999694824</ele>
        <time>2013-02-16T10:37:47.000Z</time>
      </trkpt>
      <trkpt lat="43.67553" lon="5.64009">
        <ele>237.19999694824</ele>
        <time>2013-02-16T10:37:48.000Z</time>
      </trkpt>
      <trkpt lat="43.67559" lon="5.64012">
        <ele>237.60000610352</ele>
        <time>2013-02-16T10:37:49.000Z</time>
      </trkpt>
      <trkpt lat="43.67564" lon="5.64016">
        <ele>237.80000305176</ele>
        <time>2013-02-16T10:37:50.000Z</time>
      </trkpt>
      <trkpt lat="43.6757" lon="5.64019">
        <ele>238</ele>
        <time>2013-02-16T10:37:51.000Z</time>
      </trkpt>
      <trkpt lat="43.67573" lon="5.64022">
        <ele>238.19999694824</ele>
        <time>2013-02-16T10:37:52.000Z</time>
      </trkpt>
      <trkpt lat="43.67574" lon="5.64026">
        <ele>238.39999389648</ele>
        <time>2013-02-16T10:37:53.000Z</time>
      </trkpt>
      <trkpt lat="43.67575" lon="5.64029">
        <ele>238.39999389648</ele>
        <time>2013-02-16T10:37:54.000Z</time>
      </trkpt>
      <trkpt lat="43.67578" lon="5.64031">
        <ele>238.60000610352</ele>
        <time>2013-02-16T10:37:55.000Z</time>
      </trkpt>
      <trkpt lat="43.6758" lon="5.64032">
        <ele>238.60000610352</ele>
        <time>2013-02-16T10:37:56.000Z</time>
      </trkpt>
      <trkpt lat="43.67583" lon="5.64033">
        <ele>238.80000305176</ele>
        <time>2013-02-16T10:37:57.000Z</time>
      </trkpt>
      <trkpt lat="43.67585" lon="5.64033">
        <ele>239.19999694824</ele>
        <time>2013-02-16T10:37:58.000Z</time>
      </trkpt>
      <trkpt lat="43.67588" lon="5.64033">
        <ele>239.39999389648</ele>
        <time>2013-02-16T10:37:59.000Z</time>
      </trkpt>
      <trkpt lat="43.6759" lon="5.64033">
        <ele>239.60000610352</ele>
        <time>2013-02-16T10:38:00.000Z</time>
      </trkpt>
      <trkpt lat="43.67607" lon="5.64032">
        <ele>241.39999389648</ele>
        <time>2013-02-16T10:38:07.000Z</time>
      </trkpt>
      <trkpt lat="43.67618" lon="5.6402">
        <ele>242.60000610352</ele>
        <time>2013-02-16T10:38:17.000Z</time>
      </trkpt>
      <trkpt lat="43.67619" lon="5.64019">
        <ele>242.60000610352</ele>
        <time>2013-02-16T10:38:19.000Z</time>
      </trkpt>
      <trkpt lat="43.6762" lon="5.64018">
        <ele>242.80000305176</ele>
        <time>2013-02-16T10:38:20.000Z</time>
      </trkpt>
      <trkpt lat="43.67622" lon="5.64017">
        <ele>242.80000305176</ele>
        <time>2013-02-16T10:38:21.000Z</time>
      </trkpt>
      <trkpt lat="43.67623" lon="5.64016">
        <ele>243</ele>
        <time>2013-02-16T10:38:22.000Z</time>
      </trkpt>
      <trkpt lat="43.67624" lon="5.64015">
        <ele>243</ele>
        <time>2013-02-16T10:38:23.000Z</time>
      </trkpt>
      <trkpt lat="43.67625" lon="5.64014">
        <ele>243.19999694824</ele>
        <time>2013-02-16T10:38:24.000Z</time>
      </trkpt>
      <trkpt lat="43.67626" lon="5.64013">
        <ele>243.19999694824</ele>
        <time>2013-02-16T10:38:25.000Z</time>
      </trkpt>
      <trkpt lat="43.67628" lon="5.64013">
        <ele>243.39999389648</ele>
        <time>2013-02-16T10:38:26.000Z</time>
      </trkpt>
      <trkpt lat="43.67644" lon="5.64015">
        <ele>245.19999694824</ele>
        <time>2013-02-16T10:38:35.000Z</time>
      </trkpt>
      <trkpt lat="43.67658" lon="5.64039">
        <ele>247.19999694824</ele>
        <time>2013-02-16T10:38:46.000Z</time>
      </trkpt>
      <trkpt lat="43.67658" lon="5.64041">
        <ele>247.39999389648</ele>
        <time>2013-02-16T10:38:47.000Z</time>
      </trkpt>
      <trkpt lat="43.67657" lon="5.64043">
        <ele>247.39999389648</ele>
        <time>2013-02-16T10:38:48.000Z</time>
      </trkpt>
      <trkpt lat="43.67656" lon="5.64045">
        <ele>247.19999694824</ele>
        <time>2013-02-16T10:38:49.000Z</time>
      </trkpt>
      <trkpt lat="43.67654" lon="5.64047">
        <ele>247.19999694824</ele>
        <time>2013-02-16T10:38:50.000Z</time>
      </trkpt>
      <trkpt lat="43.67652" lon="5.64048">
        <ele>247</ele>
        <time>2013-02-16T10:38:51.000Z</time>
      </trkpt>
      <trkpt lat="43.6765" lon="5.6405">
        <ele>246.80000305176</ele>
        <time>2013-02-16T10:38:52.000Z</time>
      </trkpt>
      <trkpt lat="43.67641" lon="5.64052">
        <ele>245.80000305176</ele>
        <time>2013-02-16T10:38:56.000Z</time>
      </trkpt>
      <trkpt lat="43.6764" lon="5.64053">
        <ele>245.60000610352</ele>
        <time>2013-02-16T10:38:57.000Z</time>
      </trkpt>
      <trkpt lat="43.67637" lon="5.64054">
        <ele>245.39999389648</ele>
        <time>2013-02-16T10:38:58.000Z</time>
      </trkpt>
      <trkpt lat="43.67635" lon="5.64056">
        <ele>245.19999694824</ele>
        <time>2013-02-16T10:38:59.000Z</time>
      </trkpt>
      <trkpt lat="43.67633" lon="5.64059">
        <ele>245</ele>
        <time>2013-02-16T10:39:00.000Z</time>
      </trkpt>
      <trkpt lat="43.67621" lon="5.64082">
        <ele>243.80000305176</ele>
        <time>2013-02-16T10:39:08.000Z</time>
      </trkpt>
      <trkpt lat="43.67631" lon="5.64114">
        <ele>245.80000305176</ele>
        <time>2013-02-16T10:39:17.000Z</time>
      </trkpt>
      <trkpt lat="43.67645" lon="5.64153">
        <ele>248.39999389648</ele>
        <time>2013-02-16T10:39:27.000Z</time>
      </trkpt>
      <trkpt lat="43.6766" lon="5.64205">
        <ele>249.60000610352</ele>
        <time>2013-02-16T10:39:38.000Z</time>
      </trkpt>
      <trkpt lat="43.67671" lon="5.64231">
        <ele>250.60000610352</ele>
        <time>2013-02-16T10:39:46.000Z</time>
      </trkpt>
      <trkpt lat="43.67673" lon="5.6423">
        <ele>251</ele>
        <time>2013-02-16T10:39:54.000Z</time>
      </trkpt>
      <trkpt lat="43.67674" lon="5.6423">
        <ele>251.39999389648</ele>
        <time>2013-02-16T10:40:05.000Z</time>
      </trkpt>
      <trkpt lat="43.67674" lon="5.64231">
        <ele>251.39999389648</ele>
        <time>2013-02-16T10:40:17.000Z</time>
      </trkpt>
      <trkpt lat="43.67681" lon="5.64241">
        <ele>252.60000610352</ele>
        <time>2013-02-16T10:40:28.000Z</time>
      </trkpt>
      <trkpt lat="43.67684" lon="5.64246">
        <ele>253.19999694824</ele>
        <time>2013-02-16T10:40:30.000Z</time>
      </trkpt>
      <trkpt lat="43.67685" lon="5.64248">
        <ele>253.39999389648</ele>
        <time>2013-02-16T10:40:31.000Z</time>
      </trkpt>
      <trkpt lat="43.67687" lon="5.6425">
        <ele>253.80000305176</ele>
        <time>2013-02-16T10:40:32.000Z</time>
      </trkpt>
      <trkpt lat="43.67689" lon="5.64252">
        <ele>254</ele>
        <time>2013-02-16T10:40:33.000Z</time>
      </trkpt>
      <trkpt lat="43.67691" lon="5.64255">
        <ele>254.19999694824</ele>
        <time>2013-02-16T10:40:34.000Z</time>
      </trkpt>
      <trkpt lat="43.67692" lon="5.64257">
        <ele>254.39999389648</ele>
        <time>2013-02-16T10:40:35.000Z</time>
      </trkpt>
      <trkpt lat="43.67694" lon="5.64259">
        <ele>254.60000610352</ele>
        <time>2013-02-16T10:40:36.000Z</time>
      </trkpt>
      <trkpt lat="43.67696" lon="5.64261">
        <ele>254.80000305176</ele>
        <time>2013-02-16T10:40:37.000Z</time>
      </trkpt>
      <trkpt lat="43.67697" lon="5.64264">
        <ele>255</ele>
        <time>2013-02-16T10:40:38.000Z</time>
      </trkpt>
      <trkpt lat="43.67717" lon="5.64294">
        <ele>256.60000610352</ele>
        <time>2013-02-16T10:40:48.000Z</time>
      </trkpt>
      <trkpt lat="43.67745" lon="5.6433">
        <ele>259</ele>
        <time>2013-02-16T10:41:01.000Z</time>
      </trkpt>
      <trkpt lat="43.67762" lon="5.64353">
        <ele>261.20001220703</ele>
        <time>2013-02-16T10:41:10.000Z</time>
      </trkpt>
      <trkpt lat="43.67781" lon="5.6438">
        <ele>262.79998779297</ele>
        <time>2013-02-16T10:41:20.000Z</time>
      </trkpt>
      <trkpt lat="43.67806" lon="5.64415">
        <ele>262.79998779297</ele>
        <time>2013-02-16T10:41:32.000Z</time>
      </trkpt>
      <trkpt lat="43.67826" lon="5.64443">
        <ele>262.39999389648</ele>
        <time>2013-02-16T10:41:42.000Z</time>
      </trkpt>
      <trkpt lat="43.67848" lon="5.64466">
        <ele>263.39999389648</ele>
        <time>2013-02-16T10:41:48.000Z</time>
      </trkpt>
      <trkpt lat="43.67852" lon="5.64471">
        <ele>263.39999389648</ele>
        <time>2013-02-16T10:41:49.000Z</time>
      </trkpt>
      <trkpt lat="43.6789" lon="5.64535">
        <ele>260.20001220703</ele>
        <time>2013-02-16T10:42:01.000Z</time>
      </trkpt>
      <trkpt lat="43.67911" lon="5.64566">
        <ele>258.79998779297</ele>
        <time>2013-02-16T10:42:07.000Z</time>
      </trkpt>
      <trkpt lat="43.67916" lon="5.64572">
        <ele>258.60000610352</ele>
        <time>2013-02-16T10:42:08.000Z</time>
      </trkpt>
      <trkpt lat="43.67921" lon="5.64577">
        <ele>258.39999389648</ele>
        <time>2013-02-16T10:42:09.000Z</time>
      </trkpt>
      <trkpt lat="43.67954" lon="5.64606">
        <ele>256.39999389648</ele>
        <time>2013-02-16T10:42:16.000Z</time>
      </trkpt>
      <trkpt lat="43.67962" lon="5.64614">
        <ele>255.39999389648</ele>
        <time>2013-02-16T10:42:18.000Z</time>
      </trkpt>
      <trkpt lat="43.67969" lon="5.64623">
        <ele>254.19999694824</ele>
        <time>2013-02-16T10:42:20.000Z</time>
      </trkpt>
      <trkpt lat="43.67972" lon="5.64628">
        <ele>253.39999389648</ele>
        <time>2013-02-16T10:42:21.000Z</time>
      </trkpt>
      <trkpt lat="43.67976" lon="5.64634">
        <ele>252.39999389648</ele>
        <time>2013-02-16T10:42:22.000Z</time>
      </trkpt>
      <trkpt lat="43.67981" lon="5.64638">
        <ele>251.80000305176</ele>
        <time>2013-02-16T10:42:23.000Z</time>
      </trkpt>
      <trkpt lat="43.67987" lon="5.6464">
        <ele>252</ele>
        <time>2013-02-16T10:42:24.000Z</time>
      </trkpt>
      <trkpt lat="43.67994" lon="5.6464">
        <ele>252.80000305176</ele>
        <time>2013-02-16T10:42:25.000Z</time>
      </trkpt>
      <trkpt lat="43.68" lon="5.64638">
        <ele>254</ele>
        <time>2013-02-16T10:42:26.000Z</time>
      </trkpt>
      <trkpt lat="43.68007" lon="5.64636">
        <ele>255</ele>
        <time>2013-02-16T10:42:27.000Z</time>
      </trkpt>
      <trkpt lat="43.68014" lon="5.64635">
        <ele>256</ele>
        <time>2013-02-16T10:42:28.000Z</time>
      </trkpt>
      <trkpt lat="43.68041" lon="5.64627">
        <ele>260</ele>
        <time>2013-02-16T10:42:32.000Z</time>
      </trkpt>
      <trkpt lat="43.68054" lon="5.64621">
        <ele>262</ele>
        <time>2013-02-16T10:42:34.000Z</time>
      </trkpt>
      <trkpt lat="43.68061" lon="5.6462">
        <ele>262.60000610352</ele>
        <time>2013-02-16T10:42:35.000Z</time>
      </trkpt>
      <trkpt lat="43.68067" lon="5.64622">
        <ele>262.79998779297</ele>
        <time>2013-02-16T10:42:36.000Z</time>
      </trkpt>
      <trkpt lat="43.6807" lon="5.64626">
        <ele>262.60000610352</ele>
        <time>2013-02-16T10:42:37.000Z</time>
      </trkpt>
      <trkpt lat="43.68071" lon="5.64632">
        <ele>262</ele>
        <time>2013-02-16T10:42:38.000Z</time>
      </trkpt>
      <trkpt lat="43.68071" lon="5.64639">
        <ele>261.20001220703</ele>
        <time>2013-02-16T10:42:39.000Z</time>
      </trkpt>
      <trkpt lat="43.6807" lon="5.64647">
        <ele>260.20001220703</ele>
        <time>2013-02-16T10:42:40.000Z</time>
      </trkpt>
      <trkpt lat="43.68069" lon="5.64654">
        <ele>259.20001220703</ele>
        <time>2013-02-16T10:42:41.000Z</time>
      </trkpt>
      <trkpt lat="43.68068" lon="5.64661">
        <ele>258.20001220703</ele>
        <time>2013-02-16T10:42:42.000Z</time>
      </trkpt>
      <trkpt lat="43.68066" lon="5.64668">
        <ele>257.20001220703</ele>
        <time>2013-02-16T10:42:43.000Z</time>
      </trkpt>
      <trkpt lat="43.68063" lon="5.64675">
        <ele>256.60000610352</ele>
        <time>2013-02-16T10:42:44.000Z</time>
      </trkpt>
      <trkpt lat="43.6806" lon="5.64681">
        <ele>256</ele>
        <time>2013-02-16T10:42:45.000Z</time>
      </trkpt>
      <trkpt lat="43.68056" lon="5.64686">
        <ele>255.39999389648</ele>
        <time>2013-02-16T10:42:46.000Z</time>
      </trkpt>
      <trkpt lat="43.68053" lon="5.64691">
        <ele>254.60000610352</ele>
        <time>2013-02-16T10:42:47.000Z</time>
      </trkpt>
      <trkpt lat="43.6805" lon="5.64695">
        <ele>254</ele>
        <time>2013-02-16T10:42:48.000Z</time>
      </trkpt>
      <trkpt lat="43.68028" lon="5.6474">
        <ele>248.19999694824</ele>
        <time>2013-02-16T10:42:58.000Z</time>
      </trkpt>
      <trkpt lat="43.68028" lon="5.64747">
        <ele>248</ele>
        <time>2013-02-16T10:42:59.000Z</time>
      </trkpt>
      <trkpt lat="43.68029" lon="5.64753">
        <ele>248</ele>
        <time>2013-02-16T10:43:00.000Z</time>
      </trkpt>
      <trkpt lat="43.68032" lon="5.64758">
        <ele>248</ele>
        <time>2013-02-16T10:43:01.000Z</time>
      </trkpt>
      <trkpt lat="43.68035" lon="5.64762">
        <ele>248</ele>
        <time>2013-02-16T10:43:02.000Z</time>
      </trkpt>
      <trkpt lat="43.68038" lon="5.64766">
        <ele>248.19999694824</ele>
        <time>2013-02-16T10:43:03.000Z</time>
      </trkpt>
      <trkpt lat="43.68041" lon="5.6477">
        <ele>248.39999389648</ele>
        <time>2013-02-16T10:43:04.000Z</time>
      </trkpt>
      <trkpt lat="43.68043" lon="5.64774">
        <ele>248.60000610352</ele>
        <time>2013-02-16T10:43:05.000Z</time>
      </trkpt>
      <trkpt lat="43.68046" lon="5.64778">
        <ele>249</ele>
        <time>2013-02-16T10:43:06.000Z</time>
      </trkpt>
      <trkpt lat="43.68049" lon="5.64781">
        <ele>249.19999694824</ele>
        <time>2013-02-16T10:43:07.000Z</time>
      </trkpt>
      <trkpt lat="43.68075" lon="5.64828">
        <ele>250.39999389648</ele>
        <time>2013-02-16T10:43:16.000Z</time>
      </trkpt>
      <trkpt lat="43.68102" lon="5.64881">
        <ele>252.19999694824</ele>
        <time>2013-02-16T10:43:24.000Z</time>
      </trkpt>
      <trkpt lat="43.68104" lon="5.64886">
        <ele>252.19999694824</ele>
        <time>2013-02-16T10:43:25.000Z</time>
      </trkpt>
      <trkpt lat="43.68108" lon="5.64898">
        <ele>252.19999694824</ele>
        <time>2013-02-16T10:43:27.000Z</time>
      </trkpt>
      <trkpt lat="43.68115" lon="5.64914">
        <ele>252.39999389648</ele>
        <time>2013-02-16T10:43:30.000Z</time>
      </trkpt>
      <trkpt lat="43.68116" lon="5.6492">
        <ele>252.19999694824</ele>
        <time>2013-02-16T10:43:31.000Z</time>
      </trkpt>
      <trkpt lat="43.68117" lon="5.64926">
        <ele>252</ele>
        <time>2013-02-16T10:43:32.000Z</time>
      </trkpt>
      <trkpt lat="43.68119" lon="5.64932">
        <ele>252</ele>
        <time>2013-02-16T10:43:33.000Z</time>
      </trkpt>
      <trkpt lat="43.68121" lon="5.64937">
        <ele>251.80000305176</ele>
        <time>2013-02-16T10:43:34.000Z</time>
      </trkpt>
      <trkpt lat="43.68122" lon="5.64943">
        <ele>251.60000610352</ele>
        <time>2013-02-16T10:43:35.000Z</time>
      </trkpt>
      <trkpt lat="43.6813" lon="5.64981">
        <ele>249.80000305176</ele>
        <time>2013-02-16T10:43:42.000Z</time>
      </trkpt>
      <trkpt lat="43.68132" lon="5.64986">
        <ele>250.19999694824</ele>
        <time>2013-02-16T10:43:43.000Z</time>
      </trkpt>
      <trkpt lat="43.68135" lon="5.6499">
        <ele>250.60000610352</ele>
        <time>2013-02-16T10:43:44.000Z</time>
      </trkpt>
      <trkpt lat="43.68138" lon="5.64995">
        <ele>251.39999389648</ele>
        <time>2013-02-16T10:43:45.000Z</time>
      </trkpt>
      <trkpt lat="43.68142" lon="5.64999">
        <ele>252.19999694824</ele>
        <time>2013-02-16T10:43:46.000Z</time>
      </trkpt>
      <trkpt lat="43.68145" lon="5.65004">
        <ele>252.60000610352</ele>
        <time>2013-02-16T10:43:47.000Z</time>
      </trkpt>
      <trkpt lat="43.68148" lon="5.65009">
        <ele>253</ele>
        <time>2013-02-16T10:43:48.000Z</time>
      </trkpt>
      <trkpt lat="43.68151" lon="5.65015">
        <ele>253.19999694824</ele>
        <time>2013-02-16T10:43:49.000Z</time>
      </trkpt>
      <trkpt lat="43.68153" lon="5.65021">
        <ele>253.19999694824</ele>
        <time>2013-02-16T10:43:50.000Z</time>
      </trkpt>
      <trkpt lat="43.68155" lon="5.65027">
        <ele>252.80000305176</ele>
        <time>2013-02-16T10:43:51.000Z</time>
      </trkpt>
      <trkpt lat="43.68156" lon="5.65033">
        <ele>252</ele>
        <time>2013-02-16T10:43:52.000Z</time>
      </trkpt>
      <trkpt lat="43.68156" lon="5.65039">
        <ele>251.19999694824</ele>
        <time>2013-02-16T10:43:53.000Z</time>
      </trkpt>
      <trkpt lat="43.68157" lon="5.65046">
        <ele>250.60000610352</ele>
        <time>2013-02-16T10:43:54.000Z</time>
      </trkpt>
      <trkpt lat="43.68158" lon="5.65051">
        <ele>250.19999694824</ele>
        <time>2013-02-16T10:43:55.000Z</time>
      </trkpt>
      <trkpt lat="43.68159" lon="5.65057">
        <ele>249.80000305176</ele>
        <time>2013-02-16T10:43:56.000Z</time>
      </trkpt>
      <trkpt lat="43.68161" lon="5.65062">
        <ele>249.60000610352</ele>
        <time>2013-02-16T10:43:57.000Z</time>
      </trkpt>
      <trkpt lat="43.68167" lon="5.65077">
        <ele>249.19999694824</ele>
        <time>2013-02-16T10:44:00.000Z</time>
      </trkpt>
      <trkpt lat="43.68176" lon="5.65099">
        <ele>249.19999694824</ele>
        <time>2013-02-16T10:44:04.000Z</time>
      </trkpt>
      <trkpt lat="43.68178" lon="5.65105">
        <ele>249</ele>
        <time>2013-02-16T10:44:05.000Z</time>
      </trkpt>
      <trkpt lat="43.68182" lon="5.65116">
        <ele>248.80000305176</ele>
        <time>2013-02-16T10:44:07.000Z</time>
      </trkpt>
      <trkpt lat="43.68184" lon="5.65121">
        <ele>248.80000305176</ele>
        <time>2013-02-16T10:44:08.000Z</time>
      </trkpt>
      <trkpt lat="43.682" lon="5.65155">
        <ele>249.19999694824</ele>
        <time>2013-02-16T10:44:15.000Z</time>
      </trkpt>
      <trkpt lat="43.68203" lon="5.6516">
        <ele>249.39999389648</ele>
        <time>2013-02-16T10:44:16.000Z</time>
      </trkpt>
      <trkpt lat="43.68207" lon="5.65164">
        <ele>249.80000305176</ele>
        <time>2013-02-16T10:44:17.000Z</time>
      </trkpt>
      <trkpt lat="43.68227" lon="5.65182">
        <ele>253.19999694824</ele>
        <time>2013-02-16T10:44:23.000Z</time>
      </trkpt>
      <trkpt lat="43.68241" lon="5.65187">
        <ele>256.20001220703</ele>
        <time>2013-02-16T10:44:26.000Z</time>
      </trkpt>
      <trkpt lat="43.68245" lon="5.6519">
        <ele>256.79998779297</ele>
        <time>2013-02-16T10:44:27.000Z</time>
      </trkpt>
      <trkpt lat="43.68249" lon="5.65195">
        <ele>256.79998779297</ele>
        <time>2013-02-16T10:44:28.000Z</time>
      </trkpt>
      <trkpt lat="43.68251" lon="5.652">
        <ele>256.20001220703</ele>
        <time>2013-02-16T10:44:29.000Z</time>
      </trkpt>
      <trkpt lat="43.68252" lon="5.65207">
        <ele>255.19999694824</ele>
        <time>2013-02-16T10:44:30.000Z</time>
      </trkpt>
      <trkpt lat="43.68253" lon="5.65219">
        <ele>253</ele>
        <time>2013-02-16T10:44:32.000Z</time>
      </trkpt>
      <trkpt lat="43.68256" lon="5.65238">
        <ele>250.19999694824</ele>
        <time>2013-02-16T10:44:35.000Z</time>
      </trkpt>
      <trkpt lat="43.68259" lon="5.65244">
        <ele>250</ele>
        <time>2013-02-16T10:44:36.000Z</time>
      </trkpt>
      <trkpt lat="43.68261" lon="5.65249">
        <ele>250.19999694824</ele>
        <time>2013-02-16T10:44:37.000Z</time>
      </trkpt>
      <trkpt lat="43.68276" lon="5.65285">
        <ele>251.39999389648</ele>
        <time>2013-02-16T10:44:43.000Z</time>
      </trkpt>
      <trkpt lat="43.68279" lon="5.6529">
        <ele>251.60000610352</ele>
        <time>2013-02-16T10:44:44.000Z</time>
      </trkpt>
      <trkpt lat="43.68282" lon="5.65295">
        <ele>252</ele>
        <time>2013-02-16T10:44:45.000Z</time>
      </trkpt>
      <trkpt lat="43.68286" lon="5.65299">
        <ele>252.60000610352</ele>
        <time>2013-02-16T10:44:46.000Z</time>
      </trkpt>
      <trkpt lat="43.6829" lon="5.65303">
        <ele>253.19999694824</ele>
        <time>2013-02-16T10:44:47.000Z</time>
      </trkpt>
      <trkpt lat="43.68308" lon="5.65321">
        <ele>254.80000305176</ele>
        <time>2013-02-16T10:44:52.000Z</time>
      </trkpt>
      <trkpt lat="43.68342" lon="5.65348">
        <ele>256.39999389648</ele>
        <time>2013-02-16T10:45:01.000Z</time>
      </trkpt>
      <trkpt lat="43.68372" lon="5.65365">
        <ele>260.79998779297</ele>
        <time>2013-02-16T10:45:12.000Z</time>
      </trkpt>
      <trkpt lat="43.68393" lon="5.65381">
        <ele>260.39999389648</ele>
        <time>2013-02-16T10:45:20.000Z</time>
      </trkpt>
      <trkpt lat="43.68422" lon="5.65398">
        <ele>261.20001220703</ele>
        <time>2013-02-16T10:45:30.000Z</time>
      </trkpt>
      <trkpt lat="43.68435" lon="5.65411">
        <ele>259.39999389648</ele>
        <time>2013-02-16T10:45:34.000Z</time>
      </trkpt>
      <trkpt lat="43.68451" lon="5.65419">
        <ele>260.60000610352</ele>
        <time>2013-02-16T10:45:38.000Z</time>
      </trkpt>
      <trkpt lat="43.68492" lon="5.65443">
        <ele>264</ele>
        <time>2013-02-16T10:45:47.000Z</time>
      </trkpt>
      <trkpt lat="43.68537" lon="5.65457">
        <ele>277.60000610352</ele>
        <time>2013-02-16T10:45:55.000Z</time>
      </trkpt>
      <trkpt lat="43.68543" lon="5.65459">
        <ele>279</ele>
        <time>2013-02-16T10:45:56.000Z</time>
      </trkpt>
      <trkpt lat="43.68555" lon="5.65464">
        <ele>280.20001220703</ele>
        <time>2013-02-16T10:45:58.000Z</time>
      </trkpt>
      <trkpt lat="43.68561" lon="5.65468">
        <ele>279.20001220703</ele>
        <time>2013-02-16T10:45:59.000Z</time>
      </trkpt>
      <trkpt lat="43.68566" lon="5.65472">
        <ele>277.20001220703</ele>
        <time>2013-02-16T10:46:00.000Z</time>
      </trkpt>
      <trkpt lat="43.68571" lon="5.65477">
        <ele>274</ele>
        <time>2013-02-16T10:46:01.000Z</time>
      </trkpt>
      <trkpt lat="43.68575" lon="5.65483">
        <ele>269.60000610352</ele>
        <time>2013-02-16T10:46:02.000Z</time>
      </trkpt>
      <trkpt lat="43.68577" lon="5.65488">
        <ele>264.39999389648</ele>
        <time>2013-02-16T10:46:03.000Z</time>
      </trkpt>
      <trkpt lat="43.68579" lon="5.65493">
        <ele>259.39999389648</ele>
        <time>2013-02-16T10:46:04.000Z</time>
      </trkpt>
      <trkpt lat="43.68581" lon="5.65498">
        <ele>254.60000610352</ele>
        <time>2013-02-16T10:46:05.000Z</time>
      </trkpt>
      <trkpt lat="43.68583" lon="5.65503">
        <ele>252.19999694824</ele>
        <time>2013-02-16T10:46:06.000Z</time>
      </trkpt>
      <trkpt lat="43.68587" lon="5.65506">
        <ele>252.39999389648</ele>
        <time>2013-02-16T10:46:07.000Z</time>
      </trkpt>
      <trkpt lat="43.6859" lon="5.65509">
        <ele>253</ele>
        <time>2013-02-16T10:46:08.000Z</time>
      </trkpt>
      <trkpt lat="43.68594" lon="5.65512">
        <ele>253.39999389648</ele>
        <time>2013-02-16T10:46:09.000Z</time>
      </trkpt>
      <trkpt lat="43.68598" lon="5.65515">
        <ele>254.19999694824</ele>
        <time>2013-02-16T10:46:10.000Z</time>
      </trkpt>
      <trkpt lat="43.68603" lon="5.65517">
        <ele>255</ele>
        <time>2013-02-16T10:46:11.000Z</time>
      </trkpt>
      <trkpt lat="43.68611" lon="5.65523">
        <ele>256</ele>
        <time>2013-02-16T10:46:13.000Z</time>
      </trkpt>
      <trkpt lat="43.68619" lon="5.6553">
        <ele>256.60000610352</ele>
        <time>2013-02-16T10:46:15.000Z</time>
      </trkpt>
      <trkpt lat="43.68623" lon="5.65533">
        <ele>256.60000610352</ele>
        <time>2013-02-16T10:46:16.000Z</time>
      </trkpt>
      <trkpt lat="43.68627" lon="5.65538">
        <ele>256.20001220703</ele>
        <time>2013-02-16T10:46:17.000Z</time>
      </trkpt>
      <trkpt lat="43.6863" lon="5.65542">
        <ele>255.60000610352</ele>
        <time>2013-02-16T10:46:18.000Z</time>
      </trkpt>
      <trkpt lat="43.68633" lon="5.65547">
        <ele>255</ele>
        <time>2013-02-16T10:46:19.000Z</time>
      </trkpt>
      <trkpt lat="43.68636" lon="5.65551">
        <ele>254.19999694824</ele>
        <time>2013-02-16T10:46:20.000Z</time>
      </trkpt>
      <trkpt lat="43.68661" lon="5.6558">
        <ele>249.80000305176</ele>
        <time>2013-02-16T10:46:29.000Z</time>
      </trkpt>
      <trkpt lat="43.68682" lon="5.65601">
        <ele>249</ele>
        <time>2013-02-16T10:46:36.000Z</time>
      </trkpt>
      <trkpt lat="43.68685" lon="5.65604">
        <ele>249.19999694824</ele>
        <time>2013-02-16T10:46:37.000Z</time>
      </trkpt>
      <trkpt lat="43.68688" lon="5.65608">
        <ele>248.80000305176</ele>
        <time>2013-02-16T10:46:38.000Z</time>
      </trkpt>
      <trkpt lat="43.68713" lon="5.65635">
        <ele>245.60000610352</ele>
        <time>2013-02-16T10:46:46.000Z</time>
      </trkpt>
      <trkpt lat="43.6872" lon="5.65643">
        <ele>244</ele>
        <time>2013-02-16T10:46:48.000Z</time>
      </trkpt>
      <trkpt lat="43.68725" lon="5.65647">
        <ele>243.60000610352</ele>
        <time>2013-02-16T10:46:49.000Z</time>
      </trkpt>
      <trkpt lat="43.68729" lon="5.6565">
        <ele>243.19999694824</ele>
        <time>2013-02-16T10:46:50.000Z</time>
      </trkpt>
      <trkpt lat="43.68734" lon="5.65652">
        <ele>243.19999694824</ele>
        <time>2013-02-16T10:46:51.000Z</time>
      </trkpt>
      <trkpt lat="43.6875" lon="5.65657">
        <ele>243.80000305176</ele>
        <time>2013-02-16T10:46:54.000Z</time>
      </trkpt>
      <trkpt lat="43.68755" lon="5.65658">
        <ele>243.80000305176</ele>
        <time>2013-02-16T10:46:55.000Z</time>
      </trkpt>
      <trkpt lat="43.68804" lon="5.65668">
        <ele>244.39999389648</ele>
        <time>2013-02-16T10:47:06.000Z</time>
      </trkpt>
      <trkpt lat="43.68809" lon="5.6567">
        <ele>244.39999389648</ele>
        <time>2013-02-16T10:47:07.000Z</time>
      </trkpt>
      <trkpt lat="43.68856" lon="5.65704">
        <ele>248.80000305176</ele>
        <time>2013-02-16T10:47:19.000Z</time>
      </trkpt>
      <trkpt lat="43.68863" lon="5.65715">
        <ele>249.39999389648</ele>
        <time>2013-02-16T10:47:21.000Z</time>
      </trkpt>
      <trkpt lat="43.68865" lon="5.65721">
        <ele>249.19999694824</ele>
        <time>2013-02-16T10:47:22.000Z</time>
      </trkpt>
      <trkpt lat="43.68868" lon="5.65726">
        <ele>249.19999694824</ele>
        <time>2013-02-16T10:47:23.000Z</time>
      </trkpt>
      <trkpt lat="43.6887" lon="5.65731">
        <ele>249.39999389648</ele>
        <time>2013-02-16T10:47:24.000Z</time>
      </trkpt>
      <trkpt lat="43.68873" lon="5.65736">
        <ele>249.39999389648</ele>
        <time>2013-02-16T10:47:25.000Z</time>
      </trkpt>
      <trkpt lat="43.68876" lon="5.65742">
        <ele>249.19999694824</ele>
        <time>2013-02-16T10:47:26.000Z</time>
      </trkpt>
      <trkpt lat="43.68878" lon="5.65748">
        <ele>249</ele>
        <time>2013-02-16T10:47:27.000Z</time>
      </trkpt>
      <trkpt lat="43.6888" lon="5.65754">
        <ele>248.60000610352</ele>
        <time>2013-02-16T10:47:28.000Z</time>
      </trkpt>
      <trkpt lat="43.68915" lon="5.65831">
        <ele>244</ele>
        <time>2013-02-16T10:47:39.000Z</time>
      </trkpt>
      <trkpt lat="43.68921" lon="5.65845">
        <ele>244.60000610352</ele>
        <time>2013-02-16T10:47:41.000Z</time>
      </trkpt>
      <trkpt lat="43.68923" lon="5.65851">
        <ele>245.39999389648</ele>
        <time>2013-02-16T10:47:42.000Z</time>
      </trkpt>
      <trkpt lat="43.6895" lon="5.65934">
        <ele>249.39999389648</ele>
        <time>2013-02-16T10:47:53.000Z</time>
      </trkpt>
      <trkpt lat="43.68951" lon="5.65942">
        <ele>249.80000305176</ele>
        <time>2013-02-16T10:47:54.000Z</time>
      </trkpt>
      <trkpt lat="43.68951" lon="5.65951">
        <ele>249.80000305176</ele>
        <time>2013-02-16T10:47:55.000Z</time>
      </trkpt>
      <trkpt lat="43.6895" lon="5.65959">
        <ele>249.39999389648</ele>
        <time>2013-02-16T10:47:56.000Z</time>
      </trkpt>
      <trkpt lat="43.68948" lon="5.65967">
        <ele>248.60000610352</ele>
        <time>2013-02-16T10:47:57.000Z</time>
      </trkpt>
      <trkpt lat="43.68945" lon="5.65975">
        <ele>247.60000610352</ele>
        <time>2013-02-16T10:47:58.000Z</time>
      </trkpt>
      <trkpt lat="43.68943" lon="5.65983">
        <ele>246.80000305176</ele>
        <time>2013-02-16T10:47:59.000Z</time>
      </trkpt>
      <trkpt lat="43.68941" lon="5.65992">
        <ele>246.19999694824</ele>
        <time>2013-02-16T10:48:00.000Z</time>
      </trkpt>
      <trkpt lat="43.68939" lon="5.66009">
        <ele>245</ele>
        <time>2013-02-16T10:48:02.000Z</time>
      </trkpt>
      <trkpt lat="43.68938" lon="5.66017">
        <ele>244.80000305176</ele>
        <time>2013-02-16T10:48:03.000Z</time>
      </trkpt>
      <trkpt lat="43.6894" lon="5.66039">
        <ele>245.39999389648</ele>
        <time>2013-02-16T10:48:06.000Z</time>
      </trkpt>
      <trkpt lat="43.68948" lon="5.66094">
        <ele>248.19999694824</ele>
        <time>2013-02-16T10:48:14.000Z</time>
      </trkpt>
      <trkpt lat="43.6895" lon="5.66102">
        <ele>248.60000610352</ele>
        <time>2013-02-16T10:48:15.000Z</time>
      </trkpt>
      <trkpt lat="43.68951" lon="5.66109">
        <ele>248.80000305176</ele>
        <time>2013-02-16T10:48:16.000Z</time>
      </trkpt>
      <trkpt lat="43.68951" lon="5.66117">
        <ele>248.60000610352</ele>
        <time>2013-02-16T10:48:17.000Z</time>
      </trkpt>
      <trkpt lat="43.68951" lon="5.66124">
        <ele>248.39999389648</ele>
        <time>2013-02-16T10:48:18.000Z</time>
      </trkpt>
      <trkpt lat="43.68952" lon="5.66131">
        <ele>248.60000610352</ele>
        <time>2013-02-16T10:48:19.000Z</time>
      </trkpt>
      <trkpt lat="43.68953" lon="5.66139">
        <ele>248.80000305176</ele>
        <time>2013-02-16T10:48:20.000Z</time>
      </trkpt>
      <trkpt lat="43.68955" lon="5.66146">
        <ele>249.19999694824</ele>
        <time>2013-02-16T10:48:21.000Z</time>
      </trkpt>
      <trkpt lat="43.68957" lon="5.66153">
        <ele>249.60000610352</ele>
        <time>2013-02-16T10:48:22.000Z</time>
      </trkpt>
      <trkpt lat="43.68957" lon="5.6616">
        <ele>249.80000305176</ele>
        <time>2013-02-16T10:48:23.000Z</time>
      </trkpt>
      <trkpt lat="43.68959" lon="5.66191">
        <ele>248.80000305176</ele>
        <time>2013-02-16T10:48:27.000Z</time>
      </trkpt>
      <trkpt lat="43.6896" lon="5.66198">
        <ele>248.60000610352</ele>
        <time>2013-02-16T10:48:28.000Z</time>
      </trkpt>
      <trkpt lat="43.6896" lon="5.66206">
        <ele>248.60000610352</ele>
        <time>2013-02-16T10:48:29.000Z</time>
      </trkpt>
      <trkpt lat="43.68961" lon="5.66213">
        <ele>248.19999694824</ele>
        <time>2013-02-16T10:48:30.000Z</time>
      </trkpt>
      <trkpt lat="43.68961" lon="5.66221">
        <ele>248</ele>
        <time>2013-02-16T10:48:31.000Z</time>
      </trkpt>
      <trkpt lat="43.68962" lon="5.66228">
        <ele>247.80000305176</ele>
        <time>2013-02-16T10:48:32.000Z</time>
      </trkpt>
      <trkpt lat="43.68964" lon="5.66249">
        <ele>247.39999389648</ele>
        <time>2013-02-16T10:48:35.000Z</time>
      </trkpt>
      <trkpt lat="43.68964" lon="5.66256">
        <ele>247</ele>
        <time>2013-02-16T10:48:36.000Z</time>
      </trkpt>
      <trkpt lat="43.68965" lon="5.66262">
        <ele>247.19999694824</ele>
        <time>2013-02-16T10:48:37.000Z</time>
      </trkpt>
      <trkpt lat="43.68967" lon="5.66268">
        <ele>247.60000610352</ele>
        <time>2013-02-16T10:48:38.000Z</time>
      </trkpt>
      <trkpt lat="43.68968" lon="5.66275">
        <ele>247.80000305176</ele>
        <time>2013-02-16T10:48:39.000Z</time>
      </trkpt>
      <trkpt lat="43.68969" lon="5.66281">
        <ele>247.60000610352</ele>
        <time>2013-02-16T10:48:40.000Z</time>
      </trkpt>
      <trkpt lat="43.6897" lon="5.66288">
        <ele>247.60000610352</ele>
        <time>2013-02-16T10:48:41.000Z</time>
      </trkpt>
      <trkpt lat="43.68979" lon="5.66339">
        <ele>248.19999694824</ele>
        <time>2013-02-16T10:48:50.000Z</time>
      </trkpt>
      <trkpt lat="43.68981" lon="5.66343">
        <ele>248.60000610352</ele>
        <time>2013-02-16T10:48:51.000Z</time>
      </trkpt>
      <trkpt lat="43.68983" lon="5.66348">
        <ele>249</ele>
        <time>2013-02-16T10:48:52.000Z</time>
      </trkpt>
      <trkpt lat="43.68983" lon="5.66353">
        <ele>248.80000305176</ele>
        <time>2013-02-16T10:48:53.000Z</time>
      </trkpt>
      <trkpt lat="43.68982" lon="5.66359">
        <ele>248.19999694824</ele>
        <time>2013-02-16T10:48:54.000Z</time>
      </trkpt>
      <trkpt lat="43.68981" lon="5.66365">
        <ele>247.60000610352</ele>
        <time>2013-02-16T10:48:55.000Z</time>
      </trkpt>
      <trkpt lat="43.68982" lon="5.66371">
        <ele>247.39999389648</ele>
        <time>2013-02-16T10:48:56.000Z</time>
      </trkpt>
      <trkpt lat="43.68983" lon="5.66378">
        <ele>247.39999389648</ele>
        <time>2013-02-16T10:48:57.000Z</time>
      </trkpt>
      <trkpt lat="43.68985" lon="5.66391">
        <ele>247.39999389648</ele>
        <time>2013-02-16T10:48:59.000Z</time>
      </trkpt>
      <trkpt lat="43.68987" lon="5.66397">
        <ele>247.39999389648</ele>
        <time>2013-02-16T10:49:00.000Z</time>
      </trkpt>
      <trkpt lat="43.69002" lon="5.66438">
        <ele>250.80000305176</ele>
        <time>2013-02-16T10:49:09.000Z</time>
      </trkpt>
      <trkpt lat="43.69013" lon="5.66461">
        <ele>256.79998779297</ele>
        <time>2013-02-16T10:49:18.000Z</time>
      </trkpt>
      <trkpt lat="43.69014" lon="5.66464">
        <ele>257</ele>
        <time>2013-02-16T10:49:19.000Z</time>
      </trkpt>
      <trkpt lat="43.69013" lon="5.66492">
        <ele>256.39999389648</ele>
        <time>2013-02-16T10:49:31.000Z</time>
      </trkpt>
      <trkpt lat="43.69011" lon="5.66506">
        <ele>254.80000305176</ele>
        <time>2013-02-16T10:49:36.000Z</time>
      </trkpt>
      <trkpt lat="43.69009" lon="5.66509">
        <ele>254</ele>
        <time>2013-02-16T10:49:37.000Z</time>
      </trkpt>
      <trkpt lat="43.69008" lon="5.66549">
        <ele>252</ele>
        <time>2013-02-16T10:49:48.000Z</time>
      </trkpt>
      <trkpt lat="43.69021" lon="5.66587">
        <ele>256.60000610352</ele>
        <time>2013-02-16T10:49:59.000Z</time>
      </trkpt>
      <trkpt lat="43.69038" lon="5.66628">
        <ele>258</ele>
        <time>2013-02-16T10:50:10.000Z</time>
      </trkpt>
      <trkpt lat="43.69056" lon="5.66652">
        <ele>261.79998779297</ele>
        <time>2013-02-16T10:50:19.000Z</time>
      </trkpt>
      <trkpt lat="43.69064" lon="5.66671">
        <ele>262</ele>
        <time>2013-02-16T10:50:23.000Z</time>
      </trkpt>
      <trkpt lat="43.69067" lon="5.66676">
        <ele>261.79998779297</ele>
        <time>2013-02-16T10:50:24.000Z</time>
      </trkpt>
      <trkpt lat="43.69071" lon="5.66687">
        <ele>260.20001220703</ele>
        <time>2013-02-16T10:50:26.000Z</time>
      </trkpt>
      <trkpt lat="43.69073" lon="5.66694">
        <ele>259.20001220703</ele>
        <time>2013-02-16T10:50:27.000Z</time>
      </trkpt>
      <trkpt lat="43.69085" lon="5.66713">
        <ele>257.39999389648</ele>
        <time>2013-02-16T10:50:33.000Z</time>
      </trkpt>
      <trkpt lat="43.69086" lon="5.66715">
        <ele>256.79998779297</ele>
        <time>2013-02-16T10:50:34.000Z</time>
      </trkpt>
      <trkpt lat="43.69085" lon="5.66717">
        <ele>256</ele>
        <time>2013-02-16T10:50:35.000Z</time>
      </trkpt>
      <trkpt lat="43.69084" lon="5.66719">
        <ele>255.19999694824</ele>
        <time>2013-02-16T10:50:36.000Z</time>
      </trkpt>
      <trkpt lat="43.69086" lon="5.66721">
        <ele>255</ele>
        <time>2013-02-16T10:50:44.000Z</time>
      </trkpt>
      <trkpt lat="43.6909" lon="5.66718">
        <ele>256.60000610352</ele>
        <time>2013-02-16T10:50:55.000Z</time>
      </trkpt>
      <trkpt lat="43.69091" lon="5.66719">
        <ele>256.79998779297</ele>
        <time>2013-02-16T10:51:03.000Z</time>
      </trkpt>
      <trkpt lat="43.69092" lon="5.66719">
        <ele>257</ele>
        <time>2013-02-16T10:51:19.000Z</time>
      </trkpt>
      <trkpt lat="43.69092" lon="5.66717">
        <ele>257.60000610352</ele>
        <time>2013-02-16T10:51:35.000Z</time>
      </trkpt>
      <trkpt lat="43.69093" lon="5.66716">
        <ele>258.39999389648</ele>
        <time>2013-02-16T10:51:57.000Z</time>
      </trkpt>
      <trkpt lat="43.69093" lon="5.6672">
        <ele>257</ele>
        <time>2013-02-16T10:52:11.000Z</time>
      </trkpt>
      <trkpt lat="43.69092" lon="5.66719">
        <ele>257</ele>
        <time>2013-02-16T10:52:26.000Z</time>
      </trkpt>
      <trkpt lat="43.69092" lon="5.66721">
        <ele>256.39999389648</ele>
        <time>2013-02-16T10:52:30.000Z</time>
      </trkpt>
      <trkpt lat="43.69095" lon="5.66729">
        <ele>254.60000610352</ele>
        <time>2013-02-16T10:52:35.000Z</time>
      </trkpt>
      <trkpt lat="43.69095" lon="5.66731">
        <ele>253.80000305176</ele>
        <time>2013-02-16T10:52:36.000Z</time>
      </trkpt>
      <trkpt lat="43.69094" lon="5.66733">
        <ele>253</ele>
        <time>2013-02-16T10:52:37.000Z</time>
      </trkpt>
      <trkpt lat="43.69092" lon="5.66731">
        <ele>253</ele>
        <time>2013-02-16T10:52:40.000Z</time>
      </trkpt>
      <trkpt lat="43.69091" lon="5.66731">
        <ele>252.80000305176</ele>
        <time>2013-02-16T10:52:41.000Z</time>
      </trkpt>
      <trkpt lat="43.6909" lon="5.6673">
        <ele>252.80000305176</ele>
        <time>2013-02-16T10:52:42.000Z</time>
      </trkpt>
      <trkpt lat="43.69089" lon="5.66728">
        <ele>253.19999694824</ele>
        <time>2013-02-16T10:52:43.000Z</time>
      </trkpt>
      <trkpt lat="43.69086" lon="5.66727">
        <ele>253</ele>
        <time>2013-02-16T10:52:44.000Z</time>
      </trkpt>
      <trkpt lat="43.69062" lon="5.66718">
        <ele>248.39999389648</ele>
        <time>2013-02-16T10:52:53.000Z</time>
      </trkpt>
      <trkpt lat="43.69014" lon="5.66717">
        <ele>233.60000610352</ele>
        <time>2013-02-16T10:53:05.000Z</time>
      </trkpt>
      <trkpt lat="43.6896" lon="5.66714">
        <ele>231.19999694824</ele>
        <time>2013-02-16T10:53:18.000Z</time>
      </trkpt>
      <trkpt lat="43.68914" lon="5.66711">
        <ele>233.39999389648</ele>
        <time>2013-02-16T10:53:29.000Z</time>
      </trkpt>
      <trkpt lat="43.68901" lon="5.66707">
        <ele>234.80000305176</ele>
        <time>2013-02-16T10:53:32.000Z</time>
      </trkpt>
      <trkpt lat="43.68898" lon="5.66704">
        <ele>235</ele>
        <time>2013-02-16T10:53:33.000Z</time>
      </trkpt>
      <trkpt lat="43.68894" lon="5.66701">
        <ele>235.19999694824</ele>
        <time>2013-02-16T10:53:34.000Z</time>
      </trkpt>
      <trkpt lat="43.68888" lon="5.66693">
        <ele>235.39999389648</ele>
        <time>2013-02-16T10:53:36.000Z</time>
      </trkpt>
      <trkpt lat="43.68884" lon="5.6669">
        <ele>235.39999389648</ele>
        <time>2013-02-16T10:53:37.000Z</time>
      </trkpt>
      <trkpt lat="43.6888" lon="5.66687">
        <ele>235.60000610352</ele>
        <time>2013-02-16T10:53:38.000Z</time>
      </trkpt>
      <trkpt lat="43.68876" lon="5.66685">
        <ele>235.80000305176</ele>
        <time>2013-02-16T10:53:39.000Z</time>
      </trkpt>
      <trkpt lat="43.68871" lon="5.66683">
        <ele>236</ele>
        <time>2013-02-16T10:53:40.000Z</time>
      </trkpt>
      <trkpt lat="43.68857" lon="5.66678">
        <ele>236.60000610352</ele>
        <time>2013-02-16T10:53:43.000Z</time>
      </trkpt>
      <trkpt lat="43.68852" lon="5.66674">
        <ele>236.60000610352</ele>
        <time>2013-02-16T10:53:44.000Z</time>
      </trkpt>
      <trkpt lat="43.68825" lon="5.66652">
        <ele>236</ele>
        <time>2013-02-16T10:53:50.000Z</time>
      </trkpt>
      <trkpt lat="43.6882" lon="5.66648">
        <ele>236</ele>
        <time>2013-02-16T10:53:51.000Z</time>
      </trkpt>
      <trkpt lat="43.68762" lon="5.66609">
        <ele>235</ele>
        <time>2013-02-16T10:54:04.000Z</time>
      </trkpt>
      <trkpt lat="43.68702" lon="5.66564">
        <ele>236.19999694824</ele>
        <time>2013-02-16T10:54:18.000Z</time>
      </trkpt>
      <trkpt lat="43.68647" lon="5.6652">
        <ele>243</ele>
        <time>2013-02-16T10:54:29.000Z</time>
      </trkpt>
      <trkpt lat="43.68637" lon="5.66507">
        <ele>245.60000610352</ele>
        <time>2013-02-16T10:54:31.000Z</time>
      </trkpt>
      <trkpt lat="43.68627" lon="5.66491">
        <ele>247.39999389648</ele>
        <time>2013-02-16T10:54:33.000Z</time>
      </trkpt>
      <trkpt lat="43.68599" lon="5.6641">
        <ele>246</ele>
        <time>2013-02-16T10:54:41.000Z</time>
      </trkpt>
      <trkpt lat="43.68581" lon="5.66314">
        <ele>237.39999389648</ele>
        <time>2013-02-16T10:54:51.000Z</time>
      </trkpt>
      <trkpt lat="43.68552" lon="5.66225">
        <ele>240.80000305176</ele>
        <time>2013-02-16T10:55:03.000Z</time>
      </trkpt>
      <trkpt lat="43.68507" lon="5.66124">
        <ele>243.19999694824</ele>
        <time>2013-02-16T10:55:17.000Z</time>
      </trkpt>
      <trkpt lat="43.6848" lon="5.66023">
        <ele>249.39999389648</ele>
        <time>2013-02-16T10:55:29.000Z</time>
      </trkpt>
      <trkpt lat="43.68446" lon="5.65868">
        <ele>253.60000610352</ele>
        <time>2013-02-16T10:55:47.000Z</time>
      </trkpt>
      <trkpt lat="43.6842" lon="5.65779">
        <ele>243.19999694824</ele>
        <time>2013-02-16T10:55:58.000Z</time>
      </trkpt>
      <trkpt lat="43.68367" lon="5.65692">
        <ele>240.80000305176</ele>
        <time>2013-02-16T10:56:11.000Z</time>
      </trkpt>
      <trkpt lat="43.68289" lon="5.6562">
        <ele>232.80000305176</ele>
        <time>2013-02-16T10:56:26.000Z</time>
      </trkpt>
      <trkpt lat="43.68218" lon="5.65587">
        <ele>228.39999389648</ele>
        <time>2013-02-16T10:56:39.000Z</time>
      </trkpt>
      <trkpt lat="43.68135" lon="5.65571">
        <ele>229</ele>
        <time>2013-02-16T10:56:53.000Z</time>
      </trkpt>
      <trkpt lat="43.68058" lon="5.65555">
        <ele>232.80000305176</ele>
        <time>2013-02-16T10:57:05.000Z</time>
      </trkpt>
      <trkpt lat="43.67983" lon="5.65525">
        <ele>234.60000610352</ele>
        <time>2013-02-16T10:57:17.000Z</time>
      </trkpt>
      <trkpt lat="43.67913" lon="5.65478">
        <ele>232.19999694824</ele>
        <time>2013-02-16T10:57:29.000Z</time>
      </trkpt>
      <trkpt lat="43.67826" lon="5.65405">
        <ele>230.80000305176</ele>
        <time>2013-02-16T10:57:45.000Z</time>
      </trkpt>
      <trkpt lat="43.67742" lon="5.65335">
        <ele>229.60000610352</ele>
        <time>2013-02-16T10:58:00.000Z</time>
      </trkpt>
      <trkpt lat="43.67642" lon="5.65249">
        <ele>236.80000305176</ele>
        <time>2013-02-16T10:58:17.000Z</time>
      </trkpt>
      <trkpt lat="43.67532" lon="5.65154">
        <ele>233.19999694824</ele>
        <time>2013-02-16T10:58:34.000Z</time>
      </trkpt>
      <trkpt lat="43.67422" lon="5.65067">
        <ele>233.19999694824</ele>
        <time>2013-02-16T10:58:50.000Z</time>
      </trkpt>
      <trkpt lat="43.67291" lon="5.64987">
        <ele>228</ele>
        <time>2013-02-16T10:59:08.000Z</time>
      </trkpt>
      <trkpt lat="43.67176" lon="5.6492">
        <ele>231.60000610352</ele>
        <time>2013-02-16T10:59:24.000Z</time>
      </trkpt>
      <trkpt lat="43.67072" lon="5.64865">
        <ele>234.39999389648</ele>
        <time>2013-02-16T10:59:39.000Z</time>
      </trkpt>
      <trkpt lat="43.66974" lon="5.6484">
        <ele>234.19999694824</ele>
        <time>2013-02-16T10:59:53.000Z</time>
      </trkpt>
      <trkpt lat="43.66888" lon="5.64807">
        <ele>235</ele>
        <time>2013-02-16T11:00:07.000Z</time>
      </trkpt>
      <trkpt lat="43.66811" lon="5.64756">
        <ele>237.39999389648</ele>
        <time>2013-02-16T11:00:21.000Z</time>
      </trkpt>
      <trkpt lat="43.66744" lon="5.64689">
        <ele>240.19999694824</ele>
        <time>2013-02-16T11:00:35.000Z</time>
      </trkpt>
      <trkpt lat="43.66678" lon="5.64594">
        <ele>243.19999694824</ele>
        <time>2013-02-16T11:00:52.000Z</time>
      </trkpt>
      <trkpt lat="43.6662" lon="5.64505">
        <ele>240.80000305176</ele>
        <time>2013-02-16T11:01:07.000Z</time>
      </trkpt>
      <trkpt lat="43.66559" lon="5.64428">
        <ele>240.60000610352</ele>
        <time>2013-02-16T11:01:20.000Z</time>
      </trkpt>
      <trkpt lat="43.66478" lon="5.64351">
        <ele>243.39999389648</ele>
        <time>2013-02-16T11:01:33.000Z</time>
      </trkpt>
      <trkpt lat="43.66392" lon="5.64258">
        <ele>240.80000305176</ele>
        <time>2013-02-16T11:01:46.000Z</time>
      </trkpt>
      <trkpt lat="43.66302" lon="5.64145">
        <ele>241.19999694824</ele>
        <time>2013-02-16T11:02:01.000Z</time>
      </trkpt>
      <trkpt lat="43.6624" lon="5.64051">
        <ele>241.80000305176</ele>
        <time>2013-02-16T11:02:13.000Z</time>
      </trkpt>
      <trkpt lat="43.66178" lon="5.63922">
        <ele>239.60000610352</ele>
        <time>2013-02-16T11:02:28.000Z</time>
      </trkpt>
      <trkpt lat="43.66108" lon="5.63779">
        <ele>242.80000305176</ele>
        <time>2013-02-16T11:02:44.000Z</time>
      </trkpt>
      <trkpt lat="43.66038" lon="5.63658">
        <ele>241.60000610352</ele>
        <time>2013-02-16T11:02:58.000Z</time>
      </trkpt>
      <trkpt lat="43.65969" lon="5.63562">
        <ele>238</ele>
        <time>2013-02-16T11:03:10.000Z</time>
      </trkpt>
      <trkpt lat="43.65949" lon="5.63531">
        <ele>235.39999389648</ele>
        <time>2013-02-16T11:03:14.000Z</time>
      </trkpt>
      <trkpt lat="43.65944" lon="5.63525">
        <ele>235</ele>
        <time>2013-02-16T11:03:15.000Z</time>
      </trkpt>
      <trkpt lat="43.65934" lon="5.63513">
        <ele>234.39999389648</ele>
        <time>2013-02-16T11:03:17.000Z</time>
      </trkpt>
      <trkpt lat="43.65929" lon="5.63507">
        <ele>233.80000305176</ele>
        <time>2013-02-16T11:03:18.000Z</time>
      </trkpt>
      <trkpt lat="43.65925" lon="5.635">
        <ele>233.19999694824</ele>
        <time>2013-02-16T11:03:19.000Z</time>
      </trkpt>
      <trkpt lat="43.65909" lon="5.63463">
        <ele>232.80000305176</ele>
        <time>2013-02-16T11:03:26.000Z</time>
      </trkpt>
      <trkpt lat="43.65904" lon="5.63455">
        <ele>233.39999389648</ele>
        <time>2013-02-16T11:03:29.000Z</time>
      </trkpt>
      <trkpt lat="43.65902" lon="5.63454">
        <ele>233.80000305176</ele>
        <time>2013-02-16T11:03:30.000Z</time>
      </trkpt>
      <trkpt lat="43.659" lon="5.63452">
        <ele>234</ele>
        <time>2013-02-16T11:03:31.000Z</time>
      </trkpt>
      <trkpt lat="43.65898" lon="5.6345">
        <ele>234.39999389648</ele>
        <time>2013-02-16T11:03:32.000Z</time>
      </trkpt>
      <trkpt lat="43.65897" lon="5.63448">
        <ele>234.60000610352</ele>
        <time>2013-02-16T11:03:33.000Z</time>
      </trkpt>
      <trkpt lat="43.65898" lon="5.63446">
        <ele>234.39999389648</ele>
        <time>2013-02-16T11:03:39.000Z</time>
      </trkpt>
      <trkpt lat="43.65898" lon="5.63446">
        <ele>234.39999389648</ele>
        <time>2013-02-16T11:03:52.000Z</time>
      </trkpt>
      <trkpt lat="43.65897" lon="5.63446">
        <ele>234.60000610352</ele>
        <time>2013-02-16T11:04:13.000Z</time>
      </trkpt>
      <trkpt lat="43.65896" lon="5.63447">
        <ele>235</ele>
        <time>2013-02-16T11:04:38.000Z</time>
      </trkpt>
      <trkpt lat="43.65897" lon="5.63446">
        <ele>234.60000610352</ele>
        <time>2013-02-16T11:04:54.000Z</time>
      </trkpt>
      <trkpt lat="43.65897" lon="5.63441">
        <ele>234.39999389648</ele>
        <time>2013-02-16T11:05:06.000Z</time>
      </trkpt>
      <trkpt lat="43.65897" lon="5.63439">
        <ele>234.39999389648</ele>
        <time>2013-02-16T11:05:07.000Z</time>
      </trkpt>
      <trkpt lat="43.65897" lon="5.63437">
        <ele>234.39999389648</ele>
        <time>2013-02-16T11:05:08.000Z</time>
      </trkpt>
      <trkpt lat="43.65897" lon="5.63434">
        <ele>234.39999389648</ele>
        <time>2013-02-16T11:05:09.000Z</time>
      </trkpt>
      <trkpt lat="43.65896" lon="5.63432">
        <ele>234.39999389648</ele>
        <time>2013-02-16T11:05:10.000Z</time>
      </trkpt>
      <trkpt lat="43.65895" lon="5.6343">
        <ele>234.80000305176</ele>
        <time>2013-02-16T11:05:11.000Z</time>
      </trkpt>
      <trkpt lat="43.65893" lon="5.63429">
        <ele>235.19999694824</ele>
        <time>2013-02-16T11:05:12.000Z</time>
      </trkpt>
      <trkpt lat="43.65892" lon="5.63429">
        <ele>235.60000610352</ele>
        <time>2013-02-16T11:05:13.000Z</time>
      </trkpt>
      <trkpt lat="43.65891" lon="5.6343">
        <ele>235.80000305176</ele>
        <time>2013-02-16T11:05:14.000Z</time>
      </trkpt>
      <trkpt lat="43.6589" lon="5.63431">
        <ele>236</ele>
        <time>2013-02-16T11:05:15.000Z</time>
      </trkpt>
      <trkpt lat="43.6589" lon="5.63433">
        <ele>236</ele>
        <time>2013-02-16T11:05:16.000Z</time>
      </trkpt>
      <trkpt lat="43.6589" lon="5.63436">
        <ele>236</ele>
        <time>2013-02-16T11:05:17.000Z</time>
      </trkpt>
      <trkpt lat="43.65891" lon="5.63438">
        <ele>236</ele>
        <time>2013-02-16T11:05:18.000Z</time>
      </trkpt>
      <trkpt lat="43.65891" lon="5.6344">
        <ele>236</ele>
        <time>2013-02-16T11:05:19.000Z</time>
      </trkpt>
      <trkpt lat="43.65891" lon="5.63443">
        <ele>235.80000305176</ele>
        <time>2013-02-16T11:05:20.000Z</time>
      </trkpt>
      <trkpt lat="43.65891" lon="5.63446">
        <ele>235.80000305176</ele>
        <time>2013-02-16T11:05:21.000Z</time>
      </trkpt>
      <trkpt lat="43.65891" lon="5.63449">
        <ele>236</ele>
        <time>2013-02-16T11:05:22.000Z</time>
      </trkpt>
      <trkpt lat="43.6589" lon="5.63452">
        <ele>236.19999694824</ele>
        <time>2013-02-16T11:05:23.000Z</time>
      </trkpt>
      <trkpt lat="43.6589" lon="5.63455">
        <ele>236.39999389648</ele>
        <time>2013-02-16T11:05:24.000Z</time>
      </trkpt>
      <trkpt lat="43.65885" lon="5.63467">
        <ele>237.19999694824</ele>
        <time>2013-02-16T11:05:31.000Z</time>
      </trkpt>
      <trkpt lat="43.65884" lon="5.63478">
        <ele>237.39999389648</ele>
        <time>2013-02-16T11:05:40.000Z</time>
      </trkpt>
      <trkpt lat="43.65876" lon="5.6349">
        <ele>238.60000610352</ele>
        <time>2013-02-16T11:05:50.000Z</time>
      </trkpt>
      <trkpt lat="43.65877" lon="5.63492">
        <ele>238.19999694824</ele>
        <time>2013-02-16T11:06:00.000Z</time>
      </trkpt>
      <trkpt lat="43.65877" lon="5.63492">
        <ele>238.19999694824</ele>
        <time>2013-02-16T11:06:03.000Z</time>
      </trkpt>
      <trkpt lat="43.65875" lon="5.63495">
        <ele>238.60000610352</ele>
        <time>2013-02-16T11:06:06.000Z</time>
      </trkpt>
      <trkpt lat="43.65863" lon="5.63495">
        <ele>240</ele>
        <time>2013-02-16T11:06:18.000Z</time>
      </trkpt>
      <trkpt lat="43.65859" lon="5.63496">
        <ele>240.39999389648</ele>
        <time>2013-02-16T11:06:23.000Z</time>
      </trkpt>
      <trkpt lat="43.65857" lon="5.63496">
        <ele>240.60000610352</ele>
        <time>2013-02-16T11:06:25.000Z</time>
      </trkpt>
      <trkpt lat="43.65837" lon="5.63493">
        <ele>243.19999694824</ele>
        <time>2013-02-16T11:06:35.000Z</time>
      </trkpt>
      <trkpt lat="43.65816" lon="5.6349">
        <ele>246.39999389648</ele>
        <time>2013-02-16T11:06:45.000Z</time>
      </trkpt>
      <trkpt lat="43.65804" lon="5.63487">
        <ele>248.60000610352</ele>
        <time>2013-02-16T11:06:51.000Z</time>
      </trkpt>
      <trkpt lat="43.65771" lon="5.63479">
        <ele>255.60000610352</ele>
        <time>2013-02-16T11:07:03.000Z</time>
      </trkpt>
      <trkpt lat="43.65749" lon="5.63474">
        <ele>260.60000610352</ele>
        <time>2013-02-16T11:07:11.000Z</time>
      </trkpt>
      <trkpt lat="43.65722" lon="5.63492">
        <ele>257.20001220703</ele>
        <time>2013-02-16T11:07:20.000Z</time>
      </trkpt>
      <trkpt lat="43.65708" lon="5.63492">
        <ele>258.39999389648</ele>
        <time>2013-02-16T11:07:25.000Z</time>
      </trkpt>
      <trkpt lat="43.65686" lon="5.63488">
        <ele>262</ele>
        <time>2013-02-16T11:07:35.000Z</time>
      </trkpt>
      <trkpt lat="43.65674" lon="5.63487">
        <ele>263.39999389648</ele>
        <time>2013-02-16T11:07:45.000Z</time>
      </trkpt>
      <trkpt lat="43.65671" lon="5.63487">
        <ele>263.60000610352</ele>
        <time>2013-02-16T11:07:52.000Z</time>
      </trkpt>
      <trkpt lat="43.65665" lon="5.6348">
        <ele>266.79998779297</ele>
        <time>2013-02-16T11:08:00.000Z</time>
      </trkpt>
      <trkpt lat="43.65662" lon="5.63479">
        <ele>267.60000610352</ele>
        <time>2013-02-16T11:08:05.000Z</time>
      </trkpt>
      <trkpt lat="43.65653" lon="5.63476">
        <ele>269</ele>
        <time>2013-02-16T11:08:17.000Z</time>
      </trkpt>
      <trkpt lat="43.65644" lon="5.63476">
        <ele>269.39999389648</ele>
        <time>2013-02-16T11:08:28.000Z</time>
      </trkpt>
      <trkpt lat="43.6563" lon="5.63474">
        <ele>270.60000610352</ele>
        <time>2013-02-16T11:08:41.000Z</time>
      </trkpt>
      <trkpt lat="43.65623" lon="5.63477">
        <ele>270</ele>
        <time>2013-02-16T11:08:49.000Z</time>
      </trkpt>
      <trkpt lat="43.65608" lon="5.63474">
        <ele>271.39999389648</ele>
        <time>2013-02-16T11:08:59.000Z</time>
      </trkpt>
      <trkpt lat="43.65599" lon="5.63473">
        <ele>272.20001220703</ele>
        <time>2013-02-16T11:09:08.000Z</time>
      </trkpt>
      <trkpt lat="43.65588" lon="5.63472">
        <ele>273</ele>
        <time>2013-02-16T11:09:18.000Z</time>
      </trkpt>
      <trkpt lat="43.65583" lon="5.63471">
        <ele>273.60000610352</ele>
        <time>2013-02-16T11:09:29.000Z</time>
      </trkpt>
      <trkpt lat="43.65573" lon="5.63469">
        <ele>275.79998779297</ele>
        <time>2013-02-16T11:09:39.000Z</time>
      </trkpt>
      <trkpt lat="43.65567" lon="5.63468">
        <ele>276.39999389648</ele>
        <time>2013-02-16T11:09:43.000Z</time>
      </trkpt>
      <trkpt lat="43.6556" lon="5.63466">
        <ele>278</ele>
        <time>2013-02-16T11:09:48.000Z</time>
      </trkpt>
      <trkpt lat="43.65553" lon="5.63465">
        <ele>279.20001220703</ele>
        <time>2013-02-16T11:09:58.000Z</time>
      </trkpt>
      <trkpt lat="43.65547" lon="5.63465">
        <ele>279.60000610352</ele>
        <time>2013-02-16T11:10:07.000Z</time>
      </trkpt>
      <trkpt lat="43.65543" lon="5.63463">
        <ele>280.79998779297</ele>
        <time>2013-02-16T11:10:16.000Z</time>
      </trkpt>
      <trkpt lat="43.65537" lon="5.63461">
        <ele>282.20001220703</ele>
        <time>2013-02-16T11:10:25.000Z</time>
      </trkpt>
      <trkpt lat="43.6553" lon="5.63458">
        <ele>284</ele>
        <time>2013-02-16T11:10:34.000Z</time>
      </trkpt>
      <trkpt lat="43.65523" lon="5.63459">
        <ele>284.20001220703</ele>
        <time>2013-02-16T11:10:43.000Z</time>
      </trkpt>
      <trkpt lat="43.65517" lon="5.63462">
        <ele>283.79998779297</ele>
        <time>2013-02-16T11:10:53.000Z</time>
      </trkpt>
      <trkpt lat="43.6551" lon="5.63463">
        <ele>284</ele>
        <time>2013-02-16T11:11:01.000Z</time>
      </trkpt>
      <trkpt lat="43.65504" lon="5.63466">
        <ele>283.79998779297</ele>
        <time>2013-02-16T11:11:09.000Z</time>
      </trkpt>
      <trkpt lat="43.65503" lon="5.63467">
        <ele>283.60000610352</ele>
        <time>2013-02-16T11:11:11.000Z</time>
      </trkpt>
      <trkpt lat="43.65491" lon="5.6348">
        <ele>281.20001220703</ele>
        <time>2013-02-16T11:11:22.000Z</time>
      </trkpt>
      <trkpt lat="43.6549" lon="5.6348">
        <ele>281</ele>
        <time>2013-02-16T11:11:23.000Z</time>
      </trkpt>
      <trkpt lat="43.65481" lon="5.63487">
        <ele>281</ele>
        <time>2013-02-16T11:11:31.000Z</time>
      </trkpt>
      <trkpt lat="43.65474" lon="5.63494">
        <ele>280.39999389648</ele>
        <time>2013-02-16T11:11:39.000Z</time>
      </trkpt>
      <trkpt lat="43.65466" lon="5.63495">
        <ele>282</ele>
        <time>2013-02-16T11:11:49.000Z</time>
      </trkpt>
      <trkpt lat="43.65457" lon="5.63499">
        <ele>283.39999389648</ele>
        <time>2013-02-16T11:12:01.000Z</time>
      </trkpt>
      <trkpt lat="43.65452" lon="5.63504">
        <ele>284.39999389648</ele>
        <time>2013-02-16T11:12:09.000Z</time>
      </trkpt>
      <trkpt lat="43.65441" lon="5.63511">
        <ele>286.79998779297</ele>
        <time>2013-02-16T11:12:16.000Z</time>
      </trkpt>
      <trkpt lat="43.65433" lon="5.6352">
        <ele>288.20001220703</ele>
        <time>2013-02-16T11:12:24.000Z</time>
      </trkpt>
      <trkpt lat="43.65426" lon="5.63526">
        <ele>289.39999389648</ele>
        <time>2013-02-16T11:12:33.000Z</time>
      </trkpt>
      <trkpt lat="43.65417" lon="5.63533">
        <ele>290.60000610352</ele>
        <time>2013-02-16T11:12:43.000Z</time>
      </trkpt>
      <trkpt lat="43.6541" lon="5.63533">
        <ele>291.79998779297</ele>
        <time>2013-02-16T11:12:52.000Z</time>
      </trkpt>
      <trkpt lat="43.65408" lon="5.6353">
        <ele>292.60000610352</ele>
        <time>2013-02-16T11:12:55.000Z</time>
      </trkpt>
      <trkpt lat="43.654" lon="5.63526">
        <ele>294</ele>
        <time>2013-02-16T11:13:02.000Z</time>
      </trkpt>
      <trkpt lat="43.65391" lon="5.63533">
        <ele>295</ele>
        <time>2013-02-16T11:13:11.000Z</time>
      </trkpt>
      <trkpt lat="43.65385" lon="5.63544">
        <ele>295.60000610352</ele>
        <time>2013-02-16T11:13:23.000Z</time>
      </trkpt>
      <trkpt lat="43.65377" lon="5.63554">
        <ele>296.20001220703</ele>
        <time>2013-02-16T11:13:32.000Z</time>
      </trkpt>
      <trkpt lat="43.65376" lon="5.63555">
        <ele>296.39999389648</ele>
        <time>2013-02-16T11:13:33.000Z</time>
      </trkpt>
      <trkpt lat="43.65366" lon="5.63567">
        <ele>297.60000610352</ele>
        <time>2013-02-16T11:13:43.000Z</time>
      </trkpt>
      <trkpt lat="43.65364" lon="5.63568">
        <ele>298.20001220703</ele>
        <time>2013-02-16T11:13:46.000Z</time>
      </trkpt>
      <trkpt lat="43.65346" lon="5.63578">
        <ele>301.39999389648</ele>
        <time>2013-02-16T11:13:58.000Z</time>
      </trkpt>
      <trkpt lat="43.65336" lon="5.63581">
        <ele>303.39999389648</ele>
        <time>2013-02-16T11:14:03.000Z</time>
      </trkpt>
      <trkpt lat="43.65325" lon="5.6358">
        <ele>305</ele>
        <time>2013-02-16T11:14:09.000Z</time>
      </trkpt>
      <trkpt lat="43.65313" lon="5.63572">
        <ele>307</ele>
        <time>2013-02-16T11:14:18.000Z</time>
      </trkpt>
      <trkpt lat="43.65311" lon="5.6357">
        <ele>307.20001220703</ele>
        <time>2013-02-16T11:14:20.000Z</time>
      </trkpt>
      <trkpt lat="43.65298" lon="5.63565">
        <ele>309</ele>
        <time>2013-02-16T11:14:30.000Z</time>
      </trkpt>
      <trkpt lat="43.65282" lon="5.63568">
        <ele>311</ele>
        <time>2013-02-16T11:14:39.000Z</time>
      </trkpt>
      <trkpt lat="43.65267" lon="5.6357">
        <ele>313</ele>
        <time>2013-02-16T11:14:49.000Z</time>
      </trkpt>
      <trkpt lat="43.65266" lon="5.6357">
        <ele>313</ele>
        <time>2013-02-16T11:14:50.000Z</time>
      </trkpt>
      <trkpt lat="43.65259" lon="5.63572">
        <ele>314</ele>
        <time>2013-02-16T11:14:59.000Z</time>
      </trkpt>
      <trkpt lat="43.65258" lon="5.63573">
        <ele>314.20001220703</ele>
        <time>2013-02-16T11:15:15.000Z</time>
      </trkpt>
      <trkpt lat="43.65258" lon="5.63571">
        <ele>314</ele>
        <time>2013-02-16T11:15:36.000Z</time>
      </trkpt>
      <trkpt lat="43.65255" lon="5.63569">
        <ele>314.60000610352</ele>
        <time>2013-02-16T11:15:53.000Z</time>
      </trkpt>
      <trkpt lat="43.65254" lon="5.63569">
        <ele>314.79998779297</ele>
        <time>2013-02-16T11:16:12.000Z</time>
      </trkpt>
      <trkpt lat="43.65254" lon="5.63571">
        <ele>314.60000610352</ele>
        <time>2013-02-16T11:16:30.000Z</time>
      </trkpt>
      <trkpt lat="43.65256" lon="5.6357">
        <ele>314.39999389648</ele>
        <time>2013-02-16T11:17:00.000Z</time>
      </trkpt>
      <trkpt lat="43.65256" lon="5.6357">
        <ele>314.39999389648</ele>
        <time>2013-02-16T11:17:09.000Z</time>
      </trkpt>
      <trkpt lat="43.65242" lon="5.6357">
        <ele>314.79998779297</ele>
        <time>2013-02-16T11:17:19.000Z</time>
      </trkpt>
      <trkpt lat="43.65228" lon="5.63571">
        <ele>314</ele>
        <time>2013-02-16T11:17:25.000Z</time>
      </trkpt>
      <trkpt lat="43.65223" lon="5.63569">
        <ele>313.79998779297</ele>
        <time>2013-02-16T11:17:28.000Z</time>
      </trkpt>
      <trkpt lat="43.65199" lon="5.63561">
        <ele>312.79998779297</ele>
        <time>2013-02-16T11:17:35.000Z</time>
      </trkpt>
      <trkpt lat="43.65195" lon="5.63559">
        <ele>312.79998779297</ele>
        <time>2013-02-16T11:17:36.000Z</time>
      </trkpt>
      <trkpt lat="43.6519" lon="5.63556">
        <ele>312.60000610352</ele>
        <time>2013-02-16T11:17:37.000Z</time>
      </trkpt>
      <trkpt lat="43.65135" lon="5.63515">
        <ele>310.60000610352</ele>
        <time>2013-02-16T11:17:48.000Z</time>
      </trkpt>
      <trkpt lat="43.65125" lon="5.63503">
        <ele>309.79998779297</ele>
        <time>2013-02-16T11:17:50.000Z</time>
      </trkpt>
      <trkpt lat="43.65078" lon="5.63455">
        <ele>307</ele>
        <time>2013-02-16T11:18:00.000Z</time>
      </trkpt>
      <trkpt lat="43.65069" lon="5.63448">
        <ele>307</ele>
        <time>2013-02-16T11:18:02.000Z</time>
      </trkpt>
      <trkpt lat="43.65064" lon="5.63446">
        <ele>307</ele>
        <time>2013-02-16T11:18:03.000Z</time>
      </trkpt>
      <trkpt lat="43.65039" lon="5.6344">
        <ele>306.39999389648</ele>
        <time>2013-02-16T11:18:09.000Z</time>
      </trkpt>
      <trkpt lat="43.65035" lon="5.63441">
        <ele>306.20001220703</ele>
        <time>2013-02-16T11:18:10.000Z</time>
      </trkpt>
      <trkpt lat="43.65007" lon="5.63441">
        <ele>305.20001220703</ele>
        <time>2013-02-16T11:18:19.000Z</time>
      </trkpt>
      <trkpt lat="43.64983" lon="5.63438">
        <ele>304.79998779297</ele>
        <time>2013-02-16T11:18:27.000Z</time>
      </trkpt>
      <trkpt lat="43.64979" lon="5.63436">
        <ele>304.60000610352</ele>
        <time>2013-02-16T11:18:28.000Z</time>
      </trkpt>
      <trkpt lat="43.64975" lon="5.63433">
        <ele>304.60000610352</ele>
        <time>2013-02-16T11:18:29.000Z</time>
      </trkpt>
      <trkpt lat="43.64972" lon="5.6343">
        <ele>304.20001220703</ele>
        <time>2013-02-16T11:18:30.000Z</time>
      </trkpt>
      <trkpt lat="43.64969" lon="5.63426">
        <ele>304</ele>
        <time>2013-02-16T11:18:31.000Z</time>
      </trkpt>
      <trkpt lat="43.64966" lon="5.63422">
        <ele>303.79998779297</ele>
        <time>2013-02-16T11:18:32.000Z</time>
      </trkpt>
      <trkpt lat="43.64962" lon="5.63418">
        <ele>303.60000610352</ele>
        <time>2013-02-16T11:18:33.000Z</time>
      </trkpt>
      <trkpt lat="43.64958" lon="5.63415">
        <ele>303.39999389648</ele>
        <time>2013-02-16T11:18:34.000Z</time>
      </trkpt>
      <trkpt lat="43.64954" lon="5.63413">
        <ele>303.20001220703</ele>
        <time>2013-02-16T11:18:35.000Z</time>
      </trkpt>
      <trkpt lat="43.64949" lon="5.63411">
        <ele>303.20001220703</ele>
        <time>2013-02-16T11:18:36.000Z</time>
      </trkpt>
      <trkpt lat="43.64945" lon="5.63408">
        <ele>303</ele>
        <time>2013-02-16T11:18:37.000Z</time>
      </trkpt>
      <trkpt lat="43.6494" lon="5.63405">
        <ele>302.79998779297</ele>
        <time>2013-02-16T11:18:38.000Z</time>
      </trkpt>
      <trkpt lat="43.64936" lon="5.634">
        <ele>302.39999389648</ele>
        <time>2013-02-16T11:18:39.000Z</time>
      </trkpt>
      <trkpt lat="43.64934" lon="5.63394">
        <ele>302</ele>
        <time>2013-02-16T11:18:40.000Z</time>
      </trkpt>
      <trkpt lat="43.64932" lon="5.63388">
        <ele>301.79998779297</ele>
        <time>2013-02-16T11:18:41.000Z</time>
      </trkpt>
      <trkpt lat="43.6493" lon="5.63381">
        <ele>301.39999389648</ele>
        <time>2013-02-16T11:18:42.000Z</time>
      </trkpt>
      <trkpt lat="43.64928" lon="5.63374">
        <ele>300.79998779297</ele>
        <time>2013-02-16T11:18:43.000Z</time>
      </trkpt>
      <trkpt lat="43.64925" lon="5.63367">
        <ele>300.39999389648</ele>
        <time>2013-02-16T11:18:44.000Z</time>
      </trkpt>
      <trkpt lat="43.64921" lon="5.63361">
        <ele>299.79998779297</ele>
        <time>2013-02-16T11:18:45.000Z</time>
      </trkpt>
      <trkpt lat="43.64917" lon="5.63355">
        <ele>299.20001220703</ele>
        <time>2013-02-16T11:18:46.000Z</time>
      </trkpt>
      <trkpt lat="43.64913" lon="5.63349">
        <ele>298.79998779297</ele>
        <time>2013-02-16T11:18:47.000Z</time>
      </trkpt>
      <trkpt lat="43.64908" lon="5.63344">
        <ele>298.60000610352</ele>
        <time>2013-02-16T11:18:48.000Z</time>
      </trkpt>
      <trkpt lat="43.64903" lon="5.6334">
        <ele>298.39999389648</ele>
        <time>2013-02-16T11:18:49.000Z</time>
      </trkpt>
      <trkpt lat="43.64899" lon="5.63338">
        <ele>298.39999389648</ele>
        <time>2013-02-16T11:18:50.000Z</time>
      </trkpt>
      <trkpt lat="43.64897" lon="5.63336">
        <ele>298.20001220703</ele>
        <time>2013-02-16T11:18:51.000Z</time>
      </trkpt>
      <trkpt lat="43.64895" lon="5.63335">
        <ele>298.20001220703</ele>
        <time>2013-02-16T11:18:52.000Z</time>
      </trkpt>
      <trkpt lat="43.64897" lon="5.63337">
        <ele>298.39999389648</ele>
        <time>2013-02-16T11:18:55.000Z</time>
      </trkpt>
      <trkpt lat="43.64896" lon="5.63341">
        <ele>298.60000610352</ele>
        <time>2013-02-16T11:19:01.000Z</time>
      </trkpt>
      <trkpt lat="43.6489" lon="5.63342">
        <ele>298.60000610352</ele>
        <time>2013-02-16T11:19:05.000Z</time>
      </trkpt>
      <trkpt lat="43.64888" lon="5.63341">
        <ele>298.60000610352</ele>
        <time>2013-02-16T11:19:06.000Z</time>
      </trkpt>
      <trkpt lat="43.64887" lon="5.63339">
        <ele>298.60000610352</ele>
        <time>2013-02-16T11:19:07.000Z</time>
      </trkpt>
      <trkpt lat="43.64884" lon="5.63336">
        <ele>298.39999389648</ele>
        <time>2013-02-16T11:19:08.000Z</time>
      </trkpt>
      <trkpt lat="43.64865" lon="5.63334">
        <ele>298.60000610352</ele>
        <time>2013-02-16T11:19:16.000Z</time>
      </trkpt>
      <trkpt lat="43.64847" lon="5.6333">
        <ele>298.60000610352</ele>
        <time>2013-02-16T11:19:24.000Z</time>
      </trkpt>
      <trkpt lat="43.64826" lon="5.63341">
        <ele>299.39999389648</ele>
        <time>2013-02-16T11:19:35.000Z</time>
      </trkpt>
      <trkpt lat="43.64808" lon="5.63355">
        <ele>300.60000610352</ele>
        <time>2013-02-16T11:19:46.000Z</time>
      </trkpt>
      <trkpt lat="43.6479" lon="5.63366">
        <ele>302</ele>
        <time>2013-02-16T11:19:58.000Z</time>
      </trkpt>
      <trkpt lat="43.64772" lon="5.6338">
        <ele>304</ele>
        <time>2013-02-16T11:20:10.000Z</time>
      </trkpt>
      <trkpt lat="43.64758" lon="5.63399">
        <ele>306</ele>
        <time>2013-02-16T11:20:21.000Z</time>
      </trkpt>
      <trkpt lat="43.6474" lon="5.63417">
        <ele>308.60000610352</ele>
        <time>2013-02-16T11:20:32.000Z</time>
      </trkpt>
      <trkpt lat="43.64725" lon="5.63431">
        <ele>309.79998779297</ele>
        <time>2013-02-16T11:20:42.000Z</time>
      </trkpt>
      <trkpt lat="43.64709" lon="5.63444">
        <ele>311.39999389648</ele>
        <time>2013-02-16T11:20:53.000Z</time>
      </trkpt>
      <trkpt lat="43.64702" lon="5.63452">
        <ele>312.39999389648</ele>
        <time>2013-02-16T11:20:58.000Z</time>
      </trkpt>
      <trkpt lat="43.64701" lon="5.63453">
        <ele>312.60000610352</ele>
        <time>2013-02-16T11:20:59.000Z</time>
      </trkpt>
      <trkpt lat="43.64693" lon="5.63459">
        <ele>313.79998779297</ele>
        <time>2013-02-16T11:21:04.000Z</time>
      </trkpt>
      <trkpt lat="43.64692" lon="5.6346">
        <ele>314</ele>
        <time>2013-02-16T11:21:05.000Z</time>
      </trkpt>
      <trkpt lat="43.6469" lon="5.63461">
        <ele>314.20001220703</ele>
        <time>2013-02-16T11:21:06.000Z</time>
      </trkpt>
      <trkpt lat="43.64672" lon="5.63477">
        <ele>317.60000610352</ele>
        <time>2013-02-16T11:21:18.000Z</time>
      </trkpt>
      <trkpt lat="43.64647" lon="5.63495">
        <ele>319.79998779297</ele>
        <time>2013-02-16T11:21:32.000Z</time>
      </trkpt>
      <trkpt lat="43.64614" lon="5.63512">
        <ele>321.20001220703</ele>
        <time>2013-02-16T11:21:43.000Z</time>
      </trkpt>
      <trkpt lat="43.6459" lon="5.63524">
        <ele>322.79998779297</ele>
        <time>2013-02-16T11:21:49.000Z</time>
      </trkpt>
      <trkpt lat="43.64586" lon="5.63525">
        <ele>323</ele>
        <time>2013-02-16T11:21:50.000Z</time>
      </trkpt>
      <trkpt lat="43.64581" lon="5.63525">
        <ele>323</ele>
        <time>2013-02-16T11:21:51.000Z</time>
      </trkpt>
      <trkpt lat="43.64578" lon="5.63523">
        <ele>323.20001220703</ele>
        <time>2013-02-16T11:21:52.000Z</time>
      </trkpt>
      <trkpt lat="43.64574" lon="5.63521">
        <ele>323</ele>
        <time>2013-02-16T11:21:53.000Z</time>
      </trkpt>
      <trkpt lat="43.64534" lon="5.63506">
        <ele>323.79998779297</ele>
        <time>2013-02-16T11:22:05.000Z</time>
      </trkpt>
      <trkpt lat="43.64499" lon="5.63495">
        <ele>324.39999389648</ele>
        <time>2013-02-16T11:22:15.000Z</time>
      </trkpt>
      <trkpt lat="43.64466" lon="5.6347">
        <ele>324.79998779297</ele>
        <time>2013-02-16T11:22:26.000Z</time>
      </trkpt>
      <trkpt lat="43.64436" lon="5.63482">
        <ele>327.79998779297</ele>
        <time>2013-02-16T11:22:34.000Z</time>
      </trkpt>
      <trkpt lat="43.64398" lon="5.63479">
        <ele>330.39999389648</ele>
        <time>2013-02-16T11:22:44.000Z</time>
      </trkpt>
      <trkpt lat="43.64388" lon="5.63467">
        <ele>330.79998779297</ele>
        <time>2013-02-16T11:22:49.000Z</time>
      </trkpt>
      <trkpt lat="43.64367" lon="5.63461">
        <ele>332.20001220703</ele>
        <time>2013-02-16T11:22:58.000Z</time>
      </trkpt>
      <trkpt lat="43.64343" lon="5.63458">
        <ele>334</ele>
        <time>2013-02-16T11:23:08.000Z</time>
      </trkpt>
      <trkpt lat="43.64318" lon="5.63445">
        <ele>335</ele>
        <time>2013-02-16T11:23:19.000Z</time>
      </trkpt>
      <trkpt lat="43.64297" lon="5.63436">
        <ele>335.39999389648</ele>
        <time>2013-02-16T11:23:30.000Z</time>
      </trkpt>
      <trkpt lat="43.64278" lon="5.63426">
        <ele>335.39999389648</ele>
        <time>2013-02-16T11:23:40.000Z</time>
      </trkpt>
      <trkpt lat="43.64255" lon="5.63421">
        <ele>336</ele>
        <time>2013-02-16T11:23:49.000Z</time>
      </trkpt>
      <trkpt lat="43.64226" lon="5.63414">
        <ele>334.60000610352</ele>
        <time>2013-02-16T11:23:59.000Z</time>
      </trkpt>
      <trkpt lat="43.64192" lon="5.63406">
        <ele>332.60000610352</ele>
        <time>2013-02-16T11:24:12.000Z</time>
      </trkpt>
      <trkpt lat="43.64188" lon="5.63407">
        <ele>332.39999389648</ele>
        <time>2013-02-16T11:24:14.000Z</time>
      </trkpt>
      <trkpt lat="43.64186" lon="5.63409">
        <ele>332.39999389648</ele>
        <time>2013-02-16T11:24:15.000Z</time>
      </trkpt>
      <trkpt lat="43.64184" lon="5.63412">
        <ele>332.39999389648</ele>
        <time>2013-02-16T11:24:16.000Z</time>
      </trkpt>
      <trkpt lat="43.64178" lon="5.63418">
        <ele>332.39999389648</ele>
        <time>2013-02-16T11:24:19.000Z</time>
      </trkpt>
      <trkpt lat="43.64176" lon="5.63419">
        <ele>332.39999389648</ele>
        <time>2013-02-16T11:24:20.000Z</time>
      </trkpt>
      <trkpt lat="43.64174" lon="5.6342">
        <ele>332.20001220703</ele>
        <time>2013-02-16T11:24:21.000Z</time>
      </trkpt>
      <trkpt lat="43.64172" lon="5.63422">
        <ele>332.20001220703</ele>
        <time>2013-02-16T11:24:22.000Z</time>
      </trkpt>
      <trkpt lat="43.6417" lon="5.63425">
        <ele>332.20001220703</ele>
        <time>2013-02-16T11:24:23.000Z</time>
      </trkpt>
      <trkpt lat="43.64169" lon="5.63427">
        <ele>332.20001220703</ele>
        <time>2013-02-16T11:24:24.000Z</time>
      </trkpt>
      <trkpt lat="43.64168" lon="5.63431">
        <ele>332.20001220703</ele>
        <time>2013-02-16T11:24:25.000Z</time>
      </trkpt>
      <trkpt lat="43.64167" lon="5.63434">
        <ele>332.20001220703</ele>
        <time>2013-02-16T11:24:26.000Z</time>
      </trkpt>
      <trkpt lat="43.64166" lon="5.63437">
        <ele>331.79998779297</ele>
        <time>2013-02-16T11:24:27.000Z</time>
      </trkpt>
      <trkpt lat="43.64164" lon="5.63441">
        <ele>331.39999389648</ele>
        <time>2013-02-16T11:24:28.000Z</time>
      </trkpt>
      <trkpt lat="43.64163" lon="5.63444">
        <ele>331</ele>
        <time>2013-02-16T11:24:29.000Z</time>
      </trkpt>
      <trkpt lat="43.64161" lon="5.63447">
        <ele>330.60000610352</ele>
        <time>2013-02-16T11:24:30.000Z</time>
      </trkpt>
      <trkpt lat="43.6416" lon="5.6345">
        <ele>330.20001220703</ele>
        <time>2013-02-16T11:24:31.000Z</time>
      </trkpt>
      <trkpt lat="43.6416" lon="5.63453">
        <ele>330.20001220703</ele>
        <time>2013-02-16T11:24:32.000Z</time>
      </trkpt>
      <trkpt lat="43.64159" lon="5.63456">
        <ele>330</ele>
        <time>2013-02-16T11:24:33.000Z</time>
      </trkpt>
      <trkpt lat="43.64157" lon="5.63458">
        <ele>329.60000610352</ele>
        <time>2013-02-16T11:24:34.000Z</time>
      </trkpt>
      <trkpt lat="43.64156" lon="5.63461">
        <ele>329</ele>
        <time>2013-02-16T11:24:35.000Z</time>
      </trkpt>
      <trkpt lat="43.64154" lon="5.63464">
        <ele>328.79998779297</ele>
        <time>2013-02-16T11:24:36.000Z</time>
      </trkpt>
      <trkpt lat="43.64153" lon="5.63467">
        <ele>328.60000610352</ele>
        <time>2013-02-16T11:24:37.000Z</time>
      </trkpt>
      <trkpt lat="43.64152" lon="5.6347">
        <ele>328.20001220703</ele>
        <time>2013-02-16T11:24:38.000Z</time>
      </trkpt>
      <trkpt lat="43.64151" lon="5.63473">
        <ele>328</ele>
        <time>2013-02-16T11:24:39.000Z</time>
      </trkpt>
      <trkpt lat="43.6415" lon="5.63476">
        <ele>328</ele>
        <time>2013-02-16T11:24:40.000Z</time>
      </trkpt>
      <trkpt lat="43.64143" lon="5.63504">
        <ele>327.20001220703</ele>
        <time>2013-02-16T11:24:47.000Z</time>
      </trkpt>
      <trkpt lat="43.64142" lon="5.63509">
        <ele>327.39999389648</ele>
        <time>2013-02-16T11:24:48.000Z</time>
      </trkpt>
      <trkpt lat="43.64138" lon="5.6353">
        <ele>328.39999389648</ele>
        <time>2013-02-16T11:24:52.000Z</time>
      </trkpt>
      <trkpt lat="43.6413" lon="5.63554">
        <ele>329.20001220703</ele>
        <time>2013-02-16T11:24:57.000Z</time>
      </trkpt>
      <trkpt lat="43.64127" lon="5.63559">
        <ele>329.20001220703</ele>
        <time>2013-02-16T11:25:03.000Z</time>
      </trkpt>
      <trkpt lat="43.64116" lon="5.6356">
        <ele>327.39999389648</ele>
        <time>2013-02-16T11:25:08.000Z</time>
      </trkpt>
      <trkpt lat="43.64111" lon="5.63559">
        <ele>326.39999389648</ele>
        <time>2013-02-16T11:25:10.000Z</time>
      </trkpt>
      <trkpt lat="43.64103" lon="5.63554">
        <ele>324.39999389648</ele>
        <time>2013-02-16T11:25:13.000Z</time>
      </trkpt>
      <trkpt lat="43.641" lon="5.6355">
        <ele>323.39999389648</ele>
        <time>2013-02-16T11:25:14.000Z</time>
      </trkpt>
      <trkpt lat="43.64094" lon="5.63544">
        <ele>321.39999389648</ele>
        <time>2013-02-16T11:25:16.000Z</time>
      </trkpt>
      <trkpt lat="43.64092" lon="5.63541">
        <ele>320.60000610352</ele>
        <time>2013-02-16T11:25:17.000Z</time>
      </trkpt>
      <trkpt lat="43.64091" lon="5.63538">
        <ele>319.79998779297</ele>
        <time>2013-02-16T11:25:18.000Z</time>
      </trkpt>
      <trkpt lat="43.64089" lon="5.63534">
        <ele>318.79998779297</ele>
        <time>2013-02-16T11:25:19.000Z</time>
      </trkpt>
      <trkpt lat="43.64073" lon="5.63512">
        <ele>313.39999389648</ele>
        <time>2013-02-16T11:25:25.000Z</time>
      </trkpt>
      <trkpt lat="43.6407" lon="5.63509">
        <ele>312.60000610352</ele>
        <time>2013-02-16T11:25:26.000Z</time>
      </trkpt>
      <trkpt lat="43.64068" lon="5.63507">
        <ele>312.20001220703</ele>
        <time>2013-02-16T11:25:27.000Z</time>
      </trkpt>
      <trkpt lat="43.64065" lon="5.63504">
        <ele>311.60000610352</ele>
        <time>2013-02-16T11:25:28.000Z</time>
      </trkpt>
      <trkpt lat="43.64062" lon="5.63501">
        <ele>311</ele>
        <time>2013-02-16T11:25:29.000Z</time>
      </trkpt>
      <trkpt lat="43.6406" lon="5.63497">
        <ele>310.39999389648</ele>
        <time>2013-02-16T11:25:30.000Z</time>
      </trkpt>
      <trkpt lat="43.64058" lon="5.63493">
        <ele>309.60000610352</ele>
        <time>2013-02-16T11:25:31.000Z</time>
      </trkpt>
      <trkpt lat="43.64055" lon="5.63489">
        <ele>308.79998779297</ele>
        <time>2013-02-16T11:25:32.000Z</time>
      </trkpt>
      <trkpt lat="43.64052" lon="5.63486">
        <ele>308</ele>
        <time>2013-02-16T11:25:33.000Z</time>
      </trkpt>
      <trkpt lat="43.64051" lon="5.63482">
        <ele>307.20001220703</ele>
        <time>2013-02-16T11:25:34.000Z</time>
      </trkpt>
      <trkpt lat="43.64049" lon="5.63477">
        <ele>306.20001220703</ele>
        <time>2013-02-16T11:25:35.000Z</time>
      </trkpt>
      <trkpt lat="43.64047" lon="5.63472">
        <ele>305.20001220703</ele>
        <time>2013-02-16T11:25:36.000Z</time>
      </trkpt>
      <trkpt lat="43.64045" lon="5.63468">
        <ele>304.20001220703</ele>
        <time>2013-02-16T11:25:37.000Z</time>
      </trkpt>
      <trkpt lat="43.64042" lon="5.63465">
        <ele>303.39999389648</ele>
        <time>2013-02-16T11:25:38.000Z</time>
      </trkpt>
      <trkpt lat="43.64039" lon="5.63462">
        <ele>302.60000610352</ele>
        <time>2013-02-16T11:25:39.000Z</time>
      </trkpt>
      <trkpt lat="43.64037" lon="5.63458">
        <ele>301.60000610352</ele>
        <time>2013-02-16T11:25:40.000Z</time>
      </trkpt>
      <trkpt lat="43.64034" lon="5.63455">
        <ele>300.60000610352</ele>
        <time>2013-02-16T11:25:41.000Z</time>
      </trkpt>
      <trkpt lat="43.64032" lon="5.63452">
        <ele>299.79998779297</ele>
        <time>2013-02-16T11:25:42.000Z</time>
      </trkpt>
      <trkpt lat="43.6403" lon="5.63448">
        <ele>298.79998779297</ele>
        <time>2013-02-16T11:25:43.000Z</time>
      </trkpt>
      <trkpt lat="43.64028" lon="5.63446">
        <ele>297.79998779297</ele>
        <time>2013-02-16T11:25:44.000Z</time>
      </trkpt>
      <trkpt lat="43.64025" lon="5.63443">
        <ele>297</ele>
        <time>2013-02-16T11:25:45.000Z</time>
      </trkpt>
      <trkpt lat="43.64023" lon="5.6344">
        <ele>296.20001220703</ele>
        <time>2013-02-16T11:25:46.000Z</time>
      </trkpt>
      <trkpt lat="43.6402" lon="5.63438">
        <ele>295.20001220703</ele>
        <time>2013-02-16T11:25:47.000Z</time>
      </trkpt>
      <trkpt lat="43.64017" lon="5.63434">
        <ele>294</ele>
        <time>2013-02-16T11:25:48.000Z</time>
      </trkpt>
      <trkpt lat="43.64008" lon="5.63423">
        <ele>289.79998779297</ele>
        <time>2013-02-16T11:25:52.000Z</time>
      </trkpt>
      <trkpt lat="43.64" lon="5.63417">
        <ele>287</ele>
        <time>2013-02-16T11:25:54.000Z</time>
      </trkpt>
      <trkpt lat="43.63988" lon="5.63414">
        <ele>285</ele>
        <time>2013-02-16T11:25:57.000Z</time>
      </trkpt>
      <trkpt lat="43.63985" lon="5.63413">
        <ele>284.39999389648</ele>
        <time>2013-02-16T11:26:03.000Z</time>
      </trkpt>
      <trkpt lat="43.63982" lon="5.63413">
        <ele>284</ele>
        <time>2013-02-16T11:26:20.000Z</time>
      </trkpt>
      <trkpt lat="43.63982" lon="5.63413">
        <ele>284</ele>
        <time>2013-02-16T11:26:24.000Z</time>
      </trkpt>
      <trkpt lat="43.63982" lon="5.63413">
        <ele>284</ele>
        <time>2013-02-16T11:26:25.000Z</time>
      </trkpt>
      <trkpt lat="43.63983" lon="5.63413">
        <ele>284.20001220703</ele>
        <time>2013-02-16T11:26:41.000Z</time>
      </trkpt>
      <trkpt lat="43.63979" lon="5.63414">
        <ele>283.60000610352</ele>
        <time>2013-02-16T11:27:00.000Z</time>
      </trkpt>
      <trkpt lat="43.63976" lon="5.63413">
        <ele>283.20001220703</ele>
        <time>2013-02-16T11:27:09.000Z</time>
      </trkpt>
      <trkpt lat="43.63952" lon="5.63421">
        <ele>280.60000610352</ele>
        <time>2013-02-16T11:27:15.000Z</time>
      </trkpt>
      <trkpt lat="43.63929" lon="5.63427">
        <ele>277.39999389648</ele>
        <time>2013-02-16T11:27:18.000Z</time>
      </trkpt>
      <trkpt lat="43.63907" lon="5.63432">
        <ele>274.39999389648</ele>
        <time>2013-02-16T11:27:21.000Z</time>
      </trkpt>
      <trkpt lat="43.63901" lon="5.63434">
        <ele>273.79998779297</ele>
        <time>2013-02-16T11:27:22.000Z</time>
      </trkpt>
      <trkpt lat="43.63898" lon="5.63438">
        <ele>273.39999389648</ele>
        <time>2013-02-16T11:27:23.000Z</time>
      </trkpt>
      <trkpt lat="43.63896" lon="5.63444">
        <ele>273.39999389648</ele>
        <time>2013-02-16T11:27:24.000Z</time>
      </trkpt>
      <trkpt lat="43.63895" lon="5.63453">
        <ele>273.79998779297</ele>
        <time>2013-02-16T11:27:25.000Z</time>
      </trkpt>
      <trkpt lat="43.63893" lon="5.63462">
        <ele>274</ele>
        <time>2013-02-16T11:27:26.000Z</time>
      </trkpt>
      <trkpt lat="43.6389" lon="5.63472">
        <ele>274</ele>
        <time>2013-02-16T11:27:27.000Z</time>
      </trkpt>
      <trkpt lat="43.63887" lon="5.6348">
        <ele>274</ele>
        <time>2013-02-16T11:27:28.000Z</time>
      </trkpt>
      <trkpt lat="43.63882" lon="5.63488">
        <ele>273.79998779297</ele>
        <time>2013-02-16T11:27:29.000Z</time>
      </trkpt>
      <trkpt lat="43.63876" lon="5.63493">
        <ele>273.20001220703</ele>
        <time>2013-02-16T11:27:30.000Z</time>
      </trkpt>
      <trkpt lat="43.6387" lon="5.63495">
        <ele>272.39999389648</ele>
        <time>2013-02-16T11:27:31.000Z</time>
      </trkpt>
      <trkpt lat="43.63863" lon="5.63493">
        <ele>271.60000610352</ele>
        <time>2013-02-16T11:27:32.000Z</time>
      </trkpt>
      <trkpt lat="43.63856" lon="5.63494">
        <ele>270.60000610352</ele>
        <time>2013-02-16T11:27:33.000Z</time>
      </trkpt>
      <trkpt lat="43.63849" lon="5.63496">
        <ele>269.79998779297</ele>
        <time>2013-02-16T11:27:34.000Z</time>
      </trkpt>
      <trkpt lat="43.63842" lon="5.63498">
        <ele>269</ele>
        <time>2013-02-16T11:27:35.000Z</time>
      </trkpt>
      <trkpt lat="43.63822" lon="5.63504">
        <ele>268.20001220703</ele>
        <time>2013-02-16T11:27:38.000Z</time>
      </trkpt>
      <trkpt lat="43.63788" lon="5.63503">
        <ele>268.60000610352</ele>
        <time>2013-02-16T11:27:44.000Z</time>
      </trkpt>
      <trkpt lat="43.63773" lon="5.63502">
        <ele>268.79998779297</ele>
        <time>2013-02-16T11:27:47.000Z</time>
      </trkpt>
      <trkpt lat="43.63769" lon="5.63503">
        <ele>268.79998779297</ele>
        <time>2013-02-16T11:27:48.000Z</time>
      </trkpt>
      <trkpt lat="43.63767" lon="5.63502">
        <ele>268.79998779297</ele>
        <time>2013-02-16T11:27:49.000Z</time>
      </trkpt>
      <trkpt lat="43.63765" lon="5.63501">
        <ele>268.79998779297</ele>
        <time>2013-02-16T11:27:50.000Z</time>
      </trkpt>
      <trkpt lat="43.63764" lon="5.63501">
        <ele>268.79998779297</ele>
        <time>2013-02-16T11:27:51.000Z</time>
      </trkpt>
      <trkpt lat="43.63763" lon="5.63501">
        <ele>268.79998779297</ele>
        <time>2013-02-16T11:27:52.000Z</time>
      </trkpt>
      <trkpt lat="43.63762" lon="5.63501">
        <ele>268.79998779297</ele>
        <time>2013-02-16T11:27:53.000Z</time>
      </trkpt>
      <trkpt lat="43.63743" lon="5.63512">
        <ele>269.20001220703</ele>
        <time>2013-02-16T11:28:01.000Z</time>
      </trkpt>
      <trkpt lat="43.63724" lon="5.63519">
        <ele>267.79998779297</ele>
        <time>2013-02-16T11:28:09.000Z</time>
      </trkpt>
      <trkpt lat="43.63705" lon="5.63522">
        <ele>266.39999389648</ele>
        <time>2013-02-16T11:28:14.000Z</time>
      </trkpt>
      <trkpt lat="43.63702" lon="5.6352">
        <ele>265.79998779297</ele>
        <time>2013-02-16T11:28:15.000Z</time>
      </trkpt>
      <trkpt lat="43.63699" lon="5.63516">
        <ele>265.20001220703</ele>
        <time>2013-02-16T11:28:16.000Z</time>
      </trkpt>
      <trkpt lat="43.63698" lon="5.63512">
        <ele>264.79998779297</ele>
        <time>2013-02-16T11:28:17.000Z</time>
      </trkpt>
      <trkpt lat="43.63694" lon="5.63505">
        <ele>263.79998779297</ele>
        <time>2013-02-16T11:28:21.000Z</time>
      </trkpt>
      <trkpt lat="43.63689" lon="5.63504">
        <ele>263.39999389648</ele>
        <time>2013-02-16T11:28:25.000Z</time>
      </trkpt>
      <trkpt lat="43.63687" lon="5.63505">
        <ele>263.20001220703</ele>
        <time>2013-02-16T11:28:26.000Z</time>
      </trkpt>
      <trkpt lat="43.63685" lon="5.63508">
        <ele>263.20001220703</ele>
        <time>2013-02-16T11:28:27.000Z</time>
      </trkpt>
      <trkpt lat="43.63684" lon="5.63511">
        <ele>263.39999389648</ele>
        <time>2013-02-16T11:28:28.000Z</time>
      </trkpt>
      <trkpt lat="43.63683" lon="5.63515">
        <ele>263.60000610352</ele>
        <time>2013-02-16T11:28:29.000Z</time>
      </trkpt>
      <trkpt lat="43.63673" lon="5.63557">
        <ele>265.60000610352</ele>
        <time>2013-02-16T11:28:38.000Z</time>
      </trkpt>
      <trkpt lat="43.63664" lon="5.63599">
        <ele>267.60000610352</ele>
        <time>2013-02-16T11:28:47.000Z</time>
      </trkpt>
      <trkpt lat="43.63659" lon="5.63638">
        <ele>269.39999389648</ele>
        <time>2013-02-16T11:28:56.000Z</time>
      </trkpt>
      <trkpt lat="43.63663" lon="5.63685">
        <ele>270.39999389648</ele>
        <time>2013-02-16T11:29:06.000Z</time>
      </trkpt>
      <trkpt lat="43.6367" lon="5.63729">
        <ele>268.60000610352</ele>
        <time>2013-02-16T11:29:15.000Z</time>
      </trkpt>
      <trkpt lat="43.63684" lon="5.63759">
        <ele>269.39999389648</ele>
        <time>2013-02-16T11:29:24.000Z</time>
      </trkpt>
      <trkpt lat="43.63692" lon="5.63777">
        <ele>270.60000610352</ele>
        <time>2013-02-16T11:29:34.000Z</time>
      </trkpt>
    </trkseg>
  </trk>
</gpx>